<?xml version="1.0" encoding="UTF-8" standalone="no" ?>
<gpx xmlns="http://www.topografix.com/GPX/1/1" xmlns:xsi="http://www.w3.org/2001/XMLSchema-instance" xsi:schemaLocation="http://www.topografix.com/GPX/1/1 http://www.topografix.com/GPX/1/1/gpx.xsd" version="1.1" creator="VisuGPX - https://www.visugpx.com">
  <metadata>
    <name>222222222222222222222222222222222</name>
    <desc><![CDATA[22222222222222222222222222222222222222222222222222222222222222222222222222]]></desc>
  </metadata>
  <trk>
    <name><![CDATA[Strava-1526274403 by Strava to GPX]]></name>
    <trkseg>
      <trkpt lat="44.59699" lon="0.87403">
        <ele>178</ele>
        <time>2018-04-29T16:10:50Z</time>
      </trkpt>
      <trkpt lat="44.59699" lon="0.87403">
        <ele>178</ele>
        <time>2018-04-29T16:10:51Z</time>
      </trkpt>
      <trkpt lat="44.59701" lon="0.874">
        <ele>179.2</ele>
        <time>2018-04-29T16:10:55Z</time>
      </trkpt>
      <trkpt lat="44.59701" lon="0.87398">
        <ele>179.8</ele>
        <time>2018-04-29T16:10:56Z</time>
      </trkpt>
      <trkpt lat="44.59702" lon="0.87395">
        <ele>180.4</ele>
        <time>2018-04-29T16:10:57Z</time>
      </trkpt>
      <trkpt lat="44.59703" lon="0.87393">
        <ele>180.4</ele>
        <time>2018-04-29T16:10:58Z</time>
      </trkpt>
      <trkpt lat="44.59703" lon="0.87391">
        <ele>180.4</ele>
        <time>2018-04-29T16:11:00Z</time>
      </trkpt>
      <trkpt lat="44.59705" lon="0.87385">
        <ele>180.4</ele>
        <time>2018-04-29T16:11:05Z</time>
      </trkpt>
      <trkpt lat="44.59707" lon="0.87383">
        <ele>180.4</ele>
        <time>2018-04-29T16:11:06Z</time>
      </trkpt>
      <trkpt lat="44.59708" lon="0.87379">
        <ele>180.4</ele>
        <time>2018-04-29T16:11:08Z</time>
      </trkpt>
      <trkpt lat="44.59706" lon="0.87378">
        <ele>180.4</ele>
        <time>2018-04-29T16:11:10Z</time>
      </trkpt>
      <trkpt lat="44.59706" lon="0.8738">
        <ele>180.4</ele>
        <time>2018-04-29T16:11:12Z</time>
      </trkpt>
      <trkpt lat="44.59707" lon="0.87384">
        <ele>180.4</ele>
        <time>2018-04-29T16:11:14Z</time>
      </trkpt>
      <trkpt lat="44.59705" lon="0.87386">
        <ele>180.4</ele>
        <time>2018-04-29T16:11:18Z</time>
      </trkpt>
      <trkpt lat="44.59704" lon="0.87387">
        <ele>180.4</ele>
        <time>2018-04-29T16:11:19Z</time>
      </trkpt>
      <trkpt lat="44.59703" lon="0.87388">
        <ele>180.4</ele>
        <time>2018-04-29T16:11:20Z</time>
      </trkpt>
      <trkpt lat="44.59705" lon="0.87392">
        <ele>180.4</ele>
        <time>2018-04-29T16:11:25Z</time>
      </trkpt>
      <trkpt lat="44.59706" lon="0.87391">
        <ele>180.4</ele>
        <time>2018-04-29T16:11:28Z</time>
      </trkpt>
      <trkpt lat="44.59707" lon="0.87387">
        <ele>180.4</ele>
        <time>2018-04-29T16:11:41Z</time>
      </trkpt>
      <trkpt lat="44.59707" lon="0.87385">
        <ele>180.4</ele>
        <time>2018-04-29T16:11:42Z</time>
      </trkpt>
      <trkpt lat="44.5971" lon="0.87375">
        <ele>180.4</ele>
        <time>2018-04-29T16:11:48Z</time>
      </trkpt>
      <trkpt lat="44.59711" lon="0.87373">
        <ele>180.4</ele>
        <time>2018-04-29T16:11:50Z</time>
      </trkpt>
      <trkpt lat="44.59717" lon="0.87372">
        <ele>180.4</ele>
        <time>2018-04-29T16:11:53Z</time>
      </trkpt>
      <trkpt lat="44.59732" lon="0.87367">
        <ele>180.4</ele>
        <time>2018-04-29T16:11:56Z</time>
      </trkpt>
      <trkpt lat="44.59745" lon="0.87357">
        <ele>179.4</ele>
        <time>2018-04-29T16:11:58Z</time>
      </trkpt>
      <trkpt lat="44.59753" lon="0.8735">
        <ele>177.4</ele>
        <time>2018-04-29T16:11:59Z</time>
      </trkpt>
      <trkpt lat="44.59761" lon="0.87344">
        <ele>176.4</ele>
        <time>2018-04-29T16:12:00Z</time>
      </trkpt>
      <trkpt lat="44.59769" lon="0.87338">
        <ele>175.4</ele>
        <time>2018-04-29T16:12:01Z</time>
      </trkpt>
      <trkpt lat="44.59777" lon="0.87331">
        <ele>174.4</ele>
        <time>2018-04-29T16:12:02Z</time>
      </trkpt>
      <trkpt lat="44.59786" lon="0.87324">
        <ele>173.4</ele>
        <time>2018-04-29T16:12:03Z</time>
      </trkpt>
      <trkpt lat="44.59794" lon="0.87316">
        <ele>172.4</ele>
        <time>2018-04-29T16:12:04Z</time>
      </trkpt>
      <trkpt lat="44.59803" lon="0.87307">
        <ele>171.4</ele>
        <time>2018-04-29T16:12:05Z</time>
      </trkpt>
      <trkpt lat="44.59811" lon="0.87297">
        <ele>170.4</ele>
        <time>2018-04-29T16:12:06Z</time>
      </trkpt>
      <trkpt lat="44.59819" lon="0.87287">
        <ele>169.4</ele>
        <time>2018-04-29T16:12:07Z</time>
      </trkpt>
      <trkpt lat="44.59826" lon="0.87276">
        <ele>168.4</ele>
        <time>2018-04-29T16:12:08Z</time>
      </trkpt>
      <trkpt lat="44.59833" lon="0.87266">
        <ele>167.4</ele>
        <time>2018-04-29T16:12:09Z</time>
      </trkpt>
      <trkpt lat="44.59839" lon="0.87255">
        <ele>166.4</ele>
        <time>2018-04-29T16:12:10Z</time>
      </trkpt>
      <trkpt lat="44.59845" lon="0.87245">
        <ele>165.4</ele>
        <time>2018-04-29T16:12:11Z</time>
      </trkpt>
      <trkpt lat="44.59863" lon="0.87207">
        <ele>165.4</ele>
        <time>2018-04-29T16:12:15Z</time>
      </trkpt>
      <trkpt lat="44.59868" lon="0.87198">
        <ele>165.4</ele>
        <time>2018-04-29T16:12:16Z</time>
      </trkpt>
      <trkpt lat="44.59881" lon="0.87184">
        <ele>165.4</ele>
        <time>2018-04-29T16:12:18Z</time>
      </trkpt>
      <trkpt lat="44.59887" lon="0.87178">
        <ele>165.4</ele>
        <time>2018-04-29T16:12:19Z</time>
      </trkpt>
      <trkpt lat="44.59899" lon="0.87171">
        <ele>165.4</ele>
        <time>2018-04-29T16:12:21Z</time>
      </trkpt>
      <trkpt lat="44.59903" lon="0.87168">
        <ele>165.4</ele>
        <time>2018-04-29T16:12:22Z</time>
      </trkpt>
      <trkpt lat="44.59913" lon="0.87169">
        <ele>165.4</ele>
        <time>2018-04-29T16:12:24Z</time>
      </trkpt>
      <trkpt lat="44.59918" lon="0.87173">
        <ele>165.4</ele>
        <time>2018-04-29T16:12:25Z</time>
      </trkpt>
      <trkpt lat="44.59928" lon="0.87182">
        <ele>165.4</ele>
        <time>2018-04-29T16:12:27Z</time>
      </trkpt>
      <trkpt lat="44.59937" lon="0.87192">
        <ele>165.4</ele>
        <time>2018-04-29T16:12:29Z</time>
      </trkpt>
      <trkpt lat="44.59947" lon="0.87209">
        <ele>165.4</ele>
        <time>2018-04-29T16:12:31Z</time>
      </trkpt>
      <trkpt lat="44.59958" lon="0.87232">
        <ele>165.4</ele>
        <time>2018-04-29T16:12:33Z</time>
      </trkpt>
      <trkpt lat="44.5997" lon="0.87253">
        <ele>165.4</ele>
        <time>2018-04-29T16:12:35Z</time>
      </trkpt>
      <trkpt lat="44.59982" lon="0.8727">
        <ele>164.8</ele>
        <time>2018-04-29T16:12:37Z</time>
      </trkpt>
      <trkpt lat="44.59988" lon="0.87277">
        <ele>164.4</ele>
        <time>2018-04-29T16:12:38Z</time>
      </trkpt>
      <trkpt lat="44.59996" lon="0.87281">
        <ele>163.8</ele>
        <time>2018-04-29T16:12:39Z</time>
      </trkpt>
      <trkpt lat="44.60003" lon="0.87285">
        <ele>163.2</ele>
        <time>2018-04-29T16:12:40Z</time>
      </trkpt>
      <trkpt lat="44.6001" lon="0.87287">
        <ele>162.4</ele>
        <time>2018-04-29T16:12:41Z</time>
      </trkpt>
      <trkpt lat="44.60016" lon="0.87288">
        <ele>161.8</ele>
        <time>2018-04-29T16:12:42Z</time>
      </trkpt>
      <trkpt lat="44.60022" lon="0.87289">
        <ele>161</ele>
        <time>2018-04-29T16:12:43Z</time>
      </trkpt>
      <trkpt lat="44.60026" lon="0.8729">
        <ele>160.4</ele>
        <time>2018-04-29T16:12:44Z</time>
      </trkpt>
      <trkpt lat="44.60029" lon="0.87291">
        <ele>159.6</ele>
        <time>2018-04-29T16:12:45Z</time>
      </trkpt>
      <trkpt lat="44.60031" lon="0.87291">
        <ele>158.8</ele>
        <time>2018-04-29T16:12:46Z</time>
      </trkpt>
      <trkpt lat="44.60033" lon="0.87291">
        <ele>158.2</ele>
        <time>2018-04-29T16:12:47Z</time>
      </trkpt>
      <trkpt lat="44.60036" lon="0.87292">
        <ele>158.2</ele>
        <time>2018-04-29T16:12:50Z</time>
      </trkpt>
      <trkpt lat="44.60036" lon="0.8729">
        <ele>158.2</ele>
        <time>2018-04-29T16:12:57Z</time>
      </trkpt>
      <trkpt lat="44.60035" lon="0.87285">
        <ele>158.2</ele>
        <time>2018-04-29T16:12:59Z</time>
      </trkpt>
      <trkpt lat="44.60033" lon="0.8728">
        <ele>157.8</ele>
        <time>2018-04-29T16:13:00Z</time>
      </trkpt>
      <trkpt lat="44.60032" lon="0.87274">
        <ele>157.4</ele>
        <time>2018-04-29T16:13:01Z</time>
      </trkpt>
      <trkpt lat="44.60031" lon="0.87267">
        <ele>156.8</ele>
        <time>2018-04-29T16:13:02Z</time>
      </trkpt>
      <trkpt lat="44.60031" lon="0.87259">
        <ele>156.4</ele>
        <time>2018-04-29T16:13:03Z</time>
      </trkpt>
      <trkpt lat="44.6003" lon="0.87251">
        <ele>156</ele>
        <time>2018-04-29T16:13:04Z</time>
      </trkpt>
      <trkpt lat="44.60032" lon="0.87216">
        <ele>156</ele>
        <time>2018-04-29T16:13:08Z</time>
      </trkpt>
      <trkpt lat="44.60032" lon="0.87208">
        <ele>156</ele>
        <time>2018-04-29T16:13:09Z</time>
      </trkpt>
      <trkpt lat="44.60034" lon="0.87184">
        <ele>155.6</ele>
        <time>2018-04-29T16:13:12Z</time>
      </trkpt>
      <trkpt lat="44.60034" lon="0.87176">
        <ele>154.8</ele>
        <time>2018-04-29T16:13:13Z</time>
      </trkpt>
      <trkpt lat="44.60034" lon="0.87167">
        <ele>154.4</ele>
        <time>2018-04-29T16:13:14Z</time>
      </trkpt>
      <trkpt lat="44.60033" lon="0.87159">
        <ele>154</ele>
        <time>2018-04-29T16:13:15Z</time>
      </trkpt>
      <trkpt lat="44.60032" lon="0.87143">
        <ele>154</ele>
        <time>2018-04-29T16:13:17Z</time>
      </trkpt>
      <trkpt lat="44.60026" lon="0.87114">
        <ele>154</ele>
        <time>2018-04-29T16:13:22Z</time>
      </trkpt>
      <trkpt lat="44.60026" lon="0.87104">
        <ele>154</ele>
        <time>2018-04-29T16:13:24Z</time>
      </trkpt>
      <trkpt lat="44.60031" lon="0.871">
        <ele>154</ele>
        <time>2018-04-29T16:13:26Z</time>
      </trkpt>
      <trkpt lat="44.60038" lon="0.87098">
        <ele>154.4</ele>
        <time>2018-04-29T16:13:29Z</time>
      </trkpt>
      <trkpt lat="44.6004" lon="0.87097">
        <ele>155</ele>
        <time>2018-04-29T16:13:30Z</time>
      </trkpt>
      <trkpt lat="44.60043" lon="0.87096">
        <ele>155.4</ele>
        <time>2018-04-29T16:13:31Z</time>
      </trkpt>
      <trkpt lat="44.60047" lon="0.87095">
        <ele>155.8</ele>
        <time>2018-04-29T16:13:32Z</time>
      </trkpt>
      <trkpt lat="44.6005" lon="0.87094">
        <ele>156.2</ele>
        <time>2018-04-29T16:13:33Z</time>
      </trkpt>
      <trkpt lat="44.60057" lon="0.87091">
        <ele>156.6</ele>
        <time>2018-04-29T16:13:35Z</time>
      </trkpt>
      <trkpt lat="44.6006" lon="0.8709">
        <ele>157</ele>
        <time>2018-04-29T16:13:36Z</time>
      </trkpt>
      <trkpt lat="44.60064" lon="0.87089">
        <ele>157.6</ele>
        <time>2018-04-29T16:13:37Z</time>
      </trkpt>
      <trkpt lat="44.60067" lon="0.87088">
        <ele>158.4</ele>
        <time>2018-04-29T16:13:38Z</time>
      </trkpt>
      <trkpt lat="44.60071" lon="0.87086">
        <ele>158.8</ele>
        <time>2018-04-29T16:13:39Z</time>
      </trkpt>
      <trkpt lat="44.60075" lon="0.87085">
        <ele>159.4</ele>
        <time>2018-04-29T16:13:40Z</time>
      </trkpt>
      <trkpt lat="44.6008" lon="0.87084">
        <ele>159.8</ele>
        <time>2018-04-29T16:13:41Z</time>
      </trkpt>
      <trkpt lat="44.60084" lon="0.87082">
        <ele>160.2</ele>
        <time>2018-04-29T16:13:42Z</time>
      </trkpt>
      <trkpt lat="44.60088" lon="0.87081">
        <ele>160.8</ele>
        <time>2018-04-29T16:13:43Z</time>
      </trkpt>
      <trkpt lat="44.60093" lon="0.8708">
        <ele>161.4</ele>
        <time>2018-04-29T16:13:44Z</time>
      </trkpt>
      <trkpt lat="44.60097" lon="0.87078">
        <ele>161.8</ele>
        <time>2018-04-29T16:13:45Z</time>
      </trkpt>
      <trkpt lat="44.601" lon="0.87077">
        <ele>162.4</ele>
        <time>2018-04-29T16:13:46Z</time>
      </trkpt>
      <trkpt lat="44.60103" lon="0.87076">
        <ele>162.8</ele>
        <time>2018-04-29T16:13:47Z</time>
      </trkpt>
      <trkpt lat="44.60106" lon="0.87075">
        <ele>163.4</ele>
        <time>2018-04-29T16:13:48Z</time>
      </trkpt>
      <trkpt lat="44.60109" lon="0.87074">
        <ele>164</ele>
        <time>2018-04-29T16:13:49Z</time>
      </trkpt>
      <trkpt lat="44.60112" lon="0.87074">
        <ele>164.4</ele>
        <time>2018-04-29T16:13:50Z</time>
      </trkpt>
      <trkpt lat="44.60115" lon="0.87074">
        <ele>165</ele>
        <time>2018-04-29T16:13:51Z</time>
      </trkpt>
      <trkpt lat="44.60122" lon="0.87072">
        <ele>165</ele>
        <time>2018-04-29T16:13:54Z</time>
      </trkpt>
      <trkpt lat="44.60124" lon="0.87071">
        <ele>165.4</ele>
        <time>2018-04-29T16:13:55Z</time>
      </trkpt>
      <trkpt lat="44.60126" lon="0.87071">
        <ele>165.8</ele>
        <time>2018-04-29T16:13:56Z</time>
      </trkpt>
      <trkpt lat="44.60128" lon="0.8707">
        <ele>166.2</ele>
        <time>2018-04-29T16:13:57Z</time>
      </trkpt>
      <trkpt lat="44.60131" lon="0.87069">
        <ele>166.6</ele>
        <time>2018-04-29T16:13:58Z</time>
      </trkpt>
      <trkpt lat="44.60133" lon="0.87068">
        <ele>167</ele>
        <time>2018-04-29T16:13:59Z</time>
      </trkpt>
      <trkpt lat="44.60136" lon="0.87067">
        <ele>167</ele>
        <time>2018-04-29T16:14:00Z</time>
      </trkpt>
      <trkpt lat="44.60146" lon="0.87062">
        <ele>167</ele>
        <time>2018-04-29T16:14:04Z</time>
      </trkpt>
      <trkpt lat="44.6016" lon="0.8705">
        <ele>167</ele>
        <time>2018-04-29T16:14:10Z</time>
      </trkpt>
      <trkpt lat="44.60175" lon="0.87036">
        <ele>167</ele>
        <time>2018-04-29T16:14:16Z</time>
      </trkpt>
      <trkpt lat="44.60192" lon="0.87021">
        <ele>167</ele>
        <time>2018-04-29T16:14:21Z</time>
      </trkpt>
      <trkpt lat="44.60208" lon="0.87016">
        <ele>167.4</ele>
        <time>2018-04-29T16:14:25Z</time>
      </trkpt>
      <trkpt lat="44.60212" lon="0.87014">
        <ele>167.8</ele>
        <time>2018-04-29T16:14:26Z</time>
      </trkpt>
      <trkpt lat="44.60216" lon="0.87013">
        <ele>168.8</ele>
        <time>2018-04-29T16:14:27Z</time>
      </trkpt>
      <trkpt lat="44.60219" lon="0.87012">
        <ele>169.2</ele>
        <time>2018-04-29T16:14:28Z</time>
      </trkpt>
      <trkpt lat="44.60234" lon="0.87004">
        <ele>169.2</ele>
        <time>2018-04-29T16:14:32Z</time>
      </trkpt>
      <trkpt lat="44.60246" lon="0.86999">
        <ele>169.6</ele>
        <time>2018-04-29T16:14:35Z</time>
      </trkpt>
      <trkpt lat="44.60251" lon="0.86998">
        <ele>170</ele>
        <time>2018-04-29T16:14:36Z</time>
      </trkpt>
      <trkpt lat="44.60255" lon="0.86997">
        <ele>170.4</ele>
        <time>2018-04-29T16:14:37Z</time>
      </trkpt>
      <trkpt lat="44.60259" lon="0.86995">
        <ele>171</ele>
        <time>2018-04-29T16:14:38Z</time>
      </trkpt>
      <trkpt lat="44.60263" lon="0.86993">
        <ele>171.4</ele>
        <time>2018-04-29T16:14:39Z</time>
      </trkpt>
      <trkpt lat="44.6027" lon="0.86989">
        <ele>171.8</ele>
        <time>2018-04-29T16:14:41Z</time>
      </trkpt>
      <trkpt lat="44.60273" lon="0.86987">
        <ele>172.2</ele>
        <time>2018-04-29T16:14:42Z</time>
      </trkpt>
      <trkpt lat="44.60276" lon="0.86984">
        <ele>172.6</ele>
        <time>2018-04-29T16:14:43Z</time>
      </trkpt>
      <trkpt lat="44.60278" lon="0.86982">
        <ele>173.2</ele>
        <time>2018-04-29T16:14:44Z</time>
      </trkpt>
      <trkpt lat="44.60281" lon="0.86981">
        <ele>173.6</ele>
        <time>2018-04-29T16:14:45Z</time>
      </trkpt>
      <trkpt lat="44.60291" lon="0.86975">
        <ele>174</ele>
        <time>2018-04-29T16:14:49Z</time>
      </trkpt>
      <trkpt lat="44.60293" lon="0.86974">
        <ele>174.4</ele>
        <time>2018-04-29T16:14:50Z</time>
      </trkpt>
      <trkpt lat="44.60295" lon="0.86973">
        <ele>174.8</ele>
        <time>2018-04-29T16:14:51Z</time>
      </trkpt>
      <trkpt lat="44.60296" lon="0.86973">
        <ele>175.6</ele>
        <time>2018-04-29T16:14:52Z</time>
      </trkpt>
      <trkpt lat="44.60298" lon="0.86972">
        <ele>175.6</ele>
        <time>2018-04-29T16:14:53Z</time>
      </trkpt>
      <trkpt lat="44.60305" lon="0.86969">
        <ele>175.6</ele>
        <time>2018-04-29T16:14:58Z</time>
      </trkpt>
      <trkpt lat="44.60306" lon="0.86967">
        <ele>175.6</ele>
        <time>2018-04-29T16:14:59Z</time>
      </trkpt>
      <trkpt lat="44.60313" lon="0.86961">
        <ele>175.6</ele>
        <time>2018-04-29T16:15:03Z</time>
      </trkpt>
      <trkpt lat="44.60317" lon="0.86959">
        <ele>175.6</ele>
        <time>2018-04-29T16:15:07Z</time>
      </trkpt>
      <trkpt lat="44.60318" lon="0.86957">
        <ele>175.6</ele>
        <time>2018-04-29T16:15:09Z</time>
      </trkpt>
      <trkpt lat="44.60319" lon="0.86956">
        <ele>175.6</ele>
        <time>2018-04-29T16:15:11Z</time>
      </trkpt>
      <trkpt lat="44.6032" lon="0.86953">
        <ele>175.6</ele>
        <time>2018-04-29T16:15:13Z</time>
      </trkpt>
      <trkpt lat="44.6032" lon="0.86949">
        <ele>175.6</ele>
        <time>2018-04-29T16:15:15Z</time>
      </trkpt>
      <trkpt lat="44.60321" lon="0.86948">
        <ele>175.6</ele>
        <time>2018-04-29T16:15:16Z</time>
      </trkpt>
      <trkpt lat="44.60321" lon="0.86941">
        <ele>175.6</ele>
        <time>2018-04-29T16:15:19Z</time>
      </trkpt>
      <trkpt lat="44.60321" lon="0.86937">
        <ele>175.6</ele>
        <time>2018-04-29T16:15:21Z</time>
      </trkpt>
      <trkpt lat="44.60322" lon="0.86934">
        <ele>175.6</ele>
        <time>2018-04-29T16:15:22Z</time>
      </trkpt>
      <trkpt lat="44.60321" lon="0.86932">
        <ele>175.6</ele>
        <time>2018-04-29T16:15:23Z</time>
      </trkpt>
      <trkpt lat="44.60321" lon="0.86929">
        <ele>175.6</ele>
        <time>2018-04-29T16:15:25Z</time>
      </trkpt>
      <trkpt lat="44.60321" lon="0.86927">
        <ele>175.6</ele>
        <time>2018-04-29T16:15:26Z</time>
      </trkpt>
      <trkpt lat="44.60321" lon="0.86924">
        <ele>175.2</ele>
        <time>2018-04-29T16:15:27Z</time>
      </trkpt>
      <trkpt lat="44.60321" lon="0.86922">
        <ele>174.8</ele>
        <time>2018-04-29T16:15:28Z</time>
      </trkpt>
      <trkpt lat="44.60322" lon="0.8692">
        <ele>174.4</ele>
        <time>2018-04-29T16:15:29Z</time>
      </trkpt>
      <trkpt lat="44.60322" lon="0.86916">
        <ele>174</ele>
        <time>2018-04-29T16:15:30Z</time>
      </trkpt>
      <trkpt lat="44.60322" lon="0.86912">
        <ele>173.6</ele>
        <time>2018-04-29T16:15:31Z</time>
      </trkpt>
      <trkpt lat="44.60321" lon="0.86895">
        <ele>173.6</ele>
        <time>2018-04-29T16:15:35Z</time>
      </trkpt>
      <trkpt lat="44.60321" lon="0.8689">
        <ele>173.2</ele>
        <time>2018-04-29T16:15:36Z</time>
      </trkpt>
      <trkpt lat="44.6032" lon="0.86885">
        <ele>172.6</ele>
        <time>2018-04-29T16:15:37Z</time>
      </trkpt>
      <trkpt lat="44.6032" lon="0.86879">
        <ele>172.2</ele>
        <time>2018-04-29T16:15:38Z</time>
      </trkpt>
      <trkpt lat="44.60321" lon="0.86874">
        <ele>171.8</ele>
        <time>2018-04-29T16:15:39Z</time>
      </trkpt>
      <trkpt lat="44.60321" lon="0.86867">
        <ele>171.4</ele>
        <time>2018-04-29T16:15:40Z</time>
      </trkpt>
      <trkpt lat="44.60321" lon="0.8686">
        <ele>170.4</ele>
        <time>2018-04-29T16:15:41Z</time>
      </trkpt>
      <trkpt lat="44.60321" lon="0.86852">
        <ele>169.8</ele>
        <time>2018-04-29T16:15:42Z</time>
      </trkpt>
      <trkpt lat="44.60321" lon="0.86843">
        <ele>169.4</ele>
        <time>2018-04-29T16:15:43Z</time>
      </trkpt>
      <trkpt lat="44.6032" lon="0.86834">
        <ele>168.8</ele>
        <time>2018-04-29T16:15:44Z</time>
      </trkpt>
      <trkpt lat="44.60319" lon="0.86825">
        <ele>168.2</ele>
        <time>2018-04-29T16:15:45Z</time>
      </trkpt>
      <trkpt lat="44.60318" lon="0.86814">
        <ele>167.6</ele>
        <time>2018-04-29T16:15:46Z</time>
      </trkpt>
      <trkpt lat="44.60318" lon="0.86803">
        <ele>167</ele>
        <time>2018-04-29T16:15:47Z</time>
      </trkpt>
      <trkpt lat="44.60318" lon="0.86791">
        <ele>166.4</ele>
        <time>2018-04-29T16:15:48Z</time>
      </trkpt>
      <trkpt lat="44.60317" lon="0.86778">
        <ele>165.8</ele>
        <time>2018-04-29T16:15:49Z</time>
      </trkpt>
      <trkpt lat="44.60315" lon="0.86764">
        <ele>165</ele>
        <time>2018-04-29T16:15:50Z</time>
      </trkpt>
      <trkpt lat="44.60314" lon="0.86752">
        <ele>164.2</ele>
        <time>2018-04-29T16:15:51Z</time>
      </trkpt>
      <trkpt lat="44.60314" lon="0.8674">
        <ele>163.4</ele>
        <time>2018-04-29T16:15:52Z</time>
      </trkpt>
      <trkpt lat="44.60316" lon="0.8673">
        <ele>162.6</ele>
        <time>2018-04-29T16:15:53Z</time>
      </trkpt>
      <trkpt lat="44.60317" lon="0.86722">
        <ele>161.8</ele>
        <time>2018-04-29T16:15:54Z</time>
      </trkpt>
      <trkpt lat="44.60319" lon="0.86716">
        <ele>161.8</ele>
        <time>2018-04-29T16:15:55Z</time>
      </trkpt>
      <trkpt lat="44.6032" lon="0.86711">
        <ele>162.2</ele>
        <time>2018-04-29T16:15:56Z</time>
      </trkpt>
      <trkpt lat="44.60322" lon="0.86706">
        <ele>162.6</ele>
        <time>2018-04-29T16:15:57Z</time>
      </trkpt>
      <trkpt lat="44.60324" lon="0.86702">
        <ele>163</ele>
        <time>2018-04-29T16:15:58Z</time>
      </trkpt>
      <trkpt lat="44.60324" lon="0.86699">
        <ele>163.6</ele>
        <time>2018-04-29T16:15:59Z</time>
      </trkpt>
      <trkpt lat="44.60324" lon="0.86697">
        <ele>164.2</ele>
        <time>2018-04-29T16:16:00Z</time>
      </trkpt>
      <trkpt lat="44.60324" lon="0.86694">
        <ele>164.8</ele>
        <time>2018-04-29T16:16:01Z</time>
      </trkpt>
      <trkpt lat="44.60324" lon="0.86692">
        <ele>165.6</ele>
        <time>2018-04-29T16:16:02Z</time>
      </trkpt>
      <trkpt lat="44.60324" lon="0.86688">
        <ele>166.2</ele>
        <time>2018-04-29T16:16:03Z</time>
      </trkpt>
      <trkpt lat="44.60325" lon="0.86683">
        <ele>166.2</ele>
        <time>2018-04-29T16:16:04Z</time>
      </trkpt>
      <trkpt lat="44.60326" lon="0.86676">
        <ele>167</ele>
        <time>2018-04-29T16:16:06Z</time>
      </trkpt>
      <trkpt lat="44.60327" lon="0.86672">
        <ele>167.4</ele>
        <time>2018-04-29T16:16:07Z</time>
      </trkpt>
      <trkpt lat="44.60327" lon="0.86668">
        <ele>167.8</ele>
        <time>2018-04-29T16:16:08Z</time>
      </trkpt>
      <trkpt lat="44.60327" lon="0.86665">
        <ele>168.2</ele>
        <time>2018-04-29T16:16:09Z</time>
      </trkpt>
      <trkpt lat="44.60327" lon="0.86645">
        <ele>168.2</ele>
        <time>2018-04-29T16:16:14Z</time>
      </trkpt>
      <trkpt lat="44.60328" lon="0.86637">
        <ele>168.2</ele>
        <time>2018-04-29T16:16:17Z</time>
      </trkpt>
      <trkpt lat="44.60329" lon="0.86634">
        <ele>168.2</ele>
        <time>2018-04-29T16:16:18Z</time>
      </trkpt>
      <trkpt lat="44.60329" lon="0.86632">
        <ele>168.2</ele>
        <time>2018-04-29T16:16:19Z</time>
      </trkpt>
      <trkpt lat="44.60332" lon="0.86615">
        <ele>168.2</ele>
        <time>2018-04-29T16:20:14Z</time>
      </trkpt>
      <trkpt lat="44.60332" lon="0.86613">
        <ele>168.2</ele>
        <time>2018-04-29T16:20:15Z</time>
      </trkpt>
      <trkpt lat="44.60329" lon="0.86604">
        <ele>168.2</ele>
        <time>2018-04-29T16:20:19Z</time>
      </trkpt>
      <trkpt lat="44.60328" lon="0.86601">
        <ele>168.2</ele>
        <time>2018-04-29T16:20:21Z</time>
      </trkpt>
      <trkpt lat="44.60328" lon="0.86588">
        <ele>168.2</ele>
        <time>2018-04-29T16:20:26Z</time>
      </trkpt>
      <trkpt lat="44.60323" lon="0.8657">
        <ele>168.2</ele>
        <time>2018-04-29T16:20:31Z</time>
      </trkpt>
      <trkpt lat="44.60314" lon="0.86551">
        <ele>168.2</ele>
        <time>2018-04-29T16:20:34Z</time>
      </trkpt>
      <trkpt lat="44.60311" lon="0.86542">
        <ele>168.2</ele>
        <time>2018-04-29T16:20:35Z</time>
      </trkpt>
      <trkpt lat="44.60303" lon="0.86529">
        <ele>168.2</ele>
        <time>2018-04-29T16:20:37Z</time>
      </trkpt>
      <trkpt lat="44.60297" lon="0.86527">
        <ele>167.6</ele>
        <time>2018-04-29T16:20:38Z</time>
      </trkpt>
      <trkpt lat="44.60291" lon="0.86525">
        <ele>167.2</ele>
        <time>2018-04-29T16:20:39Z</time>
      </trkpt>
      <trkpt lat="44.60285" lon="0.86525">
        <ele>166.8</ele>
        <time>2018-04-29T16:20:40Z</time>
      </trkpt>
      <trkpt lat="44.60279" lon="0.86523">
        <ele>166.4</ele>
        <time>2018-04-29T16:20:41Z</time>
      </trkpt>
      <trkpt lat="44.60274" lon="0.86521">
        <ele>165.8</ele>
        <time>2018-04-29T16:20:42Z</time>
      </trkpt>
      <trkpt lat="44.6027" lon="0.86519">
        <ele>165.8</ele>
        <time>2018-04-29T16:20:43Z</time>
      </trkpt>
      <trkpt lat="44.60266" lon="0.86518">
        <ele>165.8</ele>
        <time>2018-04-29T16:20:44Z</time>
      </trkpt>
      <trkpt lat="44.6026" lon="0.86513">
        <ele>165.8</ele>
        <time>2018-04-29T16:20:46Z</time>
      </trkpt>
      <trkpt lat="44.60259" lon="0.8651">
        <ele>165.8</ele>
        <time>2018-04-29T16:20:47Z</time>
      </trkpt>
      <trkpt lat="44.60258" lon="0.86503">
        <ele>165.8</ele>
        <time>2018-04-29T16:20:49Z</time>
      </trkpt>
      <trkpt lat="44.60258" lon="0.865">
        <ele>166.2</ele>
        <time>2018-04-29T16:20:50Z</time>
      </trkpt>
      <trkpt lat="44.60258" lon="0.86497">
        <ele>166.6</ele>
        <time>2018-04-29T16:20:51Z</time>
      </trkpt>
      <trkpt lat="44.60258" lon="0.86494">
        <ele>167</ele>
        <time>2018-04-29T16:20:52Z</time>
      </trkpt>
      <trkpt lat="44.60259" lon="0.86492">
        <ele>167.4</ele>
        <time>2018-04-29T16:20:53Z</time>
      </trkpt>
      <trkpt lat="44.60259" lon="0.86488">
        <ele>167.8</ele>
        <time>2018-04-29T16:20:54Z</time>
      </trkpt>
      <trkpt lat="44.60259" lon="0.86484">
        <ele>167.8</ele>
        <time>2018-04-29T16:20:55Z</time>
      </trkpt>
      <trkpt lat="44.6026" lon="0.86474">
        <ele>167.8</ele>
        <time>2018-04-29T16:20:57Z</time>
      </trkpt>
      <trkpt lat="44.60263" lon="0.86462">
        <ele>167.8</ele>
        <time>2018-04-29T16:21:00Z</time>
      </trkpt>
      <trkpt lat="44.60264" lon="0.86456">
        <ele>167.8</ele>
        <time>2018-04-29T16:21:02Z</time>
      </trkpt>
      <trkpt lat="44.6027" lon="0.86438">
        <ele>167.8</ele>
        <time>2018-04-29T16:21:08Z</time>
      </trkpt>
      <trkpt lat="44.60279" lon="0.86417">
        <ele>167.8</ele>
        <time>2018-04-29T16:21:13Z</time>
      </trkpt>
      <trkpt lat="44.60286" lon="0.86401">
        <ele>167.8</ele>
        <time>2018-04-29T16:21:18Z</time>
      </trkpt>
      <trkpt lat="44.60293" lon="0.86384">
        <ele>167.8</ele>
        <time>2018-04-29T16:21:23Z</time>
      </trkpt>
      <trkpt lat="44.60294" lon="0.86381">
        <ele>167.8</ele>
        <time>2018-04-29T16:21:24Z</time>
      </trkpt>
      <trkpt lat="44.60296" lon="0.86378">
        <ele>167.8</ele>
        <time>2018-04-29T16:21:27Z</time>
      </trkpt>
      <trkpt lat="44.60296" lon="0.86367">
        <ele>167.8</ele>
        <time>2018-04-29T16:21:49Z</time>
      </trkpt>
      <trkpt lat="44.60297" lon="0.86361">
        <ele>167.8</ele>
        <time>2018-04-29T16:21:51Z</time>
      </trkpt>
      <trkpt lat="44.60298" lon="0.86357">
        <ele>168.4</ele>
        <time>2018-04-29T16:21:53Z</time>
      </trkpt>
      <trkpt lat="44.60298" lon="0.86354">
        <ele>168.8</ele>
        <time>2018-04-29T16:21:54Z</time>
      </trkpt>
      <trkpt lat="44.60298" lon="0.8635">
        <ele>169.2</ele>
        <time>2018-04-29T16:21:55Z</time>
      </trkpt>
      <trkpt lat="44.60299" lon="0.86345">
        <ele>169.6</ele>
        <time>2018-04-29T16:21:56Z</time>
      </trkpt>
      <trkpt lat="44.60299" lon="0.86341">
        <ele>170</ele>
        <time>2018-04-29T16:21:57Z</time>
      </trkpt>
      <trkpt lat="44.60299" lon="0.86336">
        <ele>170</ele>
        <time>2018-04-29T16:21:58Z</time>
      </trkpt>
      <trkpt lat="44.60298" lon="0.86327">
        <ele>170.4</ele>
        <time>2018-04-29T16:22:00Z</time>
      </trkpt>
      <trkpt lat="44.60297" lon="0.86323">
        <ele>171</ele>
        <time>2018-04-29T16:22:01Z</time>
      </trkpt>
      <trkpt lat="44.60295" lon="0.8632">
        <ele>171.4</ele>
        <time>2018-04-29T16:22:02Z</time>
      </trkpt>
      <trkpt lat="44.60293" lon="0.86315">
        <ele>172</ele>
        <time>2018-04-29T16:22:03Z</time>
      </trkpt>
      <trkpt lat="44.60293" lon="0.8631">
        <ele>172.4</ele>
        <time>2018-04-29T16:22:04Z</time>
      </trkpt>
      <trkpt lat="44.60292" lon="0.86306">
        <ele>173</ele>
        <time>2018-04-29T16:22:05Z</time>
      </trkpt>
      <trkpt lat="44.60291" lon="0.86302">
        <ele>173.6</ele>
        <time>2018-04-29T16:22:06Z</time>
      </trkpt>
      <trkpt lat="44.6029" lon="0.86298">
        <ele>174</ele>
        <time>2018-04-29T16:22:07Z</time>
      </trkpt>
      <trkpt lat="44.60289" lon="0.86294">
        <ele>174.6</ele>
        <time>2018-04-29T16:22:08Z</time>
      </trkpt>
      <trkpt lat="44.60286" lon="0.86287">
        <ele>174.6</ele>
        <time>2018-04-29T16:22:10Z</time>
      </trkpt>
      <trkpt lat="44.60285" lon="0.86283">
        <ele>175</ele>
        <time>2018-04-29T16:22:11Z</time>
      </trkpt>
      <trkpt lat="44.60284" lon="0.8628">
        <ele>175.4</ele>
        <time>2018-04-29T16:22:12Z</time>
      </trkpt>
      <trkpt lat="44.60283" lon="0.86277">
        <ele>175.8</ele>
        <time>2018-04-29T16:22:13Z</time>
      </trkpt>
      <trkpt lat="44.60283" lon="0.86275">
        <ele>176.2</ele>
        <time>2018-04-29T16:22:14Z</time>
      </trkpt>
      <trkpt lat="44.60282" lon="0.86272">
        <ele>176.6</ele>
        <time>2018-04-29T16:22:15Z</time>
      </trkpt>
      <trkpt lat="44.60282" lon="0.8627">
        <ele>176.6</ele>
        <time>2018-04-29T16:22:16Z</time>
      </trkpt>
      <trkpt lat="44.60278" lon="0.86262">
        <ele>177</ele>
        <time>2018-04-29T16:22:20Z</time>
      </trkpt>
      <trkpt lat="44.60277" lon="0.8626">
        <ele>177.6</ele>
        <time>2018-04-29T16:22:21Z</time>
      </trkpt>
      <trkpt lat="44.60277" lon="0.86257">
        <ele>178</ele>
        <time>2018-04-29T16:22:22Z</time>
      </trkpt>
      <trkpt lat="44.60277" lon="0.86255">
        <ele>178.4</ele>
        <time>2018-04-29T16:22:23Z</time>
      </trkpt>
      <trkpt lat="44.60277" lon="0.86253">
        <ele>178.8</ele>
        <time>2018-04-29T16:22:24Z</time>
      </trkpt>
      <trkpt lat="44.60272" lon="0.86242">
        <ele>178.8</ele>
        <time>2018-04-29T16:22:28Z</time>
      </trkpt>
      <trkpt lat="44.60269" lon="0.86239">
        <ele>179.2</ele>
        <time>2018-04-29T16:22:29Z</time>
      </trkpt>
      <trkpt lat="44.60267" lon="0.86237">
        <ele>179.8</ele>
        <time>2018-04-29T16:22:30Z</time>
      </trkpt>
      <trkpt lat="44.60266" lon="0.86234">
        <ele>180.2</ele>
        <time>2018-04-29T16:22:31Z</time>
      </trkpt>
      <trkpt lat="44.60265" lon="0.86232">
        <ele>180.6</ele>
        <time>2018-04-29T16:22:32Z</time>
      </trkpt>
      <trkpt lat="44.60263" lon="0.86229">
        <ele>181</ele>
        <time>2018-04-29T16:22:33Z</time>
      </trkpt>
      <trkpt lat="44.60262" lon="0.86226">
        <ele>181</ele>
        <time>2018-04-29T16:22:34Z</time>
      </trkpt>
      <trkpt lat="44.60257" lon="0.86216">
        <ele>181</ele>
        <time>2018-04-29T16:22:38Z</time>
      </trkpt>
      <trkpt lat="44.60256" lon="0.86214">
        <ele>181.4</ele>
        <time>2018-04-29T16:22:39Z</time>
      </trkpt>
      <trkpt lat="44.60254" lon="0.86212">
        <ele>182.2</ele>
        <time>2018-04-29T16:22:40Z</time>
      </trkpt>
      <trkpt lat="44.60252" lon="0.86209">
        <ele>182.6</ele>
        <time>2018-04-29T16:22:41Z</time>
      </trkpt>
      <trkpt lat="44.60251" lon="0.86207">
        <ele>183.2</ele>
        <time>2018-04-29T16:22:42Z</time>
      </trkpt>
      <trkpt lat="44.60248" lon="0.86203">
        <ele>183.2</ele>
        <time>2018-04-29T16:22:44Z</time>
      </trkpt>
      <trkpt lat="44.60238" lon="0.86194">
        <ele>183.2</ele>
        <time>2018-04-29T16:22:49Z</time>
      </trkpt>
      <trkpt lat="44.60227" lon="0.86184">
        <ele>183.2</ele>
        <time>2018-04-29T16:22:55Z</time>
      </trkpt>
      <trkpt lat="44.60215" lon="0.86168">
        <ele>183.2</ele>
        <time>2018-04-29T16:23:00Z</time>
      </trkpt>
      <trkpt lat="44.60206" lon="0.86154">
        <ele>183.2</ele>
        <time>2018-04-29T16:23:04Z</time>
      </trkpt>
      <trkpt lat="44.60198" lon="0.8614">
        <ele>183.2</ele>
        <time>2018-04-29T16:23:09Z</time>
      </trkpt>
      <trkpt lat="44.60195" lon="0.86137">
        <ele>183.2</ele>
        <time>2018-04-29T16:23:10Z</time>
      </trkpt>
      <trkpt lat="44.60189" lon="0.86136">
        <ele>183.2</ele>
        <time>2018-04-29T16:23:12Z</time>
      </trkpt>
      <trkpt lat="44.60184" lon="0.86134">
        <ele>183.6</ele>
        <time>2018-04-29T16:23:14Z</time>
      </trkpt>
      <trkpt lat="44.60181" lon="0.86135">
        <ele>184</ele>
        <time>2018-04-29T16:23:15Z</time>
      </trkpt>
      <trkpt lat="44.60178" lon="0.86136">
        <ele>184.4</ele>
        <time>2018-04-29T16:23:16Z</time>
      </trkpt>
      <trkpt lat="44.60175" lon="0.86138">
        <ele>184.8</ele>
        <time>2018-04-29T16:23:17Z</time>
      </trkpt>
      <trkpt lat="44.6017" lon="0.86139">
        <ele>185.2</ele>
        <time>2018-04-29T16:23:18Z</time>
      </trkpt>
      <trkpt lat="44.6016" lon="0.86141">
        <ele>185.2</ele>
        <time>2018-04-29T16:23:20Z</time>
      </trkpt>
      <trkpt lat="44.60155" lon="0.86142">
        <ele>185.2</ele>
        <time>2018-04-29T16:23:21Z</time>
      </trkpt>
      <trkpt lat="44.60139" lon="0.86148">
        <ele>185.2</ele>
        <time>2018-04-29T16:23:24Z</time>
      </trkpt>
      <trkpt lat="44.60134" lon="0.86149">
        <ele>185.6</ele>
        <time>2018-04-29T16:23:25Z</time>
      </trkpt>
      <trkpt lat="44.60129" lon="0.86151">
        <ele>186</ele>
        <time>2018-04-29T16:23:26Z</time>
      </trkpt>
      <trkpt lat="44.60124" lon="0.86152">
        <ele>186.4</ele>
        <time>2018-04-29T16:23:27Z</time>
      </trkpt>
      <trkpt lat="44.60119" lon="0.86154">
        <ele>186.8</ele>
        <time>2018-04-29T16:23:28Z</time>
      </trkpt>
      <trkpt lat="44.60114" lon="0.86156">
        <ele>187.2</ele>
        <time>2018-04-29T16:23:29Z</time>
      </trkpt>
      <trkpt lat="44.60105" lon="0.86159">
        <ele>187.2</ele>
        <time>2018-04-29T16:23:31Z</time>
      </trkpt>
      <trkpt lat="44.60093" lon="0.86163">
        <ele>187.6</ele>
        <time>2018-04-29T16:23:34Z</time>
      </trkpt>
      <trkpt lat="44.60089" lon="0.86165">
        <ele>188</ele>
        <time>2018-04-29T16:23:35Z</time>
      </trkpt>
      <trkpt lat="44.60086" lon="0.86166">
        <ele>188.4</ele>
        <time>2018-04-29T16:23:36Z</time>
      </trkpt>
      <trkpt lat="44.60083" lon="0.86167">
        <ele>188.8</ele>
        <time>2018-04-29T16:23:37Z</time>
      </trkpt>
      <trkpt lat="44.6008" lon="0.86169">
        <ele>189.2</ele>
        <time>2018-04-29T16:23:38Z</time>
      </trkpt>
      <trkpt lat="44.60068" lon="0.86173">
        <ele>189.2</ele>
        <time>2018-04-29T16:23:42Z</time>
      </trkpt>
      <trkpt lat="44.60049" lon="0.86176">
        <ele>189.2</ele>
        <time>2018-04-29T16:23:48Z</time>
      </trkpt>
      <trkpt lat="44.60033" lon="0.86175">
        <ele>189.2</ele>
        <time>2018-04-29T16:23:53Z</time>
      </trkpt>
      <trkpt lat="44.6002" lon="0.8617">
        <ele>189.2</ele>
        <time>2018-04-29T16:23:57Z</time>
      </trkpt>
      <trkpt lat="44.60016" lon="0.86168">
        <ele>189.2</ele>
        <time>2018-04-29T16:23:58Z</time>
      </trkpt>
      <trkpt lat="44.60007" lon="0.86168">
        <ele>189.2</ele>
        <time>2018-04-29T16:24:00Z</time>
      </trkpt>
      <trkpt lat="44.6" lon="0.8617">
        <ele>189.2</ele>
        <time>2018-04-29T16:24:02Z</time>
      </trkpt>
      <trkpt lat="44.59989" lon="0.86171">
        <ele>189.2</ele>
        <time>2018-04-29T16:24:05Z</time>
      </trkpt>
      <trkpt lat="44.59982" lon="0.86173">
        <ele>189.2</ele>
        <time>2018-04-29T16:24:07Z</time>
      </trkpt>
      <trkpt lat="44.59972" lon="0.86176">
        <ele>189.2</ele>
        <time>2018-04-29T16:24:10Z</time>
      </trkpt>
      <trkpt lat="44.59968" lon="0.86178">
        <ele>189.2</ele>
        <time>2018-04-29T16:24:11Z</time>
      </trkpt>
      <trkpt lat="44.59961" lon="0.8618">
        <ele>189.2</ele>
        <time>2018-04-29T16:24:13Z</time>
      </trkpt>
      <trkpt lat="44.59953" lon="0.86181">
        <ele>189.2</ele>
        <time>2018-04-29T16:24:15Z</time>
      </trkpt>
      <trkpt lat="44.59941" lon="0.86183">
        <ele>189.2</ele>
        <time>2018-04-29T16:24:18Z</time>
      </trkpt>
      <trkpt lat="44.59936" lon="0.86185">
        <ele>189.2</ele>
        <time>2018-04-29T16:24:20Z</time>
      </trkpt>
      <trkpt lat="44.59933" lon="0.86185">
        <ele>189.2</ele>
        <time>2018-04-29T16:24:24Z</time>
      </trkpt>
      <trkpt lat="44.59928" lon="0.86185">
        <ele>189.2</ele>
        <time>2018-04-29T16:24:45Z</time>
      </trkpt>
      <trkpt lat="44.59925" lon="0.86184">
        <ele>189.2</ele>
        <time>2018-04-29T16:24:46Z</time>
      </trkpt>
      <trkpt lat="44.59921" lon="0.86183">
        <ele>189.2</ele>
        <time>2018-04-29T16:24:48Z</time>
      </trkpt>
      <trkpt lat="44.59919" lon="0.86183">
        <ele>189.2</ele>
        <time>2018-04-29T16:24:49Z</time>
      </trkpt>
      <trkpt lat="44.59914" lon="0.86183">
        <ele>189.2</ele>
        <time>2018-04-29T16:24:50Z</time>
      </trkpt>
      <trkpt lat="44.59902" lon="0.86184">
        <ele>188.8</ele>
        <time>2018-04-29T16:24:53Z</time>
      </trkpt>
      <trkpt lat="44.59899" lon="0.86183">
        <ele>188.4</ele>
        <time>2018-04-29T16:24:54Z</time>
      </trkpt>
      <trkpt lat="44.59898" lon="0.86181">
        <ele>188</ele>
        <time>2018-04-29T16:24:55Z</time>
      </trkpt>
      <trkpt lat="44.59897" lon="0.86179">
        <ele>187.6</ele>
        <time>2018-04-29T16:24:56Z</time>
      </trkpt>
      <trkpt lat="44.59897" lon="0.86175">
        <ele>187.2</ele>
        <time>2018-04-29T16:24:57Z</time>
      </trkpt>
      <trkpt lat="44.59894" lon="0.86168">
        <ele>187.2</ele>
        <time>2018-04-29T16:24:59Z</time>
      </trkpt>
      <trkpt lat="44.59889" lon="0.86164">
        <ele>187.2</ele>
        <time>2018-04-29T16:25:03Z</time>
      </trkpt>
      <trkpt lat="44.59888" lon="0.86163">
        <ele>187.2</ele>
        <time>2018-04-29T16:25:04Z</time>
      </trkpt>
      <trkpt lat="44.59885" lon="0.86155">
        <ele>187.2</ele>
        <time>2018-04-29T16:25:08Z</time>
      </trkpt>
      <trkpt lat="44.59887" lon="0.86144">
        <ele>187.2</ele>
        <time>2018-04-29T16:25:11Z</time>
      </trkpt>
      <trkpt lat="44.59888" lon="0.86139">
        <ele>187.2</ele>
        <time>2018-04-29T16:25:12Z</time>
      </trkpt>
      <trkpt lat="44.59888" lon="0.8612">
        <ele>187.2</ele>
        <time>2018-04-29T16:25:15Z</time>
      </trkpt>
      <trkpt lat="44.59887" lon="0.86113">
        <ele>186.8</ele>
        <time>2018-04-29T16:25:16Z</time>
      </trkpt>
      <trkpt lat="44.59885" lon="0.86107">
        <ele>186.4</ele>
        <time>2018-04-29T16:25:17Z</time>
      </trkpt>
      <trkpt lat="44.59883" lon="0.86101">
        <ele>186</ele>
        <time>2018-04-29T16:25:18Z</time>
      </trkpt>
      <trkpt lat="44.59882" lon="0.86096">
        <ele>185.6</ele>
        <time>2018-04-29T16:25:19Z</time>
      </trkpt>
      <trkpt lat="44.59879" lon="0.86089">
        <ele>185.2</ele>
        <time>2018-04-29T16:25:20Z</time>
      </trkpt>
      <trkpt lat="44.59876" lon="0.86084">
        <ele>185.2</ele>
        <time>2018-04-29T16:25:21Z</time>
      </trkpt>
      <trkpt lat="44.59874" lon="0.86076">
        <ele>185.2</ele>
        <time>2018-04-29T16:25:22Z</time>
      </trkpt>
      <trkpt lat="44.59873" lon="0.86069">
        <ele>185.2</ele>
        <time>2018-04-29T16:25:23Z</time>
      </trkpt>
      <trkpt lat="44.59872" lon="0.8605">
        <ele>185.2</ele>
        <time>2018-04-29T16:25:26Z</time>
      </trkpt>
      <trkpt lat="44.59872" lon="0.86037">
        <ele>185.2</ele>
        <time>2018-04-29T16:25:28Z</time>
      </trkpt>
      <trkpt lat="44.59864" lon="0.86007">
        <ele>185.2</ele>
        <time>2018-04-29T16:25:32Z</time>
      </trkpt>
      <trkpt lat="44.59862" lon="0.86">
        <ele>185.2</ele>
        <time>2018-04-29T16:25:33Z</time>
      </trkpt>
      <trkpt lat="44.59859" lon="0.8599">
        <ele>184.6</ele>
        <time>2018-04-29T16:25:35Z</time>
      </trkpt>
      <trkpt lat="44.59856" lon="0.85984">
        <ele>184.2</ele>
        <time>2018-04-29T16:25:36Z</time>
      </trkpt>
      <trkpt lat="44.59852" lon="0.85978">
        <ele>183.8</ele>
        <time>2018-04-29T16:25:37Z</time>
      </trkpt>
      <trkpt lat="44.59849" lon="0.85971">
        <ele>183.4</ele>
        <time>2018-04-29T16:25:38Z</time>
      </trkpt>
      <trkpt lat="44.59846" lon="0.85965">
        <ele>183</ele>
        <time>2018-04-29T16:25:39Z</time>
      </trkpt>
      <trkpt lat="44.59842" lon="0.85949">
        <ele>183</ele>
        <time>2018-04-29T16:25:41Z</time>
      </trkpt>
      <trkpt lat="44.5984" lon="0.85933">
        <ele>183</ele>
        <time>2018-04-29T16:25:43Z</time>
      </trkpt>
      <trkpt lat="44.59838" lon="0.85908">
        <ele>183</ele>
        <time>2018-04-29T16:25:47Z</time>
      </trkpt>
      <trkpt lat="44.59835" lon="0.85889">
        <ele>183</ele>
        <time>2018-04-29T16:25:50Z</time>
      </trkpt>
      <trkpt lat="44.59834" lon="0.85882">
        <ele>183</ele>
        <time>2018-04-29T16:25:51Z</time>
      </trkpt>
      <trkpt lat="44.59831" lon="0.85853">
        <ele>183</ele>
        <time>2018-04-29T16:25:55Z</time>
      </trkpt>
      <trkpt lat="44.59831" lon="0.85846">
        <ele>183</ele>
        <time>2018-04-29T16:25:56Z</time>
      </trkpt>
      <trkpt lat="44.59832" lon="0.85819">
        <ele>183</ele>
        <time>2018-04-29T16:26:01Z</time>
      </trkpt>
      <trkpt lat="44.59832" lon="0.85799">
        <ele>183</ele>
        <time>2018-04-29T16:26:06Z</time>
      </trkpt>
      <trkpt lat="44.59833" lon="0.85799">
        <ele>183.4</ele>
        <time>2018-04-29T16:26:07Z</time>
      </trkpt>
      <trkpt lat="44.59832" lon="0.85797">
        <ele>183.8</ele>
        <time>2018-04-29T16:26:08Z</time>
      </trkpt>
      <trkpt lat="44.59833" lon="0.85796">
        <ele>184.2</ele>
        <time>2018-04-29T16:26:09Z</time>
      </trkpt>
      <trkpt lat="44.59833" lon="0.85783">
        <ele>185</ele>
        <time>2018-04-29T16:26:17Z</time>
      </trkpt>
      <trkpt lat="44.59835" lon="0.85776">
        <ele>185</ele>
        <time>2018-04-29T16:26:20Z</time>
      </trkpt>
      <trkpt lat="44.59836" lon="0.85772">
        <ele>185</ele>
        <time>2018-04-29T16:26:22Z</time>
      </trkpt>
      <trkpt lat="44.59836" lon="0.85767">
        <ele>185</ele>
        <time>2018-04-29T16:26:24Z</time>
      </trkpt>
      <trkpt lat="44.59836" lon="0.85763">
        <ele>185</ele>
        <time>2018-04-29T16:26:26Z</time>
      </trkpt>
      <trkpt lat="44.59837" lon="0.85762">
        <ele>185</ele>
        <time>2018-04-29T16:26:27Z</time>
      </trkpt>
      <trkpt lat="44.59838" lon="0.85757">
        <ele>185</ele>
        <time>2018-04-29T16:26:30Z</time>
      </trkpt>
      <trkpt lat="44.59839" lon="0.85755">
        <ele>185.4</ele>
        <time>2018-04-29T16:26:31Z</time>
      </trkpt>
      <trkpt lat="44.59839" lon="0.85751">
        <ele>185.8</ele>
        <time>2018-04-29T16:26:32Z</time>
      </trkpt>
      <trkpt lat="44.5984" lon="0.85748">
        <ele>186.2</ele>
        <time>2018-04-29T16:26:33Z</time>
      </trkpt>
      <trkpt lat="44.59841" lon="0.85744">
        <ele>186.6</ele>
        <time>2018-04-29T16:26:34Z</time>
      </trkpt>
      <trkpt lat="44.59842" lon="0.8574">
        <ele>187</ele>
        <time>2018-04-29T16:26:35Z</time>
      </trkpt>
      <trkpt lat="44.59843" lon="0.85733">
        <ele>187</ele>
        <time>2018-04-29T16:26:37Z</time>
      </trkpt>
      <trkpt lat="44.59843" lon="0.85728">
        <ele>187</ele>
        <time>2018-04-29T16:26:39Z</time>
      </trkpt>
      <trkpt lat="44.59844" lon="0.85717">
        <ele>187</ele>
        <time>2018-04-29T16:26:42Z</time>
      </trkpt>
      <trkpt lat="44.59845" lon="0.85701">
        <ele>187</ele>
        <time>2018-04-29T16:26:46Z</time>
      </trkpt>
      <trkpt lat="44.59845" lon="0.85697">
        <ele>187</ele>
        <time>2018-04-29T16:26:47Z</time>
      </trkpt>
      <trkpt lat="44.59846" lon="0.85692">
        <ele>187.4</ele>
        <time>2018-04-29T16:26:48Z</time>
      </trkpt>
      <trkpt lat="44.59847" lon="0.85688">
        <ele>187.8</ele>
        <time>2018-04-29T16:26:49Z</time>
      </trkpt>
      <trkpt lat="44.59849" lon="0.85685">
        <ele>188.2</ele>
        <time>2018-04-29T16:26:50Z</time>
      </trkpt>
      <trkpt lat="44.5985" lon="0.85683">
        <ele>188.6</ele>
        <time>2018-04-29T16:26:51Z</time>
      </trkpt>
      <trkpt lat="44.59851" lon="0.85679">
        <ele>189</ele>
        <time>2018-04-29T16:26:52Z</time>
      </trkpt>
      <trkpt lat="44.59857" lon="0.85653">
        <ele>189.4</ele>
        <time>2018-04-29T16:26:57Z</time>
      </trkpt>
      <trkpt lat="44.59858" lon="0.85647">
        <ele>190</ele>
        <time>2018-04-29T16:26:58Z</time>
      </trkpt>
      <trkpt lat="44.59858" lon="0.85643">
        <ele>190.4</ele>
        <time>2018-04-29T16:26:59Z</time>
      </trkpt>
      <trkpt lat="44.59858" lon="0.85638">
        <ele>190.8</ele>
        <time>2018-04-29T16:27:00Z</time>
      </trkpt>
      <trkpt lat="44.59858" lon="0.85634">
        <ele>191.2</ele>
        <time>2018-04-29T16:27:01Z</time>
      </trkpt>
      <trkpt lat="44.59859" lon="0.85624">
        <ele>191.2</ele>
        <time>2018-04-29T16:27:03Z</time>
      </trkpt>
      <trkpt lat="44.59866" lon="0.85591">
        <ele>191.2</ele>
        <time>2018-04-29T16:27:10Z</time>
      </trkpt>
      <trkpt lat="44.59867" lon="0.85585">
        <ele>191.2</ele>
        <time>2018-04-29T16:27:11Z</time>
      </trkpt>
      <trkpt lat="44.59872" lon="0.85567">
        <ele>191.2</ele>
        <time>2018-04-29T16:27:14Z</time>
      </trkpt>
      <trkpt lat="44.59874" lon="0.85561">
        <ele>191.2</ele>
        <time>2018-04-29T16:27:15Z</time>
      </trkpt>
      <trkpt lat="44.59888" lon="0.8553">
        <ele>191.2</ele>
        <time>2018-04-29T16:27:20Z</time>
      </trkpt>
      <trkpt lat="44.59899" lon="0.85504">
        <ele>190.8</ele>
        <time>2018-04-29T16:27:24Z</time>
      </trkpt>
      <trkpt lat="44.59902" lon="0.85498">
        <ele>190.4</ele>
        <time>2018-04-29T16:27:25Z</time>
      </trkpt>
      <trkpt lat="44.59905" lon="0.85491">
        <ele>190</ele>
        <time>2018-04-29T16:27:26Z</time>
      </trkpt>
      <trkpt lat="44.59907" lon="0.85483">
        <ele>189.6</ele>
        <time>2018-04-29T16:27:27Z</time>
      </trkpt>
      <trkpt lat="44.59909" lon="0.85476">
        <ele>189.2</ele>
        <time>2018-04-29T16:27:28Z</time>
      </trkpt>
      <trkpt lat="44.59918" lon="0.85451">
        <ele>189.2</ele>
        <time>2018-04-29T16:27:31Z</time>
      </trkpt>
      <trkpt lat="44.59927" lon="0.85434">
        <ele>188.8</ele>
        <time>2018-04-29T16:27:33Z</time>
      </trkpt>
      <trkpt lat="44.59932" lon="0.85426">
        <ele>188.4</ele>
        <time>2018-04-29T16:27:34Z</time>
      </trkpt>
      <trkpt lat="44.59938" lon="0.85417">
        <ele>188</ele>
        <time>2018-04-29T16:27:35Z</time>
      </trkpt>
      <trkpt lat="44.59944" lon="0.85408">
        <ele>187.6</ele>
        <time>2018-04-29T16:27:36Z</time>
      </trkpt>
      <trkpt lat="44.59949" lon="0.85398">
        <ele>187.2</ele>
        <time>2018-04-29T16:27:37Z</time>
      </trkpt>
      <trkpt lat="44.5996" lon="0.85378">
        <ele>186.8</ele>
        <time>2018-04-29T16:27:39Z</time>
      </trkpt>
      <trkpt lat="44.59965" lon="0.85369">
        <ele>186.4</ele>
        <time>2018-04-29T16:27:40Z</time>
      </trkpt>
      <trkpt lat="44.59969" lon="0.8536">
        <ele>185.8</ele>
        <time>2018-04-29T16:27:41Z</time>
      </trkpt>
      <trkpt lat="44.59972" lon="0.8535">
        <ele>185.4</ele>
        <time>2018-04-29T16:27:42Z</time>
      </trkpt>
      <trkpt lat="44.59976" lon="0.85339">
        <ele>185</ele>
        <time>2018-04-29T16:27:43Z</time>
      </trkpt>
      <trkpt lat="44.59984" lon="0.85318">
        <ele>185</ele>
        <time>2018-04-29T16:27:45Z</time>
      </trkpt>
      <trkpt lat="44.59999" lon="0.85287">
        <ele>185</ele>
        <time>2018-04-29T16:27:48Z</time>
      </trkpt>
      <trkpt lat="44.60009" lon="0.85267">
        <ele>185</ele>
        <time>2018-04-29T16:27:50Z</time>
      </trkpt>
      <trkpt lat="44.60021" lon="0.85234">
        <ele>185</ele>
        <time>2018-04-29T16:27:53Z</time>
      </trkpt>
      <trkpt lat="44.60023" lon="0.85223">
        <ele>185</ele>
        <time>2018-04-29T16:27:54Z</time>
      </trkpt>
      <trkpt lat="44.6003" lon="0.85192">
        <ele>185</ele>
        <time>2018-04-29T16:27:57Z</time>
      </trkpt>
      <trkpt lat="44.60033" lon="0.85181">
        <ele>185</ele>
        <time>2018-04-29T16:27:58Z</time>
      </trkpt>
      <trkpt lat="44.60036" lon="0.85171">
        <ele>185</ele>
        <time>2018-04-29T16:27:59Z</time>
      </trkpt>
      <trkpt lat="44.60043" lon="0.85146">
        <ele>184.6</ele>
        <time>2018-04-29T16:28:01Z</time>
      </trkpt>
      <trkpt lat="44.60046" lon="0.85134">
        <ele>183.6</ele>
        <time>2018-04-29T16:28:02Z</time>
      </trkpt>
      <trkpt lat="44.60049" lon="0.85121">
        <ele>183.2</ele>
        <time>2018-04-29T16:28:03Z</time>
      </trkpt>
      <trkpt lat="44.60052" lon="0.85107">
        <ele>182.8</ele>
        <time>2018-04-29T16:28:04Z</time>
      </trkpt>
      <trkpt lat="44.60059" lon="0.85064">
        <ele>182.4</ele>
        <time>2018-04-29T16:28:07Z</time>
      </trkpt>
      <trkpt lat="44.6006" lon="0.85048">
        <ele>182</ele>
        <time>2018-04-29T16:28:08Z</time>
      </trkpt>
      <trkpt lat="44.60061" lon="0.85032">
        <ele>181.4</ele>
        <time>2018-04-29T16:28:09Z</time>
      </trkpt>
      <trkpt lat="44.60063" lon="0.85016">
        <ele>181</ele>
        <time>2018-04-29T16:28:10Z</time>
      </trkpt>
      <trkpt lat="44.60066" lon="0.85001">
        <ele>180.6</ele>
        <time>2018-04-29T16:28:11Z</time>
      </trkpt>
      <trkpt lat="44.60073" lon="0.84973">
        <ele>180.6</ele>
        <time>2018-04-29T16:28:13Z</time>
      </trkpt>
      <trkpt lat="44.6008" lon="0.84942">
        <ele>180.6</ele>
        <time>2018-04-29T16:28:15Z</time>
      </trkpt>
      <trkpt lat="44.60083" lon="0.84927">
        <ele>180.2</ele>
        <time>2018-04-29T16:28:16Z</time>
      </trkpt>
      <trkpt lat="44.60084" lon="0.84911">
        <ele>179.8</ele>
        <time>2018-04-29T16:28:17Z</time>
      </trkpt>
      <trkpt lat="44.60086" lon="0.84897">
        <ele>179.4</ele>
        <time>2018-04-29T16:28:18Z</time>
      </trkpt>
      <trkpt lat="44.60087" lon="0.84882">
        <ele>179</ele>
        <time>2018-04-29T16:28:19Z</time>
      </trkpt>
      <trkpt lat="44.60087" lon="0.84867">
        <ele>178.4</ele>
        <time>2018-04-29T16:28:20Z</time>
      </trkpt>
      <trkpt lat="44.60087" lon="0.84852">
        <ele>178</ele>
        <time>2018-04-29T16:28:21Z</time>
      </trkpt>
      <trkpt lat="44.60087" lon="0.84837">
        <ele>177.6</ele>
        <time>2018-04-29T16:28:22Z</time>
      </trkpt>
      <trkpt lat="44.60087" lon="0.84822">
        <ele>177.2</ele>
        <time>2018-04-29T16:28:23Z</time>
      </trkpt>
      <trkpt lat="44.60087" lon="0.84806">
        <ele>176.6</ele>
        <time>2018-04-29T16:28:24Z</time>
      </trkpt>
      <trkpt lat="44.60087" lon="0.84789">
        <ele>176</ele>
        <time>2018-04-29T16:28:25Z</time>
      </trkpt>
      <trkpt lat="44.60087" lon="0.84773">
        <ele>174.6</ele>
        <time>2018-04-29T16:28:26Z</time>
      </trkpt>
      <trkpt lat="44.60088" lon="0.84756">
        <ele>174</ele>
        <time>2018-04-29T16:28:27Z</time>
      </trkpt>
      <trkpt lat="44.60089" lon="0.8474">
        <ele>173.2</ele>
        <time>2018-04-29T16:28:28Z</time>
      </trkpt>
      <trkpt lat="44.60092" lon="0.84723">
        <ele>172.2</ele>
        <time>2018-04-29T16:28:29Z</time>
      </trkpt>
      <trkpt lat="44.60097" lon="0.84707">
        <ele>171.4</ele>
        <time>2018-04-29T16:28:30Z</time>
      </trkpt>
      <trkpt lat="44.60101" lon="0.84692">
        <ele>170.6</ele>
        <time>2018-04-29T16:28:31Z</time>
      </trkpt>
      <trkpt lat="44.60107" lon="0.84676">
        <ele>169.8</ele>
        <time>2018-04-29T16:28:32Z</time>
      </trkpt>
      <trkpt lat="44.60114" lon="0.84661">
        <ele>169</ele>
        <time>2018-04-29T16:28:33Z</time>
      </trkpt>
      <trkpt lat="44.60121" lon="0.84647">
        <ele>168.2</ele>
        <time>2018-04-29T16:28:34Z</time>
      </trkpt>
      <trkpt lat="44.60127" lon="0.84633">
        <ele>167.2</ele>
        <time>2018-04-29T16:28:35Z</time>
      </trkpt>
      <trkpt lat="44.60134" lon="0.8462">
        <ele>166.4</ele>
        <time>2018-04-29T16:28:36Z</time>
      </trkpt>
      <trkpt lat="44.6014" lon="0.84608">
        <ele>165.6</ele>
        <time>2018-04-29T16:28:37Z</time>
      </trkpt>
      <trkpt lat="44.60146" lon="0.84597">
        <ele>165</ele>
        <time>2018-04-29T16:28:38Z</time>
      </trkpt>
      <trkpt lat="44.6015" lon="0.84585">
        <ele>164.4</ele>
        <time>2018-04-29T16:28:39Z</time>
      </trkpt>
      <trkpt lat="44.60152" lon="0.84573">
        <ele>163.8</ele>
        <time>2018-04-29T16:28:40Z</time>
      </trkpt>
      <trkpt lat="44.60152" lon="0.84563">
        <ele>163.2</ele>
        <time>2018-04-29T16:28:41Z</time>
      </trkpt>
      <trkpt lat="44.6015" lon="0.84553">
        <ele>162.6</ele>
        <time>2018-04-29T16:28:42Z</time>
      </trkpt>
      <trkpt lat="44.60147" lon="0.84541">
        <ele>162.2</ele>
        <time>2018-04-29T16:28:43Z</time>
      </trkpt>
      <trkpt lat="44.60144" lon="0.8453">
        <ele>161.6</ele>
        <time>2018-04-29T16:28:44Z</time>
      </trkpt>
      <trkpt lat="44.60141" lon="0.84517">
        <ele>161.2</ele>
        <time>2018-04-29T16:28:45Z</time>
      </trkpt>
      <trkpt lat="44.60137" lon="0.84503">
        <ele>160.6</ele>
        <time>2018-04-29T16:28:46Z</time>
      </trkpt>
      <trkpt lat="44.60135" lon="0.84489">
        <ele>159.8</ele>
        <time>2018-04-29T16:28:47Z</time>
      </trkpt>
      <trkpt lat="44.60132" lon="0.84475">
        <ele>159.2</ele>
        <time>2018-04-29T16:28:48Z</time>
      </trkpt>
      <trkpt lat="44.60129" lon="0.8446">
        <ele>158.4</ele>
        <time>2018-04-29T16:28:49Z</time>
      </trkpt>
      <trkpt lat="44.60127" lon="0.84444">
        <ele>157.4</ele>
        <time>2018-04-29T16:28:50Z</time>
      </trkpt>
      <trkpt lat="44.60126" lon="0.84428">
        <ele>155.4</ele>
        <time>2018-04-29T16:28:51Z</time>
      </trkpt>
      <trkpt lat="44.60125" lon="0.84411">
        <ele>154</ele>
        <time>2018-04-29T16:28:52Z</time>
      </trkpt>
      <trkpt lat="44.60126" lon="0.84397">
        <ele>152.8</ele>
        <time>2018-04-29T16:28:53Z</time>
      </trkpt>
      <trkpt lat="44.60127" lon="0.84383">
        <ele>151.4</ele>
        <time>2018-04-29T16:28:54Z</time>
      </trkpt>
      <trkpt lat="44.60128" lon="0.84368">
        <ele>150</ele>
        <time>2018-04-29T16:28:55Z</time>
      </trkpt>
      <trkpt lat="44.60127" lon="0.84355">
        <ele>148.8</ele>
        <time>2018-04-29T16:28:56Z</time>
      </trkpt>
      <trkpt lat="44.60126" lon="0.84342">
        <ele>147.4</ele>
        <time>2018-04-29T16:28:57Z</time>
      </trkpt>
      <trkpt lat="44.60123" lon="0.84329">
        <ele>146.2</ele>
        <time>2018-04-29T16:28:58Z</time>
      </trkpt>
      <trkpt lat="44.60121" lon="0.84318">
        <ele>144.8</ele>
        <time>2018-04-29T16:28:59Z</time>
      </trkpt>
      <trkpt lat="44.60119" lon="0.84307">
        <ele>143.6</ele>
        <time>2018-04-29T16:29:00Z</time>
      </trkpt>
      <trkpt lat="44.60118" lon="0.84298">
        <ele>142.2</ele>
        <time>2018-04-29T16:29:01Z</time>
      </trkpt>
      <trkpt lat="44.60116" lon="0.84291">
        <ele>141</ele>
        <time>2018-04-29T16:29:02Z</time>
      </trkpt>
      <trkpt lat="44.60116" lon="0.84285">
        <ele>139.6</ele>
        <time>2018-04-29T16:29:03Z</time>
      </trkpt>
      <trkpt lat="44.60115" lon="0.84282">
        <ele>138.4</ele>
        <time>2018-04-29T16:29:04Z</time>
      </trkpt>
      <trkpt lat="44.60115" lon="0.8428">
        <ele>137.4</ele>
        <time>2018-04-29T16:29:05Z</time>
      </trkpt>
      <trkpt lat="44.60115" lon="0.84278">
        <ele>136.4</ele>
        <time>2018-04-29T16:29:06Z</time>
      </trkpt>
      <trkpt lat="44.60115" lon="0.84276">
        <ele>135.2</ele>
        <time>2018-04-29T16:29:07Z</time>
      </trkpt>
      <trkpt lat="44.60115" lon="0.84275">
        <ele>134.2</ele>
        <time>2018-04-29T16:29:08Z</time>
      </trkpt>
      <trkpt lat="44.60114" lon="0.84274">
        <ele>133.2</ele>
        <time>2018-04-29T16:29:09Z</time>
      </trkpt>
      <trkpt lat="44.60113" lon="0.84272">
        <ele>133.2</ele>
        <time>2018-04-29T16:29:10Z</time>
      </trkpt>
      <trkpt lat="44.60109" lon="0.8427">
        <ele>133.2</ele>
        <time>2018-04-29T16:29:13Z</time>
      </trkpt>
      <trkpt lat="44.60108" lon="0.84272">
        <ele>133.2</ele>
        <time>2018-04-29T16:29:15Z</time>
      </trkpt>
      <trkpt lat="44.60107" lon="0.84274">
        <ele>133.2</ele>
        <time>2018-04-29T16:29:17Z</time>
      </trkpt>
      <trkpt lat="44.60106" lon="0.84276">
        <ele>133.2</ele>
        <time>2018-04-29T16:29:20Z</time>
      </trkpt>
      <trkpt lat="44.60106" lon="0.84282">
        <ele>133.2</ele>
        <time>2018-04-29T16:29:25Z</time>
      </trkpt>
      <trkpt lat="44.60107" lon="0.84281">
        <ele>133.2</ele>
        <time>2018-04-29T16:29:26Z</time>
      </trkpt>
      <trkpt lat="44.60109" lon="0.8428">
        <ele>133.2</ele>
        <time>2018-04-29T16:29:29Z</time>
      </trkpt>
      <trkpt lat="44.60109" lon="0.8428">
        <ele>133.2</ele>
        <time>2018-04-29T16:29:30Z</time>
      </trkpt>
      <trkpt lat="44.60109" lon="0.84277">
        <ele>133.2</ele>
        <time>2018-04-29T16:29:42Z</time>
      </trkpt>
      <trkpt lat="44.60106" lon="0.84275">
        <ele>133.2</ele>
        <time>2018-04-29T16:29:44Z</time>
      </trkpt>
      <trkpt lat="44.60101" lon="0.8428">
        <ele>133.2</ele>
        <time>2018-04-29T16:29:47Z</time>
      </trkpt>
      <trkpt lat="44.601" lon="0.84282">
        <ele>133.2</ele>
        <time>2018-04-29T16:29:48Z</time>
      </trkpt>
      <trkpt lat="44.601" lon="0.84286">
        <ele>133.2</ele>
        <time>2018-04-29T16:29:50Z</time>
      </trkpt>
      <trkpt lat="44.601" lon="0.84287">
        <ele>133.2</ele>
        <time>2018-04-29T16:29:51Z</time>
      </trkpt>
      <trkpt lat="44.60099" lon="0.84288">
        <ele>133.2</ele>
        <time>2018-04-29T16:29:52Z</time>
      </trkpt>
      <trkpt lat="44.60098" lon="0.84289">
        <ele>133.2</ele>
        <time>2018-04-29T16:29:53Z</time>
      </trkpt>
      <trkpt lat="44.60096" lon="0.8429">
        <ele>133.2</ele>
        <time>2018-04-29T16:29:54Z</time>
      </trkpt>
      <trkpt lat="44.60095" lon="0.84293">
        <ele>133.2</ele>
        <time>2018-04-29T16:29:56Z</time>
      </trkpt>
      <trkpt lat="44.60093" lon="0.84295">
        <ele>133.2</ele>
        <time>2018-04-29T16:29:58Z</time>
      </trkpt>
      <trkpt lat="44.60088" lon="0.84297">
        <ele>133.2</ele>
        <time>2018-04-29T16:30:01Z</time>
      </trkpt>
      <trkpt lat="44.60083" lon="0.84298">
        <ele>133.2</ele>
        <time>2018-04-29T16:30:04Z</time>
      </trkpt>
      <trkpt lat="44.60075" lon="0.84288">
        <ele>133.2</ele>
        <time>2018-04-29T16:30:08Z</time>
      </trkpt>
      <trkpt lat="44.6006" lon="0.84267">
        <ele>133.2</ele>
        <time>2018-04-29T16:30:13Z</time>
      </trkpt>
      <trkpt lat="44.6005" lon="0.8426">
        <ele>133.2</ele>
        <time>2018-04-29T16:30:16Z</time>
      </trkpt>
      <trkpt lat="44.60043" lon="0.84256">
        <ele>133.2</ele>
        <time>2018-04-29T16:30:18Z</time>
      </trkpt>
      <trkpt lat="44.60035" lon="0.84257">
        <ele>133.2</ele>
        <time>2018-04-29T16:30:20Z</time>
      </trkpt>
      <trkpt lat="44.60028" lon="0.84257">
        <ele>133.6</ele>
        <time>2018-04-29T16:30:22Z</time>
      </trkpt>
      <trkpt lat="44.60025" lon="0.84257">
        <ele>134</ele>
        <time>2018-04-29T16:30:23Z</time>
      </trkpt>
      <trkpt lat="44.60021" lon="0.84257">
        <ele>134.4</ele>
        <time>2018-04-29T16:30:24Z</time>
      </trkpt>
      <trkpt lat="44.60017" lon="0.84256">
        <ele>134.8</ele>
        <time>2018-04-29T16:30:25Z</time>
      </trkpt>
      <trkpt lat="44.60014" lon="0.84256">
        <ele>135.2</ele>
        <time>2018-04-29T16:30:26Z</time>
      </trkpt>
      <trkpt lat="44.60007" lon="0.84255">
        <ele>136.2</ele>
        <time>2018-04-29T16:30:28Z</time>
      </trkpt>
      <trkpt lat="44.60004" lon="0.84255">
        <ele>136.6</ele>
        <time>2018-04-29T16:30:29Z</time>
      </trkpt>
      <trkpt lat="44.60001" lon="0.84255">
        <ele>137</ele>
        <time>2018-04-29T16:30:30Z</time>
      </trkpt>
      <trkpt lat="44.59998" lon="0.84254">
        <ele>137.4</ele>
        <time>2018-04-29T16:30:31Z</time>
      </trkpt>
      <trkpt lat="44.59991" lon="0.84253">
        <ele>137.8</ele>
        <time>2018-04-29T16:30:33Z</time>
      </trkpt>
      <trkpt lat="44.59988" lon="0.84253">
        <ele>138.2</ele>
        <time>2018-04-29T16:30:34Z</time>
      </trkpt>
      <trkpt lat="44.59986" lon="0.84252">
        <ele>138.6</ele>
        <time>2018-04-29T16:30:35Z</time>
      </trkpt>
      <trkpt lat="44.59983" lon="0.84252">
        <ele>139</ele>
        <time>2018-04-29T16:30:36Z</time>
      </trkpt>
      <trkpt lat="44.59981" lon="0.84251">
        <ele>139.4</ele>
        <time>2018-04-29T16:30:37Z</time>
      </trkpt>
      <trkpt lat="44.59977" lon="0.8425">
        <ele>139.8</ele>
        <time>2018-04-29T16:30:39Z</time>
      </trkpt>
      <trkpt lat="44.59975" lon="0.8425">
        <ele>140.2</ele>
        <time>2018-04-29T16:30:40Z</time>
      </trkpt>
      <trkpt lat="44.59972" lon="0.84248">
        <ele>140.6</ele>
        <time>2018-04-29T16:30:41Z</time>
      </trkpt>
      <trkpt lat="44.59969" lon="0.84246">
        <ele>141</ele>
        <time>2018-04-29T16:30:42Z</time>
      </trkpt>
      <trkpt lat="44.59966" lon="0.84244">
        <ele>141.4</ele>
        <time>2018-04-29T16:30:43Z</time>
      </trkpt>
      <trkpt lat="44.59963" lon="0.84242">
        <ele>141.4</ele>
        <time>2018-04-29T16:30:44Z</time>
      </trkpt>
      <trkpt lat="44.59957" lon="0.84235">
        <ele>142</ele>
        <time>2018-04-29T16:30:47Z</time>
      </trkpt>
      <trkpt lat="44.59955" lon="0.84231">
        <ele>142.4</ele>
        <time>2018-04-29T16:30:48Z</time>
      </trkpt>
      <trkpt lat="44.59953" lon="0.84228">
        <ele>142.8</ele>
        <time>2018-04-29T16:30:49Z</time>
      </trkpt>
      <trkpt lat="44.59952" lon="0.84225">
        <ele>143.2</ele>
        <time>2018-04-29T16:30:50Z</time>
      </trkpt>
      <trkpt lat="44.5995" lon="0.84222">
        <ele>143.8</ele>
        <time>2018-04-29T16:30:51Z</time>
      </trkpt>
      <trkpt lat="44.59945" lon="0.84214">
        <ele>143.8</ele>
        <time>2018-04-29T16:30:54Z</time>
      </trkpt>
      <trkpt lat="44.59942" lon="0.84207">
        <ele>144.2</ele>
        <time>2018-04-29T16:30:56Z</time>
      </trkpt>
      <trkpt lat="44.59941" lon="0.84203">
        <ele>144.6</ele>
        <time>2018-04-29T16:30:57Z</time>
      </trkpt>
      <trkpt lat="44.5994" lon="0.842">
        <ele>145</ele>
        <time>2018-04-29T16:30:58Z</time>
      </trkpt>
      <trkpt lat="44.59938" lon="0.84197">
        <ele>145.6</ele>
        <time>2018-04-29T16:30:59Z</time>
      </trkpt>
      <trkpt lat="44.59937" lon="0.84194">
        <ele>146</ele>
        <time>2018-04-29T16:31:00Z</time>
      </trkpt>
      <trkpt lat="44.59931" lon="0.8418">
        <ele>146</ele>
        <time>2018-04-29T16:31:04Z</time>
      </trkpt>
      <trkpt lat="44.59929" lon="0.84175">
        <ele>146.4</ele>
        <time>2018-04-29T16:31:05Z</time>
      </trkpt>
      <trkpt lat="44.59928" lon="0.84171">
        <ele>146.8</ele>
        <time>2018-04-29T16:31:06Z</time>
      </trkpt>
      <trkpt lat="44.59925" lon="0.84167">
        <ele>147.2</ele>
        <time>2018-04-29T16:31:07Z</time>
      </trkpt>
      <trkpt lat="44.59924" lon="0.84162">
        <ele>147.6</ele>
        <time>2018-04-29T16:31:08Z</time>
      </trkpt>
      <trkpt lat="44.59922" lon="0.84155">
        <ele>148</ele>
        <time>2018-04-29T16:31:09Z</time>
      </trkpt>
      <trkpt lat="44.59918" lon="0.84144">
        <ele>148.4</ele>
        <time>2018-04-29T16:31:12Z</time>
      </trkpt>
      <trkpt lat="44.59917" lon="0.84141">
        <ele>149</ele>
        <time>2018-04-29T16:31:13Z</time>
      </trkpt>
      <trkpt lat="44.59916" lon="0.84137">
        <ele>149.4</ele>
        <time>2018-04-29T16:31:14Z</time>
      </trkpt>
      <trkpt lat="44.59915" lon="0.84134">
        <ele>149.8</ele>
        <time>2018-04-29T16:31:15Z</time>
      </trkpt>
      <trkpt lat="44.59914" lon="0.84131">
        <ele>150.4</ele>
        <time>2018-04-29T16:31:16Z</time>
      </trkpt>
      <trkpt lat="44.59908" lon="0.84118">
        <ele>150.4</ele>
        <time>2018-04-29T16:31:20Z</time>
      </trkpt>
      <trkpt lat="44.59906" lon="0.8411">
        <ele>150.8</ele>
        <time>2018-04-29T16:31:22Z</time>
      </trkpt>
      <trkpt lat="44.59904" lon="0.84107">
        <ele>151.2</ele>
        <time>2018-04-29T16:31:23Z</time>
      </trkpt>
      <trkpt lat="44.59903" lon="0.84104">
        <ele>151.6</ele>
        <time>2018-04-29T16:31:24Z</time>
      </trkpt>
      <trkpt lat="44.59902" lon="0.841">
        <ele>152</ele>
        <time>2018-04-29T16:31:25Z</time>
      </trkpt>
      <trkpt lat="44.59901" lon="0.84097">
        <ele>152.4</ele>
        <time>2018-04-29T16:31:26Z</time>
      </trkpt>
      <trkpt lat="44.599" lon="0.84093">
        <ele>152.4</ele>
        <time>2018-04-29T16:31:27Z</time>
      </trkpt>
      <trkpt lat="44.59891" lon="0.84076">
        <ele>152.4</ele>
        <time>2018-04-29T16:31:32Z</time>
      </trkpt>
      <trkpt lat="44.59881" lon="0.84056">
        <ele>152.4</ele>
        <time>2018-04-29T16:31:37Z</time>
      </trkpt>
      <trkpt lat="44.5987" lon="0.84034">
        <ele>152.4</ele>
        <time>2018-04-29T16:31:43Z</time>
      </trkpt>
      <trkpt lat="44.59867" lon="0.8403">
        <ele>152.4</ele>
        <time>2018-04-29T16:31:44Z</time>
      </trkpt>
      <trkpt lat="44.59861" lon="0.84024">
        <ele>152.4</ele>
        <time>2018-04-29T16:31:46Z</time>
      </trkpt>
      <trkpt lat="44.59856" lon="0.84023">
        <ele>152.4</ele>
        <time>2018-04-29T16:31:47Z</time>
      </trkpt>
      <trkpt lat="44.59852" lon="0.84021">
        <ele>152.4</ele>
        <time>2018-04-29T16:31:48Z</time>
      </trkpt>
      <trkpt lat="44.59836" lon="0.84028">
        <ele>152.4</ele>
        <time>2018-04-29T16:31:52Z</time>
      </trkpt>
      <trkpt lat="44.59832" lon="0.84031">
        <ele>152.4</ele>
        <time>2018-04-29T16:31:53Z</time>
      </trkpt>
      <trkpt lat="44.59828" lon="0.84037">
        <ele>152</ele>
        <time>2018-04-29T16:31:54Z</time>
      </trkpt>
      <trkpt lat="44.59824" lon="0.84042">
        <ele>151.4</ele>
        <time>2018-04-29T16:31:55Z</time>
      </trkpt>
      <trkpt lat="44.5982" lon="0.84048">
        <ele>151</ele>
        <time>2018-04-29T16:31:56Z</time>
      </trkpt>
      <trkpt lat="44.59815" lon="0.84053">
        <ele>150.4</ele>
        <time>2018-04-29T16:31:57Z</time>
      </trkpt>
      <trkpt lat="44.5981" lon="0.84057">
        <ele>150</ele>
        <time>2018-04-29T16:31:58Z</time>
      </trkpt>
      <trkpt lat="44.59799" lon="0.84071">
        <ele>150</ele>
        <time>2018-04-29T16:32:01Z</time>
      </trkpt>
      <trkpt lat="44.59797" lon="0.84075">
        <ele>150</ele>
        <time>2018-04-29T16:32:02Z</time>
      </trkpt>
      <trkpt lat="44.59794" lon="0.84077">
        <ele>150</ele>
        <time>2018-04-29T16:32:05Z</time>
      </trkpt>
      <trkpt lat="44.59793" lon="0.84074">
        <ele>150</ele>
        <time>2018-04-29T16:32:38Z</time>
      </trkpt>
      <trkpt lat="44.59791" lon="0.84073">
        <ele>149.6</ele>
        <time>2018-04-29T16:32:39Z</time>
      </trkpt>
      <trkpt lat="44.59788" lon="0.8407">
        <ele>149.2</ele>
        <time>2018-04-29T16:32:40Z</time>
      </trkpt>
      <trkpt lat="44.59786" lon="0.84069">
        <ele>148.8</ele>
        <time>2018-04-29T16:32:41Z</time>
      </trkpt>
      <trkpt lat="44.59783" lon="0.84068">
        <ele>148.4</ele>
        <time>2018-04-29T16:32:42Z</time>
      </trkpt>
      <trkpt lat="44.59779" lon="0.84066">
        <ele>148</ele>
        <time>2018-04-29T16:32:43Z</time>
      </trkpt>
      <trkpt lat="44.59765" lon="0.84059">
        <ele>148</ele>
        <time>2018-04-29T16:32:46Z</time>
      </trkpt>
      <trkpt lat="44.59759" lon="0.84058">
        <ele>148</ele>
        <time>2018-04-29T16:32:47Z</time>
      </trkpt>
      <trkpt lat="44.59752" lon="0.84058">
        <ele>147.6</ele>
        <time>2018-04-29T16:32:48Z</time>
      </trkpt>
      <trkpt lat="44.59745" lon="0.84057">
        <ele>147.2</ele>
        <time>2018-04-29T16:32:49Z</time>
      </trkpt>
      <trkpt lat="44.59738" lon="0.84057">
        <ele>146.8</ele>
        <time>2018-04-29T16:32:50Z</time>
      </trkpt>
      <trkpt lat="44.59731" lon="0.84058">
        <ele>146.4</ele>
        <time>2018-04-29T16:32:51Z</time>
      </trkpt>
      <trkpt lat="44.59725" lon="0.84058">
        <ele>146</ele>
        <time>2018-04-29T16:32:52Z</time>
      </trkpt>
      <trkpt lat="44.5972" lon="0.84061">
        <ele>146</ele>
        <time>2018-04-29T16:32:53Z</time>
      </trkpt>
      <trkpt lat="44.59708" lon="0.84068">
        <ele>146</ele>
        <time>2018-04-29T16:32:55Z</time>
      </trkpt>
      <trkpt lat="44.5969" lon="0.84067">
        <ele>146</ele>
        <time>2018-04-29T16:32:58Z</time>
      </trkpt>
      <trkpt lat="44.59681" lon="0.84064">
        <ele>146</ele>
        <time>2018-04-29T16:33:01Z</time>
      </trkpt>
      <trkpt lat="44.59668" lon="0.84058">
        <ele>146</ele>
        <time>2018-04-29T16:33:05Z</time>
      </trkpt>
      <trkpt lat="44.59657" lon="0.84046">
        <ele>146</ele>
        <time>2018-04-29T16:33:09Z</time>
      </trkpt>
      <trkpt lat="44.59654" lon="0.84043">
        <ele>145.4</ele>
        <time>2018-04-29T16:33:10Z</time>
      </trkpt>
      <trkpt lat="44.59652" lon="0.8404">
        <ele>145</ele>
        <time>2018-04-29T16:33:11Z</time>
      </trkpt>
      <trkpt lat="44.59648" lon="0.84038">
        <ele>144.6</ele>
        <time>2018-04-29T16:33:12Z</time>
      </trkpt>
      <trkpt lat="44.59645" lon="0.84036">
        <ele>144.2</ele>
        <time>2018-04-29T16:33:13Z</time>
      </trkpt>
      <trkpt lat="44.59641" lon="0.84035">
        <ele>143.8</ele>
        <time>2018-04-29T16:33:14Z</time>
      </trkpt>
      <trkpt lat="44.5963" lon="0.84032">
        <ele>143.8</ele>
        <time>2018-04-29T16:33:16Z</time>
      </trkpt>
      <trkpt lat="44.59624" lon="0.84032">
        <ele>143.8</ele>
        <time>2018-04-29T16:33:17Z</time>
      </trkpt>
      <trkpt lat="44.59613" lon="0.84032">
        <ele>143.2</ele>
        <time>2018-04-29T16:33:19Z</time>
      </trkpt>
      <trkpt lat="44.59607" lon="0.84033">
        <ele>142.8</ele>
        <time>2018-04-29T16:33:20Z</time>
      </trkpt>
      <trkpt lat="44.596" lon="0.84034">
        <ele>141.8</ele>
        <time>2018-04-29T16:33:21Z</time>
      </trkpt>
      <trkpt lat="44.59594" lon="0.84035">
        <ele>141.4</ele>
        <time>2018-04-29T16:33:22Z</time>
      </trkpt>
      <trkpt lat="44.59587" lon="0.84035">
        <ele>141.4</ele>
        <time>2018-04-29T16:33:23Z</time>
      </trkpt>
      <trkpt lat="44.59574" lon="0.8403">
        <ele>141</ele>
        <time>2018-04-29T16:33:25Z</time>
      </trkpt>
      <trkpt lat="44.59568" lon="0.84026">
        <ele>140.4</ele>
        <time>2018-04-29T16:33:26Z</time>
      </trkpt>
      <trkpt lat="44.59563" lon="0.84022">
        <ele>140</ele>
        <time>2018-04-29T16:33:27Z</time>
      </trkpt>
      <trkpt lat="44.59558" lon="0.84018">
        <ele>139.6</ele>
        <time>2018-04-29T16:33:28Z</time>
      </trkpt>
      <trkpt lat="44.59552" lon="0.84014">
        <ele>139</ele>
        <time>2018-04-29T16:33:29Z</time>
      </trkpt>
      <trkpt lat="44.59538" lon="0.84005">
        <ele>139</ele>
        <time>2018-04-29T16:33:32Z</time>
      </trkpt>
      <trkpt lat="44.5953" lon="0.84002">
        <ele>139</ele>
        <time>2018-04-29T16:33:34Z</time>
      </trkpt>
      <trkpt lat="44.59525" lon="0.83998">
        <ele>139</ele>
        <time>2018-04-29T16:33:36Z</time>
      </trkpt>
      <trkpt lat="44.5952" lon="0.83989">
        <ele>139</ele>
        <time>2018-04-29T16:33:39Z</time>
      </trkpt>
      <trkpt lat="44.59518" lon="0.83984">
        <ele>139</ele>
        <time>2018-04-29T16:33:40Z</time>
      </trkpt>
      <trkpt lat="44.59511" lon="0.83968">
        <ele>139</ele>
        <time>2018-04-29T16:33:42Z</time>
      </trkpt>
      <trkpt lat="44.59508" lon="0.83959">
        <ele>138.6</ele>
        <time>2018-04-29T16:33:43Z</time>
      </trkpt>
      <trkpt lat="44.59506" lon="0.83952">
        <ele>138.2</ele>
        <time>2018-04-29T16:33:44Z</time>
      </trkpt>
      <trkpt lat="44.59502" lon="0.83945">
        <ele>137.8</ele>
        <time>2018-04-29T16:33:45Z</time>
      </trkpt>
      <trkpt lat="44.59498" lon="0.8394">
        <ele>136.4</ele>
        <time>2018-04-29T16:33:46Z</time>
      </trkpt>
      <trkpt lat="44.59494" lon="0.83936">
        <ele>135.6</ele>
        <time>2018-04-29T16:33:47Z</time>
      </trkpt>
      <trkpt lat="44.59489" lon="0.83931">
        <ele>135</ele>
        <time>2018-04-29T16:33:48Z</time>
      </trkpt>
      <trkpt lat="44.59481" lon="0.83929">
        <ele>134.4</ele>
        <time>2018-04-29T16:33:49Z</time>
      </trkpt>
      <trkpt lat="44.59476" lon="0.83926">
        <ele>134.4</ele>
        <time>2018-04-29T16:33:50Z</time>
      </trkpt>
      <trkpt lat="44.5947" lon="0.83923">
        <ele>134.4</ele>
        <time>2018-04-29T16:33:51Z</time>
      </trkpt>
      <trkpt lat="44.59466" lon="0.83915">
        <ele>134.4</ele>
        <time>2018-04-29T16:33:53Z</time>
      </trkpt>
      <trkpt lat="44.5946" lon="0.83903">
        <ele>134.4</ele>
        <time>2018-04-29T16:33:57Z</time>
      </trkpt>
      <trkpt lat="44.59454" lon="0.83891">
        <ele>134.4</ele>
        <time>2018-04-29T16:34:01Z</time>
      </trkpt>
      <trkpt lat="44.5945" lon="0.83875">
        <ele>134.4</ele>
        <time>2018-04-29T16:34:05Z</time>
      </trkpt>
      <trkpt lat="44.59449" lon="0.83872">
        <ele>134.4</ele>
        <time>2018-04-29T16:34:06Z</time>
      </trkpt>
      <trkpt lat="44.59446" lon="0.83866">
        <ele>134.4</ele>
        <time>2018-04-29T16:34:08Z</time>
      </trkpt>
      <trkpt lat="44.59444" lon="0.83858">
        <ele>134.8</ele>
        <time>2018-04-29T16:34:11Z</time>
      </trkpt>
      <trkpt lat="44.59444" lon="0.83854">
        <ele>135.2</ele>
        <time>2018-04-29T16:34:12Z</time>
      </trkpt>
      <trkpt lat="44.59443" lon="0.83851">
        <ele>135.6</ele>
        <time>2018-04-29T16:34:13Z</time>
      </trkpt>
      <trkpt lat="44.59442" lon="0.83849">
        <ele>136</ele>
        <time>2018-04-29T16:34:14Z</time>
      </trkpt>
      <trkpt lat="44.59441" lon="0.83846">
        <ele>136.4</ele>
        <time>2018-04-29T16:34:15Z</time>
      </trkpt>
      <trkpt lat="44.5944" lon="0.83845">
        <ele>136.4</ele>
        <time>2018-04-29T16:34:16Z</time>
      </trkpt>
      <trkpt lat="44.59439" lon="0.83843">
        <ele>136.8</ele>
        <time>2018-04-29T16:34:17Z</time>
      </trkpt>
      <trkpt lat="44.59437" lon="0.83841">
        <ele>137.2</ele>
        <time>2018-04-29T16:34:18Z</time>
      </trkpt>
      <trkpt lat="44.59436" lon="0.83839">
        <ele>137.6</ele>
        <time>2018-04-29T16:34:19Z</time>
      </trkpt>
      <trkpt lat="44.59435" lon="0.83837">
        <ele>138</ele>
        <time>2018-04-29T16:34:20Z</time>
      </trkpt>
      <trkpt lat="44.59434" lon="0.83836">
        <ele>138.4</ele>
        <time>2018-04-29T16:34:21Z</time>
      </trkpt>
      <trkpt lat="44.5943" lon="0.83828">
        <ele>138.4</ele>
        <time>2018-04-29T16:34:25Z</time>
      </trkpt>
      <trkpt lat="44.59428" lon="0.83826">
        <ele>138.4</ele>
        <time>2018-04-29T16:34:26Z</time>
      </trkpt>
      <trkpt lat="44.59426" lon="0.83821">
        <ele>138.8</ele>
        <time>2018-04-29T16:34:28Z</time>
      </trkpt>
      <trkpt lat="44.59425" lon="0.83819">
        <ele>139.2</ele>
        <time>2018-04-29T16:34:29Z</time>
      </trkpt>
      <trkpt lat="44.59425" lon="0.83817">
        <ele>139.6</ele>
        <time>2018-04-29T16:34:30Z</time>
      </trkpt>
      <trkpt lat="44.59423" lon="0.83814">
        <ele>140</ele>
        <time>2018-04-29T16:34:31Z</time>
      </trkpt>
      <trkpt lat="44.59423" lon="0.83812">
        <ele>140.4</ele>
        <time>2018-04-29T16:34:32Z</time>
      </trkpt>
      <trkpt lat="44.5942" lon="0.83806">
        <ele>140.4</ele>
        <time>2018-04-29T16:34:36Z</time>
      </trkpt>
      <trkpt lat="44.59419" lon="0.83803">
        <ele>140.4</ele>
        <time>2018-04-29T16:34:38Z</time>
      </trkpt>
      <trkpt lat="44.59418" lon="0.83801">
        <ele>140.8</ele>
        <time>2018-04-29T16:34:39Z</time>
      </trkpt>
      <trkpt lat="44.59418" lon="0.83799">
        <ele>141.2</ele>
        <time>2018-04-29T16:34:40Z</time>
      </trkpt>
      <trkpt lat="44.59416" lon="0.83798">
        <ele>141.6</ele>
        <time>2018-04-29T16:34:41Z</time>
      </trkpt>
      <trkpt lat="44.59415" lon="0.83796">
        <ele>142</ele>
        <time>2018-04-29T16:34:42Z</time>
      </trkpt>
      <trkpt lat="44.59413" lon="0.83796">
        <ele>142.4</ele>
        <time>2018-04-29T16:34:43Z</time>
      </trkpt>
      <trkpt lat="44.59409" lon="0.83795">
        <ele>142.4</ele>
        <time>2018-04-29T16:34:46Z</time>
      </trkpt>
      <trkpt lat="44.59406" lon="0.83794">
        <ele>142.4</ele>
        <time>2018-04-29T16:34:48Z</time>
      </trkpt>
      <trkpt lat="44.59396" lon="0.83793">
        <ele>142.4</ele>
        <time>2018-04-29T16:34:53Z</time>
      </trkpt>
      <trkpt lat="44.59394" lon="0.83791">
        <ele>142.4</ele>
        <time>2018-04-29T16:34:54Z</time>
      </trkpt>
      <trkpt lat="44.59394" lon="0.8379">
        <ele>142.8</ele>
        <time>2018-04-29T16:34:55Z</time>
      </trkpt>
      <trkpt lat="44.59392" lon="0.83789">
        <ele>143.2</ele>
        <time>2018-04-29T16:34:56Z</time>
      </trkpt>
      <trkpt lat="44.59391" lon="0.83788">
        <ele>143.8</ele>
        <time>2018-04-29T16:34:57Z</time>
      </trkpt>
      <trkpt lat="44.5939" lon="0.83787">
        <ele>144.2</ele>
        <time>2018-04-29T16:34:58Z</time>
      </trkpt>
      <trkpt lat="44.59389" lon="0.83786">
        <ele>144.6</ele>
        <time>2018-04-29T16:34:59Z</time>
      </trkpt>
      <trkpt lat="44.59387" lon="0.83786">
        <ele>144.6</ele>
        <time>2018-04-29T16:35:00Z</time>
      </trkpt>
      <trkpt lat="44.59386" lon="0.83785">
        <ele>144.6</ele>
        <time>2018-04-29T16:35:01Z</time>
      </trkpt>
      <trkpt lat="44.59383" lon="0.83787">
        <ele>145</ele>
        <time>2018-04-29T16:35:05Z</time>
      </trkpt>
      <trkpt lat="44.59381" lon="0.83788">
        <ele>145.4</ele>
        <time>2018-04-29T16:35:06Z</time>
      </trkpt>
      <trkpt lat="44.59379" lon="0.83788">
        <ele>145.8</ele>
        <time>2018-04-29T16:35:07Z</time>
      </trkpt>
      <trkpt lat="44.59377" lon="0.83788">
        <ele>146.2</ele>
        <time>2018-04-29T16:35:08Z</time>
      </trkpt>
      <trkpt lat="44.59375" lon="0.83788">
        <ele>146.6</ele>
        <time>2018-04-29T16:35:09Z</time>
      </trkpt>
      <trkpt lat="44.59369" lon="0.83789">
        <ele>146.6</ele>
        <time>2018-04-29T16:35:12Z</time>
      </trkpt>
      <trkpt lat="44.59363" lon="0.8379">
        <ele>146.6</ele>
        <time>2018-04-29T16:35:16Z</time>
      </trkpt>
      <trkpt lat="44.59351" lon="0.8379">
        <ele>146.6</ele>
        <time>2018-04-29T16:35:22Z</time>
      </trkpt>
      <trkpt lat="44.59345" lon="0.8379">
        <ele>147.4</ele>
        <time>2018-04-29T16:35:25Z</time>
      </trkpt>
      <trkpt lat="44.59343" lon="0.8379">
        <ele>147.8</ele>
        <time>2018-04-29T16:35:26Z</time>
      </trkpt>
      <trkpt lat="44.59342" lon="0.8379">
        <ele>148.2</ele>
        <time>2018-04-29T16:35:27Z</time>
      </trkpt>
      <trkpt lat="44.5934" lon="0.8379">
        <ele>148.6</ele>
        <time>2018-04-29T16:35:28Z</time>
      </trkpt>
      <trkpt lat="44.59339" lon="0.83791">
        <ele>148.6</ele>
        <time>2018-04-29T16:35:29Z</time>
      </trkpt>
      <trkpt lat="44.5933" lon="0.83791">
        <ele>148.6</ele>
        <time>2018-04-29T16:35:34Z</time>
      </trkpt>
      <trkpt lat="44.59323" lon="0.83794">
        <ele>148.6</ele>
        <time>2018-04-29T16:35:40Z</time>
      </trkpt>
      <trkpt lat="44.59321" lon="0.83795">
        <ele>149</ele>
        <time>2018-04-29T16:35:41Z</time>
      </trkpt>
      <trkpt lat="44.59319" lon="0.83795">
        <ele>149.4</ele>
        <time>2018-04-29T16:35:42Z</time>
      </trkpt>
      <trkpt lat="44.59318" lon="0.83796">
        <ele>149.8</ele>
        <time>2018-04-29T16:35:43Z</time>
      </trkpt>
      <trkpt lat="44.59316" lon="0.83797">
        <ele>150.2</ele>
        <time>2018-04-29T16:35:44Z</time>
      </trkpt>
      <trkpt lat="44.59315" lon="0.83797">
        <ele>150.6</ele>
        <time>2018-04-29T16:35:45Z</time>
      </trkpt>
      <trkpt lat="44.59313" lon="0.83798">
        <ele>150.6</ele>
        <time>2018-04-29T16:35:46Z</time>
      </trkpt>
      <trkpt lat="44.59308" lon="0.83796">
        <ele>150.6</ele>
        <time>2018-04-29T16:35:49Z</time>
      </trkpt>
      <trkpt lat="44.59307" lon="0.83793">
        <ele>150.6</ele>
        <time>2018-04-29T16:35:50Z</time>
      </trkpt>
      <trkpt lat="44.593" lon="0.83787">
        <ele>150.6</ele>
        <time>2018-04-29T16:35:54Z</time>
      </trkpt>
      <trkpt lat="44.59296" lon="0.83782">
        <ele>150.6</ele>
        <time>2018-04-29T16:35:57Z</time>
      </trkpt>
      <trkpt lat="44.59291" lon="0.83777">
        <ele>150.6</ele>
        <time>2018-04-29T16:35:59Z</time>
      </trkpt>
      <trkpt lat="44.59281" lon="0.83769">
        <ele>150.6</ele>
        <time>2018-04-29T16:36:04Z</time>
      </trkpt>
      <trkpt lat="44.59275" lon="0.83765">
        <ele>150.6</ele>
        <time>2018-04-29T16:36:07Z</time>
      </trkpt>
      <trkpt lat="44.59271" lon="0.83763">
        <ele>150.6</ele>
        <time>2018-04-29T16:36:09Z</time>
      </trkpt>
      <trkpt lat="44.59267" lon="0.83762">
        <ele>150.6</ele>
        <time>2018-04-29T16:36:11Z</time>
      </trkpt>
      <trkpt lat="44.59266" lon="0.83761">
        <ele>150.6</ele>
        <time>2018-04-29T16:36:12Z</time>
      </trkpt>
      <trkpt lat="44.59266" lon="0.83758">
        <ele>150.6</ele>
        <time>2018-04-29T16:36:14Z</time>
      </trkpt>
      <trkpt lat="44.59266" lon="0.83757">
        <ele>150.6</ele>
        <time>2018-04-29T16:36:15Z</time>
      </trkpt>
      <trkpt lat="44.59266" lon="0.83753">
        <ele>150.6</ele>
        <time>2018-04-29T16:36:18Z</time>
      </trkpt>
      <trkpt lat="44.59265" lon="0.8375">
        <ele>150.6</ele>
        <time>2018-04-29T16:36:21Z</time>
      </trkpt>
      <trkpt lat="44.59264" lon="0.83749">
        <ele>150.6</ele>
        <time>2018-04-29T16:36:22Z</time>
      </trkpt>
      <trkpt lat="44.59262" lon="0.83746">
        <ele>150.6</ele>
        <time>2018-04-29T16:36:25Z</time>
      </trkpt>
      <trkpt lat="44.59259" lon="0.83742">
        <ele>150.6</ele>
        <time>2018-04-29T16:36:27Z</time>
      </trkpt>
      <trkpt lat="44.59257" lon="0.83737">
        <ele>150.6</ele>
        <time>2018-04-29T16:36:29Z</time>
      </trkpt>
      <trkpt lat="44.59255" lon="0.8373">
        <ele>150.6</ele>
        <time>2018-04-29T16:36:31Z</time>
      </trkpt>
      <trkpt lat="44.59254" lon="0.83724">
        <ele>150.6</ele>
        <time>2018-04-29T16:36:33Z</time>
      </trkpt>
      <trkpt lat="44.59254" lon="0.83722">
        <ele>150.6</ele>
        <time>2018-04-29T16:36:34Z</time>
      </trkpt>
      <trkpt lat="44.5925" lon="0.83714">
        <ele>150.6</ele>
        <time>2018-04-29T16:36:37Z</time>
      </trkpt>
      <trkpt lat="44.59249" lon="0.83711">
        <ele>150.6</ele>
        <time>2018-04-29T16:36:38Z</time>
      </trkpt>
      <trkpt lat="44.59245" lon="0.837">
        <ele>150.6</ele>
        <time>2018-04-29T16:36:43Z</time>
      </trkpt>
      <trkpt lat="44.59244" lon="0.83694">
        <ele>150.6</ele>
        <time>2018-04-29T16:36:46Z</time>
      </trkpt>
      <trkpt lat="44.59242" lon="0.83689">
        <ele>150.6</ele>
        <time>2018-04-29T16:36:48Z</time>
      </trkpt>
      <trkpt lat="44.59239" lon="0.83684">
        <ele>150.6</ele>
        <time>2018-04-29T16:36:51Z</time>
      </trkpt>
      <trkpt lat="44.59238" lon="0.83681">
        <ele>150.6</ele>
        <time>2018-04-29T16:36:52Z</time>
      </trkpt>
      <trkpt lat="44.59235" lon="0.83676">
        <ele>150.6</ele>
        <time>2018-04-29T16:36:54Z</time>
      </trkpt>
      <trkpt lat="44.59233" lon="0.83669">
        <ele>150.6</ele>
        <time>2018-04-29T16:36:57Z</time>
      </trkpt>
      <trkpt lat="44.59235" lon="0.83663">
        <ele>150.6</ele>
        <time>2018-04-29T16:36:59Z</time>
      </trkpt>
      <trkpt lat="44.59236" lon="0.83658">
        <ele>151</ele>
        <time>2018-04-29T16:37:01Z</time>
      </trkpt>
      <trkpt lat="44.59237" lon="0.83655">
        <ele>151.4</ele>
        <time>2018-04-29T16:37:02Z</time>
      </trkpt>
      <trkpt lat="44.59237" lon="0.83653">
        <ele>151.8</ele>
        <time>2018-04-29T16:37:03Z</time>
      </trkpt>
      <trkpt lat="44.59238" lon="0.8365">
        <ele>152.6</ele>
        <time>2018-04-29T16:37:04Z</time>
      </trkpt>
      <trkpt lat="44.59238" lon="0.83648">
        <ele>152.6</ele>
        <time>2018-04-29T16:37:05Z</time>
      </trkpt>
      <trkpt lat="44.5924" lon="0.83639">
        <ele>152.6</ele>
        <time>2018-04-29T16:37:08Z</time>
      </trkpt>
      <trkpt lat="44.59241" lon="0.83633">
        <ele>152.6</ele>
        <time>2018-04-29T16:37:10Z</time>
      </trkpt>
      <trkpt lat="44.59243" lon="0.83624">
        <ele>152.6</ele>
        <time>2018-04-29T16:37:13Z</time>
      </trkpt>
      <trkpt lat="44.59242" lon="0.83618">
        <ele>152.6</ele>
        <time>2018-04-29T16:37:15Z</time>
      </trkpt>
      <trkpt lat="44.5924" lon="0.83614">
        <ele>152.6</ele>
        <time>2018-04-29T16:37:17Z</time>
      </trkpt>
      <trkpt lat="44.59237" lon="0.83616">
        <ele>152.6</ele>
        <time>2018-04-29T16:37:19Z</time>
      </trkpt>
      <trkpt lat="44.59235" lon="0.83619">
        <ele>152.6</ele>
        <time>2018-04-29T16:37:22Z</time>
      </trkpt>
      <trkpt lat="44.59234" lon="0.83621">
        <ele>152.6</ele>
        <time>2018-04-29T16:37:24Z</time>
      </trkpt>
      <trkpt lat="44.59233" lon="0.83622">
        <ele>152.6</ele>
        <time>2018-04-29T16:37:25Z</time>
      </trkpt>
      <trkpt lat="44.5923" lon="0.83625">
        <ele>152.6</ele>
        <time>2018-04-29T16:37:30Z</time>
      </trkpt>
      <trkpt lat="44.59229" lon="0.83627">
        <ele>152.6</ele>
        <time>2018-04-29T16:37:33Z</time>
      </trkpt>
      <trkpt lat="44.59228" lon="0.83631">
        <ele>152.6</ele>
        <time>2018-04-29T16:37:36Z</time>
      </trkpt>
      <trkpt lat="44.59226" lon="0.83635">
        <ele>152.6</ele>
        <time>2018-04-29T16:37:39Z</time>
      </trkpt>
      <trkpt lat="44.59226" lon="0.83636">
        <ele>152.6</ele>
        <time>2018-04-29T16:37:40Z</time>
      </trkpt>
      <trkpt lat="44.59224" lon="0.83637">
        <ele>152.6</ele>
        <time>2018-04-29T16:37:42Z</time>
      </trkpt>
      <trkpt lat="44.59217" lon="0.83652">
        <ele>152.6</ele>
        <time>2018-04-29T16:37:49Z</time>
      </trkpt>
      <trkpt lat="44.59214" lon="0.83656">
        <ele>152.6</ele>
        <time>2018-04-29T16:37:52Z</time>
      </trkpt>
      <trkpt lat="44.59212" lon="0.83661">
        <ele>152.6</ele>
        <time>2018-04-29T16:37:54Z</time>
      </trkpt>
      <trkpt lat="44.59208" lon="0.83671">
        <ele>152.6</ele>
        <time>2018-04-29T16:37:59Z</time>
      </trkpt>
      <trkpt lat="44.59204" lon="0.83681">
        <ele>153</ele>
        <time>2018-04-29T16:38:04Z</time>
      </trkpt>
      <trkpt lat="44.59203" lon="0.83684">
        <ele>153.4</ele>
        <time>2018-04-29T16:38:05Z</time>
      </trkpt>
      <trkpt lat="44.59203" lon="0.83686">
        <ele>154</ele>
        <time>2018-04-29T16:38:06Z</time>
      </trkpt>
      <trkpt lat="44.59203" lon="0.83689">
        <ele>154.4</ele>
        <time>2018-04-29T16:38:07Z</time>
      </trkpt>
      <trkpt lat="44.59202" lon="0.83691">
        <ele>154.8</ele>
        <time>2018-04-29T16:38:08Z</time>
      </trkpt>
      <trkpt lat="44.592" lon="0.83698">
        <ele>154.8</ele>
        <time>2018-04-29T16:38:11Z</time>
      </trkpt>
      <trkpt lat="44.592" lon="0.8371">
        <ele>154.8</ele>
        <time>2018-04-29T16:38:17Z</time>
      </trkpt>
      <trkpt lat="44.59199" lon="0.83712">
        <ele>154.8</ele>
        <time>2018-04-29T16:38:18Z</time>
      </trkpt>
      <trkpt lat="44.59198" lon="0.83717">
        <ele>154.8</ele>
        <time>2018-04-29T16:38:21Z</time>
      </trkpt>
      <trkpt lat="44.59198" lon="0.83717">
        <ele>154.8</ele>
        <time>2018-04-29T16:38:22Z</time>
      </trkpt>
      <trkpt lat="44.59197" lon="0.83741">
        <ele>154.8</ele>
        <time>2018-04-29T16:38:41Z</time>
      </trkpt>
      <trkpt lat="44.59197" lon="0.83745">
        <ele>154.8</ele>
        <time>2018-04-29T16:38:44Z</time>
      </trkpt>
      <trkpt lat="44.59197" lon="0.83753">
        <ele>154.8</ele>
        <time>2018-04-29T16:38:48Z</time>
      </trkpt>
      <trkpt lat="44.59198" lon="0.83754">
        <ele>154.8</ele>
        <time>2018-04-29T16:38:49Z</time>
      </trkpt>
      <trkpt lat="44.59198" lon="0.83757">
        <ele>154.8</ele>
        <time>2018-04-29T16:38:51Z</time>
      </trkpt>
      <trkpt lat="44.59197" lon="0.83765">
        <ele>154.8</ele>
        <time>2018-04-29T16:38:54Z</time>
      </trkpt>
      <trkpt lat="44.59198" lon="0.83777">
        <ele>154.8</ele>
        <time>2018-04-29T16:38:57Z</time>
      </trkpt>
      <trkpt lat="44.59196" lon="0.83785">
        <ele>154.8</ele>
        <time>2018-04-29T16:38:59Z</time>
      </trkpt>
      <trkpt lat="44.59194" lon="0.83803">
        <ele>154.8</ele>
        <time>2018-04-29T16:39:04Z</time>
      </trkpt>
      <trkpt lat="44.5919" lon="0.83826">
        <ele>154.8</ele>
        <time>2018-04-29T16:39:10Z</time>
      </trkpt>
      <trkpt lat="44.59188" lon="0.83834">
        <ele>154.8</ele>
        <time>2018-04-29T16:39:12Z</time>
      </trkpt>
      <trkpt lat="44.59188" lon="0.83842">
        <ele>154.8</ele>
        <time>2018-04-29T16:39:14Z</time>
      </trkpt>
      <trkpt lat="44.59187" lon="0.83851">
        <ele>154.8</ele>
        <time>2018-04-29T16:39:16Z</time>
      </trkpt>
      <trkpt lat="44.59182" lon="0.83863">
        <ele>154.8</ele>
        <time>2018-04-29T16:39:19Z</time>
      </trkpt>
      <trkpt lat="44.5918" lon="0.83867">
        <ele>155.2</ele>
        <time>2018-04-29T16:39:20Z</time>
      </trkpt>
      <trkpt lat="44.59178" lon="0.83871">
        <ele>155.6</ele>
        <time>2018-04-29T16:39:21Z</time>
      </trkpt>
      <trkpt lat="44.59176" lon="0.83874">
        <ele>156</ele>
        <time>2018-04-29T16:39:22Z</time>
      </trkpt>
      <trkpt lat="44.59174" lon="0.83877">
        <ele>156.4</ele>
        <time>2018-04-29T16:39:23Z</time>
      </trkpt>
      <trkpt lat="44.59173" lon="0.83881">
        <ele>156.8</ele>
        <time>2018-04-29T16:39:24Z</time>
      </trkpt>
      <trkpt lat="44.59166" lon="0.83895">
        <ele>156.8</ele>
        <time>2018-04-29T16:39:28Z</time>
      </trkpt>
      <trkpt lat="44.59164" lon="0.83902">
        <ele>156.8</ele>
        <time>2018-04-29T16:39:30Z</time>
      </trkpt>
      <trkpt lat="44.59155" lon="0.83922">
        <ele>156.8</ele>
        <time>2018-04-29T16:39:36Z</time>
      </trkpt>
      <trkpt lat="44.59151" lon="0.83933">
        <ele>157.2</ele>
        <time>2018-04-29T16:39:39Z</time>
      </trkpt>
      <trkpt lat="44.59149" lon="0.83936">
        <ele>157.6</ele>
        <time>2018-04-29T16:39:40Z</time>
      </trkpt>
      <trkpt lat="44.59148" lon="0.83939">
        <ele>158</ele>
        <time>2018-04-29T16:39:41Z</time>
      </trkpt>
      <trkpt lat="44.59147" lon="0.83943">
        <ele>158.4</ele>
        <time>2018-04-29T16:39:42Z</time>
      </trkpt>
      <trkpt lat="44.59145" lon="0.83946">
        <ele>158.8</ele>
        <time>2018-04-29T16:39:43Z</time>
      </trkpt>
      <trkpt lat="44.59144" lon="0.83949">
        <ele>158.8</ele>
        <time>2018-04-29T16:39:44Z</time>
      </trkpt>
      <trkpt lat="44.59134" lon="0.83964">
        <ele>158.8</ele>
        <time>2018-04-29T16:39:49Z</time>
      </trkpt>
      <trkpt lat="44.59121" lon="0.83987">
        <ele>158.8</ele>
        <time>2018-04-29T16:39:56Z</time>
      </trkpt>
      <trkpt lat="44.59118" lon="0.84009">
        <ele>158.8</ele>
        <time>2018-04-29T16:40:01Z</time>
      </trkpt>
      <trkpt lat="44.59115" lon="0.84025">
        <ele>158.8</ele>
        <time>2018-04-29T16:40:04Z</time>
      </trkpt>
      <trkpt lat="44.59114" lon="0.84031">
        <ele>158.8</ele>
        <time>2018-04-29T16:40:05Z</time>
      </trkpt>
      <trkpt lat="44.59112" lon="0.84047">
        <ele>158.8</ele>
        <time>2018-04-29T16:40:07Z</time>
      </trkpt>
      <trkpt lat="44.59111" lon="0.84064">
        <ele>158.8</ele>
        <time>2018-04-29T16:40:09Z</time>
      </trkpt>
      <trkpt lat="44.59111" lon="0.84073">
        <ele>158.8</ele>
        <time>2018-04-29T16:40:10Z</time>
      </trkpt>
      <trkpt lat="44.59111" lon="0.84082">
        <ele>158.4</ele>
        <time>2018-04-29T16:40:11Z</time>
      </trkpt>
      <trkpt lat="44.59111" lon="0.84092">
        <ele>158</ele>
        <time>2018-04-29T16:40:12Z</time>
      </trkpt>
      <trkpt lat="44.59111" lon="0.84103">
        <ele>157.6</ele>
        <time>2018-04-29T16:40:13Z</time>
      </trkpt>
      <trkpt lat="44.59113" lon="0.84114">
        <ele>157</ele>
        <time>2018-04-29T16:40:14Z</time>
      </trkpt>
      <trkpt lat="44.59115" lon="0.84127">
        <ele>156.4</ele>
        <time>2018-04-29T16:40:15Z</time>
      </trkpt>
      <trkpt lat="44.59119" lon="0.84139">
        <ele>155.6</ele>
        <time>2018-04-29T16:40:16Z</time>
      </trkpt>
      <trkpt lat="44.59123" lon="0.84153">
        <ele>154.6</ele>
        <time>2018-04-29T16:40:17Z</time>
      </trkpt>
      <trkpt lat="44.59128" lon="0.84166">
        <ele>153.4</ele>
        <time>2018-04-29T16:40:18Z</time>
      </trkpt>
      <trkpt lat="44.59134" lon="0.84181">
        <ele>152.4</ele>
        <time>2018-04-29T16:40:19Z</time>
      </trkpt>
      <trkpt lat="44.59141" lon="0.84195">
        <ele>151.2</ele>
        <time>2018-04-29T16:40:20Z</time>
      </trkpt>
      <trkpt lat="44.59148" lon="0.84209">
        <ele>150</ele>
        <time>2018-04-29T16:40:21Z</time>
      </trkpt>
      <trkpt lat="44.59155" lon="0.84223">
        <ele>147.6</ele>
        <time>2018-04-29T16:40:22Z</time>
      </trkpt>
      <trkpt lat="44.59161" lon="0.84236">
        <ele>146.4</ele>
        <time>2018-04-29T16:40:23Z</time>
      </trkpt>
      <trkpt lat="44.59167" lon="0.84249">
        <ele>145.6</ele>
        <time>2018-04-29T16:40:24Z</time>
      </trkpt>
      <trkpt lat="44.59175" lon="0.84261">
        <ele>144.6</ele>
        <time>2018-04-29T16:40:25Z</time>
      </trkpt>
      <trkpt lat="44.59182" lon="0.84271">
        <ele>143.8</ele>
        <time>2018-04-29T16:40:26Z</time>
      </trkpt>
      <trkpt lat="44.59191" lon="0.84282">
        <ele>142.8</ele>
        <time>2018-04-29T16:40:27Z</time>
      </trkpt>
      <trkpt lat="44.59199" lon="0.84292">
        <ele>142</ele>
        <time>2018-04-29T16:40:28Z</time>
      </trkpt>
      <trkpt lat="44.59224" lon="0.8432">
        <ele>142</ele>
        <time>2018-04-29T16:40:31Z</time>
      </trkpt>
      <trkpt lat="44.59232" lon="0.84327">
        <ele>141.6</ele>
        <time>2018-04-29T16:40:32Z</time>
      </trkpt>
      <trkpt lat="44.59239" lon="0.84334">
        <ele>141.2</ele>
        <time>2018-04-29T16:40:33Z</time>
      </trkpt>
      <trkpt lat="44.59247" lon="0.84343">
        <ele>140.8</ele>
        <time>2018-04-29T16:40:34Z</time>
      </trkpt>
      <trkpt lat="44.59256" lon="0.84351">
        <ele>140.4</ele>
        <time>2018-04-29T16:40:35Z</time>
      </trkpt>
      <trkpt lat="44.59263" lon="0.84358">
        <ele>140</ele>
        <time>2018-04-29T16:40:36Z</time>
      </trkpt>
      <trkpt lat="44.5928" lon="0.84379">
        <ele>140</ele>
        <time>2018-04-29T16:40:39Z</time>
      </trkpt>
      <trkpt lat="44.59298" lon="0.84407">
        <ele>140</ele>
        <time>2018-04-29T16:40:43Z</time>
      </trkpt>
      <trkpt lat="44.593" lon="0.84413">
        <ele>140</ele>
        <time>2018-04-29T16:40:44Z</time>
      </trkpt>
      <trkpt lat="44.59303" lon="0.8442">
        <ele>140</ele>
        <time>2018-04-29T16:40:45Z</time>
      </trkpt>
      <trkpt lat="44.59307" lon="0.84432">
        <ele>140.8</ele>
        <time>2018-04-29T16:40:47Z</time>
      </trkpt>
      <trkpt lat="44.59308" lon="0.84438">
        <ele>141.2</ele>
        <time>2018-04-29T16:40:48Z</time>
      </trkpt>
      <trkpt lat="44.5931" lon="0.84445">
        <ele>141.6</ele>
        <time>2018-04-29T16:40:49Z</time>
      </trkpt>
      <trkpt lat="44.59311" lon="0.84451">
        <ele>142</ele>
        <time>2018-04-29T16:40:50Z</time>
      </trkpt>
      <trkpt lat="44.59313" lon="0.84464">
        <ele>142</ele>
        <time>2018-04-29T16:40:52Z</time>
      </trkpt>
      <trkpt lat="44.59316" lon="0.84477">
        <ele>142</ele>
        <time>2018-04-29T16:40:54Z</time>
      </trkpt>
      <trkpt lat="44.59317" lon="0.84484">
        <ele>142</ele>
        <time>2018-04-29T16:40:55Z</time>
      </trkpt>
      <trkpt lat="44.59316" lon="0.84504">
        <ele>142</ele>
        <time>2018-04-29T16:40:58Z</time>
      </trkpt>
      <trkpt lat="44.59315" lon="0.84518">
        <ele>142.4</ele>
        <time>2018-04-29T16:41:00Z</time>
      </trkpt>
      <trkpt lat="44.59313" lon="0.84524">
        <ele>142.8</ele>
        <time>2018-04-29T16:41:01Z</time>
      </trkpt>
      <trkpt lat="44.59311" lon="0.8453">
        <ele>143.2</ele>
        <time>2018-04-29T16:41:02Z</time>
      </trkpt>
      <trkpt lat="44.59309" lon="0.84536">
        <ele>143.6</ele>
        <time>2018-04-29T16:41:03Z</time>
      </trkpt>
      <trkpt lat="44.59308" lon="0.84542">
        <ele>144.2</ele>
        <time>2018-04-29T16:41:04Z</time>
      </trkpt>
      <trkpt lat="44.59305" lon="0.84554">
        <ele>144.2</ele>
        <time>2018-04-29T16:41:06Z</time>
      </trkpt>
      <trkpt lat="44.59303" lon="0.84568">
        <ele>144.2</ele>
        <time>2018-04-29T16:41:09Z</time>
      </trkpt>
      <trkpt lat="44.59303" lon="0.84583">
        <ele>144.6</ele>
        <time>2018-04-29T16:41:12Z</time>
      </trkpt>
      <trkpt lat="44.59303" lon="0.84588">
        <ele>145</ele>
        <time>2018-04-29T16:41:13Z</time>
      </trkpt>
      <trkpt lat="44.59304" lon="0.84592">
        <ele>145.4</ele>
        <time>2018-04-29T16:41:14Z</time>
      </trkpt>
      <trkpt lat="44.59305" lon="0.84596">
        <ele>145.8</ele>
        <time>2018-04-29T16:41:15Z</time>
      </trkpt>
      <trkpt lat="44.59305" lon="0.846">
        <ele>146.2</ele>
        <time>2018-04-29T16:41:16Z</time>
      </trkpt>
      <trkpt lat="44.59308" lon="0.84615">
        <ele>146.2</ele>
        <time>2018-04-29T16:41:19Z</time>
      </trkpt>
      <trkpt lat="44.59311" lon="0.84631">
        <ele>146.2</ele>
        <time>2018-04-29T16:41:23Z</time>
      </trkpt>
      <trkpt lat="44.59314" lon="0.84641">
        <ele>146.6</ele>
        <time>2018-04-29T16:41:25Z</time>
      </trkpt>
      <trkpt lat="44.59315" lon="0.84645">
        <ele>147</ele>
        <time>2018-04-29T16:41:26Z</time>
      </trkpt>
      <trkpt lat="44.59317" lon="0.8465">
        <ele>147.4</ele>
        <time>2018-04-29T16:41:27Z</time>
      </trkpt>
      <trkpt lat="44.5932" lon="0.84654">
        <ele>147.8</ele>
        <time>2018-04-29T16:41:28Z</time>
      </trkpt>
      <trkpt lat="44.59322" lon="0.84658">
        <ele>148.2</ele>
        <time>2018-04-29T16:41:29Z</time>
      </trkpt>
      <trkpt lat="44.59331" lon="0.84681">
        <ele>148.2</ele>
        <time>2018-04-29T16:41:35Z</time>
      </trkpt>
      <trkpt lat="44.59335" lon="0.84686">
        <ele>148.6</ele>
        <time>2018-04-29T16:41:37Z</time>
      </trkpt>
      <trkpt lat="44.59336" lon="0.84689">
        <ele>149</ele>
        <time>2018-04-29T16:41:38Z</time>
      </trkpt>
      <trkpt lat="44.59338" lon="0.84693">
        <ele>149.4</ele>
        <time>2018-04-29T16:41:39Z</time>
      </trkpt>
      <trkpt lat="44.59339" lon="0.84696">
        <ele>149.8</ele>
        <time>2018-04-29T16:41:40Z</time>
      </trkpt>
      <trkpt lat="44.5934" lon="0.847">
        <ele>150.2</ele>
        <time>2018-04-29T16:41:41Z</time>
      </trkpt>
      <trkpt lat="44.59345" lon="0.84714">
        <ele>150.8</ele>
        <time>2018-04-29T16:41:45Z</time>
      </trkpt>
      <trkpt lat="44.59346" lon="0.84717">
        <ele>151.2</ele>
        <time>2018-04-29T16:41:46Z</time>
      </trkpt>
      <trkpt lat="44.59347" lon="0.8472">
        <ele>151.6</ele>
        <time>2018-04-29T16:41:47Z</time>
      </trkpt>
      <trkpt lat="44.59348" lon="0.84724">
        <ele>152</ele>
        <time>2018-04-29T16:41:48Z</time>
      </trkpt>
      <trkpt lat="44.59349" lon="0.84728">
        <ele>152.6</ele>
        <time>2018-04-29T16:41:49Z</time>
      </trkpt>
      <trkpt lat="44.59352" lon="0.84736">
        <ele>153</ele>
        <time>2018-04-29T16:41:51Z</time>
      </trkpt>
      <trkpt lat="44.59353" lon="0.8474">
        <ele>153.4</ele>
        <time>2018-04-29T16:41:52Z</time>
      </trkpt>
      <trkpt lat="44.59354" lon="0.84743">
        <ele>153.8</ele>
        <time>2018-04-29T16:41:53Z</time>
      </trkpt>
      <trkpt lat="44.59355" lon="0.84747">
        <ele>154.2</ele>
        <time>2018-04-29T16:41:54Z</time>
      </trkpt>
      <trkpt lat="44.59356" lon="0.84751">
        <ele>154.6</ele>
        <time>2018-04-29T16:41:55Z</time>
      </trkpt>
      <trkpt lat="44.59358" lon="0.84754">
        <ele>155.2</ele>
        <time>2018-04-29T16:41:56Z</time>
      </trkpt>
      <trkpt lat="44.5936" lon="0.84758">
        <ele>155.6</ele>
        <time>2018-04-29T16:41:57Z</time>
      </trkpt>
      <trkpt lat="44.59362" lon="0.84761">
        <ele>156</ele>
        <time>2018-04-29T16:41:58Z</time>
      </trkpt>
      <trkpt lat="44.59364" lon="0.84763">
        <ele>156.4</ele>
        <time>2018-04-29T16:41:59Z</time>
      </trkpt>
      <trkpt lat="44.59366" lon="0.84767">
        <ele>157</ele>
        <time>2018-04-29T16:42:00Z</time>
      </trkpt>
      <trkpt lat="44.59368" lon="0.84771">
        <ele>158.2</ele>
        <time>2018-04-29T16:42:01Z</time>
      </trkpt>
      <trkpt lat="44.59369" lon="0.84773">
        <ele>158.8</ele>
        <time>2018-04-29T16:42:02Z</time>
      </trkpt>
      <trkpt lat="44.59371" lon="0.84776">
        <ele>159.2</ele>
        <time>2018-04-29T16:42:03Z</time>
      </trkpt>
      <trkpt lat="44.59372" lon="0.84778">
        <ele>159.8</ele>
        <time>2018-04-29T16:42:04Z</time>
      </trkpt>
      <trkpt lat="44.59374" lon="0.84781">
        <ele>160.4</ele>
        <time>2018-04-29T16:42:05Z</time>
      </trkpt>
      <trkpt lat="44.59376" lon="0.84784">
        <ele>161</ele>
        <time>2018-04-29T16:42:06Z</time>
      </trkpt>
      <trkpt lat="44.59377" lon="0.84787">
        <ele>161.6</ele>
        <time>2018-04-29T16:42:07Z</time>
      </trkpt>
      <trkpt lat="44.59381" lon="0.84795">
        <ele>162.2</ele>
        <time>2018-04-29T16:42:09Z</time>
      </trkpt>
      <trkpt lat="44.59383" lon="0.84797">
        <ele>162.6</ele>
        <time>2018-04-29T16:42:10Z</time>
      </trkpt>
      <trkpt lat="44.59385" lon="0.848">
        <ele>163</ele>
        <time>2018-04-29T16:42:11Z</time>
      </trkpt>
      <trkpt lat="44.59387" lon="0.84803">
        <ele>163.4</ele>
        <time>2018-04-29T16:42:12Z</time>
      </trkpt>
      <trkpt lat="44.59388" lon="0.84805">
        <ele>163.8</ele>
        <time>2018-04-29T16:42:13Z</time>
      </trkpt>
      <trkpt lat="44.5939" lon="0.84808">
        <ele>163.8</ele>
        <time>2018-04-29T16:42:14Z</time>
      </trkpt>
      <trkpt lat="44.59396" lon="0.84817">
        <ele>164.4</ele>
        <time>2018-04-29T16:42:18Z</time>
      </trkpt>
      <trkpt lat="44.59398" lon="0.8482">
        <ele>164.8</ele>
        <time>2018-04-29T16:42:19Z</time>
      </trkpt>
      <trkpt lat="44.59399" lon="0.84822">
        <ele>165.2</ele>
        <time>2018-04-29T16:42:20Z</time>
      </trkpt>
      <trkpt lat="44.594" lon="0.84824">
        <ele>165.6</ele>
        <time>2018-04-29T16:42:21Z</time>
      </trkpt>
      <trkpt lat="44.594" lon="0.84826">
        <ele>166</ele>
        <time>2018-04-29T16:42:22Z</time>
      </trkpt>
      <trkpt lat="44.59402" lon="0.84834">
        <ele>166</ele>
        <time>2018-04-29T16:42:26Z</time>
      </trkpt>
      <trkpt lat="44.59404" lon="0.84856">
        <ele>166</ele>
        <time>2018-04-29T16:42:33Z</time>
      </trkpt>
      <trkpt lat="44.59403" lon="0.84877">
        <ele>166</ele>
        <time>2018-04-29T16:42:39Z</time>
      </trkpt>
      <trkpt lat="44.59402" lon="0.84884">
        <ele>166</ele>
        <time>2018-04-29T16:42:41Z</time>
      </trkpt>
      <trkpt lat="44.59395" lon="0.84898">
        <ele>166</ele>
        <time>2018-04-29T16:42:46Z</time>
      </trkpt>
      <trkpt lat="44.59394" lon="0.84901">
        <ele>166</ele>
        <time>2018-04-29T16:42:47Z</time>
      </trkpt>
      <trkpt lat="44.59386" lon="0.84911">
        <ele>166</ele>
        <time>2018-04-29T16:42:51Z</time>
      </trkpt>
      <trkpt lat="44.59384" lon="0.84913">
        <ele>166</ele>
        <time>2018-04-29T16:42:52Z</time>
      </trkpt>
      <trkpt lat="44.59375" lon="0.84923">
        <ele>166</ele>
        <time>2018-04-29T16:42:56Z</time>
      </trkpt>
      <trkpt lat="44.5937" lon="0.84928">
        <ele>166</ele>
        <time>2018-04-29T16:42:58Z</time>
      </trkpt>
      <trkpt lat="44.59369" lon="0.8493">
        <ele>166.4</ele>
        <time>2018-04-29T16:42:59Z</time>
      </trkpt>
      <trkpt lat="44.59367" lon="0.84933">
        <ele>166.8</ele>
        <time>2018-04-29T16:43:00Z</time>
      </trkpt>
      <trkpt lat="44.59364" lon="0.84936">
        <ele>167.2</ele>
        <time>2018-04-29T16:43:01Z</time>
      </trkpt>
      <trkpt lat="44.59362" lon="0.84938">
        <ele>167.6</ele>
        <time>2018-04-29T16:43:02Z</time>
      </trkpt>
      <trkpt lat="44.59359" lon="0.8494">
        <ele>168</ele>
        <time>2018-04-29T16:43:03Z</time>
      </trkpt>
      <trkpt lat="44.59355" lon="0.84942">
        <ele>168</ele>
        <time>2018-04-29T16:43:04Z</time>
      </trkpt>
      <trkpt lat="44.59342" lon="0.84952">
        <ele>168</ele>
        <time>2018-04-29T16:43:08Z</time>
      </trkpt>
      <trkpt lat="44.5934" lon="0.84955">
        <ele>168</ele>
        <time>2018-04-29T16:43:09Z</time>
      </trkpt>
      <trkpt lat="44.59334" lon="0.84972">
        <ele>168</ele>
        <time>2018-04-29T16:43:14Z</time>
      </trkpt>
      <trkpt lat="44.59328" lon="0.84995">
        <ele>168</ele>
        <time>2018-04-29T16:43:18Z</time>
      </trkpt>
      <trkpt lat="44.59324" lon="0.85007">
        <ele>168</ele>
        <time>2018-04-29T16:43:20Z</time>
      </trkpt>
      <trkpt lat="44.59317" lon="0.85019">
        <ele>168</ele>
        <time>2018-04-29T16:43:22Z</time>
      </trkpt>
      <trkpt lat="44.59313" lon="0.85023">
        <ele>168</ele>
        <time>2018-04-29T16:43:23Z</time>
      </trkpt>
      <trkpt lat="44.593" lon="0.85036">
        <ele>168</ele>
        <time>2018-04-29T16:43:26Z</time>
      </trkpt>
      <trkpt lat="44.59297" lon="0.85039">
        <ele>168</ele>
        <time>2018-04-29T16:43:27Z</time>
      </trkpt>
      <trkpt lat="44.59293" lon="0.85044">
        <ele>168</ele>
        <time>2018-04-29T16:43:28Z</time>
      </trkpt>
      <trkpt lat="44.59271" lon="0.8506">
        <ele>168</ele>
        <time>2018-04-29T16:43:33Z</time>
      </trkpt>
      <trkpt lat="44.5926" lon="0.85065">
        <ele>168</ele>
        <time>2018-04-29T16:43:35Z</time>
      </trkpt>
      <trkpt lat="44.59245" lon="0.85071">
        <ele>168</ele>
        <time>2018-04-29T16:43:38Z</time>
      </trkpt>
      <trkpt lat="44.5923" lon="0.85079">
        <ele>168</ele>
        <time>2018-04-29T16:43:41Z</time>
      </trkpt>
      <trkpt lat="44.59221" lon="0.85087">
        <ele>168</ele>
        <time>2018-04-29T16:43:43Z</time>
      </trkpt>
      <trkpt lat="44.59209" lon="0.85098">
        <ele>168</ele>
        <time>2018-04-29T16:43:46Z</time>
      </trkpt>
      <trkpt lat="44.59204" lon="0.85101">
        <ele>168</ele>
        <time>2018-04-29T16:43:47Z</time>
      </trkpt>
      <trkpt lat="44.59195" lon="0.85107">
        <ele>168</ele>
        <time>2018-04-29T16:43:49Z</time>
      </trkpt>
      <trkpt lat="44.59183" lon="0.85118">
        <ele>168</ele>
        <time>2018-04-29T16:43:52Z</time>
      </trkpt>
      <trkpt lat="44.59176" lon="0.85124">
        <ele>168</ele>
        <time>2018-04-29T16:43:54Z</time>
      </trkpt>
      <trkpt lat="44.59173" lon="0.85128">
        <ele>168</ele>
        <time>2018-04-29T16:43:55Z</time>
      </trkpt>
      <trkpt lat="44.59157" lon="0.85139">
        <ele>168</ele>
        <time>2018-04-29T16:43:59Z</time>
      </trkpt>
      <trkpt lat="44.59137" lon="0.85151">
        <ele>168.4</ele>
        <time>2018-04-29T16:44:04Z</time>
      </trkpt>
      <trkpt lat="44.59132" lon="0.85152">
        <ele>169</ele>
        <time>2018-04-29T16:44:05Z</time>
      </trkpt>
      <trkpt lat="44.59129" lon="0.85153">
        <ele>169.4</ele>
        <time>2018-04-29T16:44:06Z</time>
      </trkpt>
      <trkpt lat="44.59125" lon="0.85154">
        <ele>169.8</ele>
        <time>2018-04-29T16:44:07Z</time>
      </trkpt>
      <trkpt lat="44.59122" lon="0.85156">
        <ele>170.2</ele>
        <time>2018-04-29T16:44:08Z</time>
      </trkpt>
      <trkpt lat="44.59109" lon="0.8516">
        <ele>170.2</ele>
        <time>2018-04-29T16:44:12Z</time>
      </trkpt>
      <trkpt lat="44.59102" lon="0.85161">
        <ele>170.2</ele>
        <time>2018-04-29T16:44:14Z</time>
      </trkpt>
      <trkpt lat="44.59088" lon="0.85165">
        <ele>170.2</ele>
        <time>2018-04-29T16:44:18Z</time>
      </trkpt>
      <trkpt lat="44.59077" lon="0.85167">
        <ele>170.2</ele>
        <time>2018-04-29T16:44:21Z</time>
      </trkpt>
      <trkpt lat="44.59064" lon="0.85172">
        <ele>170.2</ele>
        <time>2018-04-29T16:44:25Z</time>
      </trkpt>
      <trkpt lat="44.59057" lon="0.85175">
        <ele>170.2</ele>
        <time>2018-04-29T16:44:27Z</time>
      </trkpt>
      <trkpt lat="44.59046" lon="0.85178">
        <ele>170.2</ele>
        <time>2018-04-29T16:44:30Z</time>
      </trkpt>
      <trkpt lat="44.59036" lon="0.85183">
        <ele>170.2</ele>
        <time>2018-04-29T16:44:33Z</time>
      </trkpt>
      <trkpt lat="44.59022" lon="0.8519">
        <ele>170.2</ele>
        <time>2018-04-29T16:44:38Z</time>
      </trkpt>
      <trkpt lat="44.59021" lon="0.85192">
        <ele>170.2</ele>
        <time>2018-04-29T16:44:39Z</time>
      </trkpt>
      <trkpt lat="44.59009" lon="0.85201">
        <ele>170.2</ele>
        <time>2018-04-29T16:44:45Z</time>
      </trkpt>
      <trkpt lat="44.59003" lon="0.85206">
        <ele>170.2</ele>
        <time>2018-04-29T16:44:48Z</time>
      </trkpt>
      <trkpt lat="44.59" lon="0.85207">
        <ele>170.2</ele>
        <time>2018-04-29T16:44:50Z</time>
      </trkpt>
      <trkpt lat="44.59" lon="0.85206">
        <ele>170.2</ele>
        <time>2018-04-29T16:44:51Z</time>
      </trkpt>
      <trkpt lat="44.58999" lon="0.85205">
        <ele>170.2</ele>
        <time>2018-04-29T16:45:14Z</time>
      </trkpt>
      <trkpt lat="44.58996" lon="0.85204">
        <ele>170.2</ele>
        <time>2018-04-29T16:45:15Z</time>
      </trkpt>
      <trkpt lat="44.58993" lon="0.85204">
        <ele>170.2</ele>
        <time>2018-04-29T16:45:16Z</time>
      </trkpt>
      <trkpt lat="44.5899" lon="0.85204">
        <ele>170.2</ele>
        <time>2018-04-29T16:45:17Z</time>
      </trkpt>
      <trkpt lat="44.58987" lon="0.85206">
        <ele>171</ele>
        <time>2018-04-29T16:45:18Z</time>
      </trkpt>
      <trkpt lat="44.58984" lon="0.85208">
        <ele>171.4</ele>
        <time>2018-04-29T16:45:19Z</time>
      </trkpt>
      <trkpt lat="44.5898" lon="0.85209">
        <ele>171.8</ele>
        <time>2018-04-29T16:45:20Z</time>
      </trkpt>
      <trkpt lat="44.58975" lon="0.8521">
        <ele>172.2</ele>
        <time>2018-04-29T16:45:21Z</time>
      </trkpt>
      <trkpt lat="44.58964" lon="0.85212">
        <ele>172.2</ele>
        <time>2018-04-29T16:45:24Z</time>
      </trkpt>
      <trkpt lat="44.58961" lon="0.85213">
        <ele>172.2</ele>
        <time>2018-04-29T16:45:25Z</time>
      </trkpt>
      <trkpt lat="44.58957" lon="0.85213">
        <ele>172.2</ele>
        <time>2018-04-29T16:45:26Z</time>
      </trkpt>
      <trkpt lat="44.58954" lon="0.85213">
        <ele>172.2</ele>
        <time>2018-04-29T16:45:27Z</time>
      </trkpt>
      <trkpt lat="44.58951" lon="0.85213">
        <ele>172.6</ele>
        <time>2018-04-29T16:45:28Z</time>
      </trkpt>
      <trkpt lat="44.58948" lon="0.85213">
        <ele>173</ele>
        <time>2018-04-29T16:45:29Z</time>
      </trkpt>
      <trkpt lat="44.58946" lon="0.85213">
        <ele>173.6</ele>
        <time>2018-04-29T16:45:30Z</time>
      </trkpt>
      <trkpt lat="44.58944" lon="0.85213">
        <ele>174</ele>
        <time>2018-04-29T16:45:31Z</time>
      </trkpt>
      <trkpt lat="44.58942" lon="0.85212">
        <ele>174.4</ele>
        <time>2018-04-29T16:45:32Z</time>
      </trkpt>
      <trkpt lat="44.58939" lon="0.85211">
        <ele>174.4</ele>
        <time>2018-04-29T16:45:33Z</time>
      </trkpt>
      <trkpt lat="44.58932" lon="0.8521">
        <ele>174.4</ele>
        <time>2018-04-29T16:45:36Z</time>
      </trkpt>
      <trkpt lat="44.58923" lon="0.8521">
        <ele>174.4</ele>
        <time>2018-04-29T16:45:40Z</time>
      </trkpt>
      <trkpt lat="44.58916" lon="0.85204">
        <ele>174.8</ele>
        <time>2018-04-29T16:45:44Z</time>
      </trkpt>
      <trkpt lat="44.58915" lon="0.85201">
        <ele>175.2</ele>
        <time>2018-04-29T16:45:45Z</time>
      </trkpt>
      <trkpt lat="44.58913" lon="0.85199">
        <ele>175.8</ele>
        <time>2018-04-29T16:45:46Z</time>
      </trkpt>
      <trkpt lat="44.58911" lon="0.85197">
        <ele>176.2</ele>
        <time>2018-04-29T16:45:47Z</time>
      </trkpt>
      <trkpt lat="44.58909" lon="0.85195">
        <ele>176.6</ele>
        <time>2018-04-29T16:45:48Z</time>
      </trkpt>
      <trkpt lat="44.58902" lon="0.85186">
        <ele>176.6</ele>
        <time>2018-04-29T16:45:52Z</time>
      </trkpt>
      <trkpt lat="44.58893" lon="0.8518">
        <ele>176.6</ele>
        <time>2018-04-29T16:45:57Z</time>
      </trkpt>
      <trkpt lat="44.58891" lon="0.85179">
        <ele>177</ele>
        <time>2018-04-29T16:45:58Z</time>
      </trkpt>
      <trkpt lat="44.5889" lon="0.85178">
        <ele>177.4</ele>
        <time>2018-04-29T16:45:59Z</time>
      </trkpt>
      <trkpt lat="44.58888" lon="0.85177">
        <ele>178</ele>
        <time>2018-04-29T16:46:00Z</time>
      </trkpt>
      <trkpt lat="44.58886" lon="0.85177">
        <ele>178.4</ele>
        <time>2018-04-29T16:46:01Z</time>
      </trkpt>
      <trkpt lat="44.58883" lon="0.85177">
        <ele>178.8</ele>
        <time>2018-04-29T16:46:02Z</time>
      </trkpt>
      <trkpt lat="44.58875" lon="0.85179">
        <ele>178.8</ele>
        <time>2018-04-29T16:46:06Z</time>
      </trkpt>
      <trkpt lat="44.58867" lon="0.85177">
        <ele>178.8</ele>
        <time>2018-04-29T16:46:10Z</time>
      </trkpt>
      <trkpt lat="44.58866" lon="0.85175">
        <ele>178.8</ele>
        <time>2018-04-29T16:46:11Z</time>
      </trkpt>
      <trkpt lat="44.58858" lon="0.85165">
        <ele>178.8</ele>
        <time>2018-04-29T16:46:15Z</time>
      </trkpt>
      <trkpt lat="44.58848" lon="0.85152">
        <ele>178.8</ele>
        <time>2018-04-29T16:46:20Z</time>
      </trkpt>
      <trkpt lat="44.58846" lon="0.85148">
        <ele>178.8</ele>
        <time>2018-04-29T16:46:21Z</time>
      </trkpt>
      <trkpt lat="44.5884" lon="0.85134">
        <ele>178.8</ele>
        <time>2018-04-29T16:46:24Z</time>
      </trkpt>
      <trkpt lat="44.58836" lon="0.85125">
        <ele>178.8</ele>
        <time>2018-04-29T16:46:26Z</time>
      </trkpt>
      <trkpt lat="44.5883" lon="0.85116">
        <ele>178.8</ele>
        <time>2018-04-29T16:46:28Z</time>
      </trkpt>
      <trkpt lat="44.58823" lon="0.85111">
        <ele>178.8</ele>
        <time>2018-04-29T16:46:30Z</time>
      </trkpt>
      <trkpt lat="44.5882" lon="0.85109">
        <ele>178.8</ele>
        <time>2018-04-29T16:46:31Z</time>
      </trkpt>
      <trkpt lat="44.58815" lon="0.85108">
        <ele>178.8</ele>
        <time>2018-04-29T16:46:32Z</time>
      </trkpt>
      <trkpt lat="44.58811" lon="0.85107">
        <ele>178.8</ele>
        <time>2018-04-29T16:46:33Z</time>
      </trkpt>
      <trkpt lat="44.58806" lon="0.85105">
        <ele>178.8</ele>
        <time>2018-04-29T16:46:34Z</time>
      </trkpt>
      <trkpt lat="44.58797" lon="0.85098">
        <ele>178.8</ele>
        <time>2018-04-29T16:46:36Z</time>
      </trkpt>
      <trkpt lat="44.5879" lon="0.85091">
        <ele>178.4</ele>
        <time>2018-04-29T16:46:38Z</time>
      </trkpt>
      <trkpt lat="44.58788" lon="0.85086">
        <ele>178</ele>
        <time>2018-04-29T16:46:39Z</time>
      </trkpt>
      <trkpt lat="44.58786" lon="0.8508">
        <ele>177.6</ele>
        <time>2018-04-29T16:46:40Z</time>
      </trkpt>
      <trkpt lat="44.58784" lon="0.85074">
        <ele>177.2</ele>
        <time>2018-04-29T16:46:41Z</time>
      </trkpt>
      <trkpt lat="44.58782" lon="0.85067">
        <ele>176.6</ele>
        <time>2018-04-29T16:46:42Z</time>
      </trkpt>
      <trkpt lat="44.58778" lon="0.85054">
        <ele>176.6</ele>
        <time>2018-04-29T16:46:44Z</time>
      </trkpt>
      <trkpt lat="44.58776" lon="0.85049">
        <ele>176.2</ele>
        <time>2018-04-29T16:46:45Z</time>
      </trkpt>
      <trkpt lat="44.58774" lon="0.85045">
        <ele>175.8</ele>
        <time>2018-04-29T16:46:46Z</time>
      </trkpt>
      <trkpt lat="44.58758" lon="0.85034">
        <ele>175.2</ele>
        <time>2018-04-29T16:46:47Z</time>
      </trkpt>
      <trkpt lat="44.58753" lon="0.85028">
        <ele>174.8</ele>
        <time>2018-04-29T16:46:48Z</time>
      </trkpt>
      <trkpt lat="44.58751" lon="0.85025">
        <ele>174.4</ele>
        <time>2018-04-29T16:46:49Z</time>
      </trkpt>
      <trkpt lat="44.5875" lon="0.85021">
        <ele>174.4</ele>
        <time>2018-04-29T16:46:51Z</time>
      </trkpt>
      <trkpt lat="44.58748" lon="0.85018">
        <ele>174.4</ele>
        <time>2018-04-29T16:46:53Z</time>
      </trkpt>
      <trkpt lat="44.58747" lon="0.85019">
        <ele>174.4</ele>
        <time>2018-04-29T16:46:58Z</time>
      </trkpt>
      <trkpt lat="44.58747" lon="0.85019">
        <ele>174.4</ele>
        <time>2018-04-29T16:46:59Z</time>
      </trkpt>
      <trkpt lat="44.58751" lon="0.85013">
        <ele>174.4</ele>
        <time>2018-04-29T16:47:09Z</time>
      </trkpt>
      <trkpt lat="44.58753" lon="0.85011">
        <ele>174.4</ele>
        <time>2018-04-29T16:47:11Z</time>
      </trkpt>
      <trkpt lat="44.58754" lon="0.8501">
        <ele>174.4</ele>
        <time>2018-04-29T16:47:15Z</time>
      </trkpt>
      <trkpt lat="44.58755" lon="0.85001">
        <ele>174.4</ele>
        <time>2018-04-29T16:48:47Z</time>
      </trkpt>
      <trkpt lat="44.58755" lon="0.84999">
        <ele>174.4</ele>
        <time>2018-04-29T16:48:48Z</time>
      </trkpt>
      <trkpt lat="44.58755" lon="0.84997">
        <ele>174.4</ele>
        <time>2018-04-29T16:48:49Z</time>
      </trkpt>
      <trkpt lat="44.5876" lon="0.84981">
        <ele>174.4</ele>
        <time>2018-04-29T16:48:53Z</time>
      </trkpt>
      <trkpt lat="44.58774" lon="0.84954">
        <ele>174.4</ele>
        <time>2018-04-29T16:48:57Z</time>
      </trkpt>
      <trkpt lat="44.58779" lon="0.84946">
        <ele>174.4</ele>
        <time>2018-04-29T16:48:58Z</time>
      </trkpt>
      <trkpt lat="44.58792" lon="0.8493">
        <ele>173.2</ele>
        <time>2018-04-29T16:49:00Z</time>
      </trkpt>
      <trkpt lat="44.58799" lon="0.84921">
        <ele>172.8</ele>
        <time>2018-04-29T16:49:01Z</time>
      </trkpt>
      <trkpt lat="44.58806" lon="0.8491">
        <ele>172.2</ele>
        <time>2018-04-29T16:49:02Z</time>
      </trkpt>
      <trkpt lat="44.58811" lon="0.84897">
        <ele>171.8</ele>
        <time>2018-04-29T16:49:03Z</time>
      </trkpt>
      <trkpt lat="44.58816" lon="0.84885">
        <ele>171.2</ele>
        <time>2018-04-29T16:49:04Z</time>
      </trkpt>
      <trkpt lat="44.58821" lon="0.84872">
        <ele>170.6</ele>
        <time>2018-04-29T16:49:05Z</time>
      </trkpt>
      <trkpt lat="44.58824" lon="0.8486">
        <ele>170.2</ele>
        <time>2018-04-29T16:49:06Z</time>
      </trkpt>
      <trkpt lat="44.58827" lon="0.84849">
        <ele>169.6</ele>
        <time>2018-04-29T16:49:07Z</time>
      </trkpt>
      <trkpt lat="44.5883" lon="0.84838">
        <ele>169</ele>
        <time>2018-04-29T16:49:08Z</time>
      </trkpt>
      <trkpt lat="44.58832" lon="0.8483">
        <ele>168.4</ele>
        <time>2018-04-29T16:49:09Z</time>
      </trkpt>
      <trkpt lat="44.58834" lon="0.84823">
        <ele>167.8</ele>
        <time>2018-04-29T16:49:10Z</time>
      </trkpt>
      <trkpt lat="44.58836" lon="0.84817">
        <ele>167.4</ele>
        <time>2018-04-29T16:49:11Z</time>
      </trkpt>
      <trkpt lat="44.58837" lon="0.8481">
        <ele>166.8</ele>
        <time>2018-04-29T16:49:12Z</time>
      </trkpt>
      <trkpt lat="44.5884" lon="0.848">
        <ele>166.8</ele>
        <time>2018-04-29T16:49:14Z</time>
      </trkpt>
      <trkpt lat="44.58849" lon="0.84776">
        <ele>166.4</ele>
        <time>2018-04-29T16:49:19Z</time>
      </trkpt>
      <trkpt lat="44.58852" lon="0.84771">
        <ele>166</ele>
        <time>2018-04-29T16:49:20Z</time>
      </trkpt>
      <trkpt lat="44.58855" lon="0.84765">
        <ele>165.6</ele>
        <time>2018-04-29T16:49:21Z</time>
      </trkpt>
      <trkpt lat="44.58858" lon="0.84757">
        <ele>165.2</ele>
        <time>2018-04-29T16:49:22Z</time>
      </trkpt>
      <trkpt lat="44.58862" lon="0.8475">
        <ele>164.6</ele>
        <time>2018-04-29T16:49:23Z</time>
      </trkpt>
      <trkpt lat="44.58866" lon="0.84741">
        <ele>164.6</ele>
        <time>2018-04-29T16:49:24Z</time>
      </trkpt>
      <trkpt lat="44.58878" lon="0.84727">
        <ele>164.2</ele>
        <time>2018-04-29T16:49:26Z</time>
      </trkpt>
      <trkpt lat="44.58884" lon="0.8472">
        <ele>163.8</ele>
        <time>2018-04-29T16:49:27Z</time>
      </trkpt>
      <trkpt lat="44.58889" lon="0.84714">
        <ele>163.4</ele>
        <time>2018-04-29T16:49:28Z</time>
      </trkpt>
      <trkpt lat="44.58895" lon="0.84707">
        <ele>163</ele>
        <time>2018-04-29T16:49:29Z</time>
      </trkpt>
      <trkpt lat="44.58899" lon="0.84699">
        <ele>162.4</ele>
        <time>2018-04-29T16:49:30Z</time>
      </trkpt>
      <trkpt lat="44.58903" lon="0.84672">
        <ele>162.4</ele>
        <time>2018-04-29T16:49:33Z</time>
      </trkpt>
      <trkpt lat="44.58908" lon="0.84633">
        <ele>162.4</ele>
        <time>2018-04-29T16:49:37Z</time>
      </trkpt>
      <trkpt lat="44.5891" lon="0.84602">
        <ele>162</ele>
        <time>2018-04-29T16:49:40Z</time>
      </trkpt>
      <trkpt lat="44.58911" lon="0.84593">
        <ele>161.6</ele>
        <time>2018-04-29T16:49:41Z</time>
      </trkpt>
      <trkpt lat="44.58912" lon="0.84586">
        <ele>161.2</ele>
        <time>2018-04-29T16:49:42Z</time>
      </trkpt>
      <trkpt lat="44.58912" lon="0.84579">
        <ele>160.6</ele>
        <time>2018-04-29T16:49:43Z</time>
      </trkpt>
      <trkpt lat="44.58913" lon="0.84572">
        <ele>160.2</ele>
        <time>2018-04-29T16:49:44Z</time>
      </trkpt>
      <trkpt lat="44.58916" lon="0.84555">
        <ele>160.2</ele>
        <time>2018-04-29T16:49:47Z</time>
      </trkpt>
      <trkpt lat="44.58916" lon="0.84547">
        <ele>160.2</ele>
        <time>2018-04-29T16:49:48Z</time>
      </trkpt>
      <trkpt lat="44.58917" lon="0.84532">
        <ele>161</ele>
        <time>2018-04-29T16:49:50Z</time>
      </trkpt>
      <trkpt lat="44.58915" lon="0.84524">
        <ele>161.4</ele>
        <time>2018-04-29T16:49:51Z</time>
      </trkpt>
      <trkpt lat="44.58913" lon="0.84516">
        <ele>161.8</ele>
        <time>2018-04-29T16:49:52Z</time>
      </trkpt>
      <trkpt lat="44.58911" lon="0.84508">
        <ele>162.2</ele>
        <time>2018-04-29T16:49:53Z</time>
      </trkpt>
      <trkpt lat="44.58908" lon="0.84492">
        <ele>162.2</ele>
        <time>2018-04-29T16:49:55Z</time>
      </trkpt>
      <trkpt lat="44.58908" lon="0.84484">
        <ele>162.2</ele>
        <time>2018-04-29T16:49:56Z</time>
      </trkpt>
      <trkpt lat="44.58907" lon="0.84474">
        <ele>162.2</ele>
        <time>2018-04-29T16:49:57Z</time>
      </trkpt>
      <trkpt lat="44.58905" lon="0.84465">
        <ele>162.2</ele>
        <time>2018-04-29T16:49:58Z</time>
      </trkpt>
      <trkpt lat="44.58902" lon="0.84446">
        <ele>162.2</ele>
        <time>2018-04-29T16:50:00Z</time>
      </trkpt>
      <trkpt lat="44.589" lon="0.84437">
        <ele>162.2</ele>
        <time>2018-04-29T16:50:01Z</time>
      </trkpt>
      <trkpt lat="44.58896" lon="0.84419">
        <ele>162.2</ele>
        <time>2018-04-29T16:50:03Z</time>
      </trkpt>
      <trkpt lat="44.58896" lon="0.8441">
        <ele>162.2</ele>
        <time>2018-04-29T16:50:04Z</time>
      </trkpt>
      <trkpt lat="44.58894" lon="0.84401">
        <ele>161.8</ele>
        <time>2018-04-29T16:50:05Z</time>
      </trkpt>
      <trkpt lat="44.58892" lon="0.84392">
        <ele>161.4</ele>
        <time>2018-04-29T16:50:06Z</time>
      </trkpt>
      <trkpt lat="44.58889" lon="0.84382">
        <ele>161</ele>
        <time>2018-04-29T16:50:07Z</time>
      </trkpt>
      <trkpt lat="44.58886" lon="0.84373">
        <ele>160.6</ele>
        <time>2018-04-29T16:50:08Z</time>
      </trkpt>
      <trkpt lat="44.58883" lon="0.84361">
        <ele>160</ele>
        <time>2018-04-29T16:50:09Z</time>
      </trkpt>
      <trkpt lat="44.58879" lon="0.84351">
        <ele>159.4</ele>
        <time>2018-04-29T16:50:10Z</time>
      </trkpt>
      <trkpt lat="44.58876" lon="0.84341">
        <ele>159</ele>
        <time>2018-04-29T16:50:11Z</time>
      </trkpt>
      <trkpt lat="44.58874" lon="0.84333">
        <ele>158.4</ele>
        <time>2018-04-29T16:50:12Z</time>
      </trkpt>
      <trkpt lat="44.58873" lon="0.84325">
        <ele>157.8</ele>
        <time>2018-04-29T16:50:13Z</time>
      </trkpt>
      <trkpt lat="44.58872" lon="0.84317">
        <ele>157.8</ele>
        <time>2018-04-29T16:50:14Z</time>
      </trkpt>
      <trkpt lat="44.58872" lon="0.84301">
        <ele>157.8</ele>
        <time>2018-04-29T16:50:16Z</time>
      </trkpt>
      <trkpt lat="44.58874" lon="0.84285">
        <ele>157.8</ele>
        <time>2018-04-29T16:50:18Z</time>
      </trkpt>
      <trkpt lat="44.58881" lon="0.84254">
        <ele>157.8</ele>
        <time>2018-04-29T16:50:22Z</time>
      </trkpt>
      <trkpt lat="44.58886" lon="0.84241">
        <ele>157.8</ele>
        <time>2018-04-29T16:50:24Z</time>
      </trkpt>
      <trkpt lat="44.58892" lon="0.84228">
        <ele>157.8</ele>
        <time>2018-04-29T16:50:26Z</time>
      </trkpt>
      <trkpt lat="44.58895" lon="0.84223">
        <ele>158.4</ele>
        <time>2018-04-29T16:50:27Z</time>
      </trkpt>
      <trkpt lat="44.58897" lon="0.84217">
        <ele>158.8</ele>
        <time>2018-04-29T16:50:28Z</time>
      </trkpt>
      <trkpt lat="44.58898" lon="0.84212">
        <ele>159.2</ele>
        <time>2018-04-29T16:50:29Z</time>
      </trkpt>
      <trkpt lat="44.58899" lon="0.84207">
        <ele>159.6</ele>
        <time>2018-04-29T16:50:30Z</time>
      </trkpt>
      <trkpt lat="44.58901" lon="0.84201">
        <ele>160</ele>
        <time>2018-04-29T16:50:31Z</time>
      </trkpt>
      <trkpt lat="44.58904" lon="0.84189">
        <ele>160</ele>
        <time>2018-04-29T16:50:33Z</time>
      </trkpt>
      <trkpt lat="44.58903" lon="0.84178">
        <ele>160</ele>
        <time>2018-04-29T16:50:35Z</time>
      </trkpt>
      <trkpt lat="44.58901" lon="0.84168">
        <ele>160</ele>
        <time>2018-04-29T16:50:39Z</time>
      </trkpt>
      <trkpt lat="44.58901" lon="0.84166">
        <ele>160</ele>
        <time>2018-04-29T16:50:40Z</time>
      </trkpt>
      <trkpt lat="44.58903" lon="0.8416">
        <ele>160</ele>
        <time>2018-04-29T16:51:14Z</time>
      </trkpt>
      <trkpt lat="44.58902" lon="0.84157">
        <ele>160</ele>
        <time>2018-04-29T16:51:15Z</time>
      </trkpt>
      <trkpt lat="44.58901" lon="0.84154">
        <ele>160</ele>
        <time>2018-04-29T16:51:16Z</time>
      </trkpt>
      <trkpt lat="44.58898" lon="0.84149">
        <ele>160</ele>
        <time>2018-04-29T16:51:18Z</time>
      </trkpt>
      <trkpt lat="44.58896" lon="0.84145">
        <ele>160</ele>
        <time>2018-04-29T16:51:20Z</time>
      </trkpt>
      <trkpt lat="44.58896" lon="0.84143">
        <ele>160</ele>
        <time>2018-04-29T16:51:21Z</time>
      </trkpt>
      <trkpt lat="44.58895" lon="0.8414">
        <ele>160.4</ele>
        <time>2018-04-29T16:51:22Z</time>
      </trkpt>
      <trkpt lat="44.58893" lon="0.84136">
        <ele>160.8</ele>
        <time>2018-04-29T16:51:23Z</time>
      </trkpt>
      <trkpt lat="44.58892" lon="0.84133">
        <ele>161.2</ele>
        <time>2018-04-29T16:51:24Z</time>
      </trkpt>
      <trkpt lat="44.58891" lon="0.84129">
        <ele>161.6</ele>
        <time>2018-04-29T16:51:25Z</time>
      </trkpt>
      <trkpt lat="44.58889" lon="0.84126">
        <ele>162</ele>
        <time>2018-04-29T16:51:26Z</time>
      </trkpt>
      <trkpt lat="44.58883" lon="0.84114">
        <ele>162</ele>
        <time>2018-04-29T16:51:30Z</time>
      </trkpt>
      <trkpt lat="44.58879" lon="0.84104">
        <ele>162</ele>
        <time>2018-04-29T16:51:32Z</time>
      </trkpt>
      <trkpt lat="44.58878" lon="0.84097">
        <ele>162</ele>
        <time>2018-04-29T16:51:33Z</time>
      </trkpt>
      <trkpt lat="44.58872" lon="0.84079">
        <ele>162</ele>
        <time>2018-04-29T16:51:36Z</time>
      </trkpt>
      <trkpt lat="44.58863" lon="0.84062">
        <ele>162</ele>
        <time>2018-04-29T16:51:39Z</time>
      </trkpt>
      <trkpt lat="44.5886" lon="0.84055">
        <ele>162</ele>
        <time>2018-04-29T16:51:40Z</time>
      </trkpt>
      <trkpt lat="44.58852" lon="0.84041">
        <ele>162</ele>
        <time>2018-04-29T16:51:42Z</time>
      </trkpt>
      <trkpt lat="44.58846" lon="0.84027">
        <ele>162</ele>
        <time>2018-04-29T16:51:44Z</time>
      </trkpt>
      <trkpt lat="44.58833" lon="0.83989">
        <ele>162</ele>
        <time>2018-04-29T16:51:49Z</time>
      </trkpt>
      <trkpt lat="44.5883" lon="0.83982">
        <ele>162</ele>
        <time>2018-04-29T16:51:50Z</time>
      </trkpt>
      <trkpt lat="44.58825" lon="0.83968">
        <ele>162.4</ele>
        <time>2018-04-29T16:51:53Z</time>
      </trkpt>
      <trkpt lat="44.58823" lon="0.83963">
        <ele>163</ele>
        <time>2018-04-29T16:51:54Z</time>
      </trkpt>
      <trkpt lat="44.58821" lon="0.83958">
        <ele>163.4</ele>
        <time>2018-04-29T16:51:55Z</time>
      </trkpt>
      <trkpt lat="44.58818" lon="0.83953">
        <ele>163.8</ele>
        <time>2018-04-29T16:51:56Z</time>
      </trkpt>
      <trkpt lat="44.58817" lon="0.83948">
        <ele>164.2</ele>
        <time>2018-04-29T16:51:57Z</time>
      </trkpt>
      <trkpt lat="44.58814" lon="0.8394">
        <ele>164.2</ele>
        <time>2018-04-29T16:51:59Z</time>
      </trkpt>
      <trkpt lat="44.58809" lon="0.83929">
        <ele>164.2</ele>
        <time>2018-04-29T16:52:01Z</time>
      </trkpt>
      <trkpt lat="44.58797" lon="0.83917">
        <ele>164.2</ele>
        <time>2018-04-29T16:52:03Z</time>
      </trkpt>
      <trkpt lat="44.5879" lon="0.83912">
        <ele>163.8</ele>
        <time>2018-04-29T16:52:04Z</time>
      </trkpt>
      <trkpt lat="44.58784" lon="0.83906">
        <ele>163.2</ele>
        <time>2018-04-29T16:52:05Z</time>
      </trkpt>
      <trkpt lat="44.58777" lon="0.839">
        <ele>162.8</ele>
        <time>2018-04-29T16:52:06Z</time>
      </trkpt>
      <trkpt lat="44.58771" lon="0.83894">
        <ele>162.4</ele>
        <time>2018-04-29T16:52:07Z</time>
      </trkpt>
      <trkpt lat="44.58766" lon="0.83885">
        <ele>161.8</ele>
        <time>2018-04-29T16:52:08Z</time>
      </trkpt>
      <trkpt lat="44.58761" lon="0.83878">
        <ele>161.4</ele>
        <time>2018-04-29T16:52:09Z</time>
      </trkpt>
      <trkpt lat="44.58756" lon="0.8387">
        <ele>160.8</ele>
        <time>2018-04-29T16:52:10Z</time>
      </trkpt>
      <trkpt lat="44.58754" lon="0.83865">
        <ele>160.2</ele>
        <time>2018-04-29T16:52:11Z</time>
      </trkpt>
      <trkpt lat="44.58752" lon="0.83862">
        <ele>159.8</ele>
        <time>2018-04-29T16:52:12Z</time>
      </trkpt>
      <trkpt lat="44.58748" lon="0.83859">
        <ele>159.2</ele>
        <time>2018-04-29T16:52:13Z</time>
      </trkpt>
      <trkpt lat="44.5874" lon="0.83856">
        <ele>159.2</ele>
        <time>2018-04-29T16:52:15Z</time>
      </trkpt>
      <trkpt lat="44.58731" lon="0.83853">
        <ele>159.2</ele>
        <time>2018-04-29T16:52:17Z</time>
      </trkpt>
      <trkpt lat="44.58726" lon="0.83852">
        <ele>158.4</ele>
        <time>2018-04-29T16:52:18Z</time>
      </trkpt>
      <trkpt lat="44.58721" lon="0.83849">
        <ele>157.8</ele>
        <time>2018-04-29T16:52:19Z</time>
      </trkpt>
      <trkpt lat="44.58716" lon="0.83847">
        <ele>157.4</ele>
        <time>2018-04-29T16:52:20Z</time>
      </trkpt>
      <trkpt lat="44.58711" lon="0.83846">
        <ele>157</ele>
        <time>2018-04-29T16:52:21Z</time>
      </trkpt>
      <trkpt lat="44.58698" lon="0.83838">
        <ele>156.6</ele>
        <time>2018-04-29T16:52:24Z</time>
      </trkpt>
      <trkpt lat="44.58694" lon="0.83835">
        <ele>156</ele>
        <time>2018-04-29T16:52:25Z</time>
      </trkpt>
      <trkpt lat="44.58691" lon="0.83832">
        <ele>155.6</ele>
        <time>2018-04-29T16:52:26Z</time>
      </trkpt>
      <trkpt lat="44.58689" lon="0.8383">
        <ele>155.2</ele>
        <time>2018-04-29T16:52:27Z</time>
      </trkpt>
      <trkpt lat="44.58686" lon="0.83828">
        <ele>154.6</ele>
        <time>2018-04-29T16:52:28Z</time>
      </trkpt>
      <trkpt lat="44.58684" lon="0.83827">
        <ele>154.2</ele>
        <time>2018-04-29T16:52:29Z</time>
      </trkpt>
      <trkpt lat="44.58682" lon="0.83825">
        <ele>153.6</ele>
        <time>2018-04-29T16:52:30Z</time>
      </trkpt>
      <trkpt lat="44.58679" lon="0.83823">
        <ele>153.2</ele>
        <time>2018-04-29T16:52:31Z</time>
      </trkpt>
      <trkpt lat="44.58676" lon="0.8382">
        <ele>152.6</ele>
        <time>2018-04-29T16:52:32Z</time>
      </trkpt>
      <trkpt lat="44.58674" lon="0.83818">
        <ele>152.2</ele>
        <time>2018-04-29T16:52:33Z</time>
      </trkpt>
      <trkpt lat="44.5867" lon="0.83815">
        <ele>151.6</ele>
        <time>2018-04-29T16:52:34Z</time>
      </trkpt>
      <trkpt lat="44.58667" lon="0.83812">
        <ele>151.2</ele>
        <time>2018-04-29T16:52:35Z</time>
      </trkpt>
      <trkpt lat="44.58665" lon="0.8381">
        <ele>150.6</ele>
        <time>2018-04-29T16:52:36Z</time>
      </trkpt>
      <trkpt lat="44.58661" lon="0.83808">
        <ele>150.2</ele>
        <time>2018-04-29T16:52:37Z</time>
      </trkpt>
      <trkpt lat="44.58659" lon="0.83805">
        <ele>149.6</ele>
        <time>2018-04-29T16:52:38Z</time>
      </trkpt>
      <trkpt lat="44.58657" lon="0.83802">
        <ele>149</ele>
        <time>2018-04-29T16:52:39Z</time>
      </trkpt>
      <trkpt lat="44.58654" lon="0.83799">
        <ele>148.6</ele>
        <time>2018-04-29T16:52:40Z</time>
      </trkpt>
      <trkpt lat="44.5865" lon="0.83796">
        <ele>148</ele>
        <time>2018-04-29T16:52:41Z</time>
      </trkpt>
      <trkpt lat="44.58648" lon="0.83793">
        <ele>146.8</ele>
        <time>2018-04-29T16:52:42Z</time>
      </trkpt>
      <trkpt lat="44.58644" lon="0.83788">
        <ele>146.2</ele>
        <time>2018-04-29T16:52:43Z</time>
      </trkpt>
      <trkpt lat="44.58641" lon="0.83784">
        <ele>145.6</ele>
        <time>2018-04-29T16:52:44Z</time>
      </trkpt>
      <trkpt lat="44.58638" lon="0.83779">
        <ele>145</ele>
        <time>2018-04-29T16:52:45Z</time>
      </trkpt>
      <trkpt lat="44.58634" lon="0.83773">
        <ele>144.2</ele>
        <time>2018-04-29T16:52:46Z</time>
      </trkpt>
      <trkpt lat="44.58632" lon="0.83769">
        <ele>143.6</ele>
        <time>2018-04-29T16:52:47Z</time>
      </trkpt>
      <trkpt lat="44.58629" lon="0.83765">
        <ele>143</ele>
        <time>2018-04-29T16:52:48Z</time>
      </trkpt>
      <trkpt lat="44.58626" lon="0.83762">
        <ele>142.4</ele>
        <time>2018-04-29T16:52:49Z</time>
      </trkpt>
      <trkpt lat="44.58623" lon="0.83759">
        <ele>141.6</ele>
        <time>2018-04-29T16:52:50Z</time>
      </trkpt>
      <trkpt lat="44.5862" lon="0.83757">
        <ele>141</ele>
        <time>2018-04-29T16:52:51Z</time>
      </trkpt>
      <trkpt lat="44.58617" lon="0.83754">
        <ele>140.4</ele>
        <time>2018-04-29T16:52:52Z</time>
      </trkpt>
      <trkpt lat="44.58611" lon="0.83751">
        <ele>140</ele>
        <time>2018-04-29T16:52:55Z</time>
      </trkpt>
      <trkpt lat="44.5861" lon="0.83749">
        <ele>139.6</ele>
        <time>2018-04-29T16:52:56Z</time>
      </trkpt>
      <trkpt lat="44.58609" lon="0.83748">
        <ele>139.2</ele>
        <time>2018-04-29T16:52:57Z</time>
      </trkpt>
      <trkpt lat="44.58608" lon="0.83747">
        <ele>138.8</ele>
        <time>2018-04-29T16:52:58Z</time>
      </trkpt>
      <trkpt lat="44.58607" lon="0.83747">
        <ele>138.4</ele>
        <time>2018-04-29T16:52:59Z</time>
      </trkpt>
      <trkpt lat="44.58606" lon="0.83746">
        <ele>138.4</ele>
        <time>2018-04-29T16:53:01Z</time>
      </trkpt>
      <trkpt lat="44.58604" lon="0.83745">
        <ele>138.4</ele>
        <time>2018-04-29T16:53:03Z</time>
      </trkpt>
      <trkpt lat="44.58602" lon="0.83746">
        <ele>138.4</ele>
        <time>2018-04-29T16:53:09Z</time>
      </trkpt>
      <trkpt lat="44.586" lon="0.83746">
        <ele>138.4</ele>
        <time>2018-04-29T16:53:10Z</time>
      </trkpt>
      <trkpt lat="44.58591" lon="0.8375">
        <ele>138.4</ele>
        <time>2018-04-29T16:53:15Z</time>
      </trkpt>
      <trkpt lat="44.58575" lon="0.83756">
        <ele>138.4</ele>
        <time>2018-04-29T16:53:22Z</time>
      </trkpt>
      <trkpt lat="44.58568" lon="0.83758">
        <ele>138.4</ele>
        <time>2018-04-29T16:53:26Z</time>
      </trkpt>
      <trkpt lat="44.58564" lon="0.83759">
        <ele>138.4</ele>
        <time>2018-04-29T16:53:28Z</time>
      </trkpt>
      <trkpt lat="44.58562" lon="0.8376">
        <ele>138.4</ele>
        <time>2018-04-29T16:53:29Z</time>
      </trkpt>
      <trkpt lat="44.58559" lon="0.83763">
        <ele>138.4</ele>
        <time>2018-04-29T16:53:32Z</time>
      </trkpt>
      <trkpt lat="44.58549" lon="0.83769">
        <ele>138.4</ele>
        <time>2018-04-29T16:53:38Z</time>
      </trkpt>
      <trkpt lat="44.58538" lon="0.83777">
        <ele>138.4</ele>
        <time>2018-04-29T16:53:43Z</time>
      </trkpt>
      <trkpt lat="44.58533" lon="0.8378">
        <ele>138.8</ele>
        <time>2018-04-29T16:53:45Z</time>
      </trkpt>
      <trkpt lat="44.5853" lon="0.83781">
        <ele>139.2</ele>
        <time>2018-04-29T16:53:46Z</time>
      </trkpt>
      <trkpt lat="44.58528" lon="0.83784">
        <ele>139.6</ele>
        <time>2018-04-29T16:53:47Z</time>
      </trkpt>
      <trkpt lat="44.58525" lon="0.83786">
        <ele>140</ele>
        <time>2018-04-29T16:53:48Z</time>
      </trkpt>
      <trkpt lat="44.58522" lon="0.83788">
        <ele>140.4</ele>
        <time>2018-04-29T16:53:49Z</time>
      </trkpt>
      <trkpt lat="44.58511" lon="0.83795">
        <ele>140.4</ele>
        <time>2018-04-29T16:53:53Z</time>
      </trkpt>
      <trkpt lat="44.58506" lon="0.83799">
        <ele>140.4</ele>
        <time>2018-04-29T16:53:55Z</time>
      </trkpt>
      <trkpt lat="44.58495" lon="0.83806">
        <ele>140.8</ele>
        <time>2018-04-29T16:53:59Z</time>
      </trkpt>
      <trkpt lat="44.58492" lon="0.83808">
        <ele>141.2</ele>
        <time>2018-04-29T16:54:00Z</time>
      </trkpt>
      <trkpt lat="44.58489" lon="0.83811">
        <ele>141.6</ele>
        <time>2018-04-29T16:54:01Z</time>
      </trkpt>
      <trkpt lat="44.58487" lon="0.83814">
        <ele>142</ele>
        <time>2018-04-29T16:54:02Z</time>
      </trkpt>
      <trkpt lat="44.58485" lon="0.83817">
        <ele>142.6</ele>
        <time>2018-04-29T16:54:03Z</time>
      </trkpt>
      <trkpt lat="44.5848" lon="0.83823">
        <ele>142.6</ele>
        <time>2018-04-29T16:54:05Z</time>
      </trkpt>
      <trkpt lat="44.58462" lon="0.83838">
        <ele>142.6</ele>
        <time>2018-04-29T16:54:10Z</time>
      </trkpt>
      <trkpt lat="44.5844" lon="0.83861">
        <ele>142.6</ele>
        <time>2018-04-29T16:54:16Z</time>
      </trkpt>
      <trkpt lat="44.58438" lon="0.83864">
        <ele>142.6</ele>
        <time>2018-04-29T16:54:17Z</time>
      </trkpt>
      <trkpt lat="44.58434" lon="0.83869">
        <ele>142.6</ele>
        <time>2018-04-29T16:54:19Z</time>
      </trkpt>
      <trkpt lat="44.5843" lon="0.83878">
        <ele>142.6</ele>
        <time>2018-04-29T16:54:22Z</time>
      </trkpt>
      <trkpt lat="44.58429" lon="0.83878">
        <ele>142.6</ele>
        <time>2018-04-29T16:54:23Z</time>
      </trkpt>
      <trkpt lat="44.58428" lon="0.83879">
        <ele>142.6</ele>
        <time>2018-04-29T16:54:54Z</time>
      </trkpt>
      <trkpt lat="44.58426" lon="0.83879">
        <ele>142.6</ele>
        <time>2018-04-29T16:54:55Z</time>
      </trkpt>
      <trkpt lat="44.58423" lon="0.83878">
        <ele>142.6</ele>
        <time>2018-04-29T16:54:56Z</time>
      </trkpt>
      <trkpt lat="44.58418" lon="0.83877">
        <ele>142.6</ele>
        <time>2018-04-29T16:54:58Z</time>
      </trkpt>
      <trkpt lat="44.58415" lon="0.83879">
        <ele>142.6</ele>
        <time>2018-04-29T16:55:00Z</time>
      </trkpt>
      <trkpt lat="44.58413" lon="0.8388">
        <ele>143</ele>
        <time>2018-04-29T16:55:01Z</time>
      </trkpt>
      <trkpt lat="44.58412" lon="0.83881">
        <ele>143.4</ele>
        <time>2018-04-29T16:55:02Z</time>
      </trkpt>
      <trkpt lat="44.5841" lon="0.83882">
        <ele>144</ele>
        <time>2018-04-29T16:55:03Z</time>
      </trkpt>
      <trkpt lat="44.58407" lon="0.83883">
        <ele>144.4</ele>
        <time>2018-04-29T16:55:04Z</time>
      </trkpt>
      <trkpt lat="44.58405" lon="0.83883">
        <ele>144.8</ele>
        <time>2018-04-29T16:55:05Z</time>
      </trkpt>
      <trkpt lat="44.58403" lon="0.83882">
        <ele>144.8</ele>
        <time>2018-04-29T16:55:06Z</time>
      </trkpt>
      <trkpt lat="44.58401" lon="0.83881">
        <ele>144.8</ele>
        <time>2018-04-29T16:55:07Z</time>
      </trkpt>
      <trkpt lat="44.58398" lon="0.8388">
        <ele>144.8</ele>
        <time>2018-04-29T16:55:08Z</time>
      </trkpt>
      <trkpt lat="44.58397" lon="0.83879">
        <ele>145.2</ele>
        <time>2018-04-29T16:55:09Z</time>
      </trkpt>
      <trkpt lat="44.58395" lon="0.83879">
        <ele>145.6</ele>
        <time>2018-04-29T16:55:10Z</time>
      </trkpt>
      <trkpt lat="44.58394" lon="0.83879">
        <ele>146.6</ele>
        <time>2018-04-29T16:55:11Z</time>
      </trkpt>
      <trkpt lat="44.58392" lon="0.83879">
        <ele>147</ele>
        <time>2018-04-29T16:55:12Z</time>
      </trkpt>
      <trkpt lat="44.58387" lon="0.83879">
        <ele>147</ele>
        <time>2018-04-29T16:55:15Z</time>
      </trkpt>
      <trkpt lat="44.58385" lon="0.83879">
        <ele>147.4</ele>
        <time>2018-04-29T16:55:17Z</time>
      </trkpt>
      <trkpt lat="44.58384" lon="0.83878">
        <ele>147.8</ele>
        <time>2018-04-29T16:55:18Z</time>
      </trkpt>
      <trkpt lat="44.58382" lon="0.83877">
        <ele>148.2</ele>
        <time>2018-04-29T16:55:19Z</time>
      </trkpt>
      <trkpt lat="44.58381" lon="0.83876">
        <ele>148.8</ele>
        <time>2018-04-29T16:55:20Z</time>
      </trkpt>
      <trkpt lat="44.58379" lon="0.83875">
        <ele>149.2</ele>
        <time>2018-04-29T16:55:21Z</time>
      </trkpt>
      <trkpt lat="44.58376" lon="0.8387">
        <ele>149.2</ele>
        <time>2018-04-29T16:55:25Z</time>
      </trkpt>
      <trkpt lat="44.58371" lon="0.83865">
        <ele>149.6</ele>
        <time>2018-04-29T16:55:29Z</time>
      </trkpt>
      <trkpt lat="44.5837" lon="0.83864">
        <ele>150</ele>
        <time>2018-04-29T16:55:30Z</time>
      </trkpt>
      <trkpt lat="44.58368" lon="0.83863">
        <ele>150.4</ele>
        <time>2018-04-29T16:55:31Z</time>
      </trkpt>
      <trkpt lat="44.58368" lon="0.83863">
        <ele>150.8</ele>
        <time>2018-04-29T16:55:32Z</time>
      </trkpt>
      <trkpt lat="44.58367" lon="0.83862">
        <ele>151.2</ele>
        <time>2018-04-29T16:55:33Z</time>
      </trkpt>
      <trkpt lat="44.58363" lon="0.8386">
        <ele>151.2</ele>
        <time>2018-04-29T16:55:36Z</time>
      </trkpt>
      <trkpt lat="44.5836" lon="0.83857">
        <ele>151.6</ele>
        <time>2018-04-29T16:55:39Z</time>
      </trkpt>
      <trkpt lat="44.58359" lon="0.83856">
        <ele>152</ele>
        <time>2018-04-29T16:55:40Z</time>
      </trkpt>
      <trkpt lat="44.58357" lon="0.83855">
        <ele>152.4</ele>
        <time>2018-04-29T16:55:41Z</time>
      </trkpt>
      <trkpt lat="44.58357" lon="0.83854">
        <ele>153</ele>
        <time>2018-04-29T16:55:42Z</time>
      </trkpt>
      <trkpt lat="44.58356" lon="0.83853">
        <ele>153.4</ele>
        <time>2018-04-29T16:55:43Z</time>
      </trkpt>
      <trkpt lat="44.58352" lon="0.83848">
        <ele>153.4</ele>
        <time>2018-04-29T16:55:47Z</time>
      </trkpt>
      <trkpt lat="44.58349" lon="0.83846">
        <ele>153.8</ele>
        <time>2018-04-29T16:55:49Z</time>
      </trkpt>
      <trkpt lat="44.58348" lon="0.83845">
        <ele>154.2</ele>
        <time>2018-04-29T16:55:50Z</time>
      </trkpt>
      <trkpt lat="44.58331" lon="0.83829">
        <ele>157.2</ele>
        <time>2018-04-29T16:56:05Z</time>
      </trkpt>
      <trkpt lat="44.58328" lon="0.83828">
        <ele>157.6</ele>
        <time>2018-04-29T16:56:06Z</time>
      </trkpt>
      <trkpt lat="44.58325" lon="0.83825">
        <ele>157.6</ele>
        <time>2018-04-29T16:56:09Z</time>
      </trkpt>
      <trkpt lat="44.58314" lon="0.83818">
        <ele>157.6</ele>
        <time>2018-04-29T16:56:14Z</time>
      </trkpt>
      <trkpt lat="44.58305" lon="0.83812">
        <ele>157.6</ele>
        <time>2018-04-29T16:56:18Z</time>
      </trkpt>
      <trkpt lat="44.58303" lon="0.8381">
        <ele>157.6</ele>
        <time>2018-04-29T16:56:19Z</time>
      </trkpt>
      <trkpt lat="44.58301" lon="0.83809">
        <ele>158</ele>
        <time>2018-04-29T16:56:20Z</time>
      </trkpt>
      <trkpt lat="44.58299" lon="0.83808">
        <ele>158.4</ele>
        <time>2018-04-29T16:56:21Z</time>
      </trkpt>
      <trkpt lat="44.58298" lon="0.83806">
        <ele>158.8</ele>
        <time>2018-04-29T16:56:22Z</time>
      </trkpt>
      <trkpt lat="44.58297" lon="0.83805">
        <ele>159.2</ele>
        <time>2018-04-29T16:56:23Z</time>
      </trkpt>
      <trkpt lat="44.58296" lon="0.83803">
        <ele>159.6</ele>
        <time>2018-04-29T16:56:24Z</time>
      </trkpt>
      <trkpt lat="44.58289" lon="0.83799">
        <ele>159.6</ele>
        <time>2018-04-29T16:56:28Z</time>
      </trkpt>
      <trkpt lat="44.58286" lon="0.83796">
        <ele>159.6</ele>
        <time>2018-04-29T16:56:31Z</time>
      </trkpt>
      <trkpt lat="44.58282" lon="0.83794">
        <ele>159.6</ele>
        <time>2018-04-29T16:56:34Z</time>
      </trkpt>
      <trkpt lat="44.5828" lon="0.83793">
        <ele>160</ele>
        <time>2018-04-29T16:56:36Z</time>
      </trkpt>
      <trkpt lat="44.58277" lon="0.83793">
        <ele>160.4</ele>
        <time>2018-04-29T16:56:37Z</time>
      </trkpt>
      <trkpt lat="44.58276" lon="0.83793">
        <ele>160.8</ele>
        <time>2018-04-29T16:56:38Z</time>
      </trkpt>
      <trkpt lat="44.58274" lon="0.83794">
        <ele>161.2</ele>
        <time>2018-04-29T16:56:39Z</time>
      </trkpt>
      <trkpt lat="44.58273" lon="0.83795">
        <ele>161.6</ele>
        <time>2018-04-29T16:56:40Z</time>
      </trkpt>
      <trkpt lat="44.58268" lon="0.83796">
        <ele>161.6</ele>
        <time>2018-04-29T16:56:43Z</time>
      </trkpt>
      <trkpt lat="44.58267" lon="0.83795">
        <ele>161.6</ele>
        <time>2018-04-29T16:56:44Z</time>
      </trkpt>
      <trkpt lat="44.58258" lon="0.8379">
        <ele>161.6</ele>
        <time>2018-04-29T16:56:47Z</time>
      </trkpt>
      <trkpt lat="44.58255" lon="0.83787">
        <ele>161.6</ele>
        <time>2018-04-29T16:56:48Z</time>
      </trkpt>
      <trkpt lat="44.58252" lon="0.83785">
        <ele>161.6</ele>
        <time>2018-04-29T16:56:49Z</time>
      </trkpt>
      <trkpt lat="44.58252" lon="0.83774">
        <ele>161.6</ele>
        <time>2018-04-29T16:56:53Z</time>
      </trkpt>
      <trkpt lat="44.58251" lon="0.83771">
        <ele>161.6</ele>
        <time>2018-04-29T16:56:54Z</time>
      </trkpt>
      <trkpt lat="44.58246" lon="0.83761">
        <ele>161.6</ele>
        <time>2018-04-29T16:56:57Z</time>
      </trkpt>
      <trkpt lat="44.58242" lon="0.83755">
        <ele>161.6</ele>
        <time>2018-04-29T16:56:59Z</time>
      </trkpt>
      <trkpt lat="44.58233" lon="0.83751">
        <ele>161.6</ele>
        <time>2018-04-29T16:57:02Z</time>
      </trkpt>
      <trkpt lat="44.5823" lon="0.83751">
        <ele>161.6</ele>
        <time>2018-04-29T16:57:03Z</time>
      </trkpt>
      <trkpt lat="44.58216" lon="0.83749">
        <ele>161.6</ele>
        <time>2018-04-29T16:57:08Z</time>
      </trkpt>
      <trkpt lat="44.5821" lon="0.83746">
        <ele>161.6</ele>
        <time>2018-04-29T16:57:10Z</time>
      </trkpt>
      <trkpt lat="44.58208" lon="0.83746">
        <ele>161.6</ele>
        <time>2018-04-29T16:57:11Z</time>
      </trkpt>
      <trkpt lat="44.58206" lon="0.83746">
        <ele>161.6</ele>
        <time>2018-04-29T16:57:12Z</time>
      </trkpt>
      <trkpt lat="44.58203" lon="0.83745">
        <ele>161.6</ele>
        <time>2018-04-29T16:57:13Z</time>
      </trkpt>
      <trkpt lat="44.58197" lon="0.83743">
        <ele>161.6</ele>
        <time>2018-04-29T16:57:15Z</time>
      </trkpt>
      <trkpt lat="44.58193" lon="0.83743">
        <ele>161.6</ele>
        <time>2018-04-29T16:57:17Z</time>
      </trkpt>
      <trkpt lat="44.58191" lon="0.83743">
        <ele>161.6</ele>
        <time>2018-04-29T16:57:18Z</time>
      </trkpt>
      <trkpt lat="44.58189" lon="0.83742">
        <ele>161.6</ele>
        <time>2018-04-29T16:57:20Z</time>
      </trkpt>
      <trkpt lat="44.58187" lon="0.83742">
        <ele>161.6</ele>
        <time>2018-04-29T16:57:23Z</time>
      </trkpt>
      <trkpt lat="44.58185" lon="0.83741">
        <ele>161.6</ele>
        <time>2018-04-29T16:57:26Z</time>
      </trkpt>
      <trkpt lat="44.58178" lon="0.83741">
        <ele>161.6</ele>
        <time>2018-04-29T16:57:30Z</time>
      </trkpt>
      <trkpt lat="44.58176" lon="0.83741">
        <ele>161.6</ele>
        <time>2018-04-29T16:57:31Z</time>
      </trkpt>
      <trkpt lat="44.58171" lon="0.83741">
        <ele>161.6</ele>
        <time>2018-04-29T16:57:33Z</time>
      </trkpt>
      <trkpt lat="44.58168" lon="0.83741">
        <ele>161.6</ele>
        <time>2018-04-29T16:57:34Z</time>
      </trkpt>
      <trkpt lat="44.58164" lon="0.83741">
        <ele>161.6</ele>
        <time>2018-04-29T16:57:35Z</time>
      </trkpt>
      <trkpt lat="44.58154" lon="0.83741">
        <ele>161.6</ele>
        <time>2018-04-29T16:57:38Z</time>
      </trkpt>
      <trkpt lat="44.58144" lon="0.83742">
        <ele>161.6</ele>
        <time>2018-04-29T16:57:41Z</time>
      </trkpt>
      <trkpt lat="44.58132" lon="0.83742">
        <ele>161.6</ele>
        <time>2018-04-29T16:57:45Z</time>
      </trkpt>
      <trkpt lat="44.58129" lon="0.83742">
        <ele>161.6</ele>
        <time>2018-04-29T16:57:46Z</time>
      </trkpt>
      <trkpt lat="44.5811" lon="0.83739">
        <ele>161.6</ele>
        <time>2018-04-29T16:57:52Z</time>
      </trkpt>
      <trkpt lat="44.58098" lon="0.83737">
        <ele>161.6</ele>
        <time>2018-04-29T16:57:57Z</time>
      </trkpt>
      <trkpt lat="44.58082" lon="0.83734">
        <ele>161.6</ele>
        <time>2018-04-29T16:58:02Z</time>
      </trkpt>
      <trkpt lat="44.58068" lon="0.83734">
        <ele>161.6</ele>
        <time>2018-04-29T16:58:06Z</time>
      </trkpt>
      <trkpt lat="44.58065" lon="0.83733">
        <ele>161.6</ele>
        <time>2018-04-29T16:58:07Z</time>
      </trkpt>
      <trkpt lat="44.58049" lon="0.83731">
        <ele>162</ele>
        <time>2018-04-29T16:58:13Z</time>
      </trkpt>
      <trkpt lat="44.58047" lon="0.8373">
        <ele>162.4</ele>
        <time>2018-04-29T16:58:14Z</time>
      </trkpt>
      <trkpt lat="44.58045" lon="0.8373">
        <ele>162.8</ele>
        <time>2018-04-29T16:58:15Z</time>
      </trkpt>
      <trkpt lat="44.58042" lon="0.8373">
        <ele>163.4</ele>
        <time>2018-04-29T16:58:16Z</time>
      </trkpt>
      <trkpt lat="44.58039" lon="0.8373">
        <ele>163.8</ele>
        <time>2018-04-29T16:58:17Z</time>
      </trkpt>
      <trkpt lat="44.58034" lon="0.83731">
        <ele>163.8</ele>
        <time>2018-04-29T16:58:19Z</time>
      </trkpt>
      <trkpt lat="44.58027" lon="0.8373">
        <ele>163.8</ele>
        <time>2018-04-29T16:58:23Z</time>
      </trkpt>
      <trkpt lat="44.58025" lon="0.83729">
        <ele>163.8</ele>
        <time>2018-04-29T16:58:24Z</time>
      </trkpt>
      <trkpt lat="44.58017" lon="0.83726">
        <ele>164.2</ele>
        <time>2018-04-29T16:58:28Z</time>
      </trkpt>
      <trkpt lat="44.58015" lon="0.83726">
        <ele>164.6</ele>
        <time>2018-04-29T16:58:29Z</time>
      </trkpt>
      <trkpt lat="44.58013" lon="0.83726">
        <ele>165.4</ele>
        <time>2018-04-29T16:58:30Z</time>
      </trkpt>
      <trkpt lat="44.58011" lon="0.83725">
        <ele>165.8</ele>
        <time>2018-04-29T16:58:31Z</time>
      </trkpt>
      <trkpt lat="44.58006" lon="0.83722">
        <ele>165.8</ele>
        <time>2018-04-29T16:58:33Z</time>
      </trkpt>
      <trkpt lat="44.58004" lon="0.83721">
        <ele>165.8</ele>
        <time>2018-04-29T16:58:34Z</time>
      </trkpt>
      <trkpt lat="44.57991" lon="0.83714">
        <ele>165.8</ele>
        <time>2018-04-29T16:58:38Z</time>
      </trkpt>
      <trkpt lat="44.57985" lon="0.83712">
        <ele>165.8</ele>
        <time>2018-04-29T16:58:40Z</time>
      </trkpt>
      <trkpt lat="44.57978" lon="0.83711">
        <ele>166.2</ele>
        <time>2018-04-29T16:58:42Z</time>
      </trkpt>
      <trkpt lat="44.57974" lon="0.8371">
        <ele>166.6</ele>
        <time>2018-04-29T16:58:43Z</time>
      </trkpt>
      <trkpt lat="44.57969" lon="0.8371">
        <ele>167</ele>
        <time>2018-04-29T16:58:44Z</time>
      </trkpt>
      <trkpt lat="44.57965" lon="0.83709">
        <ele>167.4</ele>
        <time>2018-04-29T16:58:45Z</time>
      </trkpt>
      <trkpt lat="44.57959" lon="0.83707">
        <ele>167.8</ele>
        <time>2018-04-29T16:58:46Z</time>
      </trkpt>
      <trkpt lat="44.57949" lon="0.83707">
        <ele>167.8</ele>
        <time>2018-04-29T16:58:48Z</time>
      </trkpt>
      <trkpt lat="44.57932" lon="0.83709">
        <ele>167.8</ele>
        <time>2018-04-29T16:58:52Z</time>
      </trkpt>
      <trkpt lat="44.57921" lon="0.83709">
        <ele>167.8</ele>
        <time>2018-04-29T16:58:55Z</time>
      </trkpt>
      <trkpt lat="44.57916" lon="0.83708">
        <ele>167.8</ele>
        <time>2018-04-29T16:58:56Z</time>
      </trkpt>
      <trkpt lat="44.57891" lon="0.837">
        <ele>167.8</ele>
        <time>2018-04-29T16:59:01Z</time>
      </trkpt>
      <trkpt lat="44.57886" lon="0.837">
        <ele>167.8</ele>
        <time>2018-04-29T16:59:02Z</time>
      </trkpt>
      <trkpt lat="44.57868" lon="0.83705">
        <ele>167.8</ele>
        <time>2018-04-29T16:59:06Z</time>
      </trkpt>
      <trkpt lat="44.57852" lon="0.83718">
        <ele>168.2</ele>
        <time>2018-04-29T16:59:11Z</time>
      </trkpt>
      <trkpt lat="44.57849" lon="0.83722">
        <ele>168.6</ele>
        <time>2018-04-29T16:59:12Z</time>
      </trkpt>
      <trkpt lat="44.57847" lon="0.83723">
        <ele>169</ele>
        <time>2018-04-29T16:59:13Z</time>
      </trkpt>
      <trkpt lat="44.57846" lon="0.83725">
        <ele>169.4</ele>
        <time>2018-04-29T16:59:14Z</time>
      </trkpt>
      <trkpt lat="44.57843" lon="0.83727">
        <ele>169.8</ele>
        <time>2018-04-29T16:59:15Z</time>
      </trkpt>
      <trkpt lat="44.5784" lon="0.8373">
        <ele>169.8</ele>
        <time>2018-04-29T16:59:16Z</time>
      </trkpt>
      <trkpt lat="44.57836" lon="0.83735">
        <ele>169.8</ele>
        <time>2018-04-29T16:59:18Z</time>
      </trkpt>
      <trkpt lat="44.57826" lon="0.83742">
        <ele>169.8</ele>
        <time>2018-04-29T16:59:23Z</time>
      </trkpt>
      <trkpt lat="44.5782" lon="0.83739">
        <ele>169.8</ele>
        <time>2018-04-29T16:59:27Z</time>
      </trkpt>
      <trkpt lat="44.5781" lon="0.83728">
        <ele>169.8</ele>
        <time>2018-04-29T16:59:31Z</time>
      </trkpt>
      <trkpt lat="44.57808" lon="0.83726">
        <ele>169.8</ele>
        <time>2018-04-29T16:59:32Z</time>
      </trkpt>
      <trkpt lat="44.57798" lon="0.83724">
        <ele>169.8</ele>
        <time>2018-04-29T16:59:36Z</time>
      </trkpt>
      <trkpt lat="44.57795" lon="0.83725">
        <ele>169.8</ele>
        <time>2018-04-29T16:59:37Z</time>
      </trkpt>
      <trkpt lat="44.57789" lon="0.83727">
        <ele>169.8</ele>
        <time>2018-04-29T16:59:39Z</time>
      </trkpt>
      <trkpt lat="44.57776" lon="0.83731">
        <ele>169.8</ele>
        <time>2018-04-29T16:59:43Z</time>
      </trkpt>
      <trkpt lat="44.57763" lon="0.83732">
        <ele>169.8</ele>
        <time>2018-04-29T16:59:47Z</time>
      </trkpt>
      <trkpt lat="44.57759" lon="0.83733">
        <ele>169.8</ele>
        <time>2018-04-29T16:59:48Z</time>
      </trkpt>
      <trkpt lat="44.57748" lon="0.83733">
        <ele>169.8</ele>
        <time>2018-04-29T16:59:51Z</time>
      </trkpt>
      <trkpt lat="44.57726" lon="0.83727">
        <ele>169.8</ele>
        <time>2018-04-29T16:59:56Z</time>
      </trkpt>
      <trkpt lat="44.57705" lon="0.83725">
        <ele>169.8</ele>
        <time>2018-04-29T17:00:00Z</time>
      </trkpt>
      <trkpt lat="44.57695" lon="0.83723">
        <ele>169.8</ele>
        <time>2018-04-29T17:00:02Z</time>
      </trkpt>
      <trkpt lat="44.57685" lon="0.8372">
        <ele>169.8</ele>
        <time>2018-04-29T17:00:04Z</time>
      </trkpt>
      <trkpt lat="44.5768" lon="0.8372">
        <ele>169.8</ele>
        <time>2018-04-29T17:00:05Z</time>
      </trkpt>
      <trkpt lat="44.57649" lon="0.83718">
        <ele>169.8</ele>
        <time>2018-04-29T17:00:10Z</time>
      </trkpt>
      <trkpt lat="44.57637" lon="0.83716">
        <ele>169.8</ele>
        <time>2018-04-29T17:00:12Z</time>
      </trkpt>
      <trkpt lat="44.57618" lon="0.83714">
        <ele>169.4</ele>
        <time>2018-04-29T17:00:15Z</time>
      </trkpt>
      <trkpt lat="44.57612" lon="0.83715">
        <ele>168.8</ele>
        <time>2018-04-29T17:00:16Z</time>
      </trkpt>
      <trkpt lat="44.57607" lon="0.83716">
        <ele>168.4</ele>
        <time>2018-04-29T17:00:17Z</time>
      </trkpt>
      <trkpt lat="44.57601" lon="0.83718">
        <ele>167.8</ele>
        <time>2018-04-29T17:00:18Z</time>
      </trkpt>
      <trkpt lat="44.57596" lon="0.83721">
        <ele>167.2</ele>
        <time>2018-04-29T17:00:19Z</time>
      </trkpt>
      <trkpt lat="44.57585" lon="0.83727">
        <ele>167.2</ele>
        <time>2018-04-29T17:00:21Z</time>
      </trkpt>
      <trkpt lat="44.57579" lon="0.83729">
        <ele>166.8</ele>
        <time>2018-04-29T17:00:22Z</time>
      </trkpt>
      <trkpt lat="44.57573" lon="0.83731">
        <ele>166.4</ele>
        <time>2018-04-29T17:00:23Z</time>
      </trkpt>
      <trkpt lat="44.57567" lon="0.83732">
        <ele>165.8</ele>
        <time>2018-04-29T17:00:24Z</time>
      </trkpt>
      <trkpt lat="44.57561" lon="0.83735">
        <ele>165.4</ele>
        <time>2018-04-29T17:00:25Z</time>
      </trkpt>
      <trkpt lat="44.57554" lon="0.83737">
        <ele>165</ele>
        <time>2018-04-29T17:00:26Z</time>
      </trkpt>
      <trkpt lat="44.57547" lon="0.83741">
        <ele>165</ele>
        <time>2018-04-29T17:00:27Z</time>
      </trkpt>
      <trkpt lat="44.57541" lon="0.83745">
        <ele>164.6</ele>
        <time>2018-04-29T17:00:28Z</time>
      </trkpt>
      <trkpt lat="44.57534" lon="0.83749">
        <ele>164.2</ele>
        <time>2018-04-29T17:00:29Z</time>
      </trkpt>
      <trkpt lat="44.57527" lon="0.83752">
        <ele>163.8</ele>
        <time>2018-04-29T17:00:30Z</time>
      </trkpt>
      <trkpt lat="44.5752" lon="0.83757">
        <ele>163.4</ele>
        <time>2018-04-29T17:00:31Z</time>
      </trkpt>
      <trkpt lat="44.57513" lon="0.83763">
        <ele>163</ele>
        <time>2018-04-29T17:00:32Z</time>
      </trkpt>
      <trkpt lat="44.57507" lon="0.8377">
        <ele>162</ele>
        <time>2018-04-29T17:00:33Z</time>
      </trkpt>
      <trkpt lat="44.575" lon="0.83777">
        <ele>161.6</ele>
        <time>2018-04-29T17:00:34Z</time>
      </trkpt>
      <trkpt lat="44.57494" lon="0.83781">
        <ele>161.2</ele>
        <time>2018-04-29T17:00:35Z</time>
      </trkpt>
      <trkpt lat="44.57488" lon="0.83784">
        <ele>160.8</ele>
        <time>2018-04-29T17:00:36Z</time>
      </trkpt>
      <trkpt lat="44.57482" lon="0.83786">
        <ele>160.4</ele>
        <time>2018-04-29T17:00:37Z</time>
      </trkpt>
      <trkpt lat="44.57476" lon="0.83788">
        <ele>160</ele>
        <time>2018-04-29T17:00:38Z</time>
      </trkpt>
      <trkpt lat="44.57472" lon="0.83792">
        <ele>159.4</ele>
        <time>2018-04-29T17:00:39Z</time>
      </trkpt>
      <trkpt lat="44.57468" lon="0.83798">
        <ele>159</ele>
        <time>2018-04-29T17:00:40Z</time>
      </trkpt>
      <trkpt lat="44.57466" lon="0.83804">
        <ele>158.6</ele>
        <time>2018-04-29T17:00:41Z</time>
      </trkpt>
      <trkpt lat="44.57466" lon="0.83812">
        <ele>158.2</ele>
        <time>2018-04-29T17:00:42Z</time>
      </trkpt>
      <trkpt lat="44.57465" lon="0.8382">
        <ele>157.8</ele>
        <time>2018-04-29T17:00:43Z</time>
      </trkpt>
      <trkpt lat="44.57464" lon="0.83829">
        <ele>157.4</ele>
        <time>2018-04-29T17:00:44Z</time>
      </trkpt>
      <trkpt lat="44.57462" lon="0.83837">
        <ele>157</ele>
        <time>2018-04-29T17:00:45Z</time>
      </trkpt>
      <trkpt lat="44.57459" lon="0.83845">
        <ele>156.4</ele>
        <time>2018-04-29T17:00:46Z</time>
      </trkpt>
      <trkpt lat="44.57456" lon="0.83853">
        <ele>155.8</ele>
        <time>2018-04-29T17:00:47Z</time>
      </trkpt>
      <trkpt lat="44.57451" lon="0.83857">
        <ele>155.4</ele>
        <time>2018-04-29T17:00:48Z</time>
      </trkpt>
      <trkpt lat="44.57446" lon="0.8386">
        <ele>154.8</ele>
        <time>2018-04-29T17:00:49Z</time>
      </trkpt>
      <trkpt lat="44.57441" lon="0.83863">
        <ele>154.2</ele>
        <time>2018-04-29T17:00:50Z</time>
      </trkpt>
      <trkpt lat="44.57437" lon="0.83864">
        <ele>153.8</ele>
        <time>2018-04-29T17:00:51Z</time>
      </trkpt>
      <trkpt lat="44.57433" lon="0.83865">
        <ele>153.2</ele>
        <time>2018-04-29T17:00:52Z</time>
      </trkpt>
      <trkpt lat="44.5743" lon="0.83866">
        <ele>152.6</ele>
        <time>2018-04-29T17:00:53Z</time>
      </trkpt>
      <trkpt lat="44.57428" lon="0.83867">
        <ele>152</ele>
        <time>2018-04-29T17:00:54Z</time>
      </trkpt>
      <trkpt lat="44.57424" lon="0.83872">
        <ele>152</ele>
        <time>2018-04-29T17:00:57Z</time>
      </trkpt>
      <trkpt lat="44.57421" lon="0.83878">
        <ele>152</ele>
        <time>2018-04-29T17:01:02Z</time>
      </trkpt>
      <trkpt lat="44.5742" lon="0.83879">
        <ele>152</ele>
        <time>2018-04-29T17:01:04Z</time>
      </trkpt>
      <trkpt lat="44.57417" lon="0.83878">
        <ele>152</ele>
        <time>2018-04-29T17:01:06Z</time>
      </trkpt>
      <trkpt lat="44.57414" lon="0.83876">
        <ele>152</ele>
        <time>2018-04-29T17:01:07Z</time>
      </trkpt>
      <trkpt lat="44.57408" lon="0.8387">
        <ele>152</ele>
        <time>2018-04-29T17:01:10Z</time>
      </trkpt>
      <trkpt lat="44.57402" lon="0.83866">
        <ele>152</ele>
        <time>2018-04-29T17:01:13Z</time>
      </trkpt>
      <trkpt lat="44.574" lon="0.83865">
        <ele>152</ele>
        <time>2018-04-29T17:01:15Z</time>
      </trkpt>
      <trkpt lat="44.574" lon="0.83868">
        <ele>152</ele>
        <time>2018-04-29T17:01:17Z</time>
      </trkpt>
      <trkpt lat="44.57405" lon="0.83869">
        <ele>152</ele>
        <time>2018-04-29T17:01:21Z</time>
      </trkpt>
      <trkpt lat="44.57408" lon="0.8387">
        <ele>152</ele>
        <time>2018-04-29T17:01:27Z</time>
      </trkpt>
      <trkpt lat="44.57409" lon="0.83871">
        <ele>152</ele>
        <time>2018-04-29T17:01:28Z</time>
      </trkpt>
      <trkpt lat="44.57412" lon="0.83873">
        <ele>152</ele>
        <time>2018-04-29T17:01:31Z</time>
      </trkpt>
      <trkpt lat="44.57409" lon="0.83873">
        <ele>152</ele>
        <time>2018-04-29T17:01:33Z</time>
      </trkpt>
      <trkpt lat="44.57406" lon="0.83869">
        <ele>152</ele>
        <time>2018-04-29T17:01:35Z</time>
      </trkpt>
      <trkpt lat="44.57401" lon="0.83862">
        <ele>152</ele>
        <time>2018-04-29T17:01:39Z</time>
      </trkpt>
      <trkpt lat="44.57398" lon="0.83861">
        <ele>152</ele>
        <time>2018-04-29T17:01:41Z</time>
      </trkpt>
      <trkpt lat="44.57399" lon="0.83864">
        <ele>152</ele>
        <time>2018-04-29T17:01:43Z</time>
      </trkpt>
      <trkpt lat="44.57406" lon="0.83865">
        <ele>152</ele>
        <time>2018-04-29T17:01:48Z</time>
      </trkpt>
      <trkpt lat="44.57411" lon="0.83868">
        <ele>152</ele>
        <time>2018-04-29T17:01:53Z</time>
      </trkpt>
      <trkpt lat="44.57412" lon="0.83869">
        <ele>152</ele>
        <time>2018-04-29T17:01:54Z</time>
      </trkpt>
      <trkpt lat="44.57416" lon="0.83872">
        <ele>152</ele>
        <time>2018-04-29T17:01:59Z</time>
      </trkpt>
      <trkpt lat="44.57417" lon="0.83877">
        <ele>152</ele>
        <time>2018-04-29T17:02:06Z</time>
      </trkpt>
      <trkpt lat="44.57415" lon="0.83883">
        <ele>152</ele>
        <time>2018-04-29T17:02:08Z</time>
      </trkpt>
      <trkpt lat="44.5741" lon="0.83891">
        <ele>152</ele>
        <time>2018-04-29T17:02:10Z</time>
      </trkpt>
      <trkpt lat="44.57409" lon="0.83895">
        <ele>152</ele>
        <time>2018-04-29T17:02:11Z</time>
      </trkpt>
      <trkpt lat="44.57406" lon="0.83903">
        <ele>152</ele>
        <time>2018-04-29T17:02:13Z</time>
      </trkpt>
      <trkpt lat="44.57405" lon="0.8391">
        <ele>152</ele>
        <time>2018-04-29T17:02:15Z</time>
      </trkpt>
      <trkpt lat="44.57405" lon="0.83913">
        <ele>152.4</ele>
        <time>2018-04-29T17:02:16Z</time>
      </trkpt>
      <trkpt lat="44.57405" lon="0.83915">
        <ele>153</ele>
        <time>2018-04-29T17:02:17Z</time>
      </trkpt>
      <trkpt lat="44.57405" lon="0.83919">
        <ele>153.4</ele>
        <time>2018-04-29T17:02:18Z</time>
      </trkpt>
      <trkpt lat="44.57405" lon="0.83921">
        <ele>153.8</ele>
        <time>2018-04-29T17:02:19Z</time>
      </trkpt>
      <trkpt lat="44.57405" lon="0.83923">
        <ele>154.2</ele>
        <time>2018-04-29T17:02:20Z</time>
      </trkpt>
      <trkpt lat="44.57404" lon="0.83927">
        <ele>154.2</ele>
        <time>2018-04-29T17:02:22Z</time>
      </trkpt>
      <trkpt lat="44.57403" lon="0.83929">
        <ele>154.2</ele>
        <time>2018-04-29T17:02:23Z</time>
      </trkpt>
      <trkpt lat="44.57401" lon="0.83931">
        <ele>154.2</ele>
        <time>2018-04-29T17:02:24Z</time>
      </trkpt>
      <trkpt lat="44.574" lon="0.83932">
        <ele>154.6</ele>
        <time>2018-04-29T17:02:25Z</time>
      </trkpt>
      <trkpt lat="44.57399" lon="0.83933">
        <ele>155</ele>
        <time>2018-04-29T17:02:26Z</time>
      </trkpt>
      <trkpt lat="44.57398" lon="0.83936">
        <ele>155.6</ele>
        <time>2018-04-29T17:02:27Z</time>
      </trkpt>
      <trkpt lat="44.57397" lon="0.83939">
        <ele>156</ele>
        <time>2018-04-29T17:02:28Z</time>
      </trkpt>
      <trkpt lat="44.57397" lon="0.83942">
        <ele>156.4</ele>
        <time>2018-04-29T17:02:29Z</time>
      </trkpt>
      <trkpt lat="44.57393" lon="0.83957">
        <ele>156.4</ele>
        <time>2018-04-29T17:02:34Z</time>
      </trkpt>
      <trkpt lat="44.57393" lon="0.83961">
        <ele>156.4</ele>
        <time>2018-04-29T17:02:35Z</time>
      </trkpt>
      <trkpt lat="44.57393" lon="0.83968">
        <ele>157.2</ele>
        <time>2018-04-29T17:02:37Z</time>
      </trkpt>
      <trkpt lat="44.57393" lon="0.83972">
        <ele>157.6</ele>
        <time>2018-04-29T17:02:38Z</time>
      </trkpt>
      <trkpt lat="44.57392" lon="0.83975">
        <ele>158</ele>
        <time>2018-04-29T17:02:39Z</time>
      </trkpt>
      <trkpt lat="44.57391" lon="0.83978">
        <ele>158.4</ele>
        <time>2018-04-29T17:02:40Z</time>
      </trkpt>
      <trkpt lat="44.5739" lon="0.83981">
        <ele>158.4</ele>
        <time>2018-04-29T17:02:41Z</time>
      </trkpt>
      <trkpt lat="44.5739" lon="0.83983">
        <ele>158.4</ele>
        <time>2018-04-29T17:02:42Z</time>
      </trkpt>
      <trkpt lat="44.57389" lon="0.83993">
        <ele>158.4</ele>
        <time>2018-04-29T17:02:45Z</time>
      </trkpt>
      <trkpt lat="44.57386" lon="0.84012">
        <ele>158.4</ele>
        <time>2018-04-29T17:02:51Z</time>
      </trkpt>
      <trkpt lat="44.57386" lon="0.84023">
        <ele>158.4</ele>
        <time>2018-04-29T17:02:55Z</time>
      </trkpt>
      <trkpt lat="44.57384" lon="0.8403">
        <ele>158.4</ele>
        <time>2018-04-29T17:02:57Z</time>
      </trkpt>
      <trkpt lat="44.57383" lon="0.84033">
        <ele>159</ele>
        <time>2018-04-29T17:02:58Z</time>
      </trkpt>
      <trkpt lat="44.57381" lon="0.84036">
        <ele>159.4</ele>
        <time>2018-04-29T17:02:59Z</time>
      </trkpt>
      <trkpt lat="44.57379" lon="0.84038">
        <ele>159.8</ele>
        <time>2018-04-29T17:03:00Z</time>
      </trkpt>
      <trkpt lat="44.57377" lon="0.8404">
        <ele>160.2</ele>
        <time>2018-04-29T17:03:01Z</time>
      </trkpt>
      <trkpt lat="44.57376" lon="0.84042">
        <ele>160.6</ele>
        <time>2018-04-29T17:03:02Z</time>
      </trkpt>
      <trkpt lat="44.57366" lon="0.84052">
        <ele>161</ele>
        <time>2018-04-29T17:03:07Z</time>
      </trkpt>
      <trkpt lat="44.57364" lon="0.84054">
        <ele>161.4</ele>
        <time>2018-04-29T17:03:08Z</time>
      </trkpt>
      <trkpt lat="44.57362" lon="0.84057">
        <ele>162</ele>
        <time>2018-04-29T17:03:09Z</time>
      </trkpt>
      <trkpt lat="44.5736" lon="0.84059">
        <ele>162.4</ele>
        <time>2018-04-29T17:03:10Z</time>
      </trkpt>
      <trkpt lat="44.57358" lon="0.8406">
        <ele>162.8</ele>
        <time>2018-04-29T17:03:11Z</time>
      </trkpt>
      <trkpt lat="44.57357" lon="0.84062">
        <ele>162.8</ele>
        <time>2018-04-29T17:03:12Z</time>
      </trkpt>
      <trkpt lat="44.57346" lon="0.84071">
        <ele>162.8</ele>
        <time>2018-04-29T17:03:17Z</time>
      </trkpt>
      <trkpt lat="44.57345" lon="0.84074">
        <ele>162.8</ele>
        <time>2018-04-29T17:03:19Z</time>
      </trkpt>
      <trkpt lat="44.57343" lon="0.8408">
        <ele>163.2</ele>
        <time>2018-04-29T17:03:22Z</time>
      </trkpt>
      <trkpt lat="44.57343" lon="0.84082">
        <ele>163.6</ele>
        <time>2018-04-29T17:03:23Z</time>
      </trkpt>
      <trkpt lat="44.57342" lon="0.84085">
        <ele>164</ele>
        <time>2018-04-29T17:03:24Z</time>
      </trkpt>
      <trkpt lat="44.57341" lon="0.84087">
        <ele>164.4</ele>
        <time>2018-04-29T17:03:25Z</time>
      </trkpt>
      <trkpt lat="44.5734" lon="0.84091">
        <ele>164.8</ele>
        <time>2018-04-29T17:03:26Z</time>
      </trkpt>
      <trkpt lat="44.57339" lon="0.84094">
        <ele>164.8</ele>
        <time>2018-04-29T17:03:27Z</time>
      </trkpt>
      <trkpt lat="44.57336" lon="0.84108">
        <ele>164.8</ele>
        <time>2018-04-29T17:03:32Z</time>
      </trkpt>
      <trkpt lat="44.5733" lon="0.84125">
        <ele>165.2</ele>
        <time>2018-04-29T17:03:38Z</time>
      </trkpt>
      <trkpt lat="44.57328" lon="0.84127">
        <ele>165.6</ele>
        <time>2018-04-29T17:03:39Z</time>
      </trkpt>
      <trkpt lat="44.57326" lon="0.84129">
        <ele>166</ele>
        <time>2018-04-29T17:03:40Z</time>
      </trkpt>
      <trkpt lat="44.57324" lon="0.84131">
        <ele>166.4</ele>
        <time>2018-04-29T17:03:41Z</time>
      </trkpt>
      <trkpt lat="44.57323" lon="0.84133">
        <ele>166.8</ele>
        <time>2018-04-29T17:03:42Z</time>
      </trkpt>
      <trkpt lat="44.5732" lon="0.84135">
        <ele>166.8</ele>
        <time>2018-04-29T17:03:44Z</time>
      </trkpt>
      <trkpt lat="44.57312" lon="0.84143">
        <ele>166.8</ele>
        <time>2018-04-29T17:03:48Z</time>
      </trkpt>
      <trkpt lat="44.57308" lon="0.84147">
        <ele>166.8</ele>
        <time>2018-04-29T17:03:50Z</time>
      </trkpt>
      <trkpt lat="44.57305" lon="0.84152">
        <ele>166.8</ele>
        <time>2018-04-29T17:03:52Z</time>
      </trkpt>
      <trkpt lat="44.57298" lon="0.8416">
        <ele>167.2</ele>
        <time>2018-04-29T17:03:56Z</time>
      </trkpt>
      <trkpt lat="44.57297" lon="0.84161">
        <ele>167.6</ele>
        <time>2018-04-29T17:03:57Z</time>
      </trkpt>
      <trkpt lat="44.57295" lon="0.84163">
        <ele>168</ele>
        <time>2018-04-29T17:03:58Z</time>
      </trkpt>
      <trkpt lat="44.57293" lon="0.84165">
        <ele>168.4</ele>
        <time>2018-04-29T17:03:59Z</time>
      </trkpt>
      <trkpt lat="44.57292" lon="0.84166">
        <ele>168.8</ele>
        <time>2018-04-29T17:04:00Z</time>
      </trkpt>
      <trkpt lat="44.5729" lon="0.84169">
        <ele>168.8</ele>
        <time>2018-04-29T17:04:02Z</time>
      </trkpt>
      <trkpt lat="44.5728" lon="0.84181">
        <ele>168.8</ele>
        <time>2018-04-29T17:04:08Z</time>
      </trkpt>
      <trkpt lat="44.57274" lon="0.84197">
        <ele>168.8</ele>
        <time>2018-04-29T17:04:13Z</time>
      </trkpt>
      <trkpt lat="44.57274" lon="0.84206">
        <ele>168.8</ele>
        <time>2018-04-29T17:04:17Z</time>
      </trkpt>
      <trkpt lat="44.57274" lon="0.84209">
        <ele>168.8</ele>
        <time>2018-04-29T17:04:18Z</time>
      </trkpt>
      <trkpt lat="44.57275" lon="0.84214">
        <ele>168.8</ele>
        <time>2018-04-29T17:04:20Z</time>
      </trkpt>
      <trkpt lat="44.57273" lon="0.84223">
        <ele>168.8</ele>
        <time>2018-04-29T17:04:23Z</time>
      </trkpt>
      <trkpt lat="44.57269" lon="0.84231">
        <ele>168.8</ele>
        <time>2018-04-29T17:04:27Z</time>
      </trkpt>
      <trkpt lat="44.57267" lon="0.84233">
        <ele>168.8</ele>
        <time>2018-04-29T17:04:28Z</time>
      </trkpt>
      <trkpt lat="44.57262" lon="0.84241">
        <ele>168.8</ele>
        <time>2018-04-29T17:04:31Z</time>
      </trkpt>
      <trkpt lat="44.57261" lon="0.84243">
        <ele>168.8</ele>
        <time>2018-04-29T17:04:32Z</time>
      </trkpt>
      <trkpt lat="44.57254" lon="0.84251">
        <ele>169.2</ele>
        <time>2018-04-29T17:04:36Z</time>
      </trkpt>
      <trkpt lat="44.57253" lon="0.84255">
        <ele>169.6</ele>
        <time>2018-04-29T17:04:37Z</time>
      </trkpt>
      <trkpt lat="44.57252" lon="0.84257">
        <ele>170</ele>
        <time>2018-04-29T17:04:38Z</time>
      </trkpt>
      <trkpt lat="44.57252" lon="0.84261">
        <ele>170.4</ele>
        <time>2018-04-29T17:04:39Z</time>
      </trkpt>
      <trkpt lat="44.57251" lon="0.84264">
        <ele>170.8</ele>
        <time>2018-04-29T17:04:40Z</time>
      </trkpt>
      <trkpt lat="44.5725" lon="0.84266">
        <ele>170.8</ele>
        <time>2018-04-29T17:04:41Z</time>
      </trkpt>
      <trkpt lat="44.57247" lon="0.84275">
        <ele>170.8</ele>
        <time>2018-04-29T17:04:46Z</time>
      </trkpt>
      <trkpt lat="44.57243" lon="0.84294">
        <ele>170.8</ele>
        <time>2018-04-29T17:04:52Z</time>
      </trkpt>
      <trkpt lat="44.5724" lon="0.84306">
        <ele>170.8</ele>
        <time>2018-04-29T17:04:55Z</time>
      </trkpt>
      <trkpt lat="44.57239" lon="0.84312">
        <ele>171.2</ele>
        <time>2018-04-29T17:04:57Z</time>
      </trkpt>
      <trkpt lat="44.57239" lon="0.84314">
        <ele>171.6</ele>
        <time>2018-04-29T17:04:58Z</time>
      </trkpt>
      <trkpt lat="44.57239" lon="0.84317">
        <ele>172.2</ele>
        <time>2018-04-29T17:04:59Z</time>
      </trkpt>
      <trkpt lat="44.57237" lon="0.84321">
        <ele>172.6</ele>
        <time>2018-04-29T17:05:00Z</time>
      </trkpt>
      <trkpt lat="44.57236" lon="0.84325">
        <ele>173</ele>
        <time>2018-04-29T17:05:01Z</time>
      </trkpt>
      <trkpt lat="44.57233" lon="0.84332">
        <ele>173</ele>
        <time>2018-04-29T17:05:03Z</time>
      </trkpt>
      <trkpt lat="44.57223" lon="0.8435">
        <ele>173</ele>
        <time>2018-04-29T17:05:10Z</time>
      </trkpt>
      <trkpt lat="44.57218" lon="0.84364">
        <ele>173.4</ele>
        <time>2018-04-29T17:05:14Z</time>
      </trkpt>
      <trkpt lat="44.57218" lon="0.84368">
        <ele>173.8</ele>
        <time>2018-04-29T17:05:15Z</time>
      </trkpt>
      <trkpt lat="44.57217" lon="0.84373">
        <ele>174.2</ele>
        <time>2018-04-29T17:05:16Z</time>
      </trkpt>
      <trkpt lat="44.57215" lon="0.84376">
        <ele>174.6</ele>
        <time>2018-04-29T17:05:17Z</time>
      </trkpt>
      <trkpt lat="44.57214" lon="0.84378">
        <ele>175</ele>
        <time>2018-04-29T17:05:18Z</time>
      </trkpt>
      <trkpt lat="44.57213" lon="0.84384">
        <ele>175</ele>
        <time>2018-04-29T17:05:20Z</time>
      </trkpt>
      <trkpt lat="44.57212" lon="0.84387">
        <ele>175</ele>
        <time>2018-04-29T17:05:21Z</time>
      </trkpt>
      <trkpt lat="44.57209" lon="0.84406">
        <ele>175</ele>
        <time>2018-04-29T17:05:26Z</time>
      </trkpt>
      <trkpt lat="44.57208" lon="0.84417">
        <ele>175</ele>
        <time>2018-04-29T17:05:29Z</time>
      </trkpt>
      <trkpt lat="44.57208" lon="0.84422">
        <ele>175</ele>
        <time>2018-04-29T17:05:30Z</time>
      </trkpt>
      <trkpt lat="44.57209" lon="0.84426">
        <ele>175</ele>
        <time>2018-04-29T17:05:31Z</time>
      </trkpt>
      <trkpt lat="44.57208" lon="0.8443">
        <ele>175.4</ele>
        <time>2018-04-29T17:05:32Z</time>
      </trkpt>
      <trkpt lat="44.57207" lon="0.84435">
        <ele>175.8</ele>
        <time>2018-04-29T17:05:33Z</time>
      </trkpt>
      <trkpt lat="44.57207" lon="0.8444">
        <ele>176.2</ele>
        <time>2018-04-29T17:05:34Z</time>
      </trkpt>
      <trkpt lat="44.57208" lon="0.84444">
        <ele>176.6</ele>
        <time>2018-04-29T17:05:35Z</time>
      </trkpt>
      <trkpt lat="44.57207" lon="0.84447">
        <ele>177</ele>
        <time>2018-04-29T17:05:36Z</time>
      </trkpt>
      <trkpt lat="44.57207" lon="0.84449">
        <ele>177</ele>
        <time>2018-04-29T17:05:37Z</time>
      </trkpt>
      <trkpt lat="44.57207" lon="0.84454">
        <ele>177</ele>
        <time>2018-04-29T17:05:39Z</time>
      </trkpt>
      <trkpt lat="44.57206" lon="0.84462">
        <ele>177</ele>
        <time>2018-04-29T17:05:42Z</time>
      </trkpt>
      <trkpt lat="44.57204" lon="0.84471">
        <ele>177</ele>
        <time>2018-04-29T17:05:45Z</time>
      </trkpt>
      <trkpt lat="44.57204" lon="0.84471">
        <ele>177</ele>
        <time>2018-04-29T17:05:46Z</time>
      </trkpt>
      <trkpt lat="44.57204" lon="0.84466">
        <ele>177</ele>
        <time>2018-04-29T17:05:50Z</time>
      </trkpt>
      <trkpt lat="44.57189" lon="0.84452">
        <ele>177</ele>
        <time>2018-04-29T17:05:53Z</time>
      </trkpt>
      <trkpt lat="44.57184" lon="0.84446">
        <ele>177</ele>
        <time>2018-04-29T17:05:54Z</time>
      </trkpt>
      <trkpt lat="44.57174" lon="0.84424">
        <ele>177</ele>
        <time>2018-04-29T17:05:57Z</time>
      </trkpt>
      <trkpt lat="44.57171" lon="0.84414">
        <ele>176.6</ele>
        <time>2018-04-29T17:05:58Z</time>
      </trkpt>
      <trkpt lat="44.57168" lon="0.84405">
        <ele>176.2</ele>
        <time>2018-04-29T17:05:59Z</time>
      </trkpt>
      <trkpt lat="44.57164" lon="0.84396">
        <ele>175.8</ele>
        <time>2018-04-29T17:06:00Z</time>
      </trkpt>
      <trkpt lat="44.5716" lon="0.84385">
        <ele>175.2</ele>
        <time>2018-04-29T17:06:01Z</time>
      </trkpt>
      <trkpt lat="44.57155" lon="0.84375">
        <ele>174.6</ele>
        <time>2018-04-29T17:06:02Z</time>
      </trkpt>
      <trkpt lat="44.57151" lon="0.84365">
        <ele>174</ele>
        <time>2018-04-29T17:06:03Z</time>
      </trkpt>
      <trkpt lat="44.57147" lon="0.84353">
        <ele>173.4</ele>
        <time>2018-04-29T17:06:04Z</time>
      </trkpt>
      <trkpt lat="44.57143" lon="0.84342">
        <ele>172.8</ele>
        <time>2018-04-29T17:06:05Z</time>
      </trkpt>
      <trkpt lat="44.5714" lon="0.84329">
        <ele>172</ele>
        <time>2018-04-29T17:06:06Z</time>
      </trkpt>
      <trkpt lat="44.57137" lon="0.84316">
        <ele>171.4</ele>
        <time>2018-04-29T17:06:07Z</time>
      </trkpt>
      <trkpt lat="44.57135" lon="0.84303">
        <ele>170.8</ele>
        <time>2018-04-29T17:06:08Z</time>
      </trkpt>
      <trkpt lat="44.57132" lon="0.8429">
        <ele>170.2</ele>
        <time>2018-04-29T17:06:09Z</time>
      </trkpt>
      <trkpt lat="44.57129" lon="0.84277">
        <ele>169.6</ele>
        <time>2018-04-29T17:06:10Z</time>
      </trkpt>
      <trkpt lat="44.57126" lon="0.84266">
        <ele>169</ele>
        <time>2018-04-29T17:06:11Z</time>
      </trkpt>
      <trkpt lat="44.57123" lon="0.84254">
        <ele>168.4</ele>
        <time>2018-04-29T17:06:12Z</time>
      </trkpt>
      <trkpt lat="44.5712" lon="0.84243">
        <ele>167.8</ele>
        <time>2018-04-29T17:06:13Z</time>
      </trkpt>
      <trkpt lat="44.57118" lon="0.84232">
        <ele>167.8</ele>
        <time>2018-04-29T17:06:14Z</time>
      </trkpt>
      <trkpt lat="44.57107" lon="0.84204">
        <ele>167.8</ele>
        <time>2018-04-29T17:06:17Z</time>
      </trkpt>
      <trkpt lat="44.57103" lon="0.84194">
        <ele>167.8</ele>
        <time>2018-04-29T17:06:18Z</time>
      </trkpt>
      <trkpt lat="44.57097" lon="0.84177">
        <ele>167.8</ele>
        <time>2018-04-29T17:06:20Z</time>
      </trkpt>
      <trkpt lat="44.57092" lon="0.84169">
        <ele>167.8</ele>
        <time>2018-04-29T17:06:21Z</time>
      </trkpt>
      <trkpt lat="44.57087" lon="0.84163">
        <ele>167.8</ele>
        <time>2018-04-29T17:06:22Z</time>
      </trkpt>
      <trkpt lat="44.57074" lon="0.84161">
        <ele>167.8</ele>
        <time>2018-04-29T17:06:24Z</time>
      </trkpt>
      <trkpt lat="44.5706" lon="0.84165">
        <ele>167.8</ele>
        <time>2018-04-29T17:06:26Z</time>
      </trkpt>
      <trkpt lat="44.57053" lon="0.84167">
        <ele>167.8</ele>
        <time>2018-04-29T17:06:27Z</time>
      </trkpt>
      <trkpt lat="44.57048" lon="0.84168">
        <ele>167.8</ele>
        <time>2018-04-29T17:06:28Z</time>
      </trkpt>
      <trkpt lat="44.57036" lon="0.84171">
        <ele>167.8</ele>
        <time>2018-04-29T17:06:30Z</time>
      </trkpt>
      <trkpt lat="44.5703" lon="0.84172">
        <ele>168.2</ele>
        <time>2018-04-29T17:06:31Z</time>
      </trkpt>
      <trkpt lat="44.57025" lon="0.84174">
        <ele>168.6</ele>
        <time>2018-04-29T17:06:32Z</time>
      </trkpt>
      <trkpt lat="44.57019" lon="0.84175">
        <ele>169.2</ele>
        <time>2018-04-29T17:06:33Z</time>
      </trkpt>
      <trkpt lat="44.57013" lon="0.84176">
        <ele>169.6</ele>
        <time>2018-04-29T17:06:34Z</time>
      </trkpt>
      <trkpt lat="44.57008" lon="0.84177">
        <ele>170</ele>
        <time>2018-04-29T17:06:35Z</time>
      </trkpt>
      <trkpt lat="44.56988" lon="0.84176">
        <ele>170</ele>
        <time>2018-04-29T17:06:38Z</time>
      </trkpt>
      <trkpt lat="44.56981" lon="0.84174">
        <ele>170</ele>
        <time>2018-04-29T17:06:39Z</time>
      </trkpt>
      <trkpt lat="44.56973" lon="0.8417">
        <ele>170</ele>
        <time>2018-04-29T17:06:40Z</time>
      </trkpt>
      <trkpt lat="44.56961" lon="0.84156">
        <ele>169.6</ele>
        <time>2018-04-29T17:06:42Z</time>
      </trkpt>
      <trkpt lat="44.56957" lon="0.84146">
        <ele>169</ele>
        <time>2018-04-29T17:06:43Z</time>
      </trkpt>
      <trkpt lat="44.56954" lon="0.84136">
        <ele>168.6</ele>
        <time>2018-04-29T17:06:44Z</time>
      </trkpt>
      <trkpt lat="44.56951" lon="0.84125">
        <ele>167.8</ele>
        <time>2018-04-29T17:06:45Z</time>
      </trkpt>
      <trkpt lat="44.56936" lon="0.84077">
        <ele>167.8</ele>
        <time>2018-04-29T17:06:50Z</time>
      </trkpt>
      <trkpt lat="44.56923" lon="0.84043">
        <ele>167.8</ele>
        <time>2018-04-29T17:06:54Z</time>
      </trkpt>
      <trkpt lat="44.56915" lon="0.84027">
        <ele>167.8</ele>
        <time>2018-04-29T17:06:56Z</time>
      </trkpt>
      <trkpt lat="44.56903" lon="0.84004">
        <ele>167.8</ele>
        <time>2018-04-29T17:06:59Z</time>
      </trkpt>
      <trkpt lat="44.56894" lon="0.83988">
        <ele>167.8</ele>
        <time>2018-04-29T17:07:01Z</time>
      </trkpt>
      <trkpt lat="44.5689" lon="0.83979">
        <ele>167.8</ele>
        <time>2018-04-29T17:07:02Z</time>
      </trkpt>
      <trkpt lat="44.5688" lon="0.83949">
        <ele>167.8</ele>
        <time>2018-04-29T17:07:05Z</time>
      </trkpt>
      <trkpt lat="44.56877" lon="0.83938">
        <ele>167.8</ele>
        <time>2018-04-29T17:07:06Z</time>
      </trkpt>
      <trkpt lat="44.56878" lon="0.83904">
        <ele>167.8</ele>
        <time>2018-04-29T17:07:09Z</time>
      </trkpt>
      <trkpt lat="44.56884" lon="0.8387">
        <ele>167.8</ele>
        <time>2018-04-29T17:07:12Z</time>
      </trkpt>
      <trkpt lat="44.56887" lon="0.83859">
        <ele>167.8</ele>
        <time>2018-04-29T17:07:13Z</time>
      </trkpt>
      <trkpt lat="44.56891" lon="0.83849">
        <ele>167.8</ele>
        <time>2018-04-29T17:07:14Z</time>
      </trkpt>
      <trkpt lat="44.56906" lon="0.83822">
        <ele>167.8</ele>
        <time>2018-04-29T17:07:17Z</time>
      </trkpt>
      <trkpt lat="44.56919" lon="0.83809">
        <ele>167.8</ele>
        <time>2018-04-29T17:07:19Z</time>
      </trkpt>
      <trkpt lat="44.56925" lon="0.83804">
        <ele>167.8</ele>
        <time>2018-04-29T17:07:20Z</time>
      </trkpt>
      <trkpt lat="44.56951" lon="0.83788">
        <ele>167.8</ele>
        <time>2018-04-29T17:07:24Z</time>
      </trkpt>
      <trkpt lat="44.56957" lon="0.83783">
        <ele>167.8</ele>
        <time>2018-04-29T17:07:25Z</time>
      </trkpt>
      <trkpt lat="44.56962" lon="0.83775">
        <ele>167.8</ele>
        <time>2018-04-29T17:07:26Z</time>
      </trkpt>
      <trkpt lat="44.56964" lon="0.83766">
        <ele>167.8</ele>
        <time>2018-04-29T17:07:27Z</time>
      </trkpt>
      <trkpt lat="44.56961" lon="0.83747">
        <ele>167.8</ele>
        <time>2018-04-29T17:07:29Z</time>
      </trkpt>
      <trkpt lat="44.5695" lon="0.83722">
        <ele>167.8</ele>
        <time>2018-04-29T17:07:32Z</time>
      </trkpt>
      <trkpt lat="44.56946" lon="0.83714">
        <ele>167.8</ele>
        <time>2018-04-29T17:07:33Z</time>
      </trkpt>
      <trkpt lat="44.56928" lon="0.83677">
        <ele>167.8</ele>
        <time>2018-04-29T17:07:38Z</time>
      </trkpt>
      <trkpt lat="44.5692" lon="0.83656">
        <ele>167.8</ele>
        <time>2018-04-29T17:07:43Z</time>
      </trkpt>
      <trkpt lat="44.56919" lon="0.83651">
        <ele>167.8</ele>
        <time>2018-04-29T17:07:46Z</time>
      </trkpt>
      <trkpt lat="44.56918" lon="0.83649">
        <ele>167.8</ele>
        <time>2018-04-29T17:07:48Z</time>
      </trkpt>
      <trkpt lat="44.56918" lon="0.83648">
        <ele>167.4</ele>
        <time>2018-04-29T17:07:50Z</time>
      </trkpt>
      <trkpt lat="44.56917" lon="0.83645">
        <ele>165.8</ele>
        <time>2018-04-29T17:07:57Z</time>
      </trkpt>
      <trkpt lat="44.56916" lon="0.83643">
        <ele>165.8</ele>
        <time>2018-04-29T17:07:58Z</time>
      </trkpt>
      <trkpt lat="44.56911" lon="0.83634">
        <ele>165.8</ele>
        <time>2018-04-29T17:08:01Z</time>
      </trkpt>
      <trkpt lat="44.56909" lon="0.83631">
        <ele>165.8</ele>
        <time>2018-04-29T17:08:02Z</time>
      </trkpt>
      <trkpt lat="44.56902" lon="0.83621">
        <ele>165.8</ele>
        <time>2018-04-29T17:08:06Z</time>
      </trkpt>
      <trkpt lat="44.56901" lon="0.83618">
        <ele>165.8</ele>
        <time>2018-04-29T17:08:07Z</time>
      </trkpt>
      <trkpt lat="44.56898" lon="0.83619">
        <ele>165.8</ele>
        <time>2018-04-29T17:08:09Z</time>
      </trkpt>
      <trkpt lat="44.56897" lon="0.83621">
        <ele>165.8</ele>
        <time>2018-04-29T17:08:10Z</time>
      </trkpt>
      <trkpt lat="44.56897" lon="0.83622">
        <ele>165.8</ele>
        <time>2018-04-29T17:08:11Z</time>
      </trkpt>
      <trkpt lat="44.56896" lon="0.83624">
        <ele>165.8</ele>
        <time>2018-04-29T17:08:12Z</time>
      </trkpt>
      <trkpt lat="44.56894" lon="0.83625">
        <ele>165.8</ele>
        <time>2018-04-29T17:08:14Z</time>
      </trkpt>
      <trkpt lat="44.56893" lon="0.83626">
        <ele>165.8</ele>
        <time>2018-04-29T17:08:16Z</time>
      </trkpt>
      <trkpt lat="44.5689" lon="0.83628">
        <ele>165.8</ele>
        <time>2018-04-29T17:08:20Z</time>
      </trkpt>
      <trkpt lat="44.56887" lon="0.83631">
        <ele>165.8</ele>
        <time>2018-04-29T17:08:24Z</time>
      </trkpt>
      <trkpt lat="44.56886" lon="0.83633">
        <ele>165.8</ele>
        <time>2018-04-29T17:08:26Z</time>
      </trkpt>
      <trkpt lat="44.56884" lon="0.83637">
        <ele>165.8</ele>
        <time>2018-04-29T17:08:28Z</time>
      </trkpt>
      <trkpt lat="44.56882" lon="0.8364">
        <ele>165.8</ele>
        <time>2018-04-29T17:08:30Z</time>
      </trkpt>
      <trkpt lat="44.56878" lon="0.83646">
        <ele>165.8</ele>
        <time>2018-04-29T17:08:34Z</time>
      </trkpt>
      <trkpt lat="44.56872" lon="0.83652">
        <ele>165.8</ele>
        <time>2018-04-29T17:08:37Z</time>
      </trkpt>
      <trkpt lat="44.56869" lon="0.83656">
        <ele>165.8</ele>
        <time>2018-04-29T17:08:39Z</time>
      </trkpt>
      <trkpt lat="44.56865" lon="0.83661">
        <ele>165.8</ele>
        <time>2018-04-29T17:08:41Z</time>
      </trkpt>
      <trkpt lat="44.56863" lon="0.83663">
        <ele>165.8</ele>
        <time>2018-04-29T17:08:42Z</time>
      </trkpt>
      <trkpt lat="44.56852" lon="0.83675">
        <ele>165.8</ele>
        <time>2018-04-29T17:08:46Z</time>
      </trkpt>
      <trkpt lat="44.56847" lon="0.8368">
        <ele>165.8</ele>
        <time>2018-04-29T17:08:48Z</time>
      </trkpt>
      <trkpt lat="44.56836" lon="0.83693">
        <ele>165.8</ele>
        <time>2018-04-29T17:08:52Z</time>
      </trkpt>
      <trkpt lat="44.56818" lon="0.83706">
        <ele>165.8</ele>
        <time>2018-04-29T17:08:58Z</time>
      </trkpt>
      <trkpt lat="44.56804" lon="0.83711">
        <ele>165.8</ele>
        <time>2018-04-29T17:09:01Z</time>
      </trkpt>
      <trkpt lat="44.56796" lon="0.83717">
        <ele>165.8</ele>
        <time>2018-04-29T17:09:03Z</time>
      </trkpt>
      <trkpt lat="44.56788" lon="0.83719">
        <ele>165.8</ele>
        <time>2018-04-29T17:09:05Z</time>
      </trkpt>
      <trkpt lat="44.56785" lon="0.83716">
        <ele>165.8</ele>
        <time>2018-04-29T17:09:06Z</time>
      </trkpt>
      <trkpt lat="44.56776" lon="0.83697">
        <ele>165.8</ele>
        <time>2018-04-29T17:09:10Z</time>
      </trkpt>
      <trkpt lat="44.56761" lon="0.83672">
        <ele>165.8</ele>
        <time>2018-04-29T17:09:15Z</time>
      </trkpt>
      <trkpt lat="44.56749" lon="0.83659">
        <ele>165.8</ele>
        <time>2018-04-29T17:09:17Z</time>
      </trkpt>
      <trkpt lat="44.56735" lon="0.83646">
        <ele>165.8</ele>
        <time>2018-04-29T17:09:19Z</time>
      </trkpt>
      <trkpt lat="44.56709" lon="0.8362">
        <ele>165.8</ele>
        <time>2018-04-29T17:09:23Z</time>
      </trkpt>
      <trkpt lat="44.56703" lon="0.83615">
        <ele>165.4</ele>
        <time>2018-04-29T17:09:24Z</time>
      </trkpt>
      <trkpt lat="44.56697" lon="0.83611">
        <ele>165</ele>
        <time>2018-04-29T17:09:25Z</time>
      </trkpt>
      <trkpt lat="44.5669" lon="0.83608">
        <ele>164.6</ele>
        <time>2018-04-29T17:09:26Z</time>
      </trkpt>
      <trkpt lat="44.5668" lon="0.83604">
        <ele>164</ele>
        <time>2018-04-29T17:09:27Z</time>
      </trkpt>
      <trkpt lat="44.56671" lon="0.83599">
        <ele>163.6</ele>
        <time>2018-04-29T17:09:28Z</time>
      </trkpt>
      <trkpt lat="44.56662" lon="0.83596">
        <ele>163.2</ele>
        <time>2018-04-29T17:09:29Z</time>
      </trkpt>
      <trkpt lat="44.56653" lon="0.83592">
        <ele>162.8</ele>
        <time>2018-04-29T17:09:30Z</time>
      </trkpt>
      <trkpt lat="44.56644" lon="0.83588">
        <ele>162.2</ele>
        <time>2018-04-29T17:09:31Z</time>
      </trkpt>
      <trkpt lat="44.56635" lon="0.83585">
        <ele>161.8</ele>
        <time>2018-04-29T17:09:32Z</time>
      </trkpt>
      <trkpt lat="44.56625" lon="0.83581">
        <ele>161.2</ele>
        <time>2018-04-29T17:09:33Z</time>
      </trkpt>
      <trkpt lat="44.56616" lon="0.83578">
        <ele>160.8</ele>
        <time>2018-04-29T17:09:34Z</time>
      </trkpt>
      <trkpt lat="44.56607" lon="0.83574">
        <ele>160.2</ele>
        <time>2018-04-29T17:09:35Z</time>
      </trkpt>
      <trkpt lat="44.56599" lon="0.83568">
        <ele>159.6</ele>
        <time>2018-04-29T17:09:36Z</time>
      </trkpt>
      <trkpt lat="44.5659" lon="0.83561">
        <ele>159.2</ele>
        <time>2018-04-29T17:09:37Z</time>
      </trkpt>
      <trkpt lat="44.56582" lon="0.83554">
        <ele>159.2</ele>
        <time>2018-04-29T17:09:38Z</time>
      </trkpt>
      <trkpt lat="44.56573" lon="0.83547">
        <ele>158.6</ele>
        <time>2018-04-29T17:09:39Z</time>
      </trkpt>
      <trkpt lat="44.56564" lon="0.83541">
        <ele>158</ele>
        <time>2018-04-29T17:09:40Z</time>
      </trkpt>
      <trkpt lat="44.56555" lon="0.83535">
        <ele>157.4</ele>
        <time>2018-04-29T17:09:41Z</time>
      </trkpt>
      <trkpt lat="44.56545" lon="0.83528">
        <ele>157</ele>
        <time>2018-04-29T17:09:42Z</time>
      </trkpt>
      <trkpt lat="44.56535" lon="0.83522">
        <ele>156.4</ele>
        <time>2018-04-29T17:09:43Z</time>
      </trkpt>
      <trkpt lat="44.56518" lon="0.8351">
        <ele>156.4</ele>
        <time>2018-04-29T17:09:45Z</time>
      </trkpt>
      <trkpt lat="44.56495" lon="0.83491">
        <ele>156.4</ele>
        <time>2018-04-29T17:09:48Z</time>
      </trkpt>
      <trkpt lat="44.5648" lon="0.83481">
        <ele>156.4</ele>
        <time>2018-04-29T17:09:50Z</time>
      </trkpt>
      <trkpt lat="44.56471" lon="0.8348">
        <ele>156.4</ele>
        <time>2018-04-29T17:09:51Z</time>
      </trkpt>
      <trkpt lat="44.56447" lon="0.83486">
        <ele>156.4</ele>
        <time>2018-04-29T17:09:54Z</time>
      </trkpt>
      <trkpt lat="44.56431" lon="0.83488">
        <ele>156.4</ele>
        <time>2018-04-29T17:09:56Z</time>
      </trkpt>
      <trkpt lat="44.56416" lon="0.83499">
        <ele>156.4</ele>
        <time>2018-04-29T17:09:58Z</time>
      </trkpt>
      <trkpt lat="44.56405" lon="0.83514">
        <ele>156.4</ele>
        <time>2018-04-29T17:10:00Z</time>
      </trkpt>
      <trkpt lat="44.564" lon="0.8352">
        <ele>156.8</ele>
        <time>2018-04-29T17:10:01Z</time>
      </trkpt>
      <trkpt lat="44.56395" lon="0.83526">
        <ele>157.2</ele>
        <time>2018-04-29T17:10:02Z</time>
      </trkpt>
      <trkpt lat="44.5639" lon="0.83532">
        <ele>158</ele>
        <time>2018-04-29T17:10:03Z</time>
      </trkpt>
      <trkpt lat="44.56385" lon="0.83539">
        <ele>158.6</ele>
        <time>2018-04-29T17:10:04Z</time>
      </trkpt>
      <trkpt lat="44.56371" lon="0.83553">
        <ele>158.6</ele>
        <time>2018-04-29T17:10:07Z</time>
      </trkpt>
      <trkpt lat="44.56366" lon="0.83555">
        <ele>158.6</ele>
        <time>2018-04-29T17:10:08Z</time>
      </trkpt>
      <trkpt lat="44.56337" lon="0.83565">
        <ele>158.6</ele>
        <time>2018-04-29T17:10:12Z</time>
      </trkpt>
      <trkpt lat="44.56307" lon="0.83577">
        <ele>158.6</ele>
        <time>2018-04-29T17:10:16Z</time>
      </trkpt>
      <trkpt lat="44.56299" lon="0.83581">
        <ele>158.6</ele>
        <time>2018-04-29T17:10:17Z</time>
      </trkpt>
      <trkpt lat="44.56292" lon="0.83583">
        <ele>158.6</ele>
        <time>2018-04-29T17:10:18Z</time>
      </trkpt>
      <trkpt lat="44.56276" lon="0.83582">
        <ele>158.2</ele>
        <time>2018-04-29T17:10:20Z</time>
      </trkpt>
      <trkpt lat="44.56267" lon="0.8358">
        <ele>157.8</ele>
        <time>2018-04-29T17:10:21Z</time>
      </trkpt>
      <trkpt lat="44.56259" lon="0.83577">
        <ele>157.4</ele>
        <time>2018-04-29T17:10:22Z</time>
      </trkpt>
      <trkpt lat="44.5625" lon="0.83575">
        <ele>157</ele>
        <time>2018-04-29T17:10:23Z</time>
      </trkpt>
      <trkpt lat="44.56242" lon="0.83572">
        <ele>156.6</ele>
        <time>2018-04-29T17:10:24Z</time>
      </trkpt>
      <trkpt lat="44.56219" lon="0.8357">
        <ele>156.6</ele>
        <time>2018-04-29T17:10:27Z</time>
      </trkpt>
      <trkpt lat="44.56212" lon="0.8357">
        <ele>156.6</ele>
        <time>2018-04-29T17:10:28Z</time>
      </trkpt>
      <trkpt lat="44.56196" lon="0.83569">
        <ele>156</ele>
        <time>2018-04-29T17:10:30Z</time>
      </trkpt>
      <trkpt lat="44.56189" lon="0.83565">
        <ele>155.6</ele>
        <time>2018-04-29T17:10:31Z</time>
      </trkpt>
      <trkpt lat="44.56182" lon="0.8356">
        <ele>155.2</ele>
        <time>2018-04-29T17:10:32Z</time>
      </trkpt>
      <trkpt lat="44.56178" lon="0.83556">
        <ele>154.8</ele>
        <time>2018-04-29T17:10:33Z</time>
      </trkpt>
      <trkpt lat="44.56174" lon="0.83552">
        <ele>154.4</ele>
        <time>2018-04-29T17:10:34Z</time>
      </trkpt>
      <trkpt lat="44.56171" lon="0.83547">
        <ele>154</ele>
        <time>2018-04-29T17:10:35Z</time>
      </trkpt>
      <trkpt lat="44.56167" lon="0.83545">
        <ele>153.6</ele>
        <time>2018-04-29T17:10:36Z</time>
      </trkpt>
      <trkpt lat="44.56164" lon="0.83543">
        <ele>153</ele>
        <time>2018-04-29T17:10:37Z</time>
      </trkpt>
      <trkpt lat="44.56163" lon="0.83542">
        <ele>152.6</ele>
        <time>2018-04-29T17:10:38Z</time>
      </trkpt>
      <trkpt lat="44.56162" lon="0.83542">
        <ele>152.2</ele>
        <time>2018-04-29T17:10:39Z</time>
      </trkpt>
      <trkpt lat="44.56163" lon="0.83542">
        <ele>151.8</ele>
        <time>2018-04-29T17:10:41Z</time>
      </trkpt>
      <trkpt lat="44.56162" lon="0.83542">
        <ele>151.4</ele>
        <time>2018-04-29T17:10:42Z</time>
      </trkpt>
      <trkpt lat="44.56161" lon="0.83543">
        <ele>150.2</ele>
        <time>2018-04-29T17:11:23Z</time>
      </trkpt>
      <trkpt lat="44.56161" lon="0.83544">
        <ele>150.2</ele>
        <time>2018-04-29T17:11:24Z</time>
      </trkpt>
      <trkpt lat="44.5616" lon="0.83546">
        <ele>150.2</ele>
        <time>2018-04-29T17:11:25Z</time>
      </trkpt>
      <trkpt lat="44.56153" lon="0.83555">
        <ele>150.2</ele>
        <time>2018-04-29T17:11:29Z</time>
      </trkpt>
      <trkpt lat="44.56149" lon="0.83559">
        <ele>150.2</ele>
        <time>2018-04-29T17:11:31Z</time>
      </trkpt>
      <trkpt lat="44.56147" lon="0.83561">
        <ele>149.8</ele>
        <time>2018-04-29T17:11:32Z</time>
      </trkpt>
      <trkpt lat="44.56145" lon="0.83563">
        <ele>149.4</ele>
        <time>2018-04-29T17:11:33Z</time>
      </trkpt>
      <trkpt lat="44.56143" lon="0.83565">
        <ele>149</ele>
        <time>2018-04-29T17:11:34Z</time>
      </trkpt>
      <trkpt lat="44.56141" lon="0.83568">
        <ele>148.4</ele>
        <time>2018-04-29T17:11:35Z</time>
      </trkpt>
      <trkpt lat="44.56138" lon="0.8357">
        <ele>148</ele>
        <time>2018-04-29T17:11:36Z</time>
      </trkpt>
      <trkpt lat="44.56135" lon="0.83574">
        <ele>147.6</ele>
        <time>2018-04-29T17:11:37Z</time>
      </trkpt>
      <trkpt lat="44.56132" lon="0.83577">
        <ele>147.2</ele>
        <time>2018-04-29T17:11:38Z</time>
      </trkpt>
      <trkpt lat="44.56129" lon="0.8358">
        <ele>146.6</ele>
        <time>2018-04-29T17:11:39Z</time>
      </trkpt>
      <trkpt lat="44.56125" lon="0.83584">
        <ele>146.2</ele>
        <time>2018-04-29T17:11:40Z</time>
      </trkpt>
      <trkpt lat="44.56121" lon="0.83587">
        <ele>145.6</ele>
        <time>2018-04-29T17:11:41Z</time>
      </trkpt>
      <trkpt lat="44.56117" lon="0.8359">
        <ele>145.6</ele>
        <time>2018-04-29T17:11:42Z</time>
      </trkpt>
      <trkpt lat="44.5611" lon="0.83594">
        <ele>145.6</ele>
        <time>2018-04-29T17:11:44Z</time>
      </trkpt>
      <trkpt lat="44.56102" lon="0.836">
        <ele>145.6</ele>
        <time>2018-04-29T17:11:46Z</time>
      </trkpt>
      <trkpt lat="44.56099" lon="0.83602">
        <ele>145.6</ele>
        <time>2018-04-29T17:11:47Z</time>
      </trkpt>
      <trkpt lat="44.56093" lon="0.83606">
        <ele>145.6</ele>
        <time>2018-04-29T17:11:49Z</time>
      </trkpt>
      <trkpt lat="44.56091" lon="0.83608">
        <ele>145.6</ele>
        <time>2018-04-29T17:11:50Z</time>
      </trkpt>
      <trkpt lat="44.56085" lon="0.83612">
        <ele>146</ele>
        <time>2018-04-29T17:11:52Z</time>
      </trkpt>
      <trkpt lat="44.56082" lon="0.83614">
        <ele>146.4</ele>
        <time>2018-04-29T17:11:53Z</time>
      </trkpt>
      <trkpt lat="44.56079" lon="0.83615">
        <ele>146.8</ele>
        <time>2018-04-29T17:11:54Z</time>
      </trkpt>
      <trkpt lat="44.56077" lon="0.83618">
        <ele>147.2</ele>
        <time>2018-04-29T17:11:55Z</time>
      </trkpt>
      <trkpt lat="44.56075" lon="0.8362">
        <ele>147.6</ele>
        <time>2018-04-29T17:11:56Z</time>
      </trkpt>
      <trkpt lat="44.56073" lon="0.83623">
        <ele>147.6</ele>
        <time>2018-04-29T17:11:57Z</time>
      </trkpt>
      <trkpt lat="44.56065" lon="0.8363">
        <ele>147.6</ele>
        <time>2018-04-29T17:12:00Z</time>
      </trkpt>
      <trkpt lat="44.56056" lon="0.83637">
        <ele>147.6</ele>
        <time>2018-04-29T17:12:03Z</time>
      </trkpt>
      <trkpt lat="44.56034" lon="0.83657">
        <ele>147.6</ele>
        <time>2018-04-29T17:12:11Z</time>
      </trkpt>
      <trkpt lat="44.56031" lon="0.83659">
        <ele>148</ele>
        <time>2018-04-29T17:12:12Z</time>
      </trkpt>
      <trkpt lat="44.56029" lon="0.83661">
        <ele>148.6</ele>
        <time>2018-04-29T17:12:13Z</time>
      </trkpt>
      <trkpt lat="44.56026" lon="0.83664">
        <ele>149</ele>
        <time>2018-04-29T17:12:14Z</time>
      </trkpt>
      <trkpt lat="44.56024" lon="0.83666">
        <ele>149.4</ele>
        <time>2018-04-29T17:12:15Z</time>
      </trkpt>
      <trkpt lat="44.56023" lon="0.83669">
        <ele>149.8</ele>
        <time>2018-04-29T17:12:16Z</time>
      </trkpt>
      <trkpt lat="44.5602" lon="0.83672">
        <ele>149.8</ele>
        <time>2018-04-29T17:12:17Z</time>
      </trkpt>
      <trkpt lat="44.56008" lon="0.83692">
        <ele>149.8</ele>
        <time>2018-04-29T17:12:22Z</time>
      </trkpt>
      <trkpt lat="44.55995" lon="0.83712">
        <ele>149.8</ele>
        <time>2018-04-29T17:12:27Z</time>
      </trkpt>
      <trkpt lat="44.55989" lon="0.83722">
        <ele>149.8</ele>
        <time>2018-04-29T17:12:29Z</time>
      </trkpt>
      <trkpt lat="44.55982" lon="0.83732">
        <ele>149.8</ele>
        <time>2018-04-29T17:12:31Z</time>
      </trkpt>
      <trkpt lat="44.55977" lon="0.83744">
        <ele>149.8</ele>
        <time>2018-04-29T17:12:33Z</time>
      </trkpt>
      <trkpt lat="44.55966" lon="0.83762">
        <ele>149.4</ele>
        <time>2018-04-29T17:12:36Z</time>
      </trkpt>
      <trkpt lat="44.55963" lon="0.83768">
        <ele>149</ele>
        <time>2018-04-29T17:12:37Z</time>
      </trkpt>
      <trkpt lat="44.55959" lon="0.83774">
        <ele>148.6</ele>
        <time>2018-04-29T17:12:38Z</time>
      </trkpt>
      <trkpt lat="44.55956" lon="0.8378">
        <ele>148.2</ele>
        <time>2018-04-29T17:12:39Z</time>
      </trkpt>
      <trkpt lat="44.55952" lon="0.83786">
        <ele>147.8</ele>
        <time>2018-04-29T17:12:40Z</time>
      </trkpt>
      <trkpt lat="44.55949" lon="0.83791">
        <ele>147.8</ele>
        <time>2018-04-29T17:12:41Z</time>
      </trkpt>
      <trkpt lat="44.55944" lon="0.83797">
        <ele>147.8</ele>
        <time>2018-04-29T17:12:42Z</time>
      </trkpt>
      <trkpt lat="44.55933" lon="0.83811">
        <ele>147.2</ele>
        <time>2018-04-29T17:12:44Z</time>
      </trkpt>
      <trkpt lat="44.55928" lon="0.83817">
        <ele>146.8</ele>
        <time>2018-04-29T17:12:45Z</time>
      </trkpt>
      <trkpt lat="44.55924" lon="0.83824">
        <ele>146.4</ele>
        <time>2018-04-29T17:12:46Z</time>
      </trkpt>
      <trkpt lat="44.55919" lon="0.83831">
        <ele>146</ele>
        <time>2018-04-29T17:12:47Z</time>
      </trkpt>
      <trkpt lat="44.55915" lon="0.8384">
        <ele>145.4</ele>
        <time>2018-04-29T17:12:48Z</time>
      </trkpt>
      <trkpt lat="44.55912" lon="0.83848">
        <ele>145.4</ele>
        <time>2018-04-29T17:12:49Z</time>
      </trkpt>
      <trkpt lat="44.5591" lon="0.83854">
        <ele>145</ele>
        <time>2018-04-29T17:12:50Z</time>
      </trkpt>
      <trkpt lat="44.55907" lon="0.8386">
        <ele>144.4</ele>
        <time>2018-04-29T17:12:51Z</time>
      </trkpt>
      <trkpt lat="44.55905" lon="0.83866">
        <ele>143.8</ele>
        <time>2018-04-29T17:12:52Z</time>
      </trkpt>
      <trkpt lat="44.55903" lon="0.83871">
        <ele>143.2</ele>
        <time>2018-04-29T17:12:53Z</time>
      </trkpt>
      <trkpt lat="44.55901" lon="0.83875">
        <ele>142.6</ele>
        <time>2018-04-29T17:12:54Z</time>
      </trkpt>
      <trkpt lat="44.55899" lon="0.83878">
        <ele>141.2</ele>
        <time>2018-04-29T17:12:55Z</time>
      </trkpt>
      <trkpt lat="44.55897" lon="0.83882">
        <ele>140.6</ele>
        <time>2018-04-29T17:12:56Z</time>
      </trkpt>
      <trkpt lat="44.55895" lon="0.83885">
        <ele>139.8</ele>
        <time>2018-04-29T17:12:57Z</time>
      </trkpt>
      <trkpt lat="44.55894" lon="0.83887">
        <ele>139</ele>
        <time>2018-04-29T17:12:58Z</time>
      </trkpt>
      <trkpt lat="44.55893" lon="0.83889">
        <ele>138.4</ele>
        <time>2018-04-29T17:12:59Z</time>
      </trkpt>
      <trkpt lat="44.55892" lon="0.8389">
        <ele>137.8</ele>
        <time>2018-04-29T17:13:00Z</time>
      </trkpt>
      <trkpt lat="44.55892" lon="0.83892">
        <ele>137.2</ele>
        <time>2018-04-29T17:13:01Z</time>
      </trkpt>
      <trkpt lat="44.55892" lon="0.83894">
        <ele>136.6</ele>
        <time>2018-04-29T17:13:02Z</time>
      </trkpt>
      <trkpt lat="44.55892" lon="0.83894">
        <ele>136</ele>
        <time>2018-04-29T17:13:03Z</time>
      </trkpt>
      <trkpt lat="44.55891" lon="0.83898">
        <ele>136</ele>
        <time>2018-04-29T17:13:05Z</time>
      </trkpt>
      <trkpt lat="44.5589" lon="0.839">
        <ele>135.4</ele>
        <time>2018-04-29T17:13:06Z</time>
      </trkpt>
      <trkpt lat="44.55888" lon="0.83902">
        <ele>135</ele>
        <time>2018-04-29T17:13:07Z</time>
      </trkpt>
      <trkpt lat="44.55885" lon="0.83905">
        <ele>134.6</ele>
        <time>2018-04-29T17:13:08Z</time>
      </trkpt>
      <trkpt lat="44.55883" lon="0.83909">
        <ele>134.2</ele>
        <time>2018-04-29T17:13:09Z</time>
      </trkpt>
      <trkpt lat="44.5588" lon="0.83913">
        <ele>133.6</ele>
        <time>2018-04-29T17:13:10Z</time>
      </trkpt>
      <trkpt lat="44.55878" lon="0.83918">
        <ele>133.2</ele>
        <time>2018-04-29T17:13:11Z</time>
      </trkpt>
      <trkpt lat="44.55875" lon="0.83924">
        <ele>132.6</ele>
        <time>2018-04-29T17:13:12Z</time>
      </trkpt>
      <trkpt lat="44.55872" lon="0.83931">
        <ele>132.2</ele>
        <time>2018-04-29T17:13:13Z</time>
      </trkpt>
      <trkpt lat="44.5587" lon="0.83935">
        <ele>131.6</ele>
        <time>2018-04-29T17:13:14Z</time>
      </trkpt>
      <trkpt lat="44.55869" lon="0.83935">
        <ele>131</ele>
        <time>2018-04-29T17:13:15Z</time>
      </trkpt>
      <trkpt lat="44.55869" lon="0.83936">
        <ele>130.6</ele>
        <time>2018-04-29T17:13:16Z</time>
      </trkpt>
      <trkpt lat="44.55868" lon="0.83937">
        <ele>130</ele>
        <time>2018-04-29T17:13:17Z</time>
      </trkpt>
      <trkpt lat="44.55868" lon="0.83936">
        <ele>129.4</ele>
        <time>2018-04-29T17:13:18Z</time>
      </trkpt>
      <trkpt lat="44.55868" lon="0.83937">
        <ele>128.8</ele>
        <time>2018-04-29T17:13:19Z</time>
      </trkpt>
      <trkpt lat="44.55867" lon="0.83941">
        <ele>128.8</ele>
        <time>2018-04-29T17:13:22Z</time>
      </trkpt>
      <trkpt lat="44.55866" lon="0.83943">
        <ele>128.8</ele>
        <time>2018-04-29T17:13:23Z</time>
      </trkpt>
      <trkpt lat="44.55866" lon="0.83944">
        <ele>128.8</ele>
        <time>2018-04-29T17:13:25Z</time>
      </trkpt>
      <trkpt lat="44.55866" lon="0.83945">
        <ele>128.8</ele>
        <time>2018-04-29T17:13:26Z</time>
      </trkpt>
      <trkpt lat="44.55866" lon="0.83945">
        <ele>128.4</ele>
        <time>2018-04-29T17:13:27Z</time>
      </trkpt>
      <trkpt lat="44.55865" lon="0.83946">
        <ele>128</ele>
        <time>2018-04-29T17:13:28Z</time>
      </trkpt>
      <trkpt lat="44.55865" lon="0.83946">
        <ele>127.4</ele>
        <time>2018-04-29T17:13:29Z</time>
      </trkpt>
      <trkpt lat="44.55866" lon="0.83946">
        <ele>127</ele>
        <time>2018-04-29T17:13:30Z</time>
      </trkpt>
      <trkpt lat="44.55865" lon="0.83946">
        <ele>126.6</ele>
        <time>2018-04-29T17:13:31Z</time>
      </trkpt>
      <trkpt lat="44.55865" lon="0.83948">
        <ele>126.6</ele>
        <time>2018-04-29T17:13:34Z</time>
      </trkpt>
      <trkpt lat="44.55865" lon="0.83947">
        <ele>126.6</ele>
        <time>2018-04-29T17:13:35Z</time>
      </trkpt>
      <trkpt lat="44.55863" lon="0.83951">
        <ele>126.6</ele>
        <time>2018-04-29T17:14:05Z</time>
      </trkpt>
      <trkpt lat="44.55862" lon="0.83954">
        <ele>126.6</ele>
        <time>2018-04-29T17:14:06Z</time>
      </trkpt>
      <trkpt lat="44.5586" lon="0.83957">
        <ele>126.6</ele>
        <time>2018-04-29T17:14:07Z</time>
      </trkpt>
      <trkpt lat="44.55858" lon="0.83963">
        <ele>126.2</ele>
        <time>2018-04-29T17:14:09Z</time>
      </trkpt>
      <trkpt lat="44.55858" lon="0.83966">
        <ele>125.8</ele>
        <time>2018-04-29T17:14:10Z</time>
      </trkpt>
      <trkpt lat="44.55856" lon="0.8397">
        <ele>125.4</ele>
        <time>2018-04-29T17:14:11Z</time>
      </trkpt>
      <trkpt lat="44.55855" lon="0.83973">
        <ele>125</ele>
        <time>2018-04-29T17:14:12Z</time>
      </trkpt>
      <trkpt lat="44.55852" lon="0.83976">
        <ele>124.6</ele>
        <time>2018-04-29T17:14:13Z</time>
      </trkpt>
      <trkpt lat="44.5585" lon="0.8398">
        <ele>124.2</ele>
        <time>2018-04-29T17:14:14Z</time>
      </trkpt>
      <trkpt lat="44.55848" lon="0.83984">
        <ele>123.8</ele>
        <time>2018-04-29T17:14:15Z</time>
      </trkpt>
      <trkpt lat="44.55845" lon="0.83987">
        <ele>123.2</ele>
        <time>2018-04-29T17:14:16Z</time>
      </trkpt>
      <trkpt lat="44.55844" lon="0.8399">
        <ele>122.8</ele>
        <time>2018-04-29T17:14:17Z</time>
      </trkpt>
      <trkpt lat="44.55842" lon="0.83993">
        <ele>122.4</ele>
        <time>2018-04-29T17:14:18Z</time>
      </trkpt>
      <trkpt lat="44.55839" lon="0.83995">
        <ele>122</ele>
        <time>2018-04-29T17:14:19Z</time>
      </trkpt>
      <trkpt lat="44.55834" lon="0.84">
        <ele>121.4</ele>
        <time>2018-04-29T17:14:20Z</time>
      </trkpt>
      <trkpt lat="44.5583" lon="0.84006">
        <ele>120.8</ele>
        <time>2018-04-29T17:14:21Z</time>
      </trkpt>
      <trkpt lat="44.55827" lon="0.84013">
        <ele>120.2</ele>
        <time>2018-04-29T17:14:22Z</time>
      </trkpt>
      <trkpt lat="44.55824" lon="0.84015">
        <ele>119.6</ele>
        <time>2018-04-29T17:14:23Z</time>
      </trkpt>
      <trkpt lat="44.55821" lon="0.84016">
        <ele>119</ele>
        <time>2018-04-29T17:14:24Z</time>
      </trkpt>
      <trkpt lat="44.55818" lon="0.84016">
        <ele>118.4</ele>
        <time>2018-04-29T17:14:25Z</time>
      </trkpt>
      <trkpt lat="44.55813" lon="0.84018">
        <ele>119</ele>
        <time>2018-04-29T17:14:27Z</time>
      </trkpt>
      <trkpt lat="44.55812" lon="0.8402">
        <ele>119.4</ele>
        <time>2018-04-29T17:14:28Z</time>
      </trkpt>
      <trkpt lat="44.55811" lon="0.84022">
        <ele>120</ele>
        <time>2018-04-29T17:14:29Z</time>
      </trkpt>
      <trkpt lat="44.5581" lon="0.84024">
        <ele>120.6</ele>
        <time>2018-04-29T17:14:30Z</time>
      </trkpt>
      <trkpt lat="44.5581" lon="0.84026">
        <ele>121.2</ele>
        <time>2018-04-29T17:14:31Z</time>
      </trkpt>
      <trkpt lat="44.5581" lon="0.84029">
        <ele>121.6</ele>
        <time>2018-04-29T17:14:32Z</time>
      </trkpt>
      <trkpt lat="44.55809" lon="0.8403">
        <ele>122.2</ele>
        <time>2018-04-29T17:14:33Z</time>
      </trkpt>
      <trkpt lat="44.55809" lon="0.84033">
        <ele>123.4</ele>
        <time>2018-04-29T17:14:34Z</time>
      </trkpt>
      <trkpt lat="44.55808" lon="0.84036">
        <ele>123.4</ele>
        <time>2018-04-29T17:14:36Z</time>
      </trkpt>
      <trkpt lat="44.55807" lon="0.84039">
        <ele>123.4</ele>
        <time>2018-04-29T17:14:38Z</time>
      </trkpt>
      <trkpt lat="44.55807" lon="0.8404">
        <ele>123.4</ele>
        <time>2018-04-29T17:14:39Z</time>
      </trkpt>
      <trkpt lat="44.55807" lon="0.8404">
        <ele>123.4</ele>
        <time>2018-04-29T17:14:40Z</time>
      </trkpt>
      <trkpt lat="44.55805" lon="0.84044">
        <ele>123.4</ele>
        <time>2018-04-29T17:15:29Z</time>
      </trkpt>
      <trkpt lat="44.55804" lon="0.84047">
        <ele>123.4</ele>
        <time>2018-04-29T17:15:30Z</time>
      </trkpt>
      <trkpt lat="44.55803" lon="0.8405">
        <ele>123.4</ele>
        <time>2018-04-29T17:15:31Z</time>
      </trkpt>
      <trkpt lat="44.558" lon="0.84056">
        <ele>123.8</ele>
        <time>2018-04-29T17:15:33Z</time>
      </trkpt>
      <trkpt lat="44.55798" lon="0.84059">
        <ele>124.2</ele>
        <time>2018-04-29T17:15:34Z</time>
      </trkpt>
      <trkpt lat="44.55797" lon="0.84062">
        <ele>124.6</ele>
        <time>2018-04-29T17:15:35Z</time>
      </trkpt>
      <trkpt lat="44.55796" lon="0.84066">
        <ele>125.2</ele>
        <time>2018-04-29T17:15:36Z</time>
      </trkpt>
      <trkpt lat="44.55794" lon="0.84069">
        <ele>125.6</ele>
        <time>2018-04-29T17:15:37Z</time>
      </trkpt>
      <trkpt lat="44.55791" lon="0.84073">
        <ele>126</ele>
        <time>2018-04-29T17:15:39Z</time>
      </trkpt>
      <trkpt lat="44.55791" lon="0.84078">
        <ele>126.4</ele>
        <time>2018-04-29T17:15:40Z</time>
      </trkpt>
      <trkpt lat="44.55791" lon="0.8408">
        <ele>127</ele>
        <time>2018-04-29T17:15:41Z</time>
      </trkpt>
      <trkpt lat="44.5579" lon="0.84083">
        <ele>127.4</ele>
        <time>2018-04-29T17:15:42Z</time>
      </trkpt>
      <trkpt lat="44.5579" lon="0.84085">
        <ele>127.8</ele>
        <time>2018-04-29T17:15:43Z</time>
      </trkpt>
      <trkpt lat="44.55789" lon="0.84088">
        <ele>127.8</ele>
        <time>2018-04-29T17:15:44Z</time>
      </trkpt>
      <trkpt lat="44.55789" lon="0.84094">
        <ele>127.8</ele>
        <time>2018-04-29T17:15:46Z</time>
      </trkpt>
      <trkpt lat="44.55788" lon="0.841">
        <ele>128.6</ele>
        <time>2018-04-29T17:15:48Z</time>
      </trkpt>
      <trkpt lat="44.55787" lon="0.84102">
        <ele>129</ele>
        <time>2018-04-29T17:15:49Z</time>
      </trkpt>
      <trkpt lat="44.55786" lon="0.84105">
        <ele>129.6</ele>
        <time>2018-04-29T17:15:50Z</time>
      </trkpt>
      <trkpt lat="44.55784" lon="0.84107">
        <ele>130</ele>
        <time>2018-04-29T17:15:51Z</time>
      </trkpt>
      <trkpt lat="44.55783" lon="0.8411">
        <ele>130</ele>
        <time>2018-04-29T17:15:52Z</time>
      </trkpt>
      <trkpt lat="44.5577" lon="0.84126">
        <ele>130</ele>
        <time>2018-04-29T17:15:58Z</time>
      </trkpt>
      <trkpt lat="44.5576" lon="0.84143">
        <ele>130</ele>
        <time>2018-04-29T17:16:03Z</time>
      </trkpt>
      <trkpt lat="44.55745" lon="0.8417">
        <ele>129.6</ele>
        <time>2018-04-29T17:16:07Z</time>
      </trkpt>
      <trkpt lat="44.5574" lon="0.84176">
        <ele>129.2</ele>
        <time>2018-04-29T17:16:08Z</time>
      </trkpt>
      <trkpt lat="44.55737" lon="0.84181">
        <ele>128.8</ele>
        <time>2018-04-29T17:16:09Z</time>
      </trkpt>
      <trkpt lat="44.55733" lon="0.84186">
        <ele>128.2</ele>
        <time>2018-04-29T17:16:10Z</time>
      </trkpt>
      <trkpt lat="44.5573" lon="0.84189">
        <ele>127.8</ele>
        <time>2018-04-29T17:16:11Z</time>
      </trkpt>
      <trkpt lat="44.55724" lon="0.84198">
        <ele>127.8</ele>
        <time>2018-04-29T17:16:15Z</time>
      </trkpt>
      <trkpt lat="44.55718" lon="0.84208">
        <ele>127.8</ele>
        <time>2018-04-29T17:16:20Z</time>
      </trkpt>
      <trkpt lat="44.55712" lon="0.84219">
        <ele>128.4</ele>
        <time>2018-04-29T17:16:26Z</time>
      </trkpt>
      <trkpt lat="44.55711" lon="0.84221">
        <ele>128.8</ele>
        <time>2018-04-29T17:16:27Z</time>
      </trkpt>
      <trkpt lat="44.5571" lon="0.84223">
        <ele>129.2</ele>
        <time>2018-04-29T17:16:28Z</time>
      </trkpt>
      <trkpt lat="44.55708" lon="0.84225">
        <ele>129.6</ele>
        <time>2018-04-29T17:16:29Z</time>
      </trkpt>
      <trkpt lat="44.55707" lon="0.84229">
        <ele>130</ele>
        <time>2018-04-29T17:16:30Z</time>
      </trkpt>
      <trkpt lat="44.55706" lon="0.84234">
        <ele>130</ele>
        <time>2018-04-29T17:16:32Z</time>
      </trkpt>
      <trkpt lat="44.55704" lon="0.8424">
        <ele>130.6</ele>
        <time>2018-04-29T17:16:35Z</time>
      </trkpt>
      <trkpt lat="44.55703" lon="0.84243">
        <ele>131</ele>
        <time>2018-04-29T17:16:36Z</time>
      </trkpt>
      <trkpt lat="44.55702" lon="0.84245">
        <ele>131.8</ele>
        <time>2018-04-29T17:16:37Z</time>
      </trkpt>
      <trkpt lat="44.55701" lon="0.84247">
        <ele>132.2</ele>
        <time>2018-04-29T17:16:38Z</time>
      </trkpt>
      <trkpt lat="44.557" lon="0.8425">
        <ele>132.2</ele>
        <time>2018-04-29T17:16:39Z</time>
      </trkpt>
      <trkpt lat="44.55696" lon="0.84261">
        <ele>132.6</ele>
        <time>2018-04-29T17:16:44Z</time>
      </trkpt>
      <trkpt lat="44.55694" lon="0.84264">
        <ele>133</ele>
        <time>2018-04-29T17:16:45Z</time>
      </trkpt>
      <trkpt lat="44.55694" lon="0.84266">
        <ele>133.4</ele>
        <time>2018-04-29T17:16:46Z</time>
      </trkpt>
      <trkpt lat="44.55693" lon="0.84269">
        <ele>133.8</ele>
        <time>2018-04-29T17:16:47Z</time>
      </trkpt>
      <trkpt lat="44.55693" lon="0.84271">
        <ele>134.2</ele>
        <time>2018-04-29T17:16:48Z</time>
      </trkpt>
      <trkpt lat="44.5569" lon="0.84278">
        <ele>134.2</ele>
        <time>2018-04-29T17:16:51Z</time>
      </trkpt>
      <trkpt lat="44.55687" lon="0.84282">
        <ele>134.6</ele>
        <time>2018-04-29T17:16:53Z</time>
      </trkpt>
      <trkpt lat="44.55685" lon="0.84284">
        <ele>135</ele>
        <time>2018-04-29T17:16:54Z</time>
      </trkpt>
      <trkpt lat="44.55684" lon="0.84285">
        <ele>135.6</ele>
        <time>2018-04-29T17:16:55Z</time>
      </trkpt>
      <trkpt lat="44.55682" lon="0.84287">
        <ele>136</ele>
        <time>2018-04-29T17:16:56Z</time>
      </trkpt>
      <trkpt lat="44.5568" lon="0.84289">
        <ele>136.4</ele>
        <time>2018-04-29T17:16:57Z</time>
      </trkpt>
      <trkpt lat="44.55677" lon="0.84292">
        <ele>137</ele>
        <time>2018-04-29T17:16:59Z</time>
      </trkpt>
      <trkpt lat="44.55675" lon="0.84294">
        <ele>137.4</ele>
        <time>2018-04-29T17:17:00Z</time>
      </trkpt>
      <trkpt lat="44.55675" lon="0.84296">
        <ele>137.8</ele>
        <time>2018-04-29T17:17:01Z</time>
      </trkpt>
      <trkpt lat="44.55674" lon="0.84297">
        <ele>138.6</ele>
        <time>2018-04-29T17:17:02Z</time>
      </trkpt>
      <trkpt lat="44.55673" lon="0.843">
        <ele>138.6</ele>
        <time>2018-04-29T17:17:03Z</time>
      </trkpt>
      <trkpt lat="44.55671" lon="0.84301">
        <ele>139</ele>
        <time>2018-04-29T17:17:04Z</time>
      </trkpt>
      <trkpt lat="44.5567" lon="0.84303">
        <ele>139.6</ele>
        <time>2018-04-29T17:17:05Z</time>
      </trkpt>
      <trkpt lat="44.55668" lon="0.84305">
        <ele>140</ele>
        <time>2018-04-29T17:17:06Z</time>
      </trkpt>
      <trkpt lat="44.55667" lon="0.84306">
        <ele>140.4</ele>
        <time>2018-04-29T17:17:07Z</time>
      </trkpt>
      <trkpt lat="44.55665" lon="0.84308">
        <ele>140.8</ele>
        <time>2018-04-29T17:17:08Z</time>
      </trkpt>
      <trkpt lat="44.55663" lon="0.84312">
        <ele>141.2</ele>
        <time>2018-04-29T17:17:10Z</time>
      </trkpt>
      <trkpt lat="44.5566" lon="0.84314">
        <ele>141.6</ele>
        <time>2018-04-29T17:17:11Z</time>
      </trkpt>
      <trkpt lat="44.55659" lon="0.84316">
        <ele>142</ele>
        <time>2018-04-29T17:17:12Z</time>
      </trkpt>
      <trkpt lat="44.55658" lon="0.8432">
        <ele>142.4</ele>
        <time>2018-04-29T17:17:13Z</time>
      </trkpt>
      <trkpt lat="44.55657" lon="0.84322">
        <ele>142.8</ele>
        <time>2018-04-29T17:17:14Z</time>
      </trkpt>
      <trkpt lat="44.55655" lon="0.84327">
        <ele>142.8</ele>
        <time>2018-04-29T17:17:16Z</time>
      </trkpt>
      <trkpt lat="44.55652" lon="0.84331">
        <ele>143.2</ele>
        <time>2018-04-29T17:17:18Z</time>
      </trkpt>
      <trkpt lat="44.55651" lon="0.84333">
        <ele>143.8</ele>
        <time>2018-04-29T17:17:19Z</time>
      </trkpt>
      <trkpt lat="44.5565" lon="0.84336">
        <ele>144.2</ele>
        <time>2018-04-29T17:17:20Z</time>
      </trkpt>
      <trkpt lat="44.55649" lon="0.84338">
        <ele>144.6</ele>
        <time>2018-04-29T17:17:21Z</time>
      </trkpt>
      <trkpt lat="44.55649" lon="0.8434">
        <ele>145</ele>
        <time>2018-04-29T17:17:22Z</time>
      </trkpt>
      <trkpt lat="44.55642" lon="0.84356">
        <ele>145</ele>
        <time>2018-04-29T17:17:29Z</time>
      </trkpt>
      <trkpt lat="44.5564" lon="0.84358">
        <ele>145.4</ele>
        <time>2018-04-29T17:17:31Z</time>
      </trkpt>
      <trkpt lat="44.55639" lon="0.8436">
        <ele>146</ele>
        <time>2018-04-29T17:17:32Z</time>
      </trkpt>
      <trkpt lat="44.55638" lon="0.84362">
        <ele>146.4</ele>
        <time>2018-04-29T17:17:33Z</time>
      </trkpt>
      <trkpt lat="44.55636" lon="0.84363">
        <ele>146.8</ele>
        <time>2018-04-29T17:17:34Z</time>
      </trkpt>
      <trkpt lat="44.55636" lon="0.84364">
        <ele>147.2</ele>
        <time>2018-04-29T17:17:35Z</time>
      </trkpt>
      <trkpt lat="44.55635" lon="0.84366">
        <ele>147.2</ele>
        <time>2018-04-29T17:17:36Z</time>
      </trkpt>
      <trkpt lat="44.55635" lon="0.84368">
        <ele>147.2</ele>
        <time>2018-04-29T17:17:38Z</time>
      </trkpt>
      <trkpt lat="44.55636" lon="0.8437">
        <ele>147.2</ele>
        <time>2018-04-29T17:17:41Z</time>
      </trkpt>
      <trkpt lat="44.55636" lon="0.8437">
        <ele>147.2</ele>
        <time>2018-04-29T17:17:42Z</time>
      </trkpt>
      <trkpt lat="44.55643" lon="0.84372">
        <ele>147.2</ele>
        <time>2018-04-29T17:17:54Z</time>
      </trkpt>
      <trkpt lat="44.55646" lon="0.84375">
        <ele>147.2</ele>
        <time>2018-04-29T17:17:56Z</time>
      </trkpt>
      <trkpt lat="44.55647" lon="0.84378">
        <ele>147.2</ele>
        <time>2018-04-29T17:17:59Z</time>
      </trkpt>
      <trkpt lat="44.55648" lon="0.84378">
        <ele>147.2</ele>
        <time>2018-04-29T17:18:01Z</time>
      </trkpt>
      <trkpt lat="44.55647" lon="0.84377">
        <ele>147.2</ele>
        <time>2018-04-29T17:18:03Z</time>
      </trkpt>
      <trkpt lat="44.55646" lon="0.84376">
        <ele>147.2</ele>
        <time>2018-04-29T17:18:06Z</time>
      </trkpt>
      <trkpt lat="44.55643" lon="0.84375">
        <ele>147.2</ele>
        <time>2018-04-29T17:18:10Z</time>
      </trkpt>
      <trkpt lat="44.55642" lon="0.84374">
        <ele>147.2</ele>
        <time>2018-04-29T17:18:12Z</time>
      </trkpt>
      <trkpt lat="44.55639" lon="0.84373">
        <ele>147.2</ele>
        <time>2018-04-29T17:18:16Z</time>
      </trkpt>
      <trkpt lat="44.55637" lon="0.84372">
        <ele>147.2</ele>
        <time>2018-04-29T17:18:18Z</time>
      </trkpt>
      <trkpt lat="44.55631" lon="0.84375">
        <ele>147.2</ele>
        <time>2018-04-29T17:18:23Z</time>
      </trkpt>
      <trkpt lat="44.55627" lon="0.84383">
        <ele>147.2</ele>
        <time>2018-04-29T17:18:27Z</time>
      </trkpt>
      <trkpt lat="44.55621" lon="0.84398">
        <ele>147.2</ele>
        <time>2018-04-29T17:18:32Z</time>
      </trkpt>
      <trkpt lat="44.55622" lon="0.84399">
        <ele>147.2</ele>
        <time>2018-04-29T17:18:33Z</time>
      </trkpt>
      <trkpt lat="44.55622" lon="0.84399">
        <ele>147.2</ele>
        <time>2018-04-29T17:18:35Z</time>
      </trkpt>
      <trkpt lat="44.55625" lon="0.84402">
        <ele>147.2</ele>
        <time>2018-04-29T17:18:39Z</time>
      </trkpt>
      <trkpt lat="44.55626" lon="0.84403">
        <ele>147.2</ele>
        <time>2018-04-29T17:18:40Z</time>
      </trkpt>
      <trkpt lat="44.5563" lon="0.84406">
        <ele>147.2</ele>
        <time>2018-04-29T17:18:44Z</time>
      </trkpt>
      <trkpt lat="44.55632" lon="0.84407">
        <ele>147.2</ele>
        <time>2018-04-29T17:18:46Z</time>
      </trkpt>
      <trkpt lat="44.55635" lon="0.84408">
        <ele>147.2</ele>
        <time>2018-04-29T17:18:48Z</time>
      </trkpt>
      <trkpt lat="44.55639" lon="0.84408">
        <ele>147.2</ele>
        <time>2018-04-29T17:18:50Z</time>
      </trkpt>
      <trkpt lat="44.55644" lon="0.84408">
        <ele>147.2</ele>
        <time>2018-04-29T17:18:52Z</time>
      </trkpt>
      <trkpt lat="44.55646" lon="0.84408">
        <ele>147.2</ele>
        <time>2018-04-29T17:18:53Z</time>
      </trkpt>
      <trkpt lat="44.55652" lon="0.84408">
        <ele>147.2</ele>
        <time>2018-04-29T17:18:56Z</time>
      </trkpt>
      <trkpt lat="44.55664" lon="0.84412">
        <ele>147.2</ele>
        <time>2018-04-29T17:19:01Z</time>
      </trkpt>
      <trkpt lat="44.55675" lon="0.84413">
        <ele>147.2</ele>
        <time>2018-04-29T17:19:05Z</time>
      </trkpt>
      <trkpt lat="44.55687" lon="0.84416">
        <ele>147.2</ele>
        <time>2018-04-29T17:19:09Z</time>
      </trkpt>
      <trkpt lat="44.55705" lon="0.84418">
        <ele>147.2</ele>
        <time>2018-04-29T17:19:14Z</time>
      </trkpt>
      <trkpt lat="44.55722" lon="0.84418">
        <ele>146.6</ele>
        <time>2018-04-29T17:19:18Z</time>
      </trkpt>
      <trkpt lat="44.55727" lon="0.84417">
        <ele>146.2</ele>
        <time>2018-04-29T17:19:19Z</time>
      </trkpt>
      <trkpt lat="44.55729" lon="0.84417">
        <ele>145.6</ele>
        <time>2018-04-29T17:19:20Z</time>
      </trkpt>
      <trkpt lat="44.55731" lon="0.84417">
        <ele>145</ele>
        <time>2018-04-29T17:19:21Z</time>
      </trkpt>
      <trkpt lat="44.55734" lon="0.84419">
        <ele>144.4</ele>
        <time>2018-04-29T17:19:22Z</time>
      </trkpt>
      <trkpt lat="44.55734" lon="0.84423">
        <ele>143.6</ele>
        <time>2018-04-29T17:19:23Z</time>
      </trkpt>
      <trkpt lat="44.55737" lon="0.84424">
        <ele>143</ele>
        <time>2018-04-29T17:19:24Z</time>
      </trkpt>
      <trkpt lat="44.55739" lon="0.84424">
        <ele>142.4</ele>
        <time>2018-04-29T17:19:25Z</time>
      </trkpt>
      <trkpt lat="44.55743" lon="0.84426">
        <ele>142</ele>
        <time>2018-04-29T17:19:27Z</time>
      </trkpt>
      <trkpt lat="44.55744" lon="0.84427">
        <ele>141.6</ele>
        <time>2018-04-29T17:19:28Z</time>
      </trkpt>
      <trkpt lat="44.55746" lon="0.84429">
        <ele>141</ele>
        <time>2018-04-29T17:19:29Z</time>
      </trkpt>
      <trkpt lat="44.55748" lon="0.84429">
        <ele>140.2</ele>
        <time>2018-04-29T17:19:30Z</time>
      </trkpt>
      <trkpt lat="44.55752" lon="0.84431">
        <ele>140.2</ele>
        <time>2018-04-29T17:19:33Z</time>
      </trkpt>
      <trkpt lat="44.55756" lon="0.84432">
        <ele>140.2</ele>
        <time>2018-04-29T17:19:35Z</time>
      </trkpt>
      <trkpt lat="44.55761" lon="0.84434">
        <ele>140.2</ele>
        <time>2018-04-29T17:19:37Z</time>
      </trkpt>
      <trkpt lat="44.55771" lon="0.84436">
        <ele>140.2</ele>
        <time>2018-04-29T17:19:41Z</time>
      </trkpt>
      <trkpt lat="44.55774" lon="0.84438">
        <ele>140.2</ele>
        <time>2018-04-29T17:19:42Z</time>
      </trkpt>
      <trkpt lat="44.55791" lon="0.84441">
        <ele>140.2</ele>
        <time>2018-04-29T17:19:49Z</time>
      </trkpt>
      <trkpt lat="44.558" lon="0.84446">
        <ele>140.6</ele>
        <time>2018-04-29T17:19:54Z</time>
      </trkpt>
      <trkpt lat="44.55801" lon="0.84447">
        <ele>141</ele>
        <time>2018-04-29T17:19:55Z</time>
      </trkpt>
      <trkpt lat="44.55801" lon="0.84447">
        <ele>141.4</ele>
        <time>2018-04-29T17:19:56Z</time>
      </trkpt>
      <trkpt lat="44.55803" lon="0.84452">
        <ele>142.2</ele>
        <time>2018-04-29T17:21:01Z</time>
      </trkpt>
      <trkpt lat="44.55803" lon="0.84454">
        <ele>142.2</ele>
        <time>2018-04-29T17:21:02Z</time>
      </trkpt>
      <trkpt lat="44.55803" lon="0.84458">
        <ele>142.2</ele>
        <time>2018-04-29T17:21:03Z</time>
      </trkpt>
      <trkpt lat="44.55804" lon="0.84462">
        <ele>142.2</ele>
        <time>2018-04-29T17:21:04Z</time>
      </trkpt>
      <trkpt lat="44.55803" lon="0.84466">
        <ele>142.2</ele>
        <time>2018-04-29T17:21:05Z</time>
      </trkpt>
      <trkpt lat="44.55803" lon="0.84474">
        <ele>142.2</ele>
        <time>2018-04-29T17:21:07Z</time>
      </trkpt>
      <trkpt lat="44.55801" lon="0.84485">
        <ele>142.2</ele>
        <time>2018-04-29T17:21:09Z</time>
      </trkpt>
      <trkpt lat="44.55799" lon="0.84493">
        <ele>142.2</ele>
        <time>2018-04-29T17:21:11Z</time>
      </trkpt>
      <trkpt lat="44.55796" lon="0.84501">
        <ele>142.6</ele>
        <time>2018-04-29T17:21:14Z</time>
      </trkpt>
      <trkpt lat="44.55796" lon="0.84505">
        <ele>143</ele>
        <time>2018-04-29T17:21:15Z</time>
      </trkpt>
      <trkpt lat="44.55797" lon="0.84508">
        <ele>143.4</ele>
        <time>2018-04-29T17:21:16Z</time>
      </trkpt>
      <trkpt lat="44.55797" lon="0.8451">
        <ele>143.8</ele>
        <time>2018-04-29T17:21:17Z</time>
      </trkpt>
      <trkpt lat="44.55797" lon="0.84512">
        <ele>144.2</ele>
        <time>2018-04-29T17:21:18Z</time>
      </trkpt>
      <trkpt lat="44.55797" lon="0.84519">
        <ele>144.2</ele>
        <time>2018-04-29T17:21:21Z</time>
      </trkpt>
      <trkpt lat="44.55796" lon="0.84525">
        <ele>144.2</ele>
        <time>2018-04-29T17:21:23Z</time>
      </trkpt>
      <trkpt lat="44.55797" lon="0.84539">
        <ele>144.2</ele>
        <time>2018-04-29T17:21:27Z</time>
      </trkpt>
      <trkpt lat="44.55797" lon="0.84544">
        <ele>144.2</ele>
        <time>2018-04-29T17:21:29Z</time>
      </trkpt>
      <trkpt lat="44.55797" lon="0.8455">
        <ele>144.6</ele>
        <time>2018-04-29T17:21:31Z</time>
      </trkpt>
      <trkpt lat="44.55798" lon="0.84553">
        <ele>145</ele>
        <time>2018-04-29T17:21:32Z</time>
      </trkpt>
      <trkpt lat="44.55798" lon="0.84555">
        <ele>145.4</ele>
        <time>2018-04-29T17:21:33Z</time>
      </trkpt>
      <trkpt lat="44.55799" lon="0.84558">
        <ele>146.2</ele>
        <time>2018-04-29T17:21:34Z</time>
      </trkpt>
      <trkpt lat="44.55799" lon="0.8456">
        <ele>146.2</ele>
        <time>2018-04-29T17:21:35Z</time>
      </trkpt>
      <trkpt lat="44.55799" lon="0.8457">
        <ele>146.2</ele>
        <time>2018-04-29T17:21:40Z</time>
      </trkpt>
      <trkpt lat="44.55799" lon="0.84578">
        <ele>146.8</ele>
        <time>2018-04-29T17:21:43Z</time>
      </trkpt>
      <trkpt lat="44.55799" lon="0.84581">
        <ele>147.2</ele>
        <time>2018-04-29T17:21:44Z</time>
      </trkpt>
      <trkpt lat="44.55801" lon="0.84585">
        <ele>147.6</ele>
        <time>2018-04-29T17:21:45Z</time>
      </trkpt>
      <trkpt lat="44.55802" lon="0.84589">
        <ele>148</ele>
        <time>2018-04-29T17:21:46Z</time>
      </trkpt>
      <trkpt lat="44.55804" lon="0.84592">
        <ele>148.4</ele>
        <time>2018-04-29T17:21:47Z</time>
      </trkpt>
      <trkpt lat="44.55808" lon="0.84602">
        <ele>148.4</ele>
        <time>2018-04-29T17:21:50Z</time>
      </trkpt>
      <trkpt lat="44.55813" lon="0.84615">
        <ele>148.4</ele>
        <time>2018-04-29T17:21:55Z</time>
      </trkpt>
      <trkpt lat="44.55814" lon="0.84617">
        <ele>148.4</ele>
        <time>2018-04-29T17:21:56Z</time>
      </trkpt>
      <trkpt lat="44.55815" lon="0.84623">
        <ele>148.8</ele>
        <time>2018-04-29T17:21:58Z</time>
      </trkpt>
      <trkpt lat="44.55815" lon="0.84626">
        <ele>149.8</ele>
        <time>2018-04-29T17:21:59Z</time>
      </trkpt>
      <trkpt lat="44.55815" lon="0.84629">
        <ele>150.2</ele>
        <time>2018-04-29T17:22:00Z</time>
      </trkpt>
      <trkpt lat="44.55815" lon="0.84631">
        <ele>150.6</ele>
        <time>2018-04-29T17:22:01Z</time>
      </trkpt>
      <trkpt lat="44.55815" lon="0.84644">
        <ele>150.6</ele>
        <time>2018-04-29T17:22:06Z</time>
      </trkpt>
      <trkpt lat="44.55815" lon="0.84651">
        <ele>150.6</ele>
        <time>2018-04-29T17:22:08Z</time>
      </trkpt>
      <trkpt lat="44.55814" lon="0.84659">
        <ele>151</ele>
        <time>2018-04-29T17:22:11Z</time>
      </trkpt>
      <trkpt lat="44.55814" lon="0.84662">
        <ele>151.4</ele>
        <time>2018-04-29T17:22:12Z</time>
      </trkpt>
      <trkpt lat="44.55814" lon="0.84665">
        <ele>151.8</ele>
        <time>2018-04-29T17:22:13Z</time>
      </trkpt>
      <trkpt lat="44.55815" lon="0.84668">
        <ele>152.2</ele>
        <time>2018-04-29T17:22:14Z</time>
      </trkpt>
      <trkpt lat="44.55815" lon="0.84671">
        <ele>152.6</ele>
        <time>2018-04-29T17:22:15Z</time>
      </trkpt>
      <trkpt lat="44.55815" lon="0.84682">
        <ele>152.6</ele>
        <time>2018-04-29T17:22:19Z</time>
      </trkpt>
      <trkpt lat="44.55812" lon="0.84699">
        <ele>152.6</ele>
        <time>2018-04-29T17:22:25Z</time>
      </trkpt>
      <trkpt lat="44.55808" lon="0.84715">
        <ele>152.6</ele>
        <time>2018-04-29T17:22:31Z</time>
      </trkpt>
      <trkpt lat="44.55805" lon="0.8472">
        <ele>152.6</ele>
        <time>2018-04-29T17:22:36Z</time>
      </trkpt>
      <trkpt lat="44.55806" lon="0.84721">
        <ele>152.6</ele>
        <time>2018-04-29T17:22:37Z</time>
      </trkpt>
      <trkpt lat="44.55808" lon="0.84719">
        <ele>153</ele>
        <time>2018-04-29T17:22:40Z</time>
      </trkpt>
      <trkpt lat="44.55808" lon="0.84719">
        <ele>153.4</ele>
        <time>2018-04-29T17:22:41Z</time>
      </trkpt>
      <trkpt lat="44.55809" lon="0.84719">
        <ele>153.8</ele>
        <time>2018-04-29T17:22:42Z</time>
      </trkpt>
      <trkpt lat="44.55811" lon="0.84719">
        <ele>154.2</ele>
        <time>2018-04-29T17:22:43Z</time>
      </trkpt>
      <trkpt lat="44.55813" lon="0.84719">
        <ele>154.6</ele>
        <time>2018-04-29T17:22:44Z</time>
      </trkpt>
      <trkpt lat="44.55817" lon="0.84718">
        <ele>154.6</ele>
        <time>2018-04-29T17:22:46Z</time>
      </trkpt>
      <trkpt lat="44.55827" lon="0.8471">
        <ele>154.6</ele>
        <time>2018-04-29T17:22:51Z</time>
      </trkpt>
      <trkpt lat="44.55832" lon="0.84708">
        <ele>154.6</ele>
        <time>2018-04-29T17:22:53Z</time>
      </trkpt>
      <trkpt lat="44.55844" lon="0.84707">
        <ele>154.6</ele>
        <time>2018-04-29T17:22:58Z</time>
      </trkpt>
      <trkpt lat="44.55849" lon="0.84708">
        <ele>154.6</ele>
        <time>2018-04-29T17:23:00Z</time>
      </trkpt>
      <trkpt lat="44.55854" lon="0.84708">
        <ele>154.6</ele>
        <time>2018-04-29T17:23:02Z</time>
      </trkpt>
      <trkpt lat="44.55858" lon="0.84707">
        <ele>154.6</ele>
        <time>2018-04-29T17:23:04Z</time>
      </trkpt>
      <trkpt lat="44.55879" lon="0.84697">
        <ele>154.6</ele>
        <time>2018-04-29T17:23:10Z</time>
      </trkpt>
      <trkpt lat="44.55887" lon="0.84692">
        <ele>154.6</ele>
        <time>2018-04-29T17:23:12Z</time>
      </trkpt>
      <trkpt lat="44.55898" lon="0.84684">
        <ele>154.6</ele>
        <time>2018-04-29T17:23:15Z</time>
      </trkpt>
      <trkpt lat="44.55916" lon="0.84671">
        <ele>154.6</ele>
        <time>2018-04-29T17:23:20Z</time>
      </trkpt>
      <trkpt lat="44.55924" lon="0.84664">
        <ele>154.6</ele>
        <time>2018-04-29T17:23:23Z</time>
      </trkpt>
      <trkpt lat="44.55927" lon="0.84662">
        <ele>154.6</ele>
        <time>2018-04-29T17:23:24Z</time>
      </trkpt>
      <trkpt lat="44.55937" lon="0.84654">
        <ele>154.6</ele>
        <time>2018-04-29T17:23:27Z</time>
      </trkpt>
      <trkpt lat="44.55942" lon="0.84648">
        <ele>155.2</ele>
        <time>2018-04-29T17:23:29Z</time>
      </trkpt>
      <trkpt lat="44.55946" lon="0.84645">
        <ele>155.6</ele>
        <time>2018-04-29T17:23:30Z</time>
      </trkpt>
      <trkpt lat="44.55949" lon="0.84642">
        <ele>156</ele>
        <time>2018-04-29T17:23:31Z</time>
      </trkpt>
      <trkpt lat="44.55951" lon="0.8464">
        <ele>156.4</ele>
        <time>2018-04-29T17:23:32Z</time>
      </trkpt>
      <trkpt lat="44.55954" lon="0.84637">
        <ele>156.8</ele>
        <time>2018-04-29T17:23:33Z</time>
      </trkpt>
      <trkpt lat="44.55959" lon="0.84632">
        <ele>156.8</ele>
        <time>2018-04-29T17:23:35Z</time>
      </trkpt>
      <trkpt lat="44.55978" lon="0.84617">
        <ele>156.8</ele>
        <time>2018-04-29T17:23:41Z</time>
      </trkpt>
      <trkpt lat="44.55989" lon="0.84611">
        <ele>156.8</ele>
        <time>2018-04-29T17:23:44Z</time>
      </trkpt>
      <trkpt lat="44.55994" lon="0.84607">
        <ele>156.8</ele>
        <time>2018-04-29T17:23:45Z</time>
      </trkpt>
      <trkpt lat="44.56007" lon="0.84598">
        <ele>156.8</ele>
        <time>2018-04-29T17:23:47Z</time>
      </trkpt>
      <trkpt lat="44.56014" lon="0.84594">
        <ele>156.8</ele>
        <time>2018-04-29T17:23:48Z</time>
      </trkpt>
      <trkpt lat="44.5602" lon="0.84592">
        <ele>156.8</ele>
        <time>2018-04-29T17:23:49Z</time>
      </trkpt>
      <trkpt lat="44.56031" lon="0.84591">
        <ele>156.4</ele>
        <time>2018-04-29T17:23:51Z</time>
      </trkpt>
      <trkpt lat="44.56037" lon="0.84592">
        <ele>156</ele>
        <time>2018-04-29T17:23:52Z</time>
      </trkpt>
      <trkpt lat="44.56044" lon="0.84592">
        <ele>155.4</ele>
        <time>2018-04-29T17:23:53Z</time>
      </trkpt>
      <trkpt lat="44.56053" lon="0.84592">
        <ele>155</ele>
        <time>2018-04-29T17:23:54Z</time>
      </trkpt>
      <trkpt lat="44.56061" lon="0.84593">
        <ele>154.4</ele>
        <time>2018-04-29T17:23:55Z</time>
      </trkpt>
      <trkpt lat="44.56069" lon="0.84592">
        <ele>153.8</ele>
        <time>2018-04-29T17:23:56Z</time>
      </trkpt>
      <trkpt lat="44.56076" lon="0.84589">
        <ele>153.2</ele>
        <time>2018-04-29T17:23:57Z</time>
      </trkpt>
      <trkpt lat="44.56083" lon="0.84586">
        <ele>152.6</ele>
        <time>2018-04-29T17:23:58Z</time>
      </trkpt>
      <trkpt lat="44.56097" lon="0.84576">
        <ele>152.6</ele>
        <time>2018-04-29T17:24:00Z</time>
      </trkpt>
      <trkpt lat="44.56104" lon="0.84573">
        <ele>152.6</ele>
        <time>2018-04-29T17:24:01Z</time>
      </trkpt>
      <trkpt lat="44.56122" lon="0.84542">
        <ele>152</ele>
        <time>2018-04-29T17:24:05Z</time>
      </trkpt>
      <trkpt lat="44.56121" lon="0.84534">
        <ele>151.6</ele>
        <time>2018-04-29T17:24:06Z</time>
      </trkpt>
      <trkpt lat="44.56119" lon="0.84524">
        <ele>151.2</ele>
        <time>2018-04-29T17:24:07Z</time>
      </trkpt>
      <trkpt lat="44.56117" lon="0.84514">
        <ele>150.6</ele>
        <time>2018-04-29T17:24:08Z</time>
      </trkpt>
      <trkpt lat="44.56116" lon="0.84502">
        <ele>150.2</ele>
        <time>2018-04-29T17:24:09Z</time>
      </trkpt>
      <trkpt lat="44.56115" lon="0.84491">
        <ele>149.6</ele>
        <time>2018-04-29T17:24:10Z</time>
      </trkpt>
      <trkpt lat="44.56113" lon="0.84479">
        <ele>149</ele>
        <time>2018-04-29T17:24:11Z</time>
      </trkpt>
      <trkpt lat="44.56112" lon="0.84468">
        <ele>148.4</ele>
        <time>2018-04-29T17:24:12Z</time>
      </trkpt>
      <trkpt lat="44.56111" lon="0.84455">
        <ele>147.8</ele>
        <time>2018-04-29T17:24:13Z</time>
      </trkpt>
      <trkpt lat="44.56111" lon="0.84441">
        <ele>147.2</ele>
        <time>2018-04-29T17:24:14Z</time>
      </trkpt>
      <trkpt lat="44.56111" lon="0.84428">
        <ele>146.6</ele>
        <time>2018-04-29T17:24:15Z</time>
      </trkpt>
      <trkpt lat="44.5611" lon="0.84415">
        <ele>145.8</ele>
        <time>2018-04-29T17:24:16Z</time>
      </trkpt>
      <trkpt lat="44.5611" lon="0.84401">
        <ele>145.2</ele>
        <time>2018-04-29T17:24:17Z</time>
      </trkpt>
      <trkpt lat="44.5611" lon="0.84388">
        <ele>144.4</ele>
        <time>2018-04-29T17:24:18Z</time>
      </trkpt>
      <trkpt lat="44.5611" lon="0.84376">
        <ele>143.8</ele>
        <time>2018-04-29T17:24:19Z</time>
      </trkpt>
      <trkpt lat="44.56109" lon="0.84363">
        <ele>143.2</ele>
        <time>2018-04-29T17:24:20Z</time>
      </trkpt>
      <trkpt lat="44.56108" lon="0.84352">
        <ele>142.6</ele>
        <time>2018-04-29T17:24:21Z</time>
      </trkpt>
      <trkpt lat="44.56108" lon="0.8434">
        <ele>141.8</ele>
        <time>2018-04-29T17:24:22Z</time>
      </trkpt>
      <trkpt lat="44.56107" lon="0.84328">
        <ele>141.2</ele>
        <time>2018-04-29T17:24:23Z</time>
      </trkpt>
      <trkpt lat="44.56107" lon="0.84316">
        <ele>140.6</ele>
        <time>2018-04-29T17:24:24Z</time>
      </trkpt>
      <trkpt lat="44.56107" lon="0.84303">
        <ele>140.2</ele>
        <time>2018-04-29T17:24:25Z</time>
      </trkpt>
      <trkpt lat="44.56107" lon="0.84289">
        <ele>139.8</ele>
        <time>2018-04-29T17:24:26Z</time>
      </trkpt>
      <trkpt lat="44.56108" lon="0.84276">
        <ele>139</ele>
        <time>2018-04-29T17:24:27Z</time>
      </trkpt>
      <trkpt lat="44.56108" lon="0.84262">
        <ele>138.4</ele>
        <time>2018-04-29T17:24:28Z</time>
      </trkpt>
      <trkpt lat="44.5611" lon="0.84248">
        <ele>138</ele>
        <time>2018-04-29T17:24:29Z</time>
      </trkpt>
      <trkpt lat="44.56111" lon="0.84235">
        <ele>137.4</ele>
        <time>2018-04-29T17:24:30Z</time>
      </trkpt>
      <trkpt lat="44.56114" lon="0.84221">
        <ele>136.8</ele>
        <time>2018-04-29T17:24:31Z</time>
      </trkpt>
      <trkpt lat="44.56117" lon="0.84208">
        <ele>136</ele>
        <time>2018-04-29T17:24:32Z</time>
      </trkpt>
      <trkpt lat="44.5612" lon="0.84196">
        <ele>135.2</ele>
        <time>2018-04-29T17:24:33Z</time>
      </trkpt>
      <trkpt lat="44.56123" lon="0.84185">
        <ele>134.4</ele>
        <time>2018-04-29T17:24:34Z</time>
      </trkpt>
      <trkpt lat="44.56127" lon="0.84175">
        <ele>133.8</ele>
        <time>2018-04-29T17:24:35Z</time>
      </trkpt>
      <trkpt lat="44.56131" lon="0.84165">
        <ele>133.8</ele>
        <time>2018-04-29T17:24:36Z</time>
      </trkpt>
      <trkpt lat="44.56142" lon="0.84149">
        <ele>133.4</ele>
        <time>2018-04-29T17:24:38Z</time>
      </trkpt>
      <trkpt lat="44.56148" lon="0.84143">
        <ele>132.8</ele>
        <time>2018-04-29T17:24:39Z</time>
      </trkpt>
      <trkpt lat="44.56154" lon="0.84138">
        <ele>132.4</ele>
        <time>2018-04-29T17:24:40Z</time>
      </trkpt>
      <trkpt lat="44.56159" lon="0.84134">
        <ele>132</ele>
        <time>2018-04-29T17:24:41Z</time>
      </trkpt>
      <trkpt lat="44.56164" lon="0.8413">
        <ele>131.6</ele>
        <time>2018-04-29T17:24:42Z</time>
      </trkpt>
      <trkpt lat="44.56169" lon="0.84126">
        <ele>131.6</ele>
        <time>2018-04-29T17:24:43Z</time>
      </trkpt>
      <trkpt lat="44.56177" lon="0.84119">
        <ele>131.6</ele>
        <time>2018-04-29T17:24:45Z</time>
      </trkpt>
      <trkpt lat="44.56192" lon="0.84104">
        <ele>131.6</ele>
        <time>2018-04-29T17:24:49Z</time>
      </trkpt>
      <trkpt lat="44.56196" lon="0.84102">
        <ele>131.6</ele>
        <time>2018-04-29T17:24:50Z</time>
      </trkpt>
      <trkpt lat="44.56199" lon="0.841">
        <ele>132</ele>
        <time>2018-04-29T17:24:51Z</time>
      </trkpt>
      <trkpt lat="44.56203" lon="0.84097">
        <ele>132.4</ele>
        <time>2018-04-29T17:24:52Z</time>
      </trkpt>
      <trkpt lat="44.56206" lon="0.84093">
        <ele>132.8</ele>
        <time>2018-04-29T17:24:53Z</time>
      </trkpt>
      <trkpt lat="44.5621" lon="0.8409">
        <ele>133.2</ele>
        <time>2018-04-29T17:24:54Z</time>
      </trkpt>
      <trkpt lat="44.56214" lon="0.84087">
        <ele>133.6</ele>
        <time>2018-04-29T17:24:55Z</time>
      </trkpt>
      <trkpt lat="44.56218" lon="0.84085">
        <ele>133.6</ele>
        <time>2018-04-29T17:24:56Z</time>
      </trkpt>
      <trkpt lat="44.56223" lon="0.84082">
        <ele>133.6</ele>
        <time>2018-04-29T17:24:57Z</time>
      </trkpt>
      <trkpt lat="44.5624" lon="0.84068">
        <ele>133.6</ele>
        <time>2018-04-29T17:25:01Z</time>
      </trkpt>
      <trkpt lat="44.56244" lon="0.84065">
        <ele>133.6</ele>
        <time>2018-04-29T17:25:02Z</time>
      </trkpt>
      <trkpt lat="44.56256" lon="0.8406">
        <ele>133.6</ele>
        <time>2018-04-29T17:25:05Z</time>
      </trkpt>
      <trkpt lat="44.5626" lon="0.84058">
        <ele>133.6</ele>
        <time>2018-04-29T17:25:06Z</time>
      </trkpt>
      <trkpt lat="44.56264" lon="0.84057">
        <ele>133.6</ele>
        <time>2018-04-29T17:25:07Z</time>
      </trkpt>
      <trkpt lat="44.56278" lon="0.84052">
        <ele>134</ele>
        <time>2018-04-29T17:25:10Z</time>
      </trkpt>
      <trkpt lat="44.56283" lon="0.8405">
        <ele>134.4</ele>
        <time>2018-04-29T17:25:11Z</time>
      </trkpt>
      <trkpt lat="44.56288" lon="0.84049">
        <ele>134.8</ele>
        <time>2018-04-29T17:25:12Z</time>
      </trkpt>
      <trkpt lat="44.56293" lon="0.84047">
        <ele>135.2</ele>
        <time>2018-04-29T17:25:13Z</time>
      </trkpt>
      <trkpt lat="44.56298" lon="0.84046">
        <ele>135.6</ele>
        <time>2018-04-29T17:25:14Z</time>
      </trkpt>
      <trkpt lat="44.56312" lon="0.84041">
        <ele>135.6</ele>
        <time>2018-04-29T17:25:17Z</time>
      </trkpt>
      <trkpt lat="44.56327" lon="0.84039">
        <ele>135.6</ele>
        <time>2018-04-29T17:25:20Z</time>
      </trkpt>
      <trkpt lat="44.56335" lon="0.8404">
        <ele>135.6</ele>
        <time>2018-04-29T17:25:22Z</time>
      </trkpt>
      <trkpt lat="44.56344" lon="0.84041">
        <ele>135.6</ele>
        <time>2018-04-29T17:25:24Z</time>
      </trkpt>
      <trkpt lat="44.56352" lon="0.84043">
        <ele>135.6</ele>
        <time>2018-04-29T17:25:26Z</time>
      </trkpt>
      <trkpt lat="44.56366" lon="0.8405">
        <ele>136</ele>
        <time>2018-04-29T17:25:30Z</time>
      </trkpt>
      <trkpt lat="44.56369" lon="0.84052">
        <ele>136.6</ele>
        <time>2018-04-29T17:25:31Z</time>
      </trkpt>
      <trkpt lat="44.56372" lon="0.84055">
        <ele>137</ele>
        <time>2018-04-29T17:25:32Z</time>
      </trkpt>
      <trkpt lat="44.56376" lon="0.84057">
        <ele>137.4</ele>
        <time>2018-04-29T17:25:33Z</time>
      </trkpt>
      <trkpt lat="44.56379" lon="0.84059">
        <ele>137.8</ele>
        <time>2018-04-29T17:25:34Z</time>
      </trkpt>
      <trkpt lat="44.56391" lon="0.84063">
        <ele>137.8</ele>
        <time>2018-04-29T17:25:37Z</time>
      </trkpt>
      <trkpt lat="44.56406" lon="0.84068">
        <ele>137.8</ele>
        <time>2018-04-29T17:25:41Z</time>
      </trkpt>
      <trkpt lat="44.5641" lon="0.84069">
        <ele>138.2</ele>
        <time>2018-04-29T17:25:42Z</time>
      </trkpt>
      <trkpt lat="44.56414" lon="0.84071">
        <ele>138.6</ele>
        <time>2018-04-29T17:25:43Z</time>
      </trkpt>
      <trkpt lat="44.56418" lon="0.84073">
        <ele>139</ele>
        <time>2018-04-29T17:25:44Z</time>
      </trkpt>
      <trkpt lat="44.56422" lon="0.84076">
        <ele>139.4</ele>
        <time>2018-04-29T17:25:45Z</time>
      </trkpt>
      <trkpt lat="44.56426" lon="0.84079">
        <ele>139.8</ele>
        <time>2018-04-29T17:25:46Z</time>
      </trkpt>
      <trkpt lat="44.56437" lon="0.84086">
        <ele>139.8</ele>
        <time>2018-04-29T17:25:48Z</time>
      </trkpt>
      <trkpt lat="44.56446" lon="0.841">
        <ele>139.8</ele>
        <time>2018-04-29T17:25:51Z</time>
      </trkpt>
      <trkpt lat="44.56449" lon="0.84104">
        <ele>139.8</ele>
        <time>2018-04-29T17:25:52Z</time>
      </trkpt>
      <trkpt lat="44.56453" lon="0.84108">
        <ele>140.2</ele>
        <time>2018-04-29T17:25:53Z</time>
      </trkpt>
      <trkpt lat="44.5646" lon="0.84111">
        <ele>140.6</ele>
        <time>2018-04-29T17:25:54Z</time>
      </trkpt>
      <trkpt lat="44.56468" lon="0.84113">
        <ele>141</ele>
        <time>2018-04-29T17:25:55Z</time>
      </trkpt>
      <trkpt lat="44.56477" lon="0.84113">
        <ele>141.4</ele>
        <time>2018-04-29T17:25:56Z</time>
      </trkpt>
      <trkpt lat="44.56484" lon="0.84113">
        <ele>141.8</ele>
        <time>2018-04-29T17:25:57Z</time>
      </trkpt>
      <trkpt lat="44.56495" lon="0.84114">
        <ele>141.8</ele>
        <time>2018-04-29T17:25:59Z</time>
      </trkpt>
      <trkpt lat="44.56505" lon="0.84116">
        <ele>141.8</ele>
        <time>2018-04-29T17:26:01Z</time>
      </trkpt>
      <trkpt lat="44.56527" lon="0.84125">
        <ele>142.8</ele>
        <time>2018-04-29T17:26:05Z</time>
      </trkpt>
      <trkpt lat="44.56533" lon="0.84127">
        <ele>143.2</ele>
        <time>2018-04-29T17:26:06Z</time>
      </trkpt>
      <trkpt lat="44.56538" lon="0.84129">
        <ele>143.6</ele>
        <time>2018-04-29T17:26:07Z</time>
      </trkpt>
      <trkpt lat="44.56544" lon="0.84131">
        <ele>144</ele>
        <time>2018-04-29T17:26:08Z</time>
      </trkpt>
      <trkpt lat="44.56582" lon="0.84147">
        <ele>144</ele>
        <time>2018-04-29T17:26:15Z</time>
      </trkpt>
      <trkpt lat="44.56596" lon="0.84156">
        <ele>144.4</ele>
        <time>2018-04-29T17:26:17Z</time>
      </trkpt>
      <trkpt lat="44.56604" lon="0.8416">
        <ele>144.8</ele>
        <time>2018-04-29T17:26:18Z</time>
      </trkpt>
      <trkpt lat="44.56612" lon="0.84163">
        <ele>145.4</ele>
        <time>2018-04-29T17:26:19Z</time>
      </trkpt>
      <trkpt lat="44.56619" lon="0.84166">
        <ele>145.8</ele>
        <time>2018-04-29T17:26:20Z</time>
      </trkpt>
      <trkpt lat="44.56625" lon="0.84168">
        <ele>146.2</ele>
        <time>2018-04-29T17:26:21Z</time>
      </trkpt>
      <trkpt lat="44.56658" lon="0.84175">
        <ele>146.2</ele>
        <time>2018-04-29T17:26:26Z</time>
      </trkpt>
      <trkpt lat="44.56682" lon="0.84186">
        <ele>146.2</ele>
        <time>2018-04-29T17:26:30Z</time>
      </trkpt>
      <trkpt lat="44.56688" lon="0.8419">
        <ele>146.2</ele>
        <time>2018-04-29T17:26:31Z</time>
      </trkpt>
      <trkpt lat="44.56693" lon="0.84195">
        <ele>146.2</ele>
        <time>2018-04-29T17:26:32Z</time>
      </trkpt>
      <trkpt lat="44.5671" lon="0.8421">
        <ele>146.2</ele>
        <time>2018-04-29T17:26:36Z</time>
      </trkpt>
      <trkpt lat="44.56714" lon="0.84215">
        <ele>146.6</ele>
        <time>2018-04-29T17:26:37Z</time>
      </trkpt>
      <trkpt lat="44.56718" lon="0.8422">
        <ele>147</ele>
        <time>2018-04-29T17:26:38Z</time>
      </trkpt>
      <trkpt lat="44.56722" lon="0.84226">
        <ele>147.4</ele>
        <time>2018-04-29T17:26:39Z</time>
      </trkpt>
      <trkpt lat="44.56725" lon="0.84233">
        <ele>147.8</ele>
        <time>2018-04-29T17:26:40Z</time>
      </trkpt>
      <trkpt lat="44.56729" lon="0.8424">
        <ele>148.2</ele>
        <time>2018-04-29T17:26:41Z</time>
      </trkpt>
      <trkpt lat="44.5675" lon="0.84285">
        <ele>148.2</ele>
        <time>2018-04-29T17:26:47Z</time>
      </trkpt>
      <trkpt lat="44.56759" lon="0.84306">
        <ele>148.6</ele>
        <time>2018-04-29T17:26:50Z</time>
      </trkpt>
      <trkpt lat="44.56762" lon="0.84313">
        <ele>149.2</ele>
        <time>2018-04-29T17:26:51Z</time>
      </trkpt>
      <trkpt lat="44.56764" lon="0.84319">
        <ele>149.6</ele>
        <time>2018-04-29T17:26:52Z</time>
      </trkpt>
      <trkpt lat="44.56767" lon="0.84325">
        <ele>150.2</ele>
        <time>2018-04-29T17:26:53Z</time>
      </trkpt>
      <trkpt lat="44.5677" lon="0.84332">
        <ele>150.6</ele>
        <time>2018-04-29T17:26:54Z</time>
      </trkpt>
      <trkpt lat="44.56773" lon="0.84339">
        <ele>150.6</ele>
        <time>2018-04-29T17:26:55Z</time>
      </trkpt>
      <trkpt lat="44.56779" lon="0.84354">
        <ele>150.6</ele>
        <time>2018-04-29T17:26:57Z</time>
      </trkpt>
      <trkpt lat="44.56779" lon="0.84369">
        <ele>150.6</ele>
        <time>2018-04-29T17:26:59Z</time>
      </trkpt>
      <trkpt lat="44.56778" lon="0.84385">
        <ele>150.6</ele>
        <time>2018-04-29T17:27:01Z</time>
      </trkpt>
      <trkpt lat="44.56771" lon="0.84432">
        <ele>150.6</ele>
        <time>2018-04-29T17:27:07Z</time>
      </trkpt>
      <trkpt lat="44.5676" lon="0.8446">
        <ele>151</ele>
        <time>2018-04-29T17:27:11Z</time>
      </trkpt>
      <trkpt lat="44.56758" lon="0.84468">
        <ele>151.4</ele>
        <time>2018-04-29T17:27:12Z</time>
      </trkpt>
      <trkpt lat="44.56757" lon="0.84476">
        <ele>151.8</ele>
        <time>2018-04-29T17:27:13Z</time>
      </trkpt>
      <trkpt lat="44.56756" lon="0.84484">
        <ele>152.2</ele>
        <time>2018-04-29T17:27:14Z</time>
      </trkpt>
      <trkpt lat="44.56756" lon="0.84492">
        <ele>152.6</ele>
        <time>2018-04-29T17:27:15Z</time>
      </trkpt>
      <trkpt lat="44.56757" lon="0.845">
        <ele>152.6</ele>
        <time>2018-04-29T17:27:16Z</time>
      </trkpt>
      <trkpt lat="44.56758" lon="0.84522">
        <ele>152.6</ele>
        <time>2018-04-29T17:27:19Z</time>
      </trkpt>
      <trkpt lat="44.56759" lon="0.84536">
        <ele>152.6</ele>
        <time>2018-04-29T17:27:21Z</time>
      </trkpt>
      <trkpt lat="44.56762" lon="0.84567">
        <ele>152.6</ele>
        <time>2018-04-29T17:27:27Z</time>
      </trkpt>
      <trkpt lat="44.56761" lon="0.8457">
        <ele>152.6</ele>
        <time>2018-04-29T17:27:29Z</time>
      </trkpt>
      <trkpt lat="44.56762" lon="0.8457">
        <ele>154.6</ele>
        <time>2018-04-29T17:28:26Z</time>
      </trkpt>
      <trkpt lat="44.56764" lon="0.84571">
        <ele>154.6</ele>
        <time>2018-04-29T17:28:27Z</time>
      </trkpt>
      <trkpt lat="44.56766" lon="0.84572">
        <ele>154.6</ele>
        <time>2018-04-29T17:28:29Z</time>
      </trkpt>
      <trkpt lat="44.56769" lon="0.84575">
        <ele>154.6</ele>
        <time>2018-04-29T17:28:31Z</time>
      </trkpt>
      <trkpt lat="44.5677" lon="0.84578">
        <ele>154.6</ele>
        <time>2018-04-29T17:28:32Z</time>
      </trkpt>
      <trkpt lat="44.56781" lon="0.84591">
        <ele>154.6</ele>
        <time>2018-04-29T17:28:37Z</time>
      </trkpt>
      <trkpt lat="44.56787" lon="0.84597">
        <ele>154.6</ele>
        <time>2018-04-29T17:28:40Z</time>
      </trkpt>
      <trkpt lat="44.5679" lon="0.84603">
        <ele>154.6</ele>
        <time>2018-04-29T17:28:42Z</time>
      </trkpt>
      <trkpt lat="44.56796" lon="0.84609">
        <ele>155</ele>
        <time>2018-04-29T17:28:45Z</time>
      </trkpt>
      <trkpt lat="44.56798" lon="0.84611">
        <ele>155.4</ele>
        <time>2018-04-29T17:28:46Z</time>
      </trkpt>
      <trkpt lat="44.568" lon="0.84613">
        <ele>155.8</ele>
        <time>2018-04-29T17:28:47Z</time>
      </trkpt>
      <trkpt lat="44.56803" lon="0.84614">
        <ele>156.2</ele>
        <time>2018-04-29T17:28:48Z</time>
      </trkpt>
      <trkpt lat="44.56806" lon="0.84615">
        <ele>156.6</ele>
        <time>2018-04-29T17:28:49Z</time>
      </trkpt>
      <trkpt lat="44.56814" lon="0.84619">
        <ele>156.6</ele>
        <time>2018-04-29T17:28:52Z</time>
      </trkpt>
      <trkpt lat="44.56828" lon="0.84628">
        <ele>156.6</ele>
        <time>2018-04-29T17:28:57Z</time>
      </trkpt>
      <trkpt lat="44.56841" lon="0.84644">
        <ele>157</ele>
        <time>2018-04-29T17:29:02Z</time>
      </trkpt>
      <trkpt lat="44.56844" lon="0.84648">
        <ele>157.6</ele>
        <time>2018-04-29T17:29:03Z</time>
      </trkpt>
      <trkpt lat="44.56847" lon="0.84652">
        <ele>158</ele>
        <time>2018-04-29T17:29:04Z</time>
      </trkpt>
      <trkpt lat="44.56849" lon="0.84655">
        <ele>158.4</ele>
        <time>2018-04-29T17:29:05Z</time>
      </trkpt>
      <trkpt lat="44.56852" lon="0.8466">
        <ele>158.8</ele>
        <time>2018-04-29T17:29:06Z</time>
      </trkpt>
      <trkpt lat="44.56856" lon="0.84668">
        <ele>158.8</ele>
        <time>2018-04-29T17:29:08Z</time>
      </trkpt>
      <trkpt lat="44.56866" lon="0.84689">
        <ele>158.8</ele>
        <time>2018-04-29T17:29:14Z</time>
      </trkpt>
      <trkpt lat="44.56878" lon="0.84705">
        <ele>158.8</ele>
        <time>2018-04-29T17:29:19Z</time>
      </trkpt>
      <trkpt lat="44.56891" lon="0.84721">
        <ele>159.2</ele>
        <time>2018-04-29T17:29:24Z</time>
      </trkpt>
      <trkpt lat="44.56893" lon="0.84724">
        <ele>159.6</ele>
        <time>2018-04-29T17:29:25Z</time>
      </trkpt>
      <trkpt lat="44.56895" lon="0.84727">
        <ele>160</ele>
        <time>2018-04-29T17:29:26Z</time>
      </trkpt>
      <trkpt lat="44.56898" lon="0.84732">
        <ele>160.4</ele>
        <time>2018-04-29T17:29:27Z</time>
      </trkpt>
      <trkpt lat="44.56899" lon="0.84736">
        <ele>160.8</ele>
        <time>2018-04-29T17:29:28Z</time>
      </trkpt>
      <trkpt lat="44.56901" lon="0.84739">
        <ele>160.8</ele>
        <time>2018-04-29T17:29:29Z</time>
      </trkpt>
      <trkpt lat="44.5691" lon="0.84762">
        <ele>160.8</ele>
        <time>2018-04-29T17:29:34Z</time>
      </trkpt>
      <trkpt lat="44.56918" lon="0.84785">
        <ele>160.8</ele>
        <time>2018-04-29T17:29:40Z</time>
      </trkpt>
      <trkpt lat="44.5692" lon="0.84791">
        <ele>161.4</ele>
        <time>2018-04-29T17:29:42Z</time>
      </trkpt>
      <trkpt lat="44.5692" lon="0.84795">
        <ele>161.8</ele>
        <time>2018-04-29T17:29:43Z</time>
      </trkpt>
      <trkpt lat="44.56922" lon="0.84798">
        <ele>162.2</ele>
        <time>2018-04-29T17:29:44Z</time>
      </trkpt>
      <trkpt lat="44.56922" lon="0.84802">
        <ele>162.6</ele>
        <time>2018-04-29T17:29:45Z</time>
      </trkpt>
      <trkpt lat="44.56923" lon="0.84806">
        <ele>163</ele>
        <time>2018-04-29T17:29:46Z</time>
      </trkpt>
      <trkpt lat="44.56927" lon="0.84817">
        <ele>163</ele>
        <time>2018-04-29T17:29:50Z</time>
      </trkpt>
      <trkpt lat="44.56931" lon="0.84833">
        <ele>163</ele>
        <time>2018-04-29T17:29:55Z</time>
      </trkpt>
      <trkpt lat="44.56934" lon="0.8484">
        <ele>163</ele>
        <time>2018-04-29T17:30:00Z</time>
      </trkpt>
      <trkpt lat="44.56935" lon="0.84844">
        <ele>163</ele>
        <time>2018-04-29T17:30:03Z</time>
      </trkpt>
      <trkpt lat="44.56936" lon="0.84849">
        <ele>163</ele>
        <time>2018-04-29T17:30:05Z</time>
      </trkpt>
      <trkpt lat="44.56938" lon="0.84849">
        <ele>163</ele>
        <time>2018-04-29T17:30:06Z</time>
      </trkpt>
      <trkpt lat="44.56939" lon="0.84849">
        <ele>163.4</ele>
        <time>2018-04-29T17:30:07Z</time>
      </trkpt>
      <trkpt lat="44.5694" lon="0.84849">
        <ele>163.8</ele>
        <time>2018-04-29T17:30:08Z</time>
      </trkpt>
      <trkpt lat="44.5694" lon="0.84849">
        <ele>164.2</ele>
        <time>2018-04-29T17:30:09Z</time>
      </trkpt>
      <trkpt lat="44.56941" lon="0.8485">
        <ele>164.6</ele>
        <time>2018-04-29T17:30:10Z</time>
      </trkpt>
      <trkpt lat="44.56942" lon="0.8485">
        <ele>165</ele>
        <time>2018-04-29T17:30:11Z</time>
      </trkpt>
      <trkpt lat="44.56944" lon="0.84851">
        <ele>166</ele>
        <time>2018-04-29T17:30:12Z</time>
      </trkpt>
      <trkpt lat="44.56945" lon="0.84852">
        <ele>166.4</ele>
        <time>2018-04-29T17:30:13Z</time>
      </trkpt>
      <trkpt lat="44.56947" lon="0.84851">
        <ele>166.8</ele>
        <time>2018-04-29T17:30:14Z</time>
      </trkpt>
      <trkpt lat="44.56949" lon="0.84851">
        <ele>167.2</ele>
        <time>2018-04-29T17:30:15Z</time>
      </trkpt>
      <trkpt lat="44.56953" lon="0.84849">
        <ele>167.6</ele>
        <time>2018-04-29T17:30:17Z</time>
      </trkpt>
      <trkpt lat="44.56955" lon="0.84849">
        <ele>168</ele>
        <time>2018-04-29T17:30:18Z</time>
      </trkpt>
      <trkpt lat="44.56957" lon="0.84849">
        <ele>168.4</ele>
        <time>2018-04-29T17:30:19Z</time>
      </trkpt>
      <trkpt lat="44.56959" lon="0.84849">
        <ele>168.8</ele>
        <time>2018-04-29T17:30:20Z</time>
      </trkpt>
      <trkpt lat="44.56961" lon="0.84849">
        <ele>169.2</ele>
        <time>2018-04-29T17:30:21Z</time>
      </trkpt>
      <trkpt lat="44.56964" lon="0.84849">
        <ele>169.2</ele>
        <time>2018-04-29T17:30:23Z</time>
      </trkpt>
      <trkpt lat="44.56968" lon="0.84849">
        <ele>169.6</ele>
        <time>2018-04-29T17:30:26Z</time>
      </trkpt>
      <trkpt lat="44.56969" lon="0.84848">
        <ele>170.2</ele>
        <time>2018-04-29T17:30:27Z</time>
      </trkpt>
      <trkpt lat="44.5697" lon="0.84848">
        <ele>170.6</ele>
        <time>2018-04-29T17:30:28Z</time>
      </trkpt>
      <trkpt lat="44.56971" lon="0.84849">
        <ele>171</ele>
        <time>2018-04-29T17:30:29Z</time>
      </trkpt>
      <trkpt lat="44.56971" lon="0.8485">
        <ele>171.4</ele>
        <time>2018-04-29T17:30:30Z</time>
      </trkpt>
      <trkpt lat="44.56972" lon="0.84854">
        <ele>171.4</ele>
        <time>2018-04-29T17:30:32Z</time>
      </trkpt>
      <trkpt lat="44.56974" lon="0.84855">
        <ele>171.4</ele>
        <time>2018-04-29T17:30:33Z</time>
      </trkpt>
      <trkpt lat="44.56975" lon="0.84857">
        <ele>171.8</ele>
        <time>2018-04-29T17:30:35Z</time>
      </trkpt>
      <trkpt lat="44.56976" lon="0.84859">
        <ele>172.2</ele>
        <time>2018-04-29T17:30:36Z</time>
      </trkpt>
      <trkpt lat="44.56977" lon="0.84862">
        <ele>173.2</ele>
        <time>2018-04-29T17:30:37Z</time>
      </trkpt>
      <trkpt lat="44.56978" lon="0.84864">
        <ele>173.6</ele>
        <time>2018-04-29T17:30:38Z</time>
      </trkpt>
      <trkpt lat="44.56979" lon="0.8487">
        <ele>174</ele>
        <time>2018-04-29T17:30:40Z</time>
      </trkpt>
      <trkpt lat="44.5698" lon="0.84872">
        <ele>174.4</ele>
        <time>2018-04-29T17:30:41Z</time>
      </trkpt>
      <trkpt lat="44.5698" lon="0.84874">
        <ele>175</ele>
        <time>2018-04-29T17:30:42Z</time>
      </trkpt>
      <trkpt lat="44.56983" lon="0.84875">
        <ele>175.4</ele>
        <time>2018-04-29T17:30:43Z</time>
      </trkpt>
      <trkpt lat="44.56984" lon="0.84875">
        <ele>175.8</ele>
        <time>2018-04-29T17:30:44Z</time>
      </trkpt>
      <trkpt lat="44.56986" lon="0.84874">
        <ele>175.8</ele>
        <time>2018-04-29T17:30:45Z</time>
      </trkpt>
      <trkpt lat="44.57005" lon="0.84874">
        <ele>180.2</ele>
        <time>2018-04-29T17:31:02Z</time>
      </trkpt>
      <trkpt lat="44.57006" lon="0.84874">
        <ele>180.2</ele>
        <time>2018-04-29T17:31:03Z</time>
      </trkpt>
      <trkpt lat="44.57014" lon="0.84878">
        <ele>180.2</ele>
        <time>2018-04-29T17:31:09Z</time>
      </trkpt>
      <trkpt lat="44.57018" lon="0.84878">
        <ele>180.6</ele>
        <time>2018-04-29T17:31:11Z</time>
      </trkpt>
      <trkpt lat="44.57019" lon="0.84878">
        <ele>181.2</ele>
        <time>2018-04-29T17:31:12Z</time>
      </trkpt>
      <trkpt lat="44.5702" lon="0.84878">
        <ele>181.6</ele>
        <time>2018-04-29T17:31:13Z</time>
      </trkpt>
      <trkpt lat="44.5702" lon="0.84879">
        <ele>182</ele>
        <time>2018-04-29T17:31:14Z</time>
      </trkpt>
      <trkpt lat="44.57022" lon="0.8488">
        <ele>182.4</ele>
        <time>2018-04-29T17:31:15Z</time>
      </trkpt>
      <trkpt lat="44.57031" lon="0.84883">
        <ele>182.4</ele>
        <time>2018-04-29T17:31:21Z</time>
      </trkpt>
      <trkpt lat="44.57033" lon="0.84883">
        <ele>182.8</ele>
        <time>2018-04-29T17:31:23Z</time>
      </trkpt>
      <trkpt lat="44.57033" lon="0.84885">
        <ele>183.2</ele>
        <time>2018-04-29T17:31:24Z</time>
      </trkpt>
      <trkpt lat="44.57035" lon="0.84886">
        <ele>183.6</ele>
        <time>2018-04-29T17:31:25Z</time>
      </trkpt>
      <trkpt lat="44.57036" lon="0.84887">
        <ele>184.4</ele>
        <time>2018-04-29T17:31:26Z</time>
      </trkpt>
      <trkpt lat="44.57043" lon="0.84893">
        <ele>184.4</ele>
        <time>2018-04-29T17:31:30Z</time>
      </trkpt>
      <trkpt lat="44.57049" lon="0.84894">
        <ele>184.4</ele>
        <time>2018-04-29T17:31:33Z</time>
      </trkpt>
      <trkpt lat="44.57056" lon="0.84895">
        <ele>184.4</ele>
        <time>2018-04-29T17:31:36Z</time>
      </trkpt>
      <trkpt lat="44.57064" lon="0.84897">
        <ele>184.4</ele>
        <time>2018-04-29T17:31:38Z</time>
      </trkpt>
      <trkpt lat="44.57074" lon="0.84896">
        <ele>184.8</ele>
        <time>2018-04-29T17:31:41Z</time>
      </trkpt>
      <trkpt lat="44.57077" lon="0.84895">
        <ele>185.2</ele>
        <time>2018-04-29T17:31:42Z</time>
      </trkpt>
      <trkpt lat="44.57081" lon="0.84894">
        <ele>185.6</ele>
        <time>2018-04-29T17:31:43Z</time>
      </trkpt>
      <trkpt lat="44.57083" lon="0.84893">
        <ele>186.2</ele>
        <time>2018-04-29T17:31:44Z</time>
      </trkpt>
      <trkpt lat="44.57086" lon="0.84893">
        <ele>186.6</ele>
        <time>2018-04-29T17:31:45Z</time>
      </trkpt>
      <trkpt lat="44.57095" lon="0.84892">
        <ele>186.6</ele>
        <time>2018-04-29T17:31:48Z</time>
      </trkpt>
      <trkpt lat="44.5711" lon="0.84893">
        <ele>186.6</ele>
        <time>2018-04-29T17:31:52Z</time>
      </trkpt>
      <trkpt lat="44.57114" lon="0.84893">
        <ele>186.6</ele>
        <time>2018-04-29T17:31:53Z</time>
      </trkpt>
      <trkpt lat="44.57131" lon="0.84893">
        <ele>186.6</ele>
        <time>2018-04-29T17:31:59Z</time>
      </trkpt>
      <trkpt lat="44.57134" lon="0.84894">
        <ele>186.6</ele>
        <time>2018-04-29T17:32:00Z</time>
      </trkpt>
      <trkpt lat="44.57144" lon="0.84897">
        <ele>186.6</ele>
        <time>2018-04-29T17:32:04Z</time>
      </trkpt>
      <trkpt lat="44.57146" lon="0.84899">
        <ele>186.6</ele>
        <time>2018-04-29T17:32:05Z</time>
      </trkpt>
      <trkpt lat="44.57165" lon="0.84905">
        <ele>187</ele>
        <time>2018-04-29T17:32:08Z</time>
      </trkpt>
      <trkpt lat="44.5717" lon="0.84905">
        <ele>187.4</ele>
        <time>2018-04-29T17:32:09Z</time>
      </trkpt>
      <trkpt lat="44.57175" lon="0.84905">
        <ele>187.8</ele>
        <time>2018-04-29T17:32:10Z</time>
      </trkpt>
      <trkpt lat="44.57179" lon="0.84904">
        <ele>188.2</ele>
        <time>2018-04-29T17:32:11Z</time>
      </trkpt>
      <trkpt lat="44.57184" lon="0.84902">
        <ele>188.6</ele>
        <time>2018-04-29T17:32:12Z</time>
      </trkpt>
      <trkpt lat="44.57188" lon="0.849">
        <ele>188.6</ele>
        <time>2018-04-29T17:32:13Z</time>
      </trkpt>
      <trkpt lat="44.57193" lon="0.84898">
        <ele>188.6</ele>
        <time>2018-04-29T17:32:14Z</time>
      </trkpt>
      <trkpt lat="44.57204" lon="0.84891">
        <ele>188.6</ele>
        <time>2018-04-29T17:32:17Z</time>
      </trkpt>
      <trkpt lat="44.57207" lon="0.8489">
        <ele>188.6</ele>
        <time>2018-04-29T17:32:18Z</time>
      </trkpt>
      <trkpt lat="44.5721" lon="0.8489">
        <ele>188.6</ele>
        <time>2018-04-29T17:32:20Z</time>
      </trkpt>
      <trkpt lat="44.57211" lon="0.8489">
        <ele>188.6</ele>
        <time>2018-04-29T17:32:21Z</time>
      </trkpt>
      <trkpt lat="44.57212" lon="0.8489">
        <ele>188.6</ele>
        <time>2018-04-29T17:32:22Z</time>
      </trkpt>
      <trkpt lat="44.57212" lon="0.84891">
        <ele>188.6</ele>
        <time>2018-04-29T17:32:23Z</time>
      </trkpt>
      <trkpt lat="44.57215" lon="0.84891">
        <ele>188.6</ele>
        <time>2018-04-29T17:32:27Z</time>
      </trkpt>
      <trkpt lat="44.57217" lon="0.84891">
        <ele>188.6</ele>
        <time>2018-04-29T17:32:28Z</time>
      </trkpt>
      <trkpt lat="44.57221" lon="0.84894">
        <ele>188.6</ele>
        <time>2018-04-29T17:32:30Z</time>
      </trkpt>
      <trkpt lat="44.57224" lon="0.84898">
        <ele>188.6</ele>
        <time>2018-04-29T17:32:32Z</time>
      </trkpt>
      <trkpt lat="44.57226" lon="0.84901">
        <ele>188.6</ele>
        <time>2018-04-29T17:32:34Z</time>
      </trkpt>
      <trkpt lat="44.57231" lon="0.84904">
        <ele>188.6</ele>
        <time>2018-04-29T17:32:37Z</time>
      </trkpt>
      <trkpt lat="44.57233" lon="0.84906">
        <ele>188.6</ele>
        <time>2018-04-29T17:32:38Z</time>
      </trkpt>
      <trkpt lat="44.57231" lon="0.84921">
        <ele>188.6</ele>
        <time>2018-04-29T17:39:56Z</time>
      </trkpt>
      <trkpt lat="44.5723" lon="0.84923">
        <ele>188.6</ele>
        <time>2018-04-29T17:39:57Z</time>
      </trkpt>
      <trkpt lat="44.57229" lon="0.84926">
        <ele>188.6</ele>
        <time>2018-04-29T17:39:58Z</time>
      </trkpt>
      <trkpt lat="44.57228" lon="0.84932">
        <ele>188.6</ele>
        <time>2018-04-29T17:40:00Z</time>
      </trkpt>
      <trkpt lat="44.57226" lon="0.84938">
        <ele>188.6</ele>
        <time>2018-04-29T17:40:02Z</time>
      </trkpt>
      <trkpt lat="44.57223" lon="0.84946">
        <ele>188.6</ele>
        <time>2018-04-29T17:40:04Z</time>
      </trkpt>
      <trkpt lat="44.57221" lon="0.84954">
        <ele>188.2</ele>
        <time>2018-04-29T17:40:06Z</time>
      </trkpt>
      <trkpt lat="44.57219" lon="0.8496">
        <ele>187.6</ele>
        <time>2018-04-29T17:40:07Z</time>
      </trkpt>
      <trkpt lat="44.57217" lon="0.84966">
        <ele>187.2</ele>
        <time>2018-04-29T17:40:08Z</time>
      </trkpt>
      <trkpt lat="44.57215" lon="0.84972">
        <ele>186.8</ele>
        <time>2018-04-29T17:40:09Z</time>
      </trkpt>
      <trkpt lat="44.57213" lon="0.84979">
        <ele>186.4</ele>
        <time>2018-04-29T17:40:10Z</time>
      </trkpt>
      <trkpt lat="44.57212" lon="0.84987">
        <ele>186</ele>
        <time>2018-04-29T17:40:11Z</time>
      </trkpt>
      <trkpt lat="44.5721" lon="0.84996">
        <ele>185.6</ele>
        <time>2018-04-29T17:40:12Z</time>
      </trkpt>
      <trkpt lat="44.57208" lon="0.85004">
        <ele>185.2</ele>
        <time>2018-04-29T17:40:13Z</time>
      </trkpt>
      <trkpt lat="44.57207" lon="0.85012">
        <ele>184.6</ele>
        <time>2018-04-29T17:40:14Z</time>
      </trkpt>
      <trkpt lat="44.57205" lon="0.85022">
        <ele>184.2</ele>
        <time>2018-04-29T17:40:15Z</time>
      </trkpt>
      <trkpt lat="44.57202" lon="0.85031">
        <ele>183.6</ele>
        <time>2018-04-29T17:40:16Z</time>
      </trkpt>
      <trkpt lat="44.57198" lon="0.8504">
        <ele>183.2</ele>
        <time>2018-04-29T17:40:17Z</time>
      </trkpt>
      <trkpt lat="44.57194" lon="0.85049">
        <ele>182.6</ele>
        <time>2018-04-29T17:40:18Z</time>
      </trkpt>
      <trkpt lat="44.57187" lon="0.85059">
        <ele>182.2</ele>
        <time>2018-04-29T17:40:19Z</time>
      </trkpt>
      <trkpt lat="44.5717" lon="0.85094">
        <ele>182.2</ele>
        <time>2018-04-29T17:40:23Z</time>
      </trkpt>
      <trkpt lat="44.57165" lon="0.8511">
        <ele>182.2</ele>
        <time>2018-04-29T17:40:25Z</time>
      </trkpt>
      <trkpt lat="44.57164" lon="0.85117">
        <ele>181.6</ele>
        <time>2018-04-29T17:40:26Z</time>
      </trkpt>
      <trkpt lat="44.57162" lon="0.85126">
        <ele>181.2</ele>
        <time>2018-04-29T17:40:27Z</time>
      </trkpt>
      <trkpt lat="44.57161" lon="0.85134">
        <ele>180.6</ele>
        <time>2018-04-29T17:40:28Z</time>
      </trkpt>
      <trkpt lat="44.57161" lon="0.85143">
        <ele>180.2</ele>
        <time>2018-04-29T17:40:29Z</time>
      </trkpt>
      <trkpt lat="44.5716" lon="0.85153">
        <ele>179.6</ele>
        <time>2018-04-29T17:40:30Z</time>
      </trkpt>
      <trkpt lat="44.57159" lon="0.85164">
        <ele>178.6</ele>
        <time>2018-04-29T17:40:31Z</time>
      </trkpt>
      <trkpt lat="44.57159" lon="0.85176">
        <ele>178.2</ele>
        <time>2018-04-29T17:40:32Z</time>
      </trkpt>
      <trkpt lat="44.5716" lon="0.85187">
        <ele>177.6</ele>
        <time>2018-04-29T17:40:33Z</time>
      </trkpt>
      <trkpt lat="44.5716" lon="0.85197">
        <ele>177.2</ele>
        <time>2018-04-29T17:40:34Z</time>
      </trkpt>
      <trkpt lat="44.5716" lon="0.85206">
        <ele>176.6</ele>
        <time>2018-04-29T17:40:35Z</time>
      </trkpt>
      <trkpt lat="44.57162" lon="0.85213">
        <ele>176</ele>
        <time>2018-04-29T17:40:36Z</time>
      </trkpt>
      <trkpt lat="44.57162" lon="0.85218">
        <ele>175.4</ele>
        <time>2018-04-29T17:40:37Z</time>
      </trkpt>
      <trkpt lat="44.57161" lon="0.85221">
        <ele>175.8</ele>
        <time>2018-04-29T17:40:38Z</time>
      </trkpt>
      <trkpt lat="44.57159" lon="0.85225">
        <ele>176.2</ele>
        <time>2018-04-29T17:40:39Z</time>
      </trkpt>
      <trkpt lat="44.57159" lon="0.85228">
        <ele>176.4</ele>
        <time>2018-04-29T17:40:40Z</time>
      </trkpt>
      <trkpt lat="44.57158" lon="0.85233">
        <ele>176.8</ele>
        <time>2018-04-29T17:40:41Z</time>
      </trkpt>
      <trkpt lat="44.57158" lon="0.85238">
        <ele>177.2</ele>
        <time>2018-04-29T17:40:42Z</time>
      </trkpt>
      <trkpt lat="44.57156" lon="0.85243">
        <ele>177.6</ele>
        <time>2018-04-29T17:40:43Z</time>
      </trkpt>
      <trkpt lat="44.57155" lon="0.85247">
        <ele>178</ele>
        <time>2018-04-29T17:40:44Z</time>
      </trkpt>
      <trkpt lat="44.57153" lon="0.8525">
        <ele>178.4</ele>
        <time>2018-04-29T17:40:45Z</time>
      </trkpt>
      <trkpt lat="44.57152" lon="0.85253">
        <ele>178.8</ele>
        <time>2018-04-29T17:40:46Z</time>
      </trkpt>
      <trkpt lat="44.57151" lon="0.85256">
        <ele>179.2</ele>
        <time>2018-04-29T17:40:47Z</time>
      </trkpt>
      <trkpt lat="44.57144" lon="0.85262">
        <ele>179.2</ele>
        <time>2018-04-29T17:40:51Z</time>
      </trkpt>
      <trkpt lat="44.57143" lon="0.85262">
        <ele>179.2</ele>
        <time>2018-04-29T17:40:52Z</time>
      </trkpt>
      <trkpt lat="44.5714" lon="0.85264">
        <ele>179.2</ele>
        <time>2018-04-29T17:40:57Z</time>
      </trkpt>
      <trkpt lat="44.57138" lon="0.85266">
        <ele>179.2</ele>
        <time>2018-04-29T17:41:00Z</time>
      </trkpt>
      <trkpt lat="44.57137" lon="0.85267">
        <ele>179.2</ele>
        <time>2018-04-29T17:41:01Z</time>
      </trkpt>
      <trkpt lat="44.57136" lon="0.85269">
        <ele>179.2</ele>
        <time>2018-04-29T17:41:02Z</time>
      </trkpt>
      <trkpt lat="44.57134" lon="0.85272">
        <ele>179.2</ele>
        <time>2018-04-29T17:41:04Z</time>
      </trkpt>
      <trkpt lat="44.5713" lon="0.85277">
        <ele>179.2</ele>
        <time>2018-04-29T17:41:07Z</time>
      </trkpt>
      <trkpt lat="44.5713" lon="0.8528">
        <ele>179.2</ele>
        <time>2018-04-29T17:41:08Z</time>
      </trkpt>
      <trkpt lat="44.57127" lon="0.85288">
        <ele>179.2</ele>
        <time>2018-04-29T17:41:11Z</time>
      </trkpt>
      <trkpt lat="44.57124" lon="0.85293">
        <ele>179.6</ele>
        <time>2018-04-29T17:41:13Z</time>
      </trkpt>
      <trkpt lat="44.57122" lon="0.85294">
        <ele>180</ele>
        <time>2018-04-29T17:41:14Z</time>
      </trkpt>
      <trkpt lat="44.57119" lon="0.85295">
        <ele>180.4</ele>
        <time>2018-04-29T17:41:15Z</time>
      </trkpt>
      <trkpt lat="44.57117" lon="0.85295">
        <ele>180.8</ele>
        <time>2018-04-29T17:41:16Z</time>
      </trkpt>
      <trkpt lat="44.57115" lon="0.85295">
        <ele>181.2</ele>
        <time>2018-04-29T17:41:17Z</time>
      </trkpt>
      <trkpt lat="44.57108" lon="0.85296">
        <ele>181.6</ele>
        <time>2018-04-29T17:41:19Z</time>
      </trkpt>
      <trkpt lat="44.57106" lon="0.85297">
        <ele>182.4</ele>
        <time>2018-04-29T17:41:20Z</time>
      </trkpt>
      <trkpt lat="44.57104" lon="0.85299">
        <ele>182.8</ele>
        <time>2018-04-29T17:41:21Z</time>
      </trkpt>
      <trkpt lat="44.57102" lon="0.85301">
        <ele>183.4</ele>
        <time>2018-04-29T17:41:22Z</time>
      </trkpt>
      <trkpt lat="44.57098" lon="0.85302">
        <ele>183.4</ele>
        <time>2018-04-29T17:41:24Z</time>
      </trkpt>
      <trkpt lat="44.57086" lon="0.85305">
        <ele>183.4</ele>
        <time>2018-04-29T17:41:28Z</time>
      </trkpt>
      <trkpt lat="44.57081" lon="0.85306">
        <ele>183.4</ele>
        <time>2018-04-29T17:41:30Z</time>
      </trkpt>
      <trkpt lat="44.57077" lon="0.8531">
        <ele>183.4</ele>
        <time>2018-04-29T17:41:32Z</time>
      </trkpt>
      <trkpt lat="44.57073" lon="0.85315">
        <ele>183.4</ele>
        <time>2018-04-29T17:41:34Z</time>
      </trkpt>
      <trkpt lat="44.57069" lon="0.8532">
        <ele>183.8</ele>
        <time>2018-04-29T17:41:36Z</time>
      </trkpt>
      <trkpt lat="44.57067" lon="0.85322">
        <ele>184.2</ele>
        <time>2018-04-29T17:41:37Z</time>
      </trkpt>
      <trkpt lat="44.57065" lon="0.85325">
        <ele>184.6</ele>
        <time>2018-04-29T17:41:38Z</time>
      </trkpt>
      <trkpt lat="44.57063" lon="0.85328">
        <ele>185</ele>
        <time>2018-04-29T17:41:39Z</time>
      </trkpt>
      <trkpt lat="44.57062" lon="0.8533">
        <ele>185.4</ele>
        <time>2018-04-29T17:41:40Z</time>
      </trkpt>
      <trkpt lat="44.57061" lon="0.85339">
        <ele>185.4</ele>
        <time>2018-04-29T17:41:42Z</time>
      </trkpt>
      <trkpt lat="44.57057" lon="0.85348">
        <ele>185.4</ele>
        <time>2018-04-29T17:41:44Z</time>
      </trkpt>
      <trkpt lat="44.57056" lon="0.85357">
        <ele>185.8</ele>
        <time>2018-04-29T17:41:46Z</time>
      </trkpt>
      <trkpt lat="44.57055" lon="0.8536">
        <ele>186.2</ele>
        <time>2018-04-29T17:41:47Z</time>
      </trkpt>
      <trkpt lat="44.57055" lon="0.85364">
        <ele>186.6</ele>
        <time>2018-04-29T17:41:48Z</time>
      </trkpt>
      <trkpt lat="44.57055" lon="0.85368">
        <ele>187</ele>
        <time>2018-04-29T17:41:49Z</time>
      </trkpt>
      <trkpt lat="44.57055" lon="0.85372">
        <ele>187.6</ele>
        <time>2018-04-29T17:41:50Z</time>
      </trkpt>
      <trkpt lat="44.57055" lon="0.85376">
        <ele>187.6</ele>
        <time>2018-04-29T17:41:51Z</time>
      </trkpt>
      <trkpt lat="44.57057" lon="0.8539">
        <ele>187.6</ele>
        <time>2018-04-29T17:41:55Z</time>
      </trkpt>
      <trkpt lat="44.57057" lon="0.85393">
        <ele>187.6</ele>
        <time>2018-04-29T17:41:56Z</time>
      </trkpt>
      <trkpt lat="44.57058" lon="0.85413">
        <ele>188</ele>
        <time>2018-04-29T17:42:01Z</time>
      </trkpt>
      <trkpt lat="44.57057" lon="0.85417">
        <ele>188.4</ele>
        <time>2018-04-29T17:42:02Z</time>
      </trkpt>
      <trkpt lat="44.57057" lon="0.8542">
        <ele>188.8</ele>
        <time>2018-04-29T17:42:03Z</time>
      </trkpt>
      <trkpt lat="44.57057" lon="0.85422">
        <ele>189.2</ele>
        <time>2018-04-29T17:42:04Z</time>
      </trkpt>
      <trkpt lat="44.57056" lon="0.85424">
        <ele>189.6</ele>
        <time>2018-04-29T17:42:05Z</time>
      </trkpt>
      <trkpt lat="44.57056" lon="0.85427">
        <ele>189.6</ele>
        <time>2018-04-29T17:42:06Z</time>
      </trkpt>
      <trkpt lat="44.57055" lon="0.85429">
        <ele>189.6</ele>
        <time>2018-04-29T17:42:08Z</time>
      </trkpt>
      <trkpt lat="44.57059" lon="0.85428">
        <ele>189.6</ele>
        <time>2018-04-29T17:42:28Z</time>
      </trkpt>
      <trkpt lat="44.5706" lon="0.85428">
        <ele>189.6</ele>
        <time>2018-04-29T17:42:29Z</time>
      </trkpt>
      <trkpt lat="44.57073" lon="0.8543">
        <ele>189.6</ele>
        <time>2018-04-29T17:42:34Z</time>
      </trkpt>
      <trkpt lat="44.57077" lon="0.85431">
        <ele>189.6</ele>
        <time>2018-04-29T17:42:35Z</time>
      </trkpt>
      <trkpt lat="44.57096" lon="0.85439">
        <ele>189.6</ele>
        <time>2018-04-29T17:42:40Z</time>
      </trkpt>
      <trkpt lat="44.571" lon="0.85441">
        <ele>189.6</ele>
        <time>2018-04-29T17:42:41Z</time>
      </trkpt>
      <trkpt lat="44.57104" lon="0.85445">
        <ele>189.6</ele>
        <time>2018-04-29T17:42:42Z</time>
      </trkpt>
      <trkpt lat="44.57108" lon="0.85454">
        <ele>189.6</ele>
        <time>2018-04-29T17:42:44Z</time>
      </trkpt>
      <trkpt lat="44.57111" lon="0.85464">
        <ele>189</ele>
        <time>2018-04-29T17:42:46Z</time>
      </trkpt>
      <trkpt lat="44.57114" lon="0.85469">
        <ele>188.6</ele>
        <time>2018-04-29T17:42:47Z</time>
      </trkpt>
      <trkpt lat="44.57119" lon="0.8547">
        <ele>188</ele>
        <time>2018-04-29T17:42:48Z</time>
      </trkpt>
      <trkpt lat="44.57124" lon="0.85469">
        <ele>187.4</ele>
        <time>2018-04-29T17:42:49Z</time>
      </trkpt>
      <trkpt lat="44.57128" lon="0.85468">
        <ele>186.6</ele>
        <time>2018-04-29T17:42:50Z</time>
      </trkpt>
      <trkpt lat="44.57132" lon="0.85465">
        <ele>185.8</ele>
        <time>2018-04-29T17:42:51Z</time>
      </trkpt>
      <trkpt lat="44.57134" lon="0.85463">
        <ele>185</ele>
        <time>2018-04-29T17:42:52Z</time>
      </trkpt>
      <trkpt lat="44.57137" lon="0.8546">
        <ele>184.2</ele>
        <time>2018-04-29T17:42:53Z</time>
      </trkpt>
      <trkpt lat="44.5714" lon="0.85457">
        <ele>183.4</ele>
        <time>2018-04-29T17:42:54Z</time>
      </trkpt>
      <trkpt lat="44.57143" lon="0.85453">
        <ele>182.6</ele>
        <time>2018-04-29T17:42:55Z</time>
      </trkpt>
      <trkpt lat="44.57146" lon="0.85448">
        <ele>181.8</ele>
        <time>2018-04-29T17:42:56Z</time>
      </trkpt>
      <trkpt lat="44.57158" lon="0.85445">
        <ele>181.8</ele>
        <time>2018-04-29T17:42:58Z</time>
      </trkpt>
      <trkpt lat="44.57167" lon="0.85443">
        <ele>181.8</ele>
        <time>2018-04-29T17:43:00Z</time>
      </trkpt>
      <trkpt lat="44.5718" lon="0.85443">
        <ele>181.8</ele>
        <time>2018-04-29T17:43:03Z</time>
      </trkpt>
      <trkpt lat="44.57198" lon="0.85443">
        <ele>181.8</ele>
        <time>2018-04-29T17:43:07Z</time>
      </trkpt>
      <trkpt lat="44.57201" lon="0.85444">
        <ele>181.8</ele>
        <time>2018-04-29T17:43:08Z</time>
      </trkpt>
      <trkpt lat="44.57219" lon="0.85444">
        <ele>181.8</ele>
        <time>2018-04-29T17:43:13Z</time>
      </trkpt>
      <trkpt lat="44.57224" lon="0.85445">
        <ele>181.8</ele>
        <time>2018-04-29T17:43:15Z</time>
      </trkpt>
      <trkpt lat="44.57231" lon="0.85444">
        <ele>181.8</ele>
        <time>2018-04-29T17:43:17Z</time>
      </trkpt>
      <trkpt lat="44.57233" lon="0.85444">
        <ele>181.8</ele>
        <time>2018-04-29T17:43:18Z</time>
      </trkpt>
      <trkpt lat="44.57238" lon="0.85442">
        <ele>182.2</ele>
        <time>2018-04-29T17:43:20Z</time>
      </trkpt>
      <trkpt lat="44.57241" lon="0.85441">
        <ele>182.8</ele>
        <time>2018-04-29T17:43:21Z</time>
      </trkpt>
      <trkpt lat="44.57243" lon="0.85441">
        <ele>183.2</ele>
        <time>2018-04-29T17:43:22Z</time>
      </trkpt>
      <trkpt lat="44.57246" lon="0.85441">
        <ele>184</ele>
        <time>2018-04-29T17:43:23Z</time>
      </trkpt>
      <trkpt lat="44.5725" lon="0.8544">
        <ele>184.4</ele>
        <time>2018-04-29T17:43:24Z</time>
      </trkpt>
      <trkpt lat="44.57253" lon="0.8544">
        <ele>184.8</ele>
        <time>2018-04-29T17:43:25Z</time>
      </trkpt>
      <trkpt lat="44.57256" lon="0.8544">
        <ele>185.2</ele>
        <time>2018-04-29T17:43:26Z</time>
      </trkpt>
      <trkpt lat="44.57259" lon="0.85443">
        <ele>185.6</ele>
        <time>2018-04-29T17:43:27Z</time>
      </trkpt>
      <trkpt lat="44.57261" lon="0.85446">
        <ele>186</ele>
        <time>2018-04-29T17:43:28Z</time>
      </trkpt>
      <trkpt lat="44.57265" lon="0.8545">
        <ele>186.4</ele>
        <time>2018-04-29T17:43:30Z</time>
      </trkpt>
      <trkpt lat="44.57268" lon="0.8545">
        <ele>186.8</ele>
        <time>2018-04-29T17:43:31Z</time>
      </trkpt>
      <trkpt lat="44.5727" lon="0.85451">
        <ele>187.2</ele>
        <time>2018-04-29T17:43:32Z</time>
      </trkpt>
      <trkpt lat="44.57274" lon="0.8545">
        <ele>187.6</ele>
        <time>2018-04-29T17:43:33Z</time>
      </trkpt>
      <trkpt lat="44.57276" lon="0.85447">
        <ele>188</ele>
        <time>2018-04-29T17:43:34Z</time>
      </trkpt>
      <trkpt lat="44.57277" lon="0.85443">
        <ele>188</ele>
        <time>2018-04-29T17:43:35Z</time>
      </trkpt>
      <trkpt lat="44.57283" lon="0.85438">
        <ele>188</ele>
        <time>2018-04-29T17:43:38Z</time>
      </trkpt>
      <trkpt lat="44.57286" lon="0.85438">
        <ele>188</ele>
        <time>2018-04-29T17:43:39Z</time>
      </trkpt>
      <trkpt lat="44.57297" lon="0.8544">
        <ele>188</ele>
        <time>2018-04-29T17:43:42Z</time>
      </trkpt>
      <trkpt lat="44.5731" lon="0.85443">
        <ele>188</ele>
        <time>2018-04-29T17:43:46Z</time>
      </trkpt>
      <trkpt lat="44.57329" lon="0.85446">
        <ele>188</ele>
        <time>2018-04-29T17:43:52Z</time>
      </trkpt>
      <trkpt lat="44.57334" lon="0.85444">
        <ele>188</ele>
        <time>2018-04-29T17:43:55Z</time>
      </trkpt>
      <trkpt lat="44.57343" lon="0.85441">
        <ele>188</ele>
        <time>2018-04-29T17:43:58Z</time>
      </trkpt>
      <trkpt lat="44.57347" lon="0.85443">
        <ele>188</ele>
        <time>2018-04-29T17:44:00Z</time>
      </trkpt>
      <trkpt lat="44.57354" lon="0.85446">
        <ele>188</ele>
        <time>2018-04-29T17:44:03Z</time>
      </trkpt>
      <trkpt lat="44.57359" lon="0.85447">
        <ele>188</ele>
        <time>2018-04-29T17:44:05Z</time>
      </trkpt>
      <trkpt lat="44.57364" lon="0.85447">
        <ele>188.4</ele>
        <time>2018-04-29T17:44:07Z</time>
      </trkpt>
      <trkpt lat="44.57367" lon="0.85446">
        <ele>189</ele>
        <time>2018-04-29T17:44:08Z</time>
      </trkpt>
      <trkpt lat="44.5737" lon="0.85446">
        <ele>189.4</ele>
        <time>2018-04-29T17:44:09Z</time>
      </trkpt>
      <trkpt lat="44.57372" lon="0.85445">
        <ele>189.8</ele>
        <time>2018-04-29T17:44:10Z</time>
      </trkpt>
      <trkpt lat="44.57375" lon="0.85444">
        <ele>190.2</ele>
        <time>2018-04-29T17:44:11Z</time>
      </trkpt>
      <trkpt lat="44.57377" lon="0.85444">
        <ele>190.2</ele>
        <time>2018-04-29T17:44:13Z</time>
      </trkpt>
      <trkpt lat="44.57376" lon="0.85446">
        <ele>190.2</ele>
        <time>2018-04-29T17:44:15Z</time>
      </trkpt>
      <trkpt lat="44.57378" lon="0.85449">
        <ele>190.2</ele>
        <time>2018-04-29T17:44:17Z</time>
      </trkpt>
      <trkpt lat="44.57379" lon="0.85449">
        <ele>190.2</ele>
        <time>2018-04-29T17:44:18Z</time>
      </trkpt>
      <trkpt lat="44.57382" lon="0.85449">
        <ele>191.4</ele>
        <time>2018-04-29T17:45:10Z</time>
      </trkpt>
      <trkpt lat="44.57383" lon="0.85451">
        <ele>191.8</ele>
        <time>2018-04-29T17:45:11Z</time>
      </trkpt>
      <trkpt lat="44.57384" lon="0.85454">
        <ele>192.2</ele>
        <time>2018-04-29T17:45:12Z</time>
      </trkpt>
      <trkpt lat="44.57384" lon="0.85458">
        <ele>192.2</ele>
        <time>2018-04-29T17:45:13Z</time>
      </trkpt>
      <trkpt lat="44.57385" lon="0.85463">
        <ele>192.2</ele>
        <time>2018-04-29T17:45:14Z</time>
      </trkpt>
      <trkpt lat="44.57384" lon="0.85472">
        <ele>192.2</ele>
        <time>2018-04-29T17:45:16Z</time>
      </trkpt>
      <trkpt lat="44.57385" lon="0.85482">
        <ele>192.2</ele>
        <time>2018-04-29T17:45:18Z</time>
      </trkpt>
      <trkpt lat="44.57387" lon="0.85502">
        <ele>192.2</ele>
        <time>2018-04-29T17:45:23Z</time>
      </trkpt>
      <trkpt lat="44.57389" lon="0.85515">
        <ele>192.6</ele>
        <time>2018-04-29T17:45:27Z</time>
      </trkpt>
      <trkpt lat="44.5739" lon="0.85519">
        <ele>193</ele>
        <time>2018-04-29T17:45:28Z</time>
      </trkpt>
      <trkpt lat="44.5739" lon="0.85524">
        <ele>193.4</ele>
        <time>2018-04-29T17:45:29Z</time>
      </trkpt>
      <trkpt lat="44.57392" lon="0.8553">
        <ele>194</ele>
        <time>2018-04-29T17:45:30Z</time>
      </trkpt>
      <trkpt lat="44.57393" lon="0.85535">
        <ele>194.4</ele>
        <time>2018-04-29T17:45:31Z</time>
      </trkpt>
      <trkpt lat="44.57395" lon="0.85554">
        <ele>194.8</ele>
        <time>2018-04-29T17:45:34Z</time>
      </trkpt>
      <trkpt lat="44.57395" lon="0.85561">
        <ele>195.2</ele>
        <time>2018-04-29T17:45:35Z</time>
      </trkpt>
      <trkpt lat="44.57396" lon="0.85569">
        <ele>195.6</ele>
        <time>2018-04-29T17:45:36Z</time>
      </trkpt>
      <trkpt lat="44.57397" lon="0.85576">
        <ele>196</ele>
        <time>2018-04-29T17:45:37Z</time>
      </trkpt>
      <trkpt lat="44.57398" lon="0.85584">
        <ele>196.4</ele>
        <time>2018-04-29T17:45:38Z</time>
      </trkpt>
      <trkpt lat="44.57399" lon="0.85592">
        <ele>196.4</ele>
        <time>2018-04-29T17:45:40Z</time>
      </trkpt>
      <trkpt lat="44.574" lon="0.85606">
        <ele>196.4</ele>
        <time>2018-04-29T17:45:43Z</time>
      </trkpt>
      <trkpt lat="44.574" lon="0.85614">
        <ele>196.4</ele>
        <time>2018-04-29T17:45:45Z</time>
      </trkpt>
      <trkpt lat="44.574" lon="0.85623">
        <ele>196.8</ele>
        <time>2018-04-29T17:45:47Z</time>
      </trkpt>
      <trkpt lat="44.574" lon="0.85627">
        <ele>197.2</ele>
        <time>2018-04-29T17:45:48Z</time>
      </trkpt>
      <trkpt lat="44.574" lon="0.85632">
        <ele>197.8</ele>
        <time>2018-04-29T17:45:49Z</time>
      </trkpt>
      <trkpt lat="44.574" lon="0.85637">
        <ele>198.2</ele>
        <time>2018-04-29T17:45:50Z</time>
      </trkpt>
      <trkpt lat="44.57401" lon="0.85642">
        <ele>198.6</ele>
        <time>2018-04-29T17:45:51Z</time>
      </trkpt>
      <trkpt lat="44.57406" lon="0.85664">
        <ele>198.6</ele>
        <time>2018-04-29T17:45:55Z</time>
      </trkpt>
      <trkpt lat="44.57407" lon="0.85685">
        <ele>198.6</ele>
        <time>2018-04-29T17:46:00Z</time>
      </trkpt>
      <trkpt lat="44.57407" lon="0.85689">
        <ele>198.6</ele>
        <time>2018-04-29T17:46:01Z</time>
      </trkpt>
      <trkpt lat="44.57408" lon="0.85704">
        <ele>198.6</ele>
        <time>2018-04-29T17:46:05Z</time>
      </trkpt>
      <trkpt lat="44.57409" lon="0.85733">
        <ele>198.6</ele>
        <time>2018-04-29T17:46:10Z</time>
      </trkpt>
      <trkpt lat="44.57407" lon="0.85739">
        <ele>198.6</ele>
        <time>2018-04-29T17:46:11Z</time>
      </trkpt>
      <trkpt lat="44.57408" lon="0.85747">
        <ele>198.6</ele>
        <time>2018-04-29T17:46:12Z</time>
      </trkpt>
      <trkpt lat="44.57407" lon="0.85759">
        <ele>198.6</ele>
        <time>2018-04-29T17:46:14Z</time>
      </trkpt>
      <trkpt lat="44.57406" lon="0.85769">
        <ele>198.6</ele>
        <time>2018-04-29T17:46:17Z</time>
      </trkpt>
      <trkpt lat="44.57406" lon="0.85772">
        <ele>198.6</ele>
        <time>2018-04-29T17:46:18Z</time>
      </trkpt>
      <trkpt lat="44.57406" lon="0.85785">
        <ele>198.6</ele>
        <time>2018-04-29T17:46:22Z</time>
      </trkpt>
      <trkpt lat="44.57406" lon="0.85788">
        <ele>198.6</ele>
        <time>2018-04-29T17:46:23Z</time>
      </trkpt>
      <trkpt lat="44.57404" lon="0.85793">
        <ele>198.6</ele>
        <time>2018-04-29T17:46:24Z</time>
      </trkpt>
      <trkpt lat="44.57396" lon="0.85817">
        <ele>198.6</ele>
        <time>2018-04-29T17:46:29Z</time>
      </trkpt>
      <trkpt lat="44.57392" lon="0.85841">
        <ele>198.6</ele>
        <time>2018-04-29T17:46:34Z</time>
      </trkpt>
      <trkpt lat="44.57392" lon="0.85845">
        <ele>199</ele>
        <time>2018-04-29T17:46:35Z</time>
      </trkpt>
      <trkpt lat="44.57396" lon="0.85853">
        <ele>199.4</ele>
        <time>2018-04-29T17:46:36Z</time>
      </trkpt>
      <trkpt lat="44.57393" lon="0.85874">
        <ele>200.6</ele>
        <time>2018-04-29T17:46:56Z</time>
      </trkpt>
      <trkpt lat="44.57392" lon="0.85876">
        <ele>200.6</ele>
        <time>2018-04-29T17:46:57Z</time>
      </trkpt>
      <trkpt lat="44.5739" lon="0.85886">
        <ele>200.6</ele>
        <time>2018-04-29T17:47:02Z</time>
      </trkpt>
      <trkpt lat="44.5739" lon="0.85888">
        <ele>200.6</ele>
        <time>2018-04-29T17:47:03Z</time>
      </trkpt>
      <trkpt lat="44.57386" lon="0.859">
        <ele>200.6</ele>
        <time>2018-04-29T17:47:10Z</time>
      </trkpt>
      <trkpt lat="44.57385" lon="0.85904">
        <ele>200.6</ele>
        <time>2018-04-29T17:47:12Z</time>
      </trkpt>
      <trkpt lat="44.57383" lon="0.85908">
        <ele>200.6</ele>
        <time>2018-04-29T17:47:15Z</time>
      </trkpt>
      <trkpt lat="44.57383" lon="0.8591">
        <ele>200.6</ele>
        <time>2018-04-29T17:47:17Z</time>
      </trkpt>
      <trkpt lat="44.57381" lon="0.85924">
        <ele>200.6</ele>
        <time>2018-04-29T17:47:25Z</time>
      </trkpt>
      <trkpt lat="44.57378" lon="0.85932">
        <ele>200.6</ele>
        <time>2018-04-29T17:47:28Z</time>
      </trkpt>
      <trkpt lat="44.57378" lon="0.85939">
        <ele>200.6</ele>
        <time>2018-04-29T17:47:31Z</time>
      </trkpt>
      <trkpt lat="44.57375" lon="0.85947">
        <ele>200.6</ele>
        <time>2018-04-29T17:47:35Z</time>
      </trkpt>
      <trkpt lat="44.57374" lon="0.85949">
        <ele>200.6</ele>
        <time>2018-04-29T17:47:36Z</time>
      </trkpt>
      <trkpt lat="44.57368" lon="0.85965">
        <ele>200.6</ele>
        <time>2018-04-29T17:47:42Z</time>
      </trkpt>
      <trkpt lat="44.57363" lon="0.85978">
        <ele>201</ele>
        <time>2018-04-29T17:47:47Z</time>
      </trkpt>
      <trkpt lat="44.57361" lon="0.8598">
        <ele>201.4</ele>
        <time>2018-04-29T17:47:48Z</time>
      </trkpt>
      <trkpt lat="44.5736" lon="0.85982">
        <ele>202</ele>
        <time>2018-04-29T17:47:49Z</time>
      </trkpt>
      <trkpt lat="44.57359" lon="0.85984">
        <ele>202.4</ele>
        <time>2018-04-29T17:47:50Z</time>
      </trkpt>
      <trkpt lat="44.57357" lon="0.85987">
        <ele>202.8</ele>
        <time>2018-04-29T17:47:51Z</time>
      </trkpt>
      <trkpt lat="44.57353" lon="0.85994">
        <ele>202.8</ele>
        <time>2018-04-29T17:47:54Z</time>
      </trkpt>
      <trkpt lat="44.57352" lon="0.85997">
        <ele>202.8</ele>
        <time>2018-04-29T17:47:55Z</time>
      </trkpt>
      <trkpt lat="44.57347" lon="0.86009">
        <ele>202.8</ele>
        <time>2018-04-29T17:47:59Z</time>
      </trkpt>
      <trkpt lat="44.57344" lon="0.86015">
        <ele>202.8</ele>
        <time>2018-04-29T17:48:01Z</time>
      </trkpt>
      <trkpt lat="44.57341" lon="0.86022">
        <ele>202.8</ele>
        <time>2018-04-29T17:48:03Z</time>
      </trkpt>
      <trkpt lat="44.57339" lon="0.86029">
        <ele>202.8</ele>
        <time>2018-04-29T17:48:05Z</time>
      </trkpt>
      <trkpt lat="44.57335" lon="0.86047">
        <ele>202.8</ele>
        <time>2018-04-29T17:48:10Z</time>
      </trkpt>
      <trkpt lat="44.57335" lon="0.86057">
        <ele>202.8</ele>
        <time>2018-04-29T17:48:12Z</time>
      </trkpt>
      <trkpt lat="44.57334" lon="0.86066">
        <ele>202.8</ele>
        <time>2018-04-29T17:48:14Z</time>
      </trkpt>
      <trkpt lat="44.57334" lon="0.8607">
        <ele>203.2</ele>
        <time>2018-04-29T17:48:15Z</time>
      </trkpt>
      <trkpt lat="44.57334" lon="0.86075">
        <ele>203.6</ele>
        <time>2018-04-29T17:48:16Z</time>
      </trkpt>
      <trkpt lat="44.57333" lon="0.86081">
        <ele>204</ele>
        <time>2018-04-29T17:48:17Z</time>
      </trkpt>
      <trkpt lat="44.57333" lon="0.86087">
        <ele>204.4</ele>
        <time>2018-04-29T17:48:18Z</time>
      </trkpt>
      <trkpt lat="44.57333" lon="0.86094">
        <ele>204.8</ele>
        <time>2018-04-29T17:48:19Z</time>
      </trkpt>
      <trkpt lat="44.5733" lon="0.86106">
        <ele>204.8</ele>
        <time>2018-04-29T17:48:21Z</time>
      </trkpt>
      <trkpt lat="44.57327" lon="0.86125">
        <ele>205.2</ele>
        <time>2018-04-29T17:48:25Z</time>
      </trkpt>
      <trkpt lat="44.57327" lon="0.86129">
        <ele>205.6</ele>
        <time>2018-04-29T17:48:26Z</time>
      </trkpt>
      <trkpt lat="44.57327" lon="0.86133">
        <ele>206</ele>
        <time>2018-04-29T17:48:27Z</time>
      </trkpt>
      <trkpt lat="44.57326" lon="0.86135">
        <ele>206.4</ele>
        <time>2018-04-29T17:48:28Z</time>
      </trkpt>
      <trkpt lat="44.57326" lon="0.86138">
        <ele>206.8</ele>
        <time>2018-04-29T17:48:29Z</time>
      </trkpt>
      <trkpt lat="44.57326" lon="0.86141">
        <ele>206.8</ele>
        <time>2018-04-29T17:48:30Z</time>
      </trkpt>
      <trkpt lat="44.57324" lon="0.86157">
        <ele>206.8</ele>
        <time>2018-04-29T17:48:35Z</time>
      </trkpt>
      <trkpt lat="44.57322" lon="0.86179">
        <ele>206.8</ele>
        <time>2018-04-29T17:48:40Z</time>
      </trkpt>
      <trkpt lat="44.57319" lon="0.86192">
        <ele>207.2</ele>
        <time>2018-04-29T17:48:43Z</time>
      </trkpt>
      <trkpt lat="44.5732" lon="0.86197">
        <ele>207.6</ele>
        <time>2018-04-29T17:48:44Z</time>
      </trkpt>
      <trkpt lat="44.5732" lon="0.86203">
        <ele>208.6</ele>
        <time>2018-04-29T17:48:45Z</time>
      </trkpt>
      <trkpt lat="44.57319" lon="0.86208">
        <ele>209</ele>
        <time>2018-04-29T17:48:46Z</time>
      </trkpt>
      <trkpt lat="44.57319" lon="0.86231">
        <ele>209</ele>
        <time>2018-04-29T17:48:51Z</time>
      </trkpt>
      <trkpt lat="44.57319" lon="0.86237">
        <ele>209</ele>
        <time>2018-04-29T17:48:52Z</time>
      </trkpt>
      <trkpt lat="44.5732" lon="0.86262">
        <ele>209.4</ele>
        <time>2018-04-29T17:48:57Z</time>
      </trkpt>
      <trkpt lat="44.5732" lon="0.86266">
        <ele>209.8</ele>
        <time>2018-04-29T17:48:58Z</time>
      </trkpt>
      <trkpt lat="44.5732" lon="0.86269">
        <ele>210.2</ele>
        <time>2018-04-29T17:48:59Z</time>
      </trkpt>
      <trkpt lat="44.57321" lon="0.86273">
        <ele>210.6</ele>
        <time>2018-04-29T17:49:00Z</time>
      </trkpt>
      <trkpt lat="44.57322" lon="0.86276">
        <ele>211</ele>
        <time>2018-04-29T17:49:01Z</time>
      </trkpt>
      <trkpt lat="44.57324" lon="0.86287">
        <ele>211</ele>
        <time>2018-04-29T17:49:04Z</time>
      </trkpt>
      <trkpt lat="44.57329" lon="0.86314">
        <ele>211</ele>
        <time>2018-04-29T17:49:10Z</time>
      </trkpt>
      <trkpt lat="44.57331" lon="0.86327">
        <ele>211</ele>
        <time>2018-04-29T17:49:13Z</time>
      </trkpt>
      <trkpt lat="44.57331" lon="0.86337">
        <ele>211</ele>
        <time>2018-04-29T17:49:15Z</time>
      </trkpt>
      <trkpt lat="44.57332" lon="0.86342">
        <ele>211</ele>
        <time>2018-04-29T17:49:16Z</time>
      </trkpt>
      <trkpt lat="44.57333" lon="0.86355">
        <ele>211</ele>
        <time>2018-04-29T17:49:19Z</time>
      </trkpt>
      <trkpt lat="44.57333" lon="0.86363">
        <ele>211</ele>
        <time>2018-04-29T17:49:21Z</time>
      </trkpt>
      <trkpt lat="44.57334" lon="0.86366">
        <ele>211</ele>
        <time>2018-04-29T17:49:22Z</time>
      </trkpt>
      <trkpt lat="44.57338" lon="0.86388">
        <ele>211</ele>
        <time>2018-04-29T17:49:27Z</time>
      </trkpt>
      <trkpt lat="44.57343" lon="0.86402">
        <ele>211</ele>
        <time>2018-04-29T17:49:30Z</time>
      </trkpt>
      <trkpt lat="44.57349" lon="0.86416">
        <ele>211</ele>
        <time>2018-04-29T17:49:33Z</time>
      </trkpt>
      <trkpt lat="44.57354" lon="0.86442">
        <ele>211</ele>
        <time>2018-04-29T17:49:38Z</time>
      </trkpt>
      <trkpt lat="44.57355" lon="0.86457">
        <ele>211</ele>
        <time>2018-04-29T17:49:41Z</time>
      </trkpt>
      <trkpt lat="44.57355" lon="0.86478">
        <ele>211</ele>
        <time>2018-04-29T17:49:45Z</time>
      </trkpt>
      <trkpt lat="44.57347" lon="0.86518">
        <ele>211</ele>
        <time>2018-04-29T17:49:52Z</time>
      </trkpt>
      <trkpt lat="44.57335" lon="0.86557">
        <ele>211</ele>
        <time>2018-04-29T17:49:59Z</time>
      </trkpt>
      <trkpt lat="44.57319" lon="0.86593">
        <ele>211</ele>
        <time>2018-04-29T17:50:06Z</time>
      </trkpt>
      <trkpt lat="44.57317" lon="0.86599">
        <ele>211</ele>
        <time>2018-04-29T17:50:07Z</time>
      </trkpt>
      <trkpt lat="44.57301" lon="0.86642">
        <ele>211</ele>
        <time>2018-04-29T17:50:15Z</time>
      </trkpt>
      <trkpt lat="44.57284" lon="0.86686">
        <ele>211</ele>
        <time>2018-04-29T17:50:22Z</time>
      </trkpt>
      <trkpt lat="44.57276" lon="0.86706">
        <ele>211</ele>
        <time>2018-04-29T17:50:25Z</time>
      </trkpt>
      <trkpt lat="44.57271" lon="0.86719">
        <ele>211</ele>
        <time>2018-04-29T17:50:27Z</time>
      </trkpt>
      <trkpt lat="44.57268" lon="0.86726">
        <ele>211</ele>
        <time>2018-04-29T17:50:28Z</time>
      </trkpt>
      <trkpt lat="44.57255" lon="0.86756">
        <ele>211</ele>
        <time>2018-04-29T17:50:33Z</time>
      </trkpt>
      <trkpt lat="44.57252" lon="0.86762">
        <ele>211</ele>
        <time>2018-04-29T17:50:34Z</time>
      </trkpt>
      <trkpt lat="44.57247" lon="0.8678">
        <ele>211</ele>
        <time>2018-04-29T17:50:37Z</time>
      </trkpt>
      <trkpt lat="44.57244" lon="0.86791">
        <ele>211</ele>
        <time>2018-04-29T17:50:39Z</time>
      </trkpt>
      <trkpt lat="44.5724" lon="0.8681">
        <ele>211</ele>
        <time>2018-04-29T17:50:42Z</time>
      </trkpt>
      <trkpt lat="44.57236" lon="0.86823">
        <ele>211</ele>
        <time>2018-04-29T17:50:44Z</time>
      </trkpt>
      <trkpt lat="44.57224" lon="0.86867">
        <ele>211</ele>
        <time>2018-04-29T17:50:51Z</time>
      </trkpt>
      <trkpt lat="44.57216" lon="0.86886">
        <ele>211</ele>
        <time>2018-04-29T17:50:55Z</time>
      </trkpt>
      <trkpt lat="44.57214" lon="0.86895">
        <ele>211</ele>
        <time>2018-04-29T17:50:57Z</time>
      </trkpt>
      <trkpt lat="44.57213" lon="0.86899">
        <ele>211</ele>
        <time>2018-04-29T17:50:59Z</time>
      </trkpt>
      <trkpt lat="44.57211" lon="0.86899">
        <ele>211</ele>
        <time>2018-04-29T17:51:01Z</time>
      </trkpt>
      <trkpt lat="44.57212" lon="0.869">
        <ele>211</ele>
        <time>2018-04-29T17:51:04Z</time>
      </trkpt>
      <trkpt lat="44.57211" lon="0.86903">
        <ele>211</ele>
        <time>2018-04-29T17:51:05Z</time>
      </trkpt>
      <trkpt lat="44.57207" lon="0.86911">
        <ele>211</ele>
        <time>2018-04-29T17:51:08Z</time>
      </trkpt>
      <trkpt lat="44.57205" lon="0.86914">
        <ele>211</ele>
        <time>2018-04-29T17:51:09Z</time>
      </trkpt>
      <trkpt lat="44.57202" lon="0.86918">
        <ele>211</ele>
        <time>2018-04-29T17:51:10Z</time>
      </trkpt>
      <trkpt lat="44.57191" lon="0.86935">
        <ele>211</ele>
        <time>2018-04-29T17:51:14Z</time>
      </trkpt>
      <trkpt lat="44.5719" lon="0.86941">
        <ele>211</ele>
        <time>2018-04-29T17:51:15Z</time>
      </trkpt>
      <trkpt lat="44.57186" lon="0.86953">
        <ele>211</ele>
        <time>2018-04-29T17:51:18Z</time>
      </trkpt>
      <trkpt lat="44.57182" lon="0.8697">
        <ele>211</ele>
        <time>2018-04-29T17:51:23Z</time>
      </trkpt>
      <trkpt lat="44.57181" lon="0.86976">
        <ele>211</ele>
        <time>2018-04-29T17:51:27Z</time>
      </trkpt>
      <trkpt lat="44.5718" lon="0.86977">
        <ele>211</ele>
        <time>2018-04-29T17:51:31Z</time>
      </trkpt>
      <trkpt lat="44.57178" lon="0.86981">
        <ele>211</ele>
        <time>2018-04-29T17:52:01Z</time>
      </trkpt>
      <trkpt lat="44.57172" lon="0.86987">
        <ele>211</ele>
        <time>2018-04-29T17:52:04Z</time>
      </trkpt>
      <trkpt lat="44.57168" lon="0.86989">
        <ele>211</ele>
        <time>2018-04-29T17:52:06Z</time>
      </trkpt>
      <trkpt lat="44.57158" lon="0.86999">
        <ele>211</ele>
        <time>2018-04-29T17:52:10Z</time>
      </trkpt>
      <trkpt lat="44.57153" lon="0.87005">
        <ele>211</ele>
        <time>2018-04-29T17:52:12Z</time>
      </trkpt>
      <trkpt lat="44.57144" lon="0.87018">
        <ele>211</ele>
        <time>2018-04-29T17:52:15Z</time>
      </trkpt>
      <trkpt lat="44.57125" lon="0.87041">
        <ele>211</ele>
        <time>2018-04-29T17:52:21Z</time>
      </trkpt>
      <trkpt lat="44.57116" lon="0.87053">
        <ele>211</ele>
        <time>2018-04-29T17:52:24Z</time>
      </trkpt>
      <trkpt lat="44.57114" lon="0.87057">
        <ele>211</ele>
        <time>2018-04-29T17:52:25Z</time>
      </trkpt>
      <trkpt lat="44.57099" lon="0.87073">
        <ele>211</ele>
        <time>2018-04-29T17:52:29Z</time>
      </trkpt>
      <trkpt lat="44.57092" lon="0.87081">
        <ele>211</ele>
        <time>2018-04-29T17:52:31Z</time>
      </trkpt>
      <trkpt lat="44.57079" lon="0.87089">
        <ele>211</ele>
        <time>2018-04-29T17:52:34Z</time>
      </trkpt>
      <trkpt lat="44.5707" lon="0.87095">
        <ele>211</ele>
        <time>2018-04-29T17:52:36Z</time>
      </trkpt>
      <trkpt lat="44.57061" lon="0.871">
        <ele>211</ele>
        <time>2018-04-29T17:52:38Z</time>
      </trkpt>
      <trkpt lat="44.57053" lon="0.87106">
        <ele>211</ele>
        <time>2018-04-29T17:52:40Z</time>
      </trkpt>
      <trkpt lat="44.57049" lon="0.87107">
        <ele>211</ele>
        <time>2018-04-29T17:52:41Z</time>
      </trkpt>
      <trkpt lat="44.57038" lon="0.87114">
        <ele>211</ele>
        <time>2018-04-29T17:52:44Z</time>
      </trkpt>
      <trkpt lat="44.57025" lon="0.87122">
        <ele>211</ele>
        <time>2018-04-29T17:52:47Z</time>
      </trkpt>
      <trkpt lat="44.56986" lon="0.87138">
        <ele>211</ele>
        <time>2018-04-29T17:52:55Z</time>
      </trkpt>
      <trkpt lat="44.56955" lon="0.87145">
        <ele>211</ele>
        <time>2018-04-29T17:53:01Z</time>
      </trkpt>
      <trkpt lat="44.56936" lon="0.87148">
        <ele>211</ele>
        <time>2018-04-29T17:53:04Z</time>
      </trkpt>
      <trkpt lat="44.5693" lon="0.87149">
        <ele>211.4</ele>
        <time>2018-04-29T17:53:05Z</time>
      </trkpt>
      <trkpt lat="44.56924" lon="0.8715">
        <ele>211.8</ele>
        <time>2018-04-29T17:53:06Z</time>
      </trkpt>
      <trkpt lat="44.56918" lon="0.87151">
        <ele>212.2</ele>
        <time>2018-04-29T17:53:07Z</time>
      </trkpt>
      <trkpt lat="44.56911" lon="0.87153">
        <ele>212.6</ele>
        <time>2018-04-29T17:53:08Z</time>
      </trkpt>
      <trkpt lat="44.56905" lon="0.87154">
        <ele>213</ele>
        <time>2018-04-29T17:53:09Z</time>
      </trkpt>
      <trkpt lat="44.56871" lon="0.8716">
        <ele>213</ele>
        <time>2018-04-29T17:53:14Z</time>
      </trkpt>
      <trkpt lat="44.56864" lon="0.87161">
        <ele>213</ele>
        <time>2018-04-29T17:53:15Z</time>
      </trkpt>
      <trkpt lat="44.56835" lon="0.87161">
        <ele>213</ele>
        <time>2018-04-29T17:53:19Z</time>
      </trkpt>
      <trkpt lat="44.56827" lon="0.87162">
        <ele>213</ele>
        <time>2018-04-29T17:53:20Z</time>
      </trkpt>
      <trkpt lat="44.56806" lon="0.8717">
        <ele>213</ele>
        <time>2018-04-29T17:53:23Z</time>
      </trkpt>
      <trkpt lat="44.56792" lon="0.87174">
        <ele>213</ele>
        <time>2018-04-29T17:53:25Z</time>
      </trkpt>
      <trkpt lat="44.5677" lon="0.87179">
        <ele>213</ele>
        <time>2018-04-29T17:53:28Z</time>
      </trkpt>
      <trkpt lat="44.56743" lon="0.87185">
        <ele>213</ele>
        <time>2018-04-29T17:53:32Z</time>
      </trkpt>
      <trkpt lat="44.56702" lon="0.87194">
        <ele>213</ele>
        <time>2018-04-29T17:53:38Z</time>
      </trkpt>
      <trkpt lat="44.56679" lon="0.87198">
        <ele>213.4</ele>
        <time>2018-04-29T17:53:42Z</time>
      </trkpt>
      <trkpt lat="44.56674" lon="0.87199">
        <ele>214</ele>
        <time>2018-04-29T17:53:43Z</time>
      </trkpt>
      <trkpt lat="44.56669" lon="0.87201">
        <ele>214.4</ele>
        <time>2018-04-29T17:53:44Z</time>
      </trkpt>
      <trkpt lat="44.56663" lon="0.87203">
        <ele>214.8</ele>
        <time>2018-04-29T17:53:45Z</time>
      </trkpt>
      <trkpt lat="44.56656" lon="0.87205">
        <ele>215.2</ele>
        <time>2018-04-29T17:53:46Z</time>
      </trkpt>
      <trkpt lat="44.56642" lon="0.87209">
        <ele>214.8</ele>
        <time>2018-04-29T17:53:48Z</time>
      </trkpt>
      <trkpt lat="44.56636" lon="0.87211">
        <ele>214.2</ele>
        <time>2018-04-29T17:53:49Z</time>
      </trkpt>
      <trkpt lat="44.56628" lon="0.87212">
        <ele>213.6</ele>
        <time>2018-04-29T17:53:50Z</time>
      </trkpt>
      <trkpt lat="44.5662" lon="0.87212">
        <ele>213</ele>
        <time>2018-04-29T17:53:51Z</time>
      </trkpt>
      <trkpt lat="44.56612" lon="0.87211">
        <ele>212.6</ele>
        <time>2018-04-29T17:53:52Z</time>
      </trkpt>
      <trkpt lat="44.56604" lon="0.87211">
        <ele>212.6</ele>
        <time>2018-04-29T17:53:53Z</time>
      </trkpt>
      <trkpt lat="44.56596" lon="0.87211">
        <ele>212</ele>
        <time>2018-04-29T17:53:54Z</time>
      </trkpt>
      <trkpt lat="44.56588" lon="0.87213">
        <ele>211.6</ele>
        <time>2018-04-29T17:53:55Z</time>
      </trkpt>
      <trkpt lat="44.5658" lon="0.87213">
        <ele>211</ele>
        <time>2018-04-29T17:53:56Z</time>
      </trkpt>
      <trkpt lat="44.56572" lon="0.87213">
        <ele>210.4</ele>
        <time>2018-04-29T17:53:57Z</time>
      </trkpt>
      <trkpt lat="44.56563" lon="0.87214">
        <ele>210</ele>
        <time>2018-04-29T17:53:58Z</time>
      </trkpt>
      <trkpt lat="44.5653" lon="0.87216">
        <ele>209.6</ele>
        <time>2018-04-29T17:54:02Z</time>
      </trkpt>
      <trkpt lat="44.56522" lon="0.87216">
        <ele>209.2</ele>
        <time>2018-04-29T17:54:03Z</time>
      </trkpt>
      <trkpt lat="44.56514" lon="0.87217">
        <ele>208.8</ele>
        <time>2018-04-29T17:54:04Z</time>
      </trkpt>
      <trkpt lat="44.56506" lon="0.87217">
        <ele>208.4</ele>
        <time>2018-04-29T17:54:05Z</time>
      </trkpt>
      <trkpt lat="44.56497" lon="0.87217">
        <ele>208</ele>
        <time>2018-04-29T17:54:06Z</time>
      </trkpt>
      <trkpt lat="44.56469" lon="0.87216">
        <ele>208</ele>
        <time>2018-04-29T17:54:10Z</time>
      </trkpt>
      <trkpt lat="44.56438" lon="0.87217">
        <ele>208</ele>
        <time>2018-04-29T17:54:14Z</time>
      </trkpt>
      <trkpt lat="44.56431" lon="0.87215">
        <ele>208</ele>
        <time>2018-04-29T17:54:15Z</time>
      </trkpt>
      <trkpt lat="44.56411" lon="0.87217">
        <ele>208</ele>
        <time>2018-04-29T17:54:18Z</time>
      </trkpt>
      <trkpt lat="44.56405" lon="0.87218">
        <ele>208.4</ele>
        <time>2018-04-29T17:54:19Z</time>
      </trkpt>
      <trkpt lat="44.56399" lon="0.8722">
        <ele>208.8</ele>
        <time>2018-04-29T17:54:20Z</time>
      </trkpt>
      <trkpt lat="44.56391" lon="0.87222">
        <ele>209.2</ele>
        <time>2018-04-29T17:54:21Z</time>
      </trkpt>
      <trkpt lat="44.56385" lon="0.87224">
        <ele>209.6</ele>
        <time>2018-04-29T17:54:22Z</time>
      </trkpt>
      <trkpt lat="44.56377" lon="0.87227">
        <ele>210</ele>
        <time>2018-04-29T17:54:23Z</time>
      </trkpt>
      <trkpt lat="44.56348" lon="0.8724">
        <ele>209.6</ele>
        <time>2018-04-29T17:54:27Z</time>
      </trkpt>
      <trkpt lat="44.56341" lon="0.87245">
        <ele>209.2</ele>
        <time>2018-04-29T17:54:28Z</time>
      </trkpt>
      <trkpt lat="44.56333" lon="0.8725">
        <ele>208.8</ele>
        <time>2018-04-29T17:54:29Z</time>
      </trkpt>
      <trkpt lat="44.56326" lon="0.87254">
        <ele>208.4</ele>
        <time>2018-04-29T17:54:30Z</time>
      </trkpt>
      <trkpt lat="44.56318" lon="0.87259">
        <ele>207.2</ele>
        <time>2018-04-29T17:54:31Z</time>
      </trkpt>
      <trkpt lat="44.5631" lon="0.87263">
        <ele>206.8</ele>
        <time>2018-04-29T17:54:32Z</time>
      </trkpt>
      <trkpt lat="44.56301" lon="0.87267">
        <ele>206.2</ele>
        <time>2018-04-29T17:54:33Z</time>
      </trkpt>
      <trkpt lat="44.56294" lon="0.87271">
        <ele>205.6</ele>
        <time>2018-04-29T17:54:34Z</time>
      </trkpt>
      <trkpt lat="44.56286" lon="0.87273">
        <ele>205.6</ele>
        <time>2018-04-29T17:54:35Z</time>
      </trkpt>
      <trkpt lat="44.56263" lon="0.87277">
        <ele>205.6</ele>
        <time>2018-04-29T17:54:38Z</time>
      </trkpt>
      <trkpt lat="44.56231" lon="0.87281">
        <ele>205.6</ele>
        <time>2018-04-29T17:54:43Z</time>
      </trkpt>
      <trkpt lat="44.56225" lon="0.87282">
        <ele>205.6</ele>
        <time>2018-04-29T17:54:44Z</time>
      </trkpt>
      <trkpt lat="44.5621" lon="0.87283">
        <ele>205.6</ele>
        <time>2018-04-29T17:54:47Z</time>
      </trkpt>
      <trkpt lat="44.56204" lon="0.87283">
        <ele>205.2</ele>
        <time>2018-04-29T17:54:49Z</time>
      </trkpt>
      <trkpt lat="44.56201" lon="0.87282">
        <ele>204.8</ele>
        <time>2018-04-29T17:54:50Z</time>
      </trkpt>
      <trkpt lat="44.56198" lon="0.87282">
        <ele>204.4</ele>
        <time>2018-04-29T17:54:51Z</time>
      </trkpt>
      <trkpt lat="44.56196" lon="0.87281">
        <ele>204</ele>
        <time>2018-04-29T17:54:52Z</time>
      </trkpt>
      <trkpt lat="44.56194" lon="0.8728">
        <ele>203.6</ele>
        <time>2018-04-29T17:54:53Z</time>
      </trkpt>
      <trkpt lat="44.5619" lon="0.8728">
        <ele>203.6</ele>
        <time>2018-04-29T17:54:55Z</time>
      </trkpt>
      <trkpt lat="44.56187" lon="0.87279">
        <ele>203.6</ele>
        <time>2018-04-29T17:54:57Z</time>
      </trkpt>
      <trkpt lat="44.56183" lon="0.87278">
        <ele>203.6</ele>
        <time>2018-04-29T17:54:59Z</time>
      </trkpt>
      <trkpt lat="44.56179" lon="0.87277">
        <ele>203.6</ele>
        <time>2018-04-29T17:55:01Z</time>
      </trkpt>
      <trkpt lat="44.5617" lon="0.87277">
        <ele>203.6</ele>
        <time>2018-04-29T17:55:05Z</time>
      </trkpt>
      <trkpt lat="44.56163" lon="0.87276">
        <ele>203.6</ele>
        <time>2018-04-29T17:55:08Z</time>
      </trkpt>
      <trkpt lat="44.56152" lon="0.87273">
        <ele>203.6</ele>
        <time>2018-04-29T17:55:12Z</time>
      </trkpt>
      <trkpt lat="44.56147" lon="0.87272">
        <ele>203.6</ele>
        <time>2018-04-29T17:55:14Z</time>
      </trkpt>
      <trkpt lat="44.56142" lon="0.8727">
        <ele>203.6</ele>
        <time>2018-04-29T17:55:15Z</time>
      </trkpt>
      <trkpt lat="44.56136" lon="0.87269">
        <ele>203.6</ele>
        <time>2018-04-29T17:55:16Z</time>
      </trkpt>
      <trkpt lat="44.56131" lon="0.87268">
        <ele>203.6</ele>
        <time>2018-04-29T17:55:17Z</time>
      </trkpt>
      <trkpt lat="44.56118" lon="0.87266">
        <ele>203.6</ele>
        <time>2018-04-29T17:55:19Z</time>
      </trkpt>
      <trkpt lat="44.56104" lon="0.87264">
        <ele>203.6</ele>
        <time>2018-04-29T17:55:21Z</time>
      </trkpt>
      <trkpt lat="44.56097" lon="0.87263">
        <ele>203.6</ele>
        <time>2018-04-29T17:55:22Z</time>
      </trkpt>
      <trkpt lat="44.56082" lon="0.87264">
        <ele>203.2</ele>
        <time>2018-04-29T17:55:24Z</time>
      </trkpt>
      <trkpt lat="44.56074" lon="0.87264">
        <ele>202.8</ele>
        <time>2018-04-29T17:55:25Z</time>
      </trkpt>
      <trkpt lat="44.56067" lon="0.87264">
        <ele>202.4</ele>
        <time>2018-04-29T17:55:26Z</time>
      </trkpt>
      <trkpt lat="44.56058" lon="0.87264">
        <ele>201.8</ele>
        <time>2018-04-29T17:55:27Z</time>
      </trkpt>
      <trkpt lat="44.5605" lon="0.87265">
        <ele>201.4</ele>
        <time>2018-04-29T17:55:28Z</time>
      </trkpt>
      <trkpt lat="44.56033" lon="0.87264">
        <ele>201</ele>
        <time>2018-04-29T17:55:30Z</time>
      </trkpt>
      <trkpt lat="44.56023" lon="0.87265">
        <ele>200.4</ele>
        <time>2018-04-29T17:55:31Z</time>
      </trkpt>
      <trkpt lat="44.56014" lon="0.87265">
        <ele>200</ele>
        <time>2018-04-29T17:55:32Z</time>
      </trkpt>
      <trkpt lat="44.56005" lon="0.87265">
        <ele>199.6</ele>
        <time>2018-04-29T17:55:33Z</time>
      </trkpt>
      <trkpt lat="44.55995" lon="0.87265">
        <ele>199</ele>
        <time>2018-04-29T17:55:34Z</time>
      </trkpt>
      <trkpt lat="44.55985" lon="0.87264">
        <ele>198.4</ele>
        <time>2018-04-29T17:55:35Z</time>
      </trkpt>
      <trkpt lat="44.55975" lon="0.87265">
        <ele>198</ele>
        <time>2018-04-29T17:55:36Z</time>
      </trkpt>
      <trkpt lat="44.55964" lon="0.87265">
        <ele>197.4</ele>
        <time>2018-04-29T17:55:37Z</time>
      </trkpt>
      <trkpt lat="44.55953" lon="0.87265">
        <ele>196.8</ele>
        <time>2018-04-29T17:55:38Z</time>
      </trkpt>
      <trkpt lat="44.55941" lon="0.87265">
        <ele>196</ele>
        <time>2018-04-29T17:55:39Z</time>
      </trkpt>
      <trkpt lat="44.55929" lon="0.87266">
        <ele>195.2</ele>
        <time>2018-04-29T17:55:40Z</time>
      </trkpt>
      <trkpt lat="44.55917" lon="0.87267">
        <ele>194.2</ele>
        <time>2018-04-29T17:55:41Z</time>
      </trkpt>
      <trkpt lat="44.55904" lon="0.87268">
        <ele>193.2</ele>
        <time>2018-04-29T17:55:42Z</time>
      </trkpt>
      <trkpt lat="44.55891" lon="0.8727">
        <ele>192.2</ele>
        <time>2018-04-29T17:55:43Z</time>
      </trkpt>
      <trkpt lat="44.55878" lon="0.87272">
        <ele>191.2</ele>
        <time>2018-04-29T17:55:44Z</time>
      </trkpt>
      <trkpt lat="44.55865" lon="0.87275">
        <ele>189</ele>
        <time>2018-04-29T17:55:45Z</time>
      </trkpt>
      <trkpt lat="44.55851" lon="0.87277">
        <ele>187.8</ele>
        <time>2018-04-29T17:55:46Z</time>
      </trkpt>
      <trkpt lat="44.55838" lon="0.87281">
        <ele>186.8</ele>
        <time>2018-04-29T17:55:47Z</time>
      </trkpt>
      <trkpt lat="44.55824" lon="0.87283">
        <ele>185.6</ele>
        <time>2018-04-29T17:55:48Z</time>
      </trkpt>
      <trkpt lat="44.55811" lon="0.87284">
        <ele>184.4</ele>
        <time>2018-04-29T17:55:49Z</time>
      </trkpt>
      <trkpt lat="44.55798" lon="0.87289">
        <ele>183.2</ele>
        <time>2018-04-29T17:55:50Z</time>
      </trkpt>
      <trkpt lat="44.55786" lon="0.87296">
        <ele>182.2</ele>
        <time>2018-04-29T17:55:51Z</time>
      </trkpt>
      <trkpt lat="44.55775" lon="0.87307">
        <ele>181</ele>
        <time>2018-04-29T17:55:52Z</time>
      </trkpt>
      <trkpt lat="44.55764" lon="0.87317">
        <ele>180</ele>
        <time>2018-04-29T17:55:53Z</time>
      </trkpt>
      <trkpt lat="44.55754" lon="0.87327">
        <ele>179</ele>
        <time>2018-04-29T17:55:54Z</time>
      </trkpt>
      <trkpt lat="44.55745" lon="0.87336">
        <ele>178</ele>
        <time>2018-04-29T17:55:55Z</time>
      </trkpt>
      <trkpt lat="44.55735" lon="0.87344">
        <ele>177</ele>
        <time>2018-04-29T17:55:56Z</time>
      </trkpt>
      <trkpt lat="44.55727" lon="0.87353">
        <ele>176.2</ele>
        <time>2018-04-29T17:55:57Z</time>
      </trkpt>
      <trkpt lat="44.55699" lon="0.87386">
        <ele>176.2</ele>
        <time>2018-04-29T17:56:01Z</time>
      </trkpt>
      <trkpt lat="44.55686" lon="0.87401">
        <ele>176.2</ele>
        <time>2018-04-29T17:56:03Z</time>
      </trkpt>
      <trkpt lat="44.5567" lon="0.87417">
        <ele>176.6</ele>
        <time>2018-04-29T17:56:06Z</time>
      </trkpt>
      <trkpt lat="44.55664" lon="0.87422">
        <ele>177</ele>
        <time>2018-04-29T17:56:07Z</time>
      </trkpt>
      <trkpt lat="44.5566" lon="0.87425">
        <ele>177.4</ele>
        <time>2018-04-29T17:56:08Z</time>
      </trkpt>
      <trkpt lat="44.55656" lon="0.87429">
        <ele>177.8</ele>
        <time>2018-04-29T17:56:09Z</time>
      </trkpt>
      <trkpt lat="44.55653" lon="0.87432">
        <ele>178.2</ele>
        <time>2018-04-29T17:56:10Z</time>
      </trkpt>
      <trkpt lat="44.5565" lon="0.87435">
        <ele>178.2</ele>
        <time>2018-04-29T17:56:11Z</time>
      </trkpt>
      <trkpt lat="44.55643" lon="0.87441">
        <ele>178.2</ele>
        <time>2018-04-29T17:56:14Z</time>
      </trkpt>
      <trkpt lat="44.55642" lon="0.87446">
        <ele>178.2</ele>
        <time>2018-04-29T17:56:18Z</time>
      </trkpt>
      <trkpt lat="44.55644" lon="0.87447">
        <ele>178.2</ele>
        <time>2018-04-29T17:57:00Z</time>
      </trkpt>
      <trkpt lat="44.55645" lon="0.87448">
        <ele>178.2</ele>
        <time>2018-04-29T17:57:01Z</time>
      </trkpt>
      <trkpt lat="44.55646" lon="0.8745">
        <ele>178.2</ele>
        <time>2018-04-29T17:57:02Z</time>
      </trkpt>
      <trkpt lat="44.55648" lon="0.87451">
        <ele>178.2</ele>
        <time>2018-04-29T17:57:03Z</time>
      </trkpt>
      <trkpt lat="44.55649" lon="0.87453">
        <ele>178.2</ele>
        <time>2018-04-29T17:57:04Z</time>
      </trkpt>
      <trkpt lat="44.55651" lon="0.87455">
        <ele>178.2</ele>
        <time>2018-04-29T17:57:05Z</time>
      </trkpt>
      <trkpt lat="44.55652" lon="0.87457">
        <ele>178.2</ele>
        <time>2018-04-29T17:57:06Z</time>
      </trkpt>
      <trkpt lat="44.55654" lon="0.87459">
        <ele>178.2</ele>
        <time>2018-04-29T17:57:07Z</time>
      </trkpt>
      <trkpt lat="44.55657" lon="0.87461">
        <ele>178.2</ele>
        <time>2018-04-29T17:57:08Z</time>
      </trkpt>
      <trkpt lat="44.55662" lon="0.87468">
        <ele>178.2</ele>
        <time>2018-04-29T17:57:10Z</time>
      </trkpt>
      <trkpt lat="44.55665" lon="0.87471">
        <ele>178.2</ele>
        <time>2018-04-29T17:57:12Z</time>
      </trkpt>
      <trkpt lat="44.55673" lon="0.87478">
        <ele>178.2</ele>
        <time>2018-04-29T17:57:16Z</time>
      </trkpt>
      <trkpt lat="44.55677" lon="0.87484">
        <ele>178.2</ele>
        <time>2018-04-29T17:57:18Z</time>
      </trkpt>
      <trkpt lat="44.55689" lon="0.87498">
        <ele>178.2</ele>
        <time>2018-04-29T17:57:22Z</time>
      </trkpt>
      <trkpt lat="44.55694" lon="0.87505">
        <ele>178.2</ele>
        <time>2018-04-29T17:57:24Z</time>
      </trkpt>
      <trkpt lat="44.55694" lon="0.8751">
        <ele>178.2</ele>
        <time>2018-04-29T17:57:25Z</time>
      </trkpt>
      <trkpt lat="44.55696" lon="0.87525">
        <ele>178.2</ele>
        <time>2018-04-29T17:57:27Z</time>
      </trkpt>
      <trkpt lat="44.55696" lon="0.87541">
        <ele>177.8</ele>
        <time>2018-04-29T17:57:29Z</time>
      </trkpt>
      <trkpt lat="44.55696" lon="0.8755">
        <ele>177.4</ele>
        <time>2018-04-29T17:57:30Z</time>
      </trkpt>
      <trkpt lat="44.55695" lon="0.87561">
        <ele>177</ele>
        <time>2018-04-29T17:57:31Z</time>
      </trkpt>
      <trkpt lat="44.55695" lon="0.87572">
        <ele>176.4</ele>
        <time>2018-04-29T17:57:32Z</time>
      </trkpt>
      <trkpt lat="44.55693" lon="0.87581">
        <ele>176</ele>
        <time>2018-04-29T17:57:33Z</time>
      </trkpt>
      <trkpt lat="44.55689" lon="0.87599">
        <ele>176</ele>
        <time>2018-04-29T17:57:35Z</time>
      </trkpt>
      <trkpt lat="44.55685" lon="0.87615">
        <ele>176</ele>
        <time>2018-04-29T17:57:37Z</time>
      </trkpt>
      <trkpt lat="44.5568" lon="0.87627">
        <ele>176</ele>
        <time>2018-04-29T17:57:39Z</time>
      </trkpt>
      <trkpt lat="44.55678" lon="0.87643">
        <ele>176</ele>
        <time>2018-04-29T17:57:42Z</time>
      </trkpt>
      <trkpt lat="44.55677" lon="0.87648">
        <ele>176</ele>
        <time>2018-04-29T17:57:43Z</time>
      </trkpt>
      <trkpt lat="44.55673" lon="0.87665">
        <ele>176</ele>
        <time>2018-04-29T17:57:47Z</time>
      </trkpt>
      <trkpt lat="44.55674" lon="0.87669">
        <ele>176</ele>
        <time>2018-04-29T17:57:48Z</time>
      </trkpt>
      <trkpt lat="44.55677" lon="0.87675">
        <ele>176</ele>
        <time>2018-04-29T17:57:50Z</time>
      </trkpt>
      <trkpt lat="44.55682" lon="0.8768">
        <ele>176.4</ele>
        <time>2018-04-29T17:57:52Z</time>
      </trkpt>
      <trkpt lat="44.55685" lon="0.87682">
        <ele>176.8</ele>
        <time>2018-04-29T17:57:53Z</time>
      </trkpt>
      <trkpt lat="44.55686" lon="0.87684">
        <ele>177.2</ele>
        <time>2018-04-29T17:57:54Z</time>
      </trkpt>
      <trkpt lat="44.55688" lon="0.87688">
        <ele>177.8</ele>
        <time>2018-04-29T17:57:55Z</time>
      </trkpt>
      <trkpt lat="44.5569" lon="0.8769">
        <ele>178.2</ele>
        <time>2018-04-29T17:57:56Z</time>
      </trkpt>
      <trkpt lat="44.557" lon="0.87699">
        <ele>178.2</ele>
        <time>2018-04-29T17:58:00Z</time>
      </trkpt>
      <trkpt lat="44.55715" lon="0.87714">
        <ele>178.2</ele>
        <time>2018-04-29T17:58:06Z</time>
      </trkpt>
      <trkpt lat="44.55735" lon="0.87741">
        <ele>178.2</ele>
        <time>2018-04-29T17:58:12Z</time>
      </trkpt>
      <trkpt lat="44.55748" lon="0.87755">
        <ele>178.6</ele>
        <time>2018-04-29T17:58:16Z</time>
      </trkpt>
      <trkpt lat="44.5575" lon="0.87757">
        <ele>179</ele>
        <time>2018-04-29T17:58:17Z</time>
      </trkpt>
      <trkpt lat="44.55752" lon="0.8776">
        <ele>179.4</ele>
        <time>2018-04-29T17:58:18Z</time>
      </trkpt>
      <trkpt lat="44.55755" lon="0.87762">
        <ele>179.8</ele>
        <time>2018-04-29T17:58:19Z</time>
      </trkpt>
      <trkpt lat="44.55757" lon="0.87764">
        <ele>180.2</ele>
        <time>2018-04-29T17:58:20Z</time>
      </trkpt>
      <trkpt lat="44.55763" lon="0.8777">
        <ele>180.2</ele>
        <time>2018-04-29T17:58:23Z</time>
      </trkpt>
      <trkpt lat="44.55774" lon="0.87779">
        <ele>180.2</ele>
        <time>2018-04-29T17:58:28Z</time>
      </trkpt>
      <trkpt lat="44.55775" lon="0.8778">
        <ele>180.6</ele>
        <time>2018-04-29T17:58:29Z</time>
      </trkpt>
      <trkpt lat="44.55777" lon="0.87781">
        <ele>181</ele>
        <time>2018-04-29T17:58:30Z</time>
      </trkpt>
      <trkpt lat="44.55779" lon="0.87783">
        <ele>181.4</ele>
        <time>2018-04-29T17:58:31Z</time>
      </trkpt>
      <trkpt lat="44.5578" lon="0.87784">
        <ele>181.8</ele>
        <time>2018-04-29T17:58:32Z</time>
      </trkpt>
      <trkpt lat="44.55782" lon="0.87786">
        <ele>182.2</ele>
        <time>2018-04-29T17:58:33Z</time>
      </trkpt>
      <trkpt lat="44.55786" lon="0.87789">
        <ele>182.2</ele>
        <time>2018-04-29T17:58:35Z</time>
      </trkpt>
      <trkpt lat="44.55793" lon="0.87795">
        <ele>182.6</ele>
        <time>2018-04-29T17:58:39Z</time>
      </trkpt>
      <trkpt lat="44.55794" lon="0.87796">
        <ele>183</ele>
        <time>2018-04-29T17:58:40Z</time>
      </trkpt>
      <trkpt lat="44.55796" lon="0.87797">
        <ele>183.4</ele>
        <time>2018-04-29T17:58:41Z</time>
      </trkpt>
      <trkpt lat="44.55797" lon="0.87799">
        <ele>183.8</ele>
        <time>2018-04-29T17:58:42Z</time>
      </trkpt>
      <trkpt lat="44.55798" lon="0.87801">
        <ele>184.2</ele>
        <time>2018-04-29T17:58:43Z</time>
      </trkpt>
      <trkpt lat="44.558" lon="0.87805">
        <ele>184.2</ele>
        <time>2018-04-29T17:58:45Z</time>
      </trkpt>
      <trkpt lat="44.55802" lon="0.87807">
        <ele>184.2</ele>
        <time>2018-04-29T17:58:46Z</time>
      </trkpt>
      <trkpt lat="44.55809" lon="0.87819">
        <ele>184.2</ele>
        <time>2018-04-29T17:58:51Z</time>
      </trkpt>
      <trkpt lat="44.55812" lon="0.87822">
        <ele>184.6</ele>
        <time>2018-04-29T17:58:53Z</time>
      </trkpt>
      <trkpt lat="44.55813" lon="0.87823">
        <ele>185.2</ele>
        <time>2018-04-29T17:58:54Z</time>
      </trkpt>
      <trkpt lat="44.55814" lon="0.87826">
        <ele>185.6</ele>
        <time>2018-04-29T17:58:55Z</time>
      </trkpt>
      <trkpt lat="44.55816" lon="0.87829">
        <ele>186</ele>
        <time>2018-04-29T17:58:56Z</time>
      </trkpt>
      <trkpt lat="44.55817" lon="0.87832">
        <ele>186.4</ele>
        <time>2018-04-29T17:58:57Z</time>
      </trkpt>
      <trkpt lat="44.55825" lon="0.87849">
        <ele>186.4</ele>
        <time>2018-04-29T17:59:01Z</time>
      </trkpt>
      <trkpt lat="44.55829" lon="0.87858">
        <ele>185.8</ele>
        <time>2018-04-29T17:59:03Z</time>
      </trkpt>
      <trkpt lat="44.55832" lon="0.87863">
        <ele>185.4</ele>
        <time>2018-04-29T17:59:04Z</time>
      </trkpt>
      <trkpt lat="44.55834" lon="0.87868">
        <ele>184.8</ele>
        <time>2018-04-29T17:59:05Z</time>
      </trkpt>
      <trkpt lat="44.55837" lon="0.87872">
        <ele>184</ele>
        <time>2018-04-29T17:59:06Z</time>
      </trkpt>
      <trkpt lat="44.55841" lon="0.87875">
        <ele>183</ele>
        <time>2018-04-29T17:59:07Z</time>
      </trkpt>
      <trkpt lat="44.55843" lon="0.8788">
        <ele>182.2</ele>
        <time>2018-04-29T17:59:08Z</time>
      </trkpt>
      <trkpt lat="44.55844" lon="0.87886">
        <ele>181</ele>
        <time>2018-04-29T17:59:09Z</time>
      </trkpt>
      <trkpt lat="44.55845" lon="0.87894">
        <ele>179.8</ele>
        <time>2018-04-29T17:59:10Z</time>
      </trkpt>
      <trkpt lat="44.55846" lon="0.87904">
        <ele>178.6</ele>
        <time>2018-04-29T17:59:11Z</time>
      </trkpt>
      <trkpt lat="44.55846" lon="0.87913">
        <ele>177.4</ele>
        <time>2018-04-29T17:59:12Z</time>
      </trkpt>
      <trkpt lat="44.55846" lon="0.87922">
        <ele>176</ele>
        <time>2018-04-29T17:59:13Z</time>
      </trkpt>
      <trkpt lat="44.55847" lon="0.87933">
        <ele>174.8</ele>
        <time>2018-04-29T17:59:14Z</time>
      </trkpt>
      <trkpt lat="44.55848" lon="0.87944">
        <ele>173.4</ele>
        <time>2018-04-29T17:59:15Z</time>
      </trkpt>
      <trkpt lat="44.55848" lon="0.87954">
        <ele>172.2</ele>
        <time>2018-04-29T17:59:16Z</time>
      </trkpt>
      <trkpt lat="44.55847" lon="0.87964">
        <ele>171</ele>
        <time>2018-04-29T17:59:17Z</time>
      </trkpt>
      <trkpt lat="44.55847" lon="0.87974">
        <ele>169.8</ele>
        <time>2018-04-29T17:59:18Z</time>
      </trkpt>
      <trkpt lat="44.55847" lon="0.87982">
        <ele>168.6</ele>
        <time>2018-04-29T17:59:19Z</time>
      </trkpt>
      <trkpt lat="44.55846" lon="0.87989">
        <ele>167.6</ele>
        <time>2018-04-29T17:59:20Z</time>
      </trkpt>
      <trkpt lat="44.55846" lon="0.87997">
        <ele>166.6</ele>
        <time>2018-04-29T17:59:21Z</time>
      </trkpt>
      <trkpt lat="44.55844" lon="0.88002">
        <ele>165.6</ele>
        <time>2018-04-29T17:59:22Z</time>
      </trkpt>
      <trkpt lat="44.55842" lon="0.88008">
        <ele>164.6</ele>
        <time>2018-04-29T17:59:23Z</time>
      </trkpt>
      <trkpt lat="44.55841" lon="0.88014">
        <ele>163.8</ele>
        <time>2018-04-29T17:59:24Z</time>
      </trkpt>
      <trkpt lat="44.55838" lon="0.88021">
        <ele>162.8</ele>
        <time>2018-04-29T17:59:25Z</time>
      </trkpt>
      <trkpt lat="44.55836" lon="0.88028">
        <ele>162</ele>
        <time>2018-04-29T17:59:26Z</time>
      </trkpt>
      <trkpt lat="44.55835" lon="0.88036">
        <ele>160.4</ele>
        <time>2018-04-29T17:59:27Z</time>
      </trkpt>
      <trkpt lat="44.55834" lon="0.88044">
        <ele>159.6</ele>
        <time>2018-04-29T17:59:28Z</time>
      </trkpt>
      <trkpt lat="44.55832" lon="0.88051">
        <ele>158.8</ele>
        <time>2018-04-29T17:59:29Z</time>
      </trkpt>
      <trkpt lat="44.5583" lon="0.88058">
        <ele>158.8</ele>
        <time>2018-04-29T17:59:30Z</time>
      </trkpt>
      <trkpt lat="44.55825" lon="0.88069">
        <ele>158.8</ele>
        <time>2018-04-29T17:59:32Z</time>
      </trkpt>
      <trkpt lat="44.55811" lon="0.88092">
        <ele>158.8</ele>
        <time>2018-04-29T17:59:37Z</time>
      </trkpt>
      <trkpt lat="44.55798" lon="0.88116">
        <ele>158.8</ele>
        <time>2018-04-29T17:59:43Z</time>
      </trkpt>
      <trkpt lat="44.55787" lon="0.88136">
        <ele>158.8</ele>
        <time>2018-04-29T17:59:47Z</time>
      </trkpt>
      <trkpt lat="44.55784" lon="0.88142">
        <ele>158.8</ele>
        <time>2018-04-29T17:59:48Z</time>
      </trkpt>
      <trkpt lat="44.55774" lon="0.88173">
        <ele>158.8</ele>
        <time>2018-04-29T17:59:54Z</time>
      </trkpt>
      <trkpt lat="44.55768" lon="0.88192">
        <ele>159.2</ele>
        <time>2018-04-29T17:59:58Z</time>
      </trkpt>
      <trkpt lat="44.55766" lon="0.88197">
        <ele>159.6</ele>
        <time>2018-04-29T17:59:59Z</time>
      </trkpt>
      <trkpt lat="44.55764" lon="0.88201">
        <ele>160</ele>
        <time>2018-04-29T18:00:00Z</time>
      </trkpt>
      <trkpt lat="44.55763" lon="0.88206">
        <ele>160.4</ele>
        <time>2018-04-29T18:00:01Z</time>
      </trkpt>
      <trkpt lat="44.55761" lon="0.8821">
        <ele>161</ele>
        <time>2018-04-29T18:00:02Z</time>
      </trkpt>
      <trkpt lat="44.55758" lon="0.8822">
        <ele>161</ele>
        <time>2018-04-29T18:00:04Z</time>
      </trkpt>
      <trkpt lat="44.55746" lon="0.88255">
        <ele>161</ele>
        <time>2018-04-29T18:00:10Z</time>
      </trkpt>
      <trkpt lat="44.55744" lon="0.88262">
        <ele>161</ele>
        <time>2018-04-29T18:00:11Z</time>
      </trkpt>
      <trkpt lat="44.55737" lon="0.88286">
        <ele>160.4</ele>
        <time>2018-04-29T18:00:14Z</time>
      </trkpt>
      <trkpt lat="44.55735" lon="0.88294">
        <ele>160</ele>
        <time>2018-04-29T18:00:15Z</time>
      </trkpt>
      <trkpt lat="44.55732" lon="0.88303">
        <ele>159.4</ele>
        <time>2018-04-29T18:00:16Z</time>
      </trkpt>
      <trkpt lat="44.5573" lon="0.88311">
        <ele>158.2</ele>
        <time>2018-04-29T18:00:17Z</time>
      </trkpt>
      <trkpt lat="44.55728" lon="0.8832">
        <ele>157.6</ele>
        <time>2018-04-29T18:00:18Z</time>
      </trkpt>
      <trkpt lat="44.55725" lon="0.88328">
        <ele>156.8</ele>
        <time>2018-04-29T18:00:19Z</time>
      </trkpt>
      <trkpt lat="44.55721" lon="0.88336">
        <ele>156</ele>
        <time>2018-04-29T18:00:20Z</time>
      </trkpt>
      <trkpt lat="44.55717" lon="0.88342">
        <ele>155.2</ele>
        <time>2018-04-29T18:00:21Z</time>
      </trkpt>
      <trkpt lat="44.55713" lon="0.88349">
        <ele>154.4</ele>
        <time>2018-04-29T18:00:22Z</time>
      </trkpt>
      <trkpt lat="44.5571" lon="0.88354">
        <ele>153.4</ele>
        <time>2018-04-29T18:00:23Z</time>
      </trkpt>
      <trkpt lat="44.55706" lon="0.88357">
        <ele>152.6</ele>
        <time>2018-04-29T18:00:24Z</time>
      </trkpt>
      <trkpt lat="44.55701" lon="0.88361">
        <ele>151.8</ele>
        <time>2018-04-29T18:00:25Z</time>
      </trkpt>
      <trkpt lat="44.55697" lon="0.88364">
        <ele>150.8</ele>
        <time>2018-04-29T18:00:26Z</time>
      </trkpt>
      <trkpt lat="44.55693" lon="0.88369">
        <ele>150</ele>
        <time>2018-04-29T18:00:27Z</time>
      </trkpt>
      <trkpt lat="44.55689" lon="0.88374">
        <ele>149.4</ele>
        <time>2018-04-29T18:00:28Z</time>
      </trkpt>
      <trkpt lat="44.55685" lon="0.88378">
        <ele>148.8</ele>
        <time>2018-04-29T18:00:29Z</time>
      </trkpt>
      <trkpt lat="44.55681" lon="0.88383">
        <ele>148.2</ele>
        <time>2018-04-29T18:00:30Z</time>
      </trkpt>
      <trkpt lat="44.55677" lon="0.88387">
        <ele>147.6</ele>
        <time>2018-04-29T18:00:31Z</time>
      </trkpt>
      <trkpt lat="44.55675" lon="0.88392">
        <ele>147</ele>
        <time>2018-04-29T18:00:32Z</time>
      </trkpt>
      <trkpt lat="44.55672" lon="0.88396">
        <ele>146.2</ele>
        <time>2018-04-29T18:00:33Z</time>
      </trkpt>
      <trkpt lat="44.55671" lon="0.88399">
        <ele>145.6</ele>
        <time>2018-04-29T18:00:34Z</time>
      </trkpt>
      <trkpt lat="44.5567" lon="0.88402">
        <ele>144.8</ele>
        <time>2018-04-29T18:00:35Z</time>
      </trkpt>
      <trkpt lat="44.55669" lon="0.88406">
        <ele>144.4</ele>
        <time>2018-04-29T18:00:36Z</time>
      </trkpt>
      <trkpt lat="44.55669" lon="0.8841">
        <ele>143.8</ele>
        <time>2018-04-29T18:00:37Z</time>
      </trkpt>
      <trkpt lat="44.55669" lon="0.88414">
        <ele>143.4</ele>
        <time>2018-04-29T18:00:38Z</time>
      </trkpt>
      <trkpt lat="44.55671" lon="0.88417">
        <ele>143</ele>
        <time>2018-04-29T18:00:39Z</time>
      </trkpt>
      <trkpt lat="44.55673" lon="0.8842">
        <ele>142.4</ele>
        <time>2018-04-29T18:00:40Z</time>
      </trkpt>
      <trkpt lat="44.55676" lon="0.88422">
        <ele>142</ele>
        <time>2018-04-29T18:00:41Z</time>
      </trkpt>
      <trkpt lat="44.55678" lon="0.88424">
        <ele>141.6</ele>
        <time>2018-04-29T18:00:42Z</time>
      </trkpt>
      <trkpt lat="44.55679" lon="0.88425">
        <ele>141.2</ele>
        <time>2018-04-29T18:00:43Z</time>
      </trkpt>
      <trkpt lat="44.5568" lon="0.88426">
        <ele>140.8</ele>
        <time>2018-04-29T18:00:44Z</time>
      </trkpt>
      <trkpt lat="44.55681" lon="0.88427">
        <ele>140.4</ele>
        <time>2018-04-29T18:00:45Z</time>
      </trkpt>
      <trkpt lat="44.55685" lon="0.88427">
        <ele>140.4</ele>
        <time>2018-04-29T18:00:48Z</time>
      </trkpt>
      <trkpt lat="44.55688" lon="0.88426">
        <ele>140</ele>
        <time>2018-04-29T18:00:49Z</time>
      </trkpt>
      <trkpt lat="44.5569" lon="0.88425">
        <ele>139.6</ele>
        <time>2018-04-29T18:00:50Z</time>
      </trkpt>
      <trkpt lat="44.55693" lon="0.88424">
        <ele>139.2</ele>
        <time>2018-04-29T18:00:51Z</time>
      </trkpt>
      <trkpt lat="44.55696" lon="0.88425">
        <ele>138.6</ele>
        <time>2018-04-29T18:00:52Z</time>
      </trkpt>
      <trkpt lat="44.55698" lon="0.88424">
        <ele>138.2</ele>
        <time>2018-04-29T18:00:53Z</time>
      </trkpt>
      <trkpt lat="44.55701" lon="0.88421">
        <ele>137.8</ele>
        <time>2018-04-29T18:00:54Z</time>
      </trkpt>
      <trkpt lat="44.55704" lon="0.88418">
        <ele>137.4</ele>
        <time>2018-04-29T18:00:55Z</time>
      </trkpt>
      <trkpt lat="44.55707" lon="0.88415">
        <ele>137</ele>
        <time>2018-04-29T18:00:56Z</time>
      </trkpt>
      <trkpt lat="44.5571" lon="0.88413">
        <ele>136.6</ele>
        <time>2018-04-29T18:00:57Z</time>
      </trkpt>
      <trkpt lat="44.55712" lon="0.88411">
        <ele>136.2</ele>
        <time>2018-04-29T18:00:58Z</time>
      </trkpt>
      <trkpt lat="44.55716" lon="0.88409">
        <ele>136.2</ele>
        <time>2018-04-29T18:01:00Z</time>
      </trkpt>
      <trkpt lat="44.55717" lon="0.88408">
        <ele>135.8</ele>
        <time>2018-04-29T18:01:01Z</time>
      </trkpt>
      <trkpt lat="44.55719" lon="0.88407">
        <ele>135.4</ele>
        <time>2018-04-29T18:01:02Z</time>
      </trkpt>
      <trkpt lat="44.55722" lon="0.88405">
        <ele>135</ele>
        <time>2018-04-29T18:01:03Z</time>
      </trkpt>
      <trkpt lat="44.55725" lon="0.88402">
        <ele>134.6</ele>
        <time>2018-04-29T18:01:04Z</time>
      </trkpt>
      <trkpt lat="44.55728" lon="0.88399">
        <ele>134</ele>
        <time>2018-04-29T18:01:05Z</time>
      </trkpt>
      <trkpt lat="44.5573" lon="0.88397">
        <ele>133.6</ele>
        <time>2018-04-29T18:01:06Z</time>
      </trkpt>
      <trkpt lat="44.55733" lon="0.88395">
        <ele>133.2</ele>
        <time>2018-04-29T18:01:07Z</time>
      </trkpt>
      <trkpt lat="44.55735" lon="0.88393">
        <ele>132.6</ele>
        <time>2018-04-29T18:01:08Z</time>
      </trkpt>
      <trkpt lat="44.55737" lon="0.88391">
        <ele>132.2</ele>
        <time>2018-04-29T18:01:09Z</time>
      </trkpt>
      <trkpt lat="44.55738" lon="0.88389">
        <ele>131.6</ele>
        <time>2018-04-29T18:01:10Z</time>
      </trkpt>
      <trkpt lat="44.55739" lon="0.88387">
        <ele>131.2</ele>
        <time>2018-04-29T18:01:11Z</time>
      </trkpt>
      <trkpt lat="44.55741" lon="0.88384">
        <ele>130.6</ele>
        <time>2018-04-29T18:01:12Z</time>
      </trkpt>
      <trkpt lat="44.55743" lon="0.88381">
        <ele>130.2</ele>
        <time>2018-04-29T18:01:13Z</time>
      </trkpt>
      <trkpt lat="44.55745" lon="0.88377">
        <ele>129.6</ele>
        <time>2018-04-29T18:01:14Z</time>
      </trkpt>
      <trkpt lat="44.55747" lon="0.88375">
        <ele>129.2</ele>
        <time>2018-04-29T18:01:15Z</time>
      </trkpt>
      <trkpt lat="44.55749" lon="0.88373">
        <ele>128.8</ele>
        <time>2018-04-29T18:01:16Z</time>
      </trkpt>
      <trkpt lat="44.5575" lon="0.88371">
        <ele>128.4</ele>
        <time>2018-04-29T18:01:17Z</time>
      </trkpt>
      <trkpt lat="44.55753" lon="0.88368">
        <ele>128</ele>
        <time>2018-04-29T18:01:18Z</time>
      </trkpt>
      <trkpt lat="44.55755" lon="0.88366">
        <ele>127.6</ele>
        <time>2018-04-29T18:01:19Z</time>
      </trkpt>
      <trkpt lat="44.55762" lon="0.8836">
        <ele>127.6</ele>
        <time>2018-04-29T18:01:24Z</time>
      </trkpt>
      <trkpt lat="44.55764" lon="0.88364">
        <ele>127.2</ele>
        <time>2018-04-29T18:01:27Z</time>
      </trkpt>
      <trkpt lat="44.55765" lon="0.88365">
        <ele>126.6</ele>
        <time>2018-04-29T18:01:28Z</time>
      </trkpt>
      <trkpt lat="44.55766" lon="0.88366">
        <ele>126.2</ele>
        <time>2018-04-29T18:01:29Z</time>
      </trkpt>
      <trkpt lat="44.55766" lon="0.88369">
        <ele>125.8</ele>
        <time>2018-04-29T18:01:30Z</time>
      </trkpt>
      <trkpt lat="44.55767" lon="0.8837">
        <ele>125.4</ele>
        <time>2018-04-29T18:01:31Z</time>
      </trkpt>
      <trkpt lat="44.55767" lon="0.8837">
        <ele>125.4</ele>
        <time>2018-04-29T18:01:32Z</time>
      </trkpt>
      <trkpt lat="44.5577" lon="0.88368">
        <ele>125.4</ele>
        <time>2018-04-29T18:01:34Z</time>
      </trkpt>
      <trkpt lat="44.55777" lon="0.88362">
        <ele>125.4</ele>
        <time>2018-04-29T18:01:39Z</time>
      </trkpt>
      <trkpt lat="44.55775" lon="0.88355">
        <ele>125.4</ele>
        <time>2018-04-29T18:01:44Z</time>
      </trkpt>
      <trkpt lat="44.55774" lon="0.88354">
        <ele>125.4</ele>
        <time>2018-04-29T18:01:45Z</time>
      </trkpt>
      <trkpt lat="44.55773" lon="0.88353">
        <ele>125.4</ele>
        <time>2018-04-29T18:01:49Z</time>
      </trkpt>
      <trkpt lat="44.55777" lon="0.88359">
        <ele>126.4</ele>
        <time>2018-04-29T18:02:31Z</time>
      </trkpt>
      <trkpt lat="44.55776" lon="0.88359">
        <ele>126.2</ele>
        <time>2018-04-29T18:02:32Z</time>
      </trkpt>
      <trkpt lat="44.55776" lon="0.8836">
        <ele>125.8</ele>
        <time>2018-04-29T18:02:33Z</time>
      </trkpt>
      <trkpt lat="44.55777" lon="0.88362">
        <ele>125.8</ele>
        <time>2018-04-29T18:02:35Z</time>
      </trkpt>
      <trkpt lat="44.55779" lon="0.88356">
        <ele>125.8</ele>
        <time>2018-04-29T18:02:59Z</time>
      </trkpt>
      <trkpt lat="44.55781" lon="0.88355">
        <ele>125.8</ele>
        <time>2018-04-29T18:03:00Z</time>
      </trkpt>
      <trkpt lat="44.55785" lon="0.88359">
        <ele>125.8</ele>
        <time>2018-04-29T18:03:02Z</time>
      </trkpt>
      <trkpt lat="44.55788" lon="0.88364">
        <ele>125.8</ele>
        <time>2018-04-29T18:03:03Z</time>
      </trkpt>
      <trkpt lat="44.55795" lon="0.88376">
        <ele>125.8</ele>
        <time>2018-04-29T18:03:05Z</time>
      </trkpt>
      <trkpt lat="44.55798" lon="0.88372">
        <ele>125.8</ele>
        <time>2018-04-29T18:03:06Z</time>
      </trkpt>
      <trkpt lat="44.55815" lon="0.88369">
        <ele>125.8</ele>
        <time>2018-04-29T18:03:09Z</time>
      </trkpt>
      <trkpt lat="44.55817" lon="0.88369">
        <ele>126.4</ele>
        <time>2018-04-29T18:03:10Z</time>
      </trkpt>
      <trkpt lat="44.55818" lon="0.88369">
        <ele>127</ele>
        <time>2018-04-29T18:03:11Z</time>
      </trkpt>
      <trkpt lat="44.55819" lon="0.88369">
        <ele>127.6</ele>
        <time>2018-04-29T18:03:12Z</time>
      </trkpt>
      <trkpt lat="44.55819" lon="0.8837">
        <ele>128</ele>
        <time>2018-04-29T18:03:13Z</time>
      </trkpt>
      <trkpt lat="44.5582" lon="0.88372">
        <ele>128.6</ele>
        <time>2018-04-29T18:03:14Z</time>
      </trkpt>
      <trkpt lat="44.5582" lon="0.88374">
        <ele>128.6</ele>
        <time>2018-04-29T18:03:16Z</time>
      </trkpt>
      <trkpt lat="44.5582" lon="0.88374">
        <ele>128.6</ele>
        <time>2018-04-29T18:03:17Z</time>
      </trkpt>
      <trkpt lat="44.55822" lon="0.88379">
        <ele>128.6</ele>
        <time>2018-04-29T18:03:20Z</time>
      </trkpt>
      <trkpt lat="44.55823" lon="0.88381">
        <ele>128.6</ele>
        <time>2018-04-29T18:03:21Z</time>
      </trkpt>
      <trkpt lat="44.55822" lon="0.88383">
        <ele>128.6</ele>
        <time>2018-04-29T18:03:22Z</time>
      </trkpt>
      <trkpt lat="44.55824" lon="0.8838">
        <ele>128.6</ele>
        <time>2018-04-29T18:03:25Z</time>
      </trkpt>
      <trkpt lat="44.55826" lon="0.88376">
        <ele>128.6</ele>
        <time>2018-04-29T18:03:28Z</time>
      </trkpt>
      <trkpt lat="44.55826" lon="0.88375">
        <ele>128.6</ele>
        <time>2018-04-29T18:03:29Z</time>
      </trkpt>
      <trkpt lat="44.55827" lon="0.88373">
        <ele>128.6</ele>
        <time>2018-04-29T18:03:31Z</time>
      </trkpt>
      <trkpt lat="44.55829" lon="0.88372">
        <ele>128.6</ele>
        <time>2018-04-29T18:03:34Z</time>
      </trkpt>
      <trkpt lat="44.55832" lon="0.8837">
        <ele>128.6</ele>
        <time>2018-04-29T18:03:37Z</time>
      </trkpt>
      <trkpt lat="44.55836" lon="0.88366">
        <ele>128.6</ele>
        <time>2018-04-29T18:03:42Z</time>
      </trkpt>
      <trkpt lat="44.55837" lon="0.88365">
        <ele>128.6</ele>
        <time>2018-04-29T18:03:43Z</time>
      </trkpt>
      <trkpt lat="44.5584" lon="0.88363">
        <ele>128.6</ele>
        <time>2018-04-29T18:03:46Z</time>
      </trkpt>
      <trkpt lat="44.55841" lon="0.88361">
        <ele>128.6</ele>
        <time>2018-04-29T18:03:48Z</time>
      </trkpt>
      <trkpt lat="44.55841" lon="0.88362">
        <ele>128.6</ele>
        <time>2018-04-29T18:04:32Z</time>
      </trkpt>
      <trkpt lat="44.55843" lon="0.88361">
        <ele>128.6</ele>
        <time>2018-04-29T18:04:33Z</time>
      </trkpt>
      <trkpt lat="44.55847" lon="0.8836">
        <ele>128.6</ele>
        <time>2018-04-29T18:04:35Z</time>
      </trkpt>
      <trkpt lat="44.55854" lon="0.8836">
        <ele>128.6</ele>
        <time>2018-04-29T18:04:38Z</time>
      </trkpt>
      <trkpt lat="44.55856" lon="0.8836">
        <ele>128.6</ele>
        <time>2018-04-29T18:04:39Z</time>
      </trkpt>
      <trkpt lat="44.55861" lon="0.88362">
        <ele>128.6</ele>
        <time>2018-04-29T18:04:41Z</time>
      </trkpt>
      <trkpt lat="44.55874" lon="0.88367">
        <ele>128.6</ele>
        <time>2018-04-29T18:04:46Z</time>
      </trkpt>
      <trkpt lat="44.55876" lon="0.88369">
        <ele>128.6</ele>
        <time>2018-04-29T18:04:47Z</time>
      </trkpt>
      <trkpt lat="44.5589" lon="0.88383">
        <ele>128.6</ele>
        <time>2018-04-29T18:04:52Z</time>
      </trkpt>
      <trkpt lat="44.55893" lon="0.88386">
        <ele>128.6</ele>
        <time>2018-04-29T18:04:53Z</time>
      </trkpt>
      <trkpt lat="44.55904" lon="0.88399">
        <ele>128.6</ele>
        <time>2018-04-29T18:04:57Z</time>
      </trkpt>
      <trkpt lat="44.55909" lon="0.88405">
        <ele>128.6</ele>
        <time>2018-04-29T18:04:59Z</time>
      </trkpt>
      <trkpt lat="44.55921" lon="0.88421">
        <ele>128.6</ele>
        <time>2018-04-29T18:05:03Z</time>
      </trkpt>
      <trkpt lat="44.55927" lon="0.88427">
        <ele>128.6</ele>
        <time>2018-04-29T18:05:05Z</time>
      </trkpt>
      <trkpt lat="44.55946" lon="0.88454">
        <ele>128.6</ele>
        <time>2018-04-29T18:05:12Z</time>
      </trkpt>
      <trkpt lat="44.55958" lon="0.88473">
        <ele>128.6</ele>
        <time>2018-04-29T18:05:17Z</time>
      </trkpt>
      <trkpt lat="44.55964" lon="0.8848">
        <ele>128.6</ele>
        <time>2018-04-29T18:05:19Z</time>
      </trkpt>
      <trkpt lat="44.55969" lon="0.88487">
        <ele>128.6</ele>
        <time>2018-04-29T18:05:21Z</time>
      </trkpt>
      <trkpt lat="44.55973" lon="0.88494">
        <ele>128.6</ele>
        <time>2018-04-29T18:05:23Z</time>
      </trkpt>
      <trkpt lat="44.5598" lon="0.88505">
        <ele>128.6</ele>
        <time>2018-04-29T18:05:27Z</time>
      </trkpt>
      <trkpt lat="44.55981" lon="0.88508">
        <ele>128.6</ele>
        <time>2018-04-29T18:05:28Z</time>
      </trkpt>
      <trkpt lat="44.55983" lon="0.88513">
        <ele>128.6</ele>
        <time>2018-04-29T18:05:30Z</time>
      </trkpt>
      <trkpt lat="44.55983" lon="0.88515">
        <ele>128.6</ele>
        <time>2018-04-29T18:05:31Z</time>
      </trkpt>
      <trkpt lat="44.55986" lon="0.8852">
        <ele>128.6</ele>
        <time>2018-04-29T18:05:34Z</time>
      </trkpt>
      <trkpt lat="44.55992" lon="0.88535">
        <ele>128.6</ele>
        <time>2018-04-29T18:05:42Z</time>
      </trkpt>
      <trkpt lat="44.55994" lon="0.88541">
        <ele>128.6</ele>
        <time>2018-04-29T18:05:45Z</time>
      </trkpt>
      <trkpt lat="44.55994" lon="0.88542">
        <ele>128.6</ele>
        <time>2018-04-29T18:05:46Z</time>
      </trkpt>
      <trkpt lat="44.55996" lon="0.88545">
        <ele>128.6</ele>
        <time>2018-04-29T18:05:47Z</time>
      </trkpt>
      <trkpt lat="44.55998" lon="0.8855">
        <ele>128.6</ele>
        <time>2018-04-29T18:05:49Z</time>
      </trkpt>
      <trkpt lat="44.55999" lon="0.88552">
        <ele>128.6</ele>
        <time>2018-04-29T18:05:50Z</time>
      </trkpt>
      <trkpt lat="44.56001" lon="0.88554">
        <ele>128.6</ele>
        <time>2018-04-29T18:05:51Z</time>
      </trkpt>
      <trkpt lat="44.56002" lon="0.88556">
        <ele>128.6</ele>
        <time>2018-04-29T18:05:52Z</time>
      </trkpt>
      <trkpt lat="44.56005" lon="0.88564">
        <ele>128.6</ele>
        <time>2018-04-29T18:05:56Z</time>
      </trkpt>
      <trkpt lat="44.56008" lon="0.8857">
        <ele>128.6</ele>
        <time>2018-04-29T18:06:01Z</time>
      </trkpt>
      <trkpt lat="44.5601" lon="0.88573">
        <ele>128.6</ele>
        <time>2018-04-29T18:06:04Z</time>
      </trkpt>
      <trkpt lat="44.56011" lon="0.88577">
        <ele>128.6</ele>
        <time>2018-04-29T18:06:07Z</time>
      </trkpt>
      <trkpt lat="44.56012" lon="0.88579">
        <ele>128.6</ele>
        <time>2018-04-29T18:06:08Z</time>
      </trkpt>
      <trkpt lat="44.56016" lon="0.88587">
        <ele>128.6</ele>
        <time>2018-04-29T18:06:11Z</time>
      </trkpt>
      <trkpt lat="44.56019" lon="0.88594">
        <ele>128.6</ele>
        <time>2018-04-29T18:06:13Z</time>
      </trkpt>
      <trkpt lat="44.56025" lon="0.88608">
        <ele>128.6</ele>
        <time>2018-04-29T18:06:18Z</time>
      </trkpt>
      <trkpt lat="44.56034" lon="0.88629">
        <ele>128.6</ele>
        <time>2018-04-29T18:06:23Z</time>
      </trkpt>
      <trkpt lat="44.56042" lon="0.88647">
        <ele>128.6</ele>
        <time>2018-04-29T18:06:27Z</time>
      </trkpt>
      <trkpt lat="44.56043" lon="0.88652">
        <ele>128.6</ele>
        <time>2018-04-29T18:06:28Z</time>
      </trkpt>
      <trkpt lat="44.56042" lon="0.88671">
        <ele>128.6</ele>
        <time>2018-04-29T18:06:32Z</time>
      </trkpt>
      <trkpt lat="44.56042" lon="0.88682">
        <ele>128.6</ele>
        <time>2018-04-29T18:06:34Z</time>
      </trkpt>
      <trkpt lat="44.56038" lon="0.88699">
        <ele>128.6</ele>
        <time>2018-04-29T18:06:37Z</time>
      </trkpt>
      <trkpt lat="44.56032" lon="0.88712">
        <ele>128.6</ele>
        <time>2018-04-29T18:06:40Z</time>
      </trkpt>
      <trkpt lat="44.56028" lon="0.88719">
        <ele>128.6</ele>
        <time>2018-04-29T18:06:42Z</time>
      </trkpt>
      <trkpt lat="44.56027" lon="0.88721">
        <ele>128.6</ele>
        <time>2018-04-29T18:06:43Z</time>
      </trkpt>
      <trkpt lat="44.56022" lon="0.88727">
        <ele>129</ele>
        <time>2018-04-29T18:06:46Z</time>
      </trkpt>
      <trkpt lat="44.5602" lon="0.8873">
        <ele>129.4</ele>
        <time>2018-04-29T18:06:47Z</time>
      </trkpt>
      <trkpt lat="44.56018" lon="0.88733">
        <ele>129.8</ele>
        <time>2018-04-29T18:06:48Z</time>
      </trkpt>
      <trkpt lat="44.56016" lon="0.88736">
        <ele>130.2</ele>
        <time>2018-04-29T18:06:49Z</time>
      </trkpt>
      <trkpt lat="44.56014" lon="0.8874">
        <ele>130.8</ele>
        <time>2018-04-29T18:06:50Z</time>
      </trkpt>
      <trkpt lat="44.56014" lon="0.88745">
        <ele>131.6</ele>
        <time>2018-04-29T18:06:52Z</time>
      </trkpt>
      <trkpt lat="44.56015" lon="0.88745">
        <ele>132</ele>
        <time>2018-04-29T18:06:53Z</time>
      </trkpt>
      <trkpt lat="44.56017" lon="0.88746">
        <ele>132.4</ele>
        <time>2018-04-29T18:06:54Z</time>
      </trkpt>
      <trkpt lat="44.56019" lon="0.88747">
        <ele>132.8</ele>
        <time>2018-04-29T18:06:55Z</time>
      </trkpt>
      <trkpt lat="44.56021" lon="0.88749">
        <ele>132.8</ele>
        <time>2018-04-29T18:06:56Z</time>
      </trkpt>
      <trkpt lat="44.56026" lon="0.88753">
        <ele>132.8</ele>
        <time>2018-04-29T18:06:59Z</time>
      </trkpt>
      <trkpt lat="44.5603" lon="0.88757">
        <ele>132.8</ele>
        <time>2018-04-29T18:07:01Z</time>
      </trkpt>
      <trkpt lat="44.56035" lon="0.88762">
        <ele>133.2</ele>
        <time>2018-04-29T18:07:04Z</time>
      </trkpt>
      <trkpt lat="44.56036" lon="0.88764">
        <ele>133.6</ele>
        <time>2018-04-29T18:07:05Z</time>
      </trkpt>
      <trkpt lat="44.56037" lon="0.88765">
        <ele>134</ele>
        <time>2018-04-29T18:07:06Z</time>
      </trkpt>
      <trkpt lat="44.56038" lon="0.88767">
        <ele>134.4</ele>
        <time>2018-04-29T18:07:07Z</time>
      </trkpt>
      <trkpt lat="44.5604" lon="0.88769">
        <ele>134.8</ele>
        <time>2018-04-29T18:07:08Z</time>
      </trkpt>
      <trkpt lat="44.56043" lon="0.88775">
        <ele>134.8</ele>
        <time>2018-04-29T18:07:11Z</time>
      </trkpt>
      <trkpt lat="44.56042" lon="0.88785">
        <ele>134.8</ele>
        <time>2018-04-29T18:07:15Z</time>
      </trkpt>
      <trkpt lat="44.56043" lon="0.88787">
        <ele>135.2</ele>
        <time>2018-04-29T18:07:16Z</time>
      </trkpt>
      <trkpt lat="44.56045" lon="0.88788">
        <ele>136.2</ele>
        <time>2018-04-29T18:07:17Z</time>
      </trkpt>
      <trkpt lat="44.56045" lon="0.88791">
        <ele>136.6</ele>
        <time>2018-04-29T18:07:18Z</time>
      </trkpt>
      <trkpt lat="44.56046" lon="0.88793">
        <ele>137</ele>
        <time>2018-04-29T18:07:19Z</time>
      </trkpt>
      <trkpt lat="44.56047" lon="0.88794">
        <ele>137</ele>
        <time>2018-04-29T18:07:20Z</time>
      </trkpt>
      <trkpt lat="44.56049" lon="0.88797">
        <ele>137</ele>
        <time>2018-04-29T18:07:22Z</time>
      </trkpt>
      <trkpt lat="44.56051" lon="0.88801">
        <ele>137</ele>
        <time>2018-04-29T18:07:25Z</time>
      </trkpt>
      <trkpt lat="44.56054" lon="0.88804">
        <ele>137</ele>
        <time>2018-04-29T18:07:28Z</time>
      </trkpt>
      <trkpt lat="44.56055" lon="0.88805">
        <ele>137</ele>
        <time>2018-04-29T18:07:30Z</time>
      </trkpt>
      <trkpt lat="44.56057" lon="0.88808">
        <ele>137</ele>
        <time>2018-04-29T18:07:33Z</time>
      </trkpt>
      <trkpt lat="44.56063" lon="0.88815">
        <ele>137</ele>
        <time>2018-04-29T18:09:13Z</time>
      </trkpt>
      <trkpt lat="44.56064" lon="0.88818">
        <ele>137</ele>
        <time>2018-04-29T18:09:14Z</time>
      </trkpt>
      <trkpt lat="44.56064" lon="0.8882">
        <ele>137</ele>
        <time>2018-04-29T18:09:15Z</time>
      </trkpt>
      <trkpt lat="44.56063" lon="0.88825">
        <ele>137</ele>
        <time>2018-04-29T18:09:17Z</time>
      </trkpt>
      <trkpt lat="44.56065" lon="0.8883">
        <ele>137</ele>
        <time>2018-04-29T18:09:19Z</time>
      </trkpt>
      <trkpt lat="44.56067" lon="0.88833">
        <ele>137</ele>
        <time>2018-04-29T18:09:20Z</time>
      </trkpt>
      <trkpt lat="44.5607" lon="0.88836">
        <ele>137.4</ele>
        <time>2018-04-29T18:09:21Z</time>
      </trkpt>
      <trkpt lat="44.56072" lon="0.88837">
        <ele>138</ele>
        <time>2018-04-29T18:09:22Z</time>
      </trkpt>
      <trkpt lat="44.56075" lon="0.88839">
        <ele>138.4</ele>
        <time>2018-04-29T18:09:23Z</time>
      </trkpt>
      <trkpt lat="44.56077" lon="0.88839">
        <ele>138.8</ele>
        <time>2018-04-29T18:09:24Z</time>
      </trkpt>
      <trkpt lat="44.56078" lon="0.8884">
        <ele>139.2</ele>
        <time>2018-04-29T18:09:25Z</time>
      </trkpt>
      <trkpt lat="44.56079" lon="0.88842">
        <ele>139.8</ele>
        <time>2018-04-29T18:09:26Z</time>
      </trkpt>
      <trkpt lat="44.5608" lon="0.88844">
        <ele>140.2</ele>
        <time>2018-04-29T18:09:27Z</time>
      </trkpt>
      <trkpt lat="44.56081" lon="0.88845">
        <ele>140.6</ele>
        <time>2018-04-29T18:09:28Z</time>
      </trkpt>
      <trkpt lat="44.56082" lon="0.88846">
        <ele>141.2</ele>
        <time>2018-04-29T18:09:29Z</time>
      </trkpt>
      <trkpt lat="44.56084" lon="0.88847">
        <ele>141.6</ele>
        <time>2018-04-29T18:09:30Z</time>
      </trkpt>
      <trkpt lat="44.56085" lon="0.88849">
        <ele>141.6</ele>
        <time>2018-04-29T18:09:31Z</time>
      </trkpt>
      <trkpt lat="44.56086" lon="0.8885">
        <ele>141.6</ele>
        <time>2018-04-29T18:09:32Z</time>
      </trkpt>
      <trkpt lat="44.56087" lon="0.88852">
        <ele>141.6</ele>
        <time>2018-04-29T18:09:33Z</time>
      </trkpt>
      <trkpt lat="44.56088" lon="0.88853">
        <ele>142</ele>
        <time>2018-04-29T18:09:34Z</time>
      </trkpt>
      <trkpt lat="44.5609" lon="0.88853">
        <ele>142.4</ele>
        <time>2018-04-29T18:09:35Z</time>
      </trkpt>
      <trkpt lat="44.56092" lon="0.88854">
        <ele>143</ele>
        <time>2018-04-29T18:09:36Z</time>
      </trkpt>
      <trkpt lat="44.56095" lon="0.88855">
        <ele>143.4</ele>
        <time>2018-04-29T18:09:37Z</time>
      </trkpt>
      <trkpt lat="44.56098" lon="0.88856">
        <ele>143.8</ele>
        <time>2018-04-29T18:09:38Z</time>
      </trkpt>
      <trkpt lat="44.56103" lon="0.88858">
        <ele>143.8</ele>
        <time>2018-04-29T18:09:41Z</time>
      </trkpt>
      <trkpt lat="44.56113" lon="0.8886">
        <ele>143.8</ele>
        <time>2018-04-29T18:09:46Z</time>
      </trkpt>
      <trkpt lat="44.56115" lon="0.8886">
        <ele>143.8</ele>
        <time>2018-04-29T18:09:47Z</time>
      </trkpt>
      <trkpt lat="44.56118" lon="0.88861">
        <ele>144.2</ele>
        <time>2018-04-29T18:09:48Z</time>
      </trkpt>
      <trkpt lat="44.5612" lon="0.88861">
        <ele>144.6</ele>
        <time>2018-04-29T18:09:49Z</time>
      </trkpt>
      <trkpt lat="44.56121" lon="0.88862">
        <ele>145</ele>
        <time>2018-04-29T18:09:50Z</time>
      </trkpt>
      <trkpt lat="44.56123" lon="0.88862">
        <ele>145.4</ele>
        <time>2018-04-29T18:09:51Z</time>
      </trkpt>
      <trkpt lat="44.56127" lon="0.88862">
        <ele>145.8</ele>
        <time>2018-04-29T18:09:52Z</time>
      </trkpt>
      <trkpt lat="44.56136" lon="0.88863">
        <ele>145.8</ele>
        <time>2018-04-29T18:09:56Z</time>
      </trkpt>
      <trkpt lat="44.5614" lon="0.88864">
        <ele>146.2</ele>
        <time>2018-04-29T18:09:58Z</time>
      </trkpt>
      <trkpt lat="44.56141" lon="0.88864">
        <ele>146.6</ele>
        <time>2018-04-29T18:09:59Z</time>
      </trkpt>
      <trkpt lat="44.56143" lon="0.88864">
        <ele>147.2</ele>
        <time>2018-04-29T18:10:00Z</time>
      </trkpt>
      <trkpt lat="44.56144" lon="0.88864">
        <ele>147.6</ele>
        <time>2018-04-29T18:10:01Z</time>
      </trkpt>
      <trkpt lat="44.56145" lon="0.88864">
        <ele>148</ele>
        <time>2018-04-29T18:10:02Z</time>
      </trkpt>
      <trkpt lat="44.56152" lon="0.88867">
        <ele>148.4</ele>
        <time>2018-04-29T18:10:05Z</time>
      </trkpt>
      <trkpt lat="44.56155" lon="0.88867">
        <ele>148.8</ele>
        <time>2018-04-29T18:10:06Z</time>
      </trkpt>
      <trkpt lat="44.56158" lon="0.88867">
        <ele>149.2</ele>
        <time>2018-04-29T18:10:07Z</time>
      </trkpt>
      <trkpt lat="44.56159" lon="0.88868">
        <ele>149.6</ele>
        <time>2018-04-29T18:10:08Z</time>
      </trkpt>
      <trkpt lat="44.56161" lon="0.88869">
        <ele>150.2</ele>
        <time>2018-04-29T18:10:09Z</time>
      </trkpt>
      <trkpt lat="44.56161" lon="0.88869">
        <ele>150.2</ele>
        <time>2018-04-29T18:10:10Z</time>
      </trkpt>
      <trkpt lat="44.56161" lon="0.8887">
        <ele>150.6</ele>
        <time>2018-04-29T18:10:12Z</time>
      </trkpt>
      <trkpt lat="44.56161" lon="0.8887">
        <ele>151</ele>
        <time>2018-04-29T18:10:13Z</time>
      </trkpt>
      <trkpt lat="44.5616" lon="0.8887">
        <ele>151.4</ele>
        <time>2018-04-29T18:10:14Z</time>
      </trkpt>
      <trkpt lat="44.56161" lon="0.88873">
        <ele>152.2</ele>
        <time>2018-04-29T18:10:21Z</time>
      </trkpt>
      <trkpt lat="44.56164" lon="0.88876">
        <ele>152.2</ele>
        <time>2018-04-29T18:10:26Z</time>
      </trkpt>
      <trkpt lat="44.56166" lon="0.88877">
        <ele>152.2</ele>
        <time>2018-04-29T18:10:27Z</time>
      </trkpt>
      <trkpt lat="44.5617" lon="0.88879">
        <ele>152.6</ele>
        <time>2018-04-29T18:10:30Z</time>
      </trkpt>
      <trkpt lat="44.56171" lon="0.88879">
        <ele>153</ele>
        <time>2018-04-29T18:10:31Z</time>
      </trkpt>
      <trkpt lat="44.56172" lon="0.8888">
        <ele>153.4</ele>
        <time>2018-04-29T18:10:32Z</time>
      </trkpt>
      <trkpt lat="44.56172" lon="0.8888">
        <ele>153.8</ele>
        <time>2018-04-29T18:10:33Z</time>
      </trkpt>
      <trkpt lat="44.56173" lon="0.8888">
        <ele>154.2</ele>
        <time>2018-04-29T18:10:34Z</time>
      </trkpt>
      <trkpt lat="44.56173" lon="0.8888">
        <ele>154.2</ele>
        <time>2018-04-29T18:10:35Z</time>
      </trkpt>
      <trkpt lat="44.56173" lon="0.88881">
        <ele>154.2</ele>
        <time>2018-04-29T18:10:37Z</time>
      </trkpt>
      <trkpt lat="44.56176" lon="0.88883">
        <ele>154.2</ele>
        <time>2018-04-29T18:10:40Z</time>
      </trkpt>
      <trkpt lat="44.56178" lon="0.88883">
        <ele>154.2</ele>
        <time>2018-04-29T18:10:45Z</time>
      </trkpt>
      <trkpt lat="44.56178" lon="0.88883">
        <ele>154.2</ele>
        <time>2018-04-29T18:10:46Z</time>
      </trkpt>
      <trkpt lat="44.56178" lon="0.88883">
        <ele>154.6</ele>
        <time>2018-04-29T18:10:47Z</time>
      </trkpt>
      <trkpt lat="44.56179" lon="0.88883">
        <ele>155</ele>
        <time>2018-04-29T18:10:48Z</time>
      </trkpt>
      <trkpt lat="44.56179" lon="0.88884">
        <ele>155.4</ele>
        <time>2018-04-29T18:10:49Z</time>
      </trkpt>
      <trkpt lat="44.56179" lon="0.88885">
        <ele>155.8</ele>
        <time>2018-04-29T18:10:50Z</time>
      </trkpt>
      <trkpt lat="44.5618" lon="0.88886">
        <ele>156.2</ele>
        <time>2018-04-29T18:10:51Z</time>
      </trkpt>
      <trkpt lat="44.56178" lon="0.8889">
        <ele>156.2</ele>
        <time>2018-04-29T18:10:55Z</time>
      </trkpt>
      <trkpt lat="44.56177" lon="0.88891">
        <ele>156.2</ele>
        <time>2018-04-29T18:10:56Z</time>
      </trkpt>
      <trkpt lat="44.56174" lon="0.88891">
        <ele>156.8</ele>
        <time>2018-04-29T18:10:57Z</time>
      </trkpt>
      <trkpt lat="44.56174" lon="0.88892">
        <ele>157.2</ele>
        <time>2018-04-29T18:10:58Z</time>
      </trkpt>
      <trkpt lat="44.56174" lon="0.88893">
        <ele>158.2</ele>
        <time>2018-04-29T18:10:59Z</time>
      </trkpt>
      <trkpt lat="44.56174" lon="0.88894">
        <ele>158.6</ele>
        <time>2018-04-29T18:11:00Z</time>
      </trkpt>
      <trkpt lat="44.56174" lon="0.88896">
        <ele>158.6</ele>
        <time>2018-04-29T18:11:01Z</time>
      </trkpt>
      <trkpt lat="44.56175" lon="0.88899">
        <ele>159</ele>
        <time>2018-04-29T18:11:03Z</time>
      </trkpt>
      <trkpt lat="44.56176" lon="0.889">
        <ele>159.4</ele>
        <time>2018-04-29T18:11:04Z</time>
      </trkpt>
      <trkpt lat="44.56176" lon="0.88901">
        <ele>159.8</ele>
        <time>2018-04-29T18:11:05Z</time>
      </trkpt>
      <trkpt lat="44.56176" lon="0.88902">
        <ele>160.4</ele>
        <time>2018-04-29T18:11:06Z</time>
      </trkpt>
      <trkpt lat="44.56176" lon="0.88903">
        <ele>160.8</ele>
        <time>2018-04-29T18:11:07Z</time>
      </trkpt>
      <trkpt lat="44.56177" lon="0.88906">
        <ele>160.8</ele>
        <time>2018-04-29T18:12:05Z</time>
      </trkpt>
      <trkpt lat="44.56172" lon="0.88909">
        <ele>160.8</ele>
        <time>2018-04-29T18:12:08Z</time>
      </trkpt>
      <trkpt lat="44.56167" lon="0.88917">
        <ele>160.8</ele>
        <time>2018-04-29T18:12:13Z</time>
      </trkpt>
      <trkpt lat="44.56167" lon="0.88923">
        <ele>160.8</ele>
        <time>2018-04-29T18:12:16Z</time>
      </trkpt>
      <trkpt lat="44.56167" lon="0.88927">
        <ele>160.8</ele>
        <time>2018-04-29T18:12:18Z</time>
      </trkpt>
      <trkpt lat="44.5617" lon="0.88936">
        <ele>160.8</ele>
        <time>2018-04-29T18:12:21Z</time>
      </trkpt>
      <trkpt lat="44.56171" lon="0.88939">
        <ele>160.4</ele>
        <time>2018-04-29T18:12:22Z</time>
      </trkpt>
      <trkpt lat="44.56171" lon="0.88943">
        <ele>160</ele>
        <time>2018-04-29T18:12:23Z</time>
      </trkpt>
      <trkpt lat="44.56172" lon="0.88946">
        <ele>159.4</ele>
        <time>2018-04-29T18:12:24Z</time>
      </trkpt>
      <trkpt lat="44.56173" lon="0.88949">
        <ele>159</ele>
        <time>2018-04-29T18:12:25Z</time>
      </trkpt>
      <trkpt lat="44.56173" lon="0.88951">
        <ele>158.6</ele>
        <time>2018-04-29T18:12:26Z</time>
      </trkpt>
      <trkpt lat="44.56174" lon="0.88957">
        <ele>158.6</ele>
        <time>2018-04-29T18:12:28Z</time>
      </trkpt>
      <trkpt lat="44.56174" lon="0.88959">
        <ele>158.6</ele>
        <time>2018-04-29T18:12:29Z</time>
      </trkpt>
      <trkpt lat="44.56174" lon="0.88973">
        <ele>158.6</ele>
        <time>2018-04-29T18:12:33Z</time>
      </trkpt>
      <trkpt lat="44.56175" lon="0.88998">
        <ele>158.6</ele>
        <time>2018-04-29T18:12:38Z</time>
      </trkpt>
      <trkpt lat="44.56173" lon="0.89011">
        <ele>158.6</ele>
        <time>2018-04-29T18:12:40Z</time>
      </trkpt>
      <trkpt lat="44.56169" lon="0.89018">
        <ele>158.6</ele>
        <time>2018-04-29T18:12:42Z</time>
      </trkpt>
      <trkpt lat="44.5616" lon="0.89015">
        <ele>158.6</ele>
        <time>2018-04-29T18:12:45Z</time>
      </trkpt>
      <trkpt lat="44.56158" lon="0.89019">
        <ele>158.6</ele>
        <time>2018-04-29T18:12:48Z</time>
      </trkpt>
      <trkpt lat="44.56158" lon="0.89022">
        <ele>158.6</ele>
        <time>2018-04-29T18:12:49Z</time>
      </trkpt>
      <trkpt lat="44.56161" lon="0.89026">
        <ele>158.6</ele>
        <time>2018-04-29T18:12:51Z</time>
      </trkpt>
      <trkpt lat="44.56168" lon="0.89037">
        <ele>158.6</ele>
        <time>2018-04-29T18:12:56Z</time>
      </trkpt>
      <trkpt lat="44.56171" lon="0.89038">
        <ele>158.6</ele>
        <time>2018-04-29T18:12:57Z</time>
      </trkpt>
      <trkpt lat="44.56176" lon="0.8904">
        <ele>158.6</ele>
        <time>2018-04-29T18:12:59Z</time>
      </trkpt>
      <trkpt lat="44.56183" lon="0.89042">
        <ele>159.2</ele>
        <time>2018-04-29T18:13:01Z</time>
      </trkpt>
      <trkpt lat="44.56186" lon="0.89042">
        <ele>159.6</ele>
        <time>2018-04-29T18:13:02Z</time>
      </trkpt>
      <trkpt lat="44.56189" lon="0.89041">
        <ele>160.6</ele>
        <time>2018-04-29T18:13:03Z</time>
      </trkpt>
      <trkpt lat="44.56192" lon="0.8904">
        <ele>161</ele>
        <time>2018-04-29T18:13:04Z</time>
      </trkpt>
      <trkpt lat="44.56195" lon="0.89042">
        <ele>161.4</ele>
        <time>2018-04-29T18:13:07Z</time>
      </trkpt>
      <trkpt lat="44.56194" lon="0.89042">
        <ele>161.8</ele>
        <time>2018-04-29T18:13:08Z</time>
      </trkpt>
      <trkpt lat="44.56193" lon="0.89042">
        <ele>162.2</ele>
        <time>2018-04-29T18:13:09Z</time>
      </trkpt>
      <trkpt lat="44.56194" lon="0.89045">
        <ele>163</ele>
        <time>2018-04-29T18:14:57Z</time>
      </trkpt>
      <trkpt lat="44.56195" lon="0.89047">
        <ele>163</ele>
        <time>2018-04-29T18:14:58Z</time>
      </trkpt>
      <trkpt lat="44.56198" lon="0.89048">
        <ele>163</ele>
        <time>2018-04-29T18:14:59Z</time>
      </trkpt>
      <trkpt lat="44.56207" lon="0.89051">
        <ele>163</ele>
        <time>2018-04-29T18:15:01Z</time>
      </trkpt>
      <trkpt lat="44.56212" lon="0.89052">
        <ele>163</ele>
        <time>2018-04-29T18:15:02Z</time>
      </trkpt>
      <trkpt lat="44.56219" lon="0.89054">
        <ele>163</ele>
        <time>2018-04-29T18:15:04Z</time>
      </trkpt>
      <trkpt lat="44.56222" lon="0.89055">
        <ele>163</ele>
        <time>2018-04-29T18:15:05Z</time>
      </trkpt>
      <trkpt lat="44.56227" lon="0.89056">
        <ele>163</ele>
        <time>2018-04-29T18:15:07Z</time>
      </trkpt>
      <trkpt lat="44.56232" lon="0.89058">
        <ele>163</ele>
        <time>2018-04-29T18:15:09Z</time>
      </trkpt>
      <trkpt lat="44.56237" lon="0.8906">
        <ele>163</ele>
        <time>2018-04-29T18:15:11Z</time>
      </trkpt>
      <trkpt lat="44.56243" lon="0.89062">
        <ele>163</ele>
        <time>2018-04-29T18:15:14Z</time>
      </trkpt>
      <trkpt lat="44.56247" lon="0.89064">
        <ele>163</ele>
        <time>2018-04-29T18:15:16Z</time>
      </trkpt>
      <trkpt lat="44.56261" lon="0.89068">
        <ele>163</ele>
        <time>2018-04-29T18:15:22Z</time>
      </trkpt>
      <trkpt lat="44.56274" lon="0.89075">
        <ele>163</ele>
        <time>2018-04-29T18:15:27Z</time>
      </trkpt>
      <trkpt lat="44.56276" lon="0.89078">
        <ele>163</ele>
        <time>2018-04-29T18:15:28Z</time>
      </trkpt>
      <trkpt lat="44.56282" lon="0.89091">
        <ele>163</ele>
        <time>2018-04-29T18:15:33Z</time>
      </trkpt>
      <trkpt lat="44.56282" lon="0.89093">
        <ele>163</ele>
        <time>2018-04-29T18:15:34Z</time>
      </trkpt>
      <trkpt lat="44.56282" lon="0.89102">
        <ele>163</ele>
        <time>2018-04-29T18:15:38Z</time>
      </trkpt>
      <trkpt lat="44.5628" lon="0.8911">
        <ele>163</ele>
        <time>2018-04-29T18:15:43Z</time>
      </trkpt>
      <trkpt lat="44.56281" lon="0.89112">
        <ele>163</ele>
        <time>2018-04-29T18:15:44Z</time>
      </trkpt>
      <trkpt lat="44.56281" lon="0.89113">
        <ele>163.4</ele>
        <time>2018-04-29T18:15:45Z</time>
      </trkpt>
      <trkpt lat="44.56282" lon="0.89116">
        <ele>164</ele>
        <time>2018-04-29T18:15:46Z</time>
      </trkpt>
      <trkpt lat="44.56284" lon="0.89118">
        <ele>164.4</ele>
        <time>2018-04-29T18:15:47Z</time>
      </trkpt>
      <trkpt lat="44.56285" lon="0.89121">
        <ele>164.8</ele>
        <time>2018-04-29T18:15:48Z</time>
      </trkpt>
      <trkpt lat="44.56286" lon="0.89123">
        <ele>165.2</ele>
        <time>2018-04-29T18:15:49Z</time>
      </trkpt>
      <trkpt lat="44.5629" lon="0.8913">
        <ele>165.2</ele>
        <time>2018-04-29T18:15:52Z</time>
      </trkpt>
      <trkpt lat="44.56291" lon="0.89133">
        <ele>165.8</ele>
        <time>2018-04-29T18:15:53Z</time>
      </trkpt>
      <trkpt lat="44.56292" lon="0.89134">
        <ele>166.2</ele>
        <time>2018-04-29T18:15:54Z</time>
      </trkpt>
      <trkpt lat="44.56293" lon="0.89136">
        <ele>166.8</ele>
        <time>2018-04-29T18:15:55Z</time>
      </trkpt>
      <trkpt lat="44.56293" lon="0.89137">
        <ele>167.2</ele>
        <time>2018-04-29T18:15:56Z</time>
      </trkpt>
      <trkpt lat="44.56294" lon="0.8914">
        <ele>167.8</ele>
        <time>2018-04-29T18:15:57Z</time>
      </trkpt>
      <trkpt lat="44.56295" lon="0.89142">
        <ele>168.2</ele>
        <time>2018-04-29T18:15:58Z</time>
      </trkpt>
      <trkpt lat="44.56295" lon="0.89144">
        <ele>168.6</ele>
        <time>2018-04-29T18:15:59Z</time>
      </trkpt>
      <trkpt lat="44.56296" lon="0.89146">
        <ele>169</ele>
        <time>2018-04-29T18:16:00Z</time>
      </trkpt>
      <trkpt lat="44.56296" lon="0.89147">
        <ele>169.4</ele>
        <time>2018-04-29T18:16:01Z</time>
      </trkpt>
      <trkpt lat="44.56296" lon="0.89147">
        <ele>169.8</ele>
        <time>2018-04-29T18:16:02Z</time>
      </trkpt>
      <trkpt lat="44.56297" lon="0.89148">
        <ele>169.8</ele>
        <time>2018-04-29T18:16:03Z</time>
      </trkpt>
      <trkpt lat="44.56298" lon="0.89156">
        <ele>171.8</ele>
        <time>2018-04-29T18:16:08Z</time>
      </trkpt>
      <trkpt lat="44.56299" lon="0.89158">
        <ele>171.8</ele>
        <time>2018-04-29T18:16:09Z</time>
      </trkpt>
      <trkpt lat="44.56299" lon="0.89165">
        <ele>172.2</ele>
        <time>2018-04-29T18:16:12Z</time>
      </trkpt>
      <trkpt lat="44.56299" lon="0.89167">
        <ele>172.6</ele>
        <time>2018-04-29T18:16:13Z</time>
      </trkpt>
      <trkpt lat="44.56299" lon="0.89168">
        <ele>173</ele>
        <time>2018-04-29T18:16:14Z</time>
      </trkpt>
      <trkpt lat="44.56299" lon="0.89171">
        <ele>173.4</ele>
        <time>2018-04-29T18:16:15Z</time>
      </trkpt>
      <trkpt lat="44.56299" lon="0.89172">
        <ele>174</ele>
        <time>2018-04-29T18:16:16Z</time>
      </trkpt>
      <trkpt lat="44.56299" lon="0.89198">
        <ele>176</ele>
        <time>2018-04-29T18:16:27Z</time>
      </trkpt>
      <trkpt lat="44.56301" lon="0.89202">
        <ele>176</ele>
        <time>2018-04-29T18:16:28Z</time>
      </trkpt>
      <trkpt lat="44.56311" lon="0.89213">
        <ele>176</ele>
        <time>2018-04-29T18:16:33Z</time>
      </trkpt>
      <trkpt lat="44.56313" lon="0.89218">
        <ele>176</ele>
        <time>2018-04-29T18:16:35Z</time>
      </trkpt>
      <trkpt lat="44.56314" lon="0.8922">
        <ele>176</ele>
        <time>2018-04-29T18:16:36Z</time>
      </trkpt>
      <trkpt lat="44.56316" lon="0.89227">
        <ele>176</ele>
        <time>2018-04-29T18:16:39Z</time>
      </trkpt>
      <trkpt lat="44.56317" lon="0.89231">
        <ele>176</ele>
        <time>2018-04-29T18:16:40Z</time>
      </trkpt>
      <trkpt lat="44.56318" lon="0.89239">
        <ele>176</ele>
        <time>2018-04-29T18:16:42Z</time>
      </trkpt>
      <trkpt lat="44.56317" lon="0.89247">
        <ele>176</ele>
        <time>2018-04-29T18:16:44Z</time>
      </trkpt>
      <trkpt lat="44.56319" lon="0.89253">
        <ele>176</ele>
        <time>2018-04-29T18:16:46Z</time>
      </trkpt>
      <trkpt lat="44.56318" lon="0.8926">
        <ele>176</ele>
        <time>2018-04-29T18:16:48Z</time>
      </trkpt>
      <trkpt lat="44.56319" lon="0.89283">
        <ele>176</ele>
        <time>2018-04-29T18:16:53Z</time>
      </trkpt>
      <trkpt lat="44.5632" lon="0.89289">
        <ele>176</ele>
        <time>2018-04-29T18:16:54Z</time>
      </trkpt>
      <trkpt lat="44.56322" lon="0.89306">
        <ele>176</ele>
        <time>2018-04-29T18:16:57Z</time>
      </trkpt>
      <trkpt lat="44.56331" lon="0.89329">
        <ele>176</ele>
        <time>2018-04-29T18:17:01Z</time>
      </trkpt>
      <trkpt lat="44.56337" lon="0.89339">
        <ele>176</ele>
        <time>2018-04-29T18:17:03Z</time>
      </trkpt>
      <trkpt lat="44.56343" lon="0.89347">
        <ele>176</ele>
        <time>2018-04-29T18:17:05Z</time>
      </trkpt>
      <trkpt lat="44.56358" lon="0.89358">
        <ele>176</ele>
        <time>2018-04-29T18:17:09Z</time>
      </trkpt>
      <trkpt lat="44.56359" lon="0.8936">
        <ele>176.4</ele>
        <time>2018-04-29T18:17:10Z</time>
      </trkpt>
      <trkpt lat="44.56361" lon="0.89362">
        <ele>177.2</ele>
        <time>2018-04-29T18:17:11Z</time>
      </trkpt>
      <trkpt lat="44.56363" lon="0.89365">
        <ele>177.6</ele>
        <time>2018-04-29T18:17:12Z</time>
      </trkpt>
      <trkpt lat="44.56366" lon="0.89367">
        <ele>178</ele>
        <time>2018-04-29T18:17:13Z</time>
      </trkpt>
      <trkpt lat="44.56368" lon="0.8937">
        <ele>178</ele>
        <time>2018-04-29T18:17:14Z</time>
      </trkpt>
      <trkpt lat="44.56376" lon="0.89383">
        <ele>178</ele>
        <time>2018-04-29T18:17:19Z</time>
      </trkpt>
      <trkpt lat="44.56386" lon="0.89396">
        <ele>178</ele>
        <time>2018-04-29T18:17:23Z</time>
      </trkpt>
      <trkpt lat="44.56389" lon="0.89398">
        <ele>178</ele>
        <time>2018-04-29T18:17:24Z</time>
      </trkpt>
      <trkpt lat="44.56394" lon="0.89406">
        <ele>178</ele>
        <time>2018-04-29T18:17:28Z</time>
      </trkpt>
      <trkpt lat="44.56394" lon="0.89406">
        <ele>178</ele>
        <time>2018-04-29T18:17:29Z</time>
      </trkpt>
      <trkpt lat="44.56398" lon="0.89408">
        <ele>178</ele>
        <time>2018-04-29T18:18:55Z</time>
      </trkpt>
      <trkpt lat="44.564" lon="0.89408">
        <ele>178</ele>
        <time>2018-04-29T18:18:56Z</time>
      </trkpt>
      <trkpt lat="44.56402" lon="0.89408">
        <ele>178</ele>
        <time>2018-04-29T18:18:57Z</time>
      </trkpt>
      <trkpt lat="44.56406" lon="0.89406">
        <ele>178</ele>
        <time>2018-04-29T18:18:59Z</time>
      </trkpt>
      <trkpt lat="44.56409" lon="0.89404">
        <ele>178.4</ele>
        <time>2018-04-29T18:19:01Z</time>
      </trkpt>
      <trkpt lat="44.5641" lon="0.89403">
        <ele>178.8</ele>
        <time>2018-04-29T18:19:02Z</time>
      </trkpt>
      <trkpt lat="44.56412" lon="0.89401">
        <ele>179.2</ele>
        <time>2018-04-29T18:19:03Z</time>
      </trkpt>
      <trkpt lat="44.56412" lon="0.894">
        <ele>179.6</ele>
        <time>2018-04-29T18:19:04Z</time>
      </trkpt>
      <trkpt lat="44.56413" lon="0.89398">
        <ele>180</ele>
        <time>2018-04-29T18:19:05Z</time>
      </trkpt>
      <trkpt lat="44.56413" lon="0.89396">
        <ele>180</ele>
        <time>2018-04-29T18:19:06Z</time>
      </trkpt>
      <trkpt lat="44.5642" lon="0.89393">
        <ele>180</ele>
        <time>2018-04-29T18:19:08Z</time>
      </trkpt>
      <trkpt lat="44.56428" lon="0.89391">
        <ele>180.4</ele>
        <time>2018-04-29T18:19:10Z</time>
      </trkpt>
      <trkpt lat="44.56433" lon="0.89391">
        <ele>180.8</ele>
        <time>2018-04-29T18:19:11Z</time>
      </trkpt>
      <trkpt lat="44.56434" lon="0.89389">
        <ele>181.2</ele>
        <time>2018-04-29T18:19:12Z</time>
      </trkpt>
      <trkpt lat="44.56436" lon="0.89387">
        <ele>181.6</ele>
        <time>2018-04-29T18:19:13Z</time>
      </trkpt>
      <trkpt lat="44.56439" lon="0.89385">
        <ele>182</ele>
        <time>2018-04-29T18:19:14Z</time>
      </trkpt>
      <trkpt lat="44.56443" lon="0.89378">
        <ele>182</ele>
        <time>2018-04-29T18:19:16Z</time>
      </trkpt>
      <trkpt lat="44.56445" lon="0.89375">
        <ele>182</ele>
        <time>2018-04-29T18:19:17Z</time>
      </trkpt>
      <trkpt lat="44.56468" lon="0.89371">
        <ele>182</ele>
        <time>2018-04-29T18:19:20Z</time>
      </trkpt>
      <trkpt lat="44.56489" lon="0.89376">
        <ele>182</ele>
        <time>2018-04-29T18:19:24Z</time>
      </trkpt>
      <trkpt lat="44.56504" lon="0.89384">
        <ele>182</ele>
        <time>2018-04-29T18:19:28Z</time>
      </trkpt>
      <trkpt lat="44.56525" lon="0.89385">
        <ele>182</ele>
        <time>2018-04-29T18:19:32Z</time>
      </trkpt>
      <trkpt lat="44.56531" lon="0.89383">
        <ele>182</ele>
        <time>2018-04-29T18:19:33Z</time>
      </trkpt>
      <trkpt lat="44.56555" lon="0.89373">
        <ele>182</ele>
        <time>2018-04-29T18:19:37Z</time>
      </trkpt>
      <trkpt lat="44.56562" lon="0.89372">
        <ele>182</ele>
        <time>2018-04-29T18:19:38Z</time>
      </trkpt>
      <trkpt lat="44.56576" lon="0.89367">
        <ele>182</ele>
        <time>2018-04-29T18:19:40Z</time>
      </trkpt>
      <trkpt lat="44.56603" lon="0.89362">
        <ele>182</ele>
        <time>2018-04-29T18:19:43Z</time>
      </trkpt>
      <trkpt lat="44.56612" lon="0.89362">
        <ele>182</ele>
        <time>2018-04-29T18:19:44Z</time>
      </trkpt>
      <trkpt lat="44.56639" lon="0.89361">
        <ele>182</ele>
        <time>2018-04-29T18:19:47Z</time>
      </trkpt>
      <trkpt lat="44.56686" lon="0.8935">
        <ele>182</ele>
        <time>2018-04-29T18:19:52Z</time>
      </trkpt>
      <trkpt lat="44.56711" lon="0.89337">
        <ele>182</ele>
        <time>2018-04-29T18:19:55Z</time>
      </trkpt>
      <trkpt lat="44.56723" lon="0.89326">
        <ele>182</ele>
        <time>2018-04-29T18:19:57Z</time>
      </trkpt>
      <trkpt lat="44.56749" lon="0.89304">
        <ele>182</ele>
        <time>2018-04-29T18:20:01Z</time>
      </trkpt>
      <trkpt lat="44.56769" lon="0.89297">
        <ele>182</ele>
        <time>2018-04-29T18:20:04Z</time>
      </trkpt>
      <trkpt lat="44.56776" lon="0.89295">
        <ele>182</ele>
        <time>2018-04-29T18:20:05Z</time>
      </trkpt>
      <trkpt lat="44.56807" lon="0.89292">
        <ele>182</ele>
        <time>2018-04-29T18:20:10Z</time>
      </trkpt>
      <trkpt lat="44.56814" lon="0.89292">
        <ele>181.6</ele>
        <time>2018-04-29T18:20:11Z</time>
      </trkpt>
      <trkpt lat="44.5682" lon="0.89292">
        <ele>181.2</ele>
        <time>2018-04-29T18:20:12Z</time>
      </trkpt>
      <trkpt lat="44.56827" lon="0.89291">
        <ele>180.8</ele>
        <time>2018-04-29T18:20:13Z</time>
      </trkpt>
      <trkpt lat="44.56834" lon="0.8929">
        <ele>180.4</ele>
        <time>2018-04-29T18:20:14Z</time>
      </trkpt>
      <trkpt lat="44.5684" lon="0.89289">
        <ele>180</ele>
        <time>2018-04-29T18:20:15Z</time>
      </trkpt>
      <trkpt lat="44.56852" lon="0.89285">
        <ele>180</ele>
        <time>2018-04-29T18:20:18Z</time>
      </trkpt>
      <trkpt lat="44.56855" lon="0.89284">
        <ele>180</ele>
        <time>2018-04-29T18:20:21Z</time>
      </trkpt>
      <trkpt lat="44.56857" lon="0.89283">
        <ele>180</ele>
        <time>2018-04-29T18:20:22Z</time>
      </trkpt>
      <trkpt lat="44.56859" lon="0.89282">
        <ele>180.4</ele>
        <time>2018-04-29T18:20:23Z</time>
      </trkpt>
      <trkpt lat="44.5686" lon="0.89281">
        <ele>180.8</ele>
        <time>2018-04-29T18:20:24Z</time>
      </trkpt>
      <trkpt lat="44.56861" lon="0.8928">
        <ele>181.2</ele>
        <time>2018-04-29T18:20:25Z</time>
      </trkpt>
      <trkpt lat="44.56862" lon="0.89278">
        <ele>181.6</ele>
        <time>2018-04-29T18:20:26Z</time>
      </trkpt>
      <trkpt lat="44.56863" lon="0.89277">
        <ele>182</ele>
        <time>2018-04-29T18:20:27Z</time>
      </trkpt>
      <trkpt lat="44.56866" lon="0.89276">
        <ele>182</ele>
        <time>2018-04-29T18:20:29Z</time>
      </trkpt>
      <trkpt lat="44.56872" lon="0.89271">
        <ele>182</ele>
        <time>2018-04-29T18:20:32Z</time>
      </trkpt>
      <trkpt lat="44.56879" lon="0.89265">
        <ele>182</ele>
        <time>2018-04-29T18:20:35Z</time>
      </trkpt>
      <trkpt lat="44.56884" lon="0.8926">
        <ele>182</ele>
        <time>2018-04-29T18:20:37Z</time>
      </trkpt>
      <trkpt lat="44.56887" lon="0.89257">
        <ele>182</ele>
        <time>2018-04-29T18:20:38Z</time>
      </trkpt>
      <trkpt lat="44.56894" lon="0.89249">
        <ele>182</ele>
        <time>2018-04-29T18:20:40Z</time>
      </trkpt>
      <trkpt lat="44.56899" lon="0.89245">
        <ele>181.6</ele>
        <time>2018-04-29T18:20:41Z</time>
      </trkpt>
      <trkpt lat="44.56904" lon="0.89241">
        <ele>181</ele>
        <time>2018-04-29T18:20:42Z</time>
      </trkpt>
      <trkpt lat="44.56911" lon="0.89237">
        <ele>180.6</ele>
        <time>2018-04-29T18:20:43Z</time>
      </trkpt>
      <trkpt lat="44.56917" lon="0.89233">
        <ele>180.2</ele>
        <time>2018-04-29T18:20:44Z</time>
      </trkpt>
      <trkpt lat="44.56924" lon="0.89229">
        <ele>179.8</ele>
        <time>2018-04-29T18:20:45Z</time>
      </trkpt>
      <trkpt lat="44.56943" lon="0.89222">
        <ele>179.8</ele>
        <time>2018-04-29T18:20:47Z</time>
      </trkpt>
      <trkpt lat="44.56957" lon="0.89214">
        <ele>179.8</ele>
        <time>2018-04-29T18:20:49Z</time>
      </trkpt>
      <trkpt lat="44.56985" lon="0.89193">
        <ele>179.8</ele>
        <time>2018-04-29T18:20:54Z</time>
      </trkpt>
      <trkpt lat="44.56989" lon="0.89188">
        <ele>179.8</ele>
        <time>2018-04-29T18:20:55Z</time>
      </trkpt>
      <trkpt lat="44.56996" lon="0.89167">
        <ele>179.8</ele>
        <time>2018-04-29T18:20:58Z</time>
      </trkpt>
      <trkpt lat="44.56991" lon="0.89154">
        <ele>179.2</ele>
        <time>2018-04-29T18:21:00Z</time>
      </trkpt>
      <trkpt lat="44.56988" lon="0.89149">
        <ele>178.8</ele>
        <time>2018-04-29T18:21:01Z</time>
      </trkpt>
      <trkpt lat="44.56984" lon="0.89144">
        <ele>178.4</ele>
        <time>2018-04-29T18:21:02Z</time>
      </trkpt>
      <trkpt lat="44.56981" lon="0.89139">
        <ele>178</ele>
        <time>2018-04-29T18:21:03Z</time>
      </trkpt>
      <trkpt lat="44.56977" lon="0.89135">
        <ele>177.6</ele>
        <time>2018-04-29T18:21:04Z</time>
      </trkpt>
      <trkpt lat="44.56974" lon="0.8913">
        <ele>177.6</ele>
        <time>2018-04-29T18:21:05Z</time>
      </trkpt>
      <trkpt lat="44.56971" lon="0.89125">
        <ele>177.6</ele>
        <time>2018-04-29T18:21:06Z</time>
      </trkpt>
      <trkpt lat="44.56969" lon="0.89119">
        <ele>177.6</ele>
        <time>2018-04-29T18:21:07Z</time>
      </trkpt>
      <trkpt lat="44.56962" lon="0.89096">
        <ele>177.6</ele>
        <time>2018-04-29T18:21:11Z</time>
      </trkpt>
      <trkpt lat="44.56965" lon="0.89084">
        <ele>177.6</ele>
        <time>2018-04-29T18:21:13Z</time>
      </trkpt>
      <trkpt lat="44.56971" lon="0.89078">
        <ele>177.6</ele>
        <time>2018-04-29T18:21:15Z</time>
      </trkpt>
      <trkpt lat="44.56974" lon="0.89075">
        <ele>177.6</ele>
        <time>2018-04-29T18:21:16Z</time>
      </trkpt>
      <trkpt lat="44.56977" lon="0.89072">
        <ele>177.6</ele>
        <time>2018-04-29T18:21:17Z</time>
      </trkpt>
      <trkpt lat="44.56987" lon="0.89064">
        <ele>177.6</ele>
        <time>2018-04-29T18:21:20Z</time>
      </trkpt>
      <trkpt lat="44.56991" lon="0.89062">
        <ele>177.6</ele>
        <time>2018-04-29T18:21:21Z</time>
      </trkpt>
      <trkpt lat="44.56994" lon="0.89059">
        <ele>177.6</ele>
        <time>2018-04-29T18:21:22Z</time>
      </trkpt>
      <trkpt lat="44.56998" lon="0.89056">
        <ele>177.6</ele>
        <time>2018-04-29T18:21:23Z</time>
      </trkpt>
      <trkpt lat="44.57005" lon="0.89049">
        <ele>177.6</ele>
        <time>2018-04-29T18:21:25Z</time>
      </trkpt>
      <trkpt lat="44.57012" lon="0.89043">
        <ele>177.6</ele>
        <time>2018-04-29T18:21:27Z</time>
      </trkpt>
      <trkpt lat="44.57017" lon="0.89037">
        <ele>177.6</ele>
        <time>2018-04-29T18:21:29Z</time>
      </trkpt>
      <trkpt lat="44.5702" lon="0.89034">
        <ele>177.6</ele>
        <time>2018-04-29T18:21:30Z</time>
      </trkpt>
      <trkpt lat="44.57026" lon="0.89023">
        <ele>177.6</ele>
        <time>2018-04-29T18:21:33Z</time>
      </trkpt>
      <trkpt lat="44.57033" lon="0.89013">
        <ele>177.6</ele>
        <time>2018-04-29T18:21:36Z</time>
      </trkpt>
      <trkpt lat="44.57041" lon="0.88999">
        <ele>177.6</ele>
        <time>2018-04-29T18:21:39Z</time>
      </trkpt>
      <trkpt lat="44.57049" lon="0.88983">
        <ele>178.8</ele>
        <time>2018-04-29T18:21:42Z</time>
      </trkpt>
      <trkpt lat="44.57051" lon="0.88979">
        <ele>179.2</ele>
        <time>2018-04-29T18:21:43Z</time>
      </trkpt>
      <trkpt lat="44.57054" lon="0.88974">
        <ele>179.8</ele>
        <time>2018-04-29T18:21:44Z</time>
      </trkpt>
      <trkpt lat="44.57057" lon="0.88965">
        <ele>179.8</ele>
        <time>2018-04-29T18:21:46Z</time>
      </trkpt>
      <trkpt lat="44.57059" lon="0.88958">
        <ele>180.2</ele>
        <time>2018-04-29T18:21:48Z</time>
      </trkpt>
      <trkpt lat="44.5706" lon="0.88953">
        <ele>180.6</ele>
        <time>2018-04-29T18:21:49Z</time>
      </trkpt>
      <trkpt lat="44.57064" lon="0.88949">
        <ele>181.2</ele>
        <time>2018-04-29T18:21:50Z</time>
      </trkpt>
      <trkpt lat="44.57067" lon="0.88944">
        <ele>181.6</ele>
        <time>2018-04-29T18:21:51Z</time>
      </trkpt>
      <trkpt lat="44.5707" lon="0.88939">
        <ele>182</ele>
        <time>2018-04-29T18:21:52Z</time>
      </trkpt>
      <trkpt lat="44.57079" lon="0.88921">
        <ele>182</ele>
        <time>2018-04-29T18:21:55Z</time>
      </trkpt>
      <trkpt lat="44.57083" lon="0.88916">
        <ele>182</ele>
        <time>2018-04-29T18:21:56Z</time>
      </trkpt>
      <trkpt lat="44.57086" lon="0.8891">
        <ele>182.4</ele>
        <time>2018-04-29T18:21:57Z</time>
      </trkpt>
      <trkpt lat="44.5709" lon="0.88906">
        <ele>182.8</ele>
        <time>2018-04-29T18:21:58Z</time>
      </trkpt>
      <trkpt lat="44.57094" lon="0.88901">
        <ele>183.4</ele>
        <time>2018-04-29T18:21:59Z</time>
      </trkpt>
      <trkpt lat="44.57098" lon="0.88897">
        <ele>183.8</ele>
        <time>2018-04-29T18:22:00Z</time>
      </trkpt>
      <trkpt lat="44.57101" lon="0.88892">
        <ele>184.2</ele>
        <time>2018-04-29T18:22:01Z</time>
      </trkpt>
      <trkpt lat="44.57104" lon="0.88888">
        <ele>184.2</ele>
        <time>2018-04-29T18:22:02Z</time>
      </trkpt>
      <trkpt lat="44.57107" lon="0.88883">
        <ele>184.6</ele>
        <time>2018-04-29T18:22:03Z</time>
      </trkpt>
      <trkpt lat="44.5711" lon="0.88878">
        <ele>185.2</ele>
        <time>2018-04-29T18:22:04Z</time>
      </trkpt>
      <trkpt lat="44.57113" lon="0.88874">
        <ele>185.6</ele>
        <time>2018-04-29T18:22:05Z</time>
      </trkpt>
      <trkpt lat="44.57115" lon="0.88871">
        <ele>186.2</ele>
        <time>2018-04-29T18:22:06Z</time>
      </trkpt>
      <trkpt lat="44.57118" lon="0.88867">
        <ele>186.6</ele>
        <time>2018-04-29T18:22:07Z</time>
      </trkpt>
      <trkpt lat="44.5712" lon="0.88864">
        <ele>187</ele>
        <time>2018-04-29T18:22:08Z</time>
      </trkpt>
      <trkpt lat="44.57123" lon="0.8886">
        <ele>187.6</ele>
        <time>2018-04-29T18:22:09Z</time>
      </trkpt>
      <trkpt lat="44.57125" lon="0.88857">
        <ele>188</ele>
        <time>2018-04-29T18:22:10Z</time>
      </trkpt>
      <trkpt lat="44.57128" lon="0.88854">
        <ele>188.4</ele>
        <time>2018-04-29T18:22:11Z</time>
      </trkpt>
      <trkpt lat="44.57129" lon="0.88851">
        <ele>189</ele>
        <time>2018-04-29T18:22:12Z</time>
      </trkpt>
      <trkpt lat="44.57142" lon="0.88834">
        <ele>189.4</ele>
        <time>2018-04-29T18:22:19Z</time>
      </trkpt>
      <trkpt lat="44.57144" lon="0.88828">
        <ele>189.8</ele>
        <time>2018-04-29T18:22:20Z</time>
      </trkpt>
      <trkpt lat="44.57145" lon="0.88825">
        <ele>190.4</ele>
        <time>2018-04-29T18:22:21Z</time>
      </trkpt>
      <trkpt lat="44.57146" lon="0.88821">
        <ele>190.8</ele>
        <time>2018-04-29T18:22:22Z</time>
      </trkpt>
      <trkpt lat="44.57148" lon="0.88818">
        <ele>191.2</ele>
        <time>2018-04-29T18:22:23Z</time>
      </trkpt>
      <trkpt lat="44.5715" lon="0.88814">
        <ele>191.2</ele>
        <time>2018-04-29T18:22:25Z</time>
      </trkpt>
      <trkpt lat="44.57151" lon="0.88812">
        <ele>191.2</ele>
        <time>2018-04-29T18:22:26Z</time>
      </trkpt>
      <trkpt lat="44.57156" lon="0.88807">
        <ele>191.2</ele>
        <time>2018-04-29T18:22:31Z</time>
      </trkpt>
      <trkpt lat="44.5716" lon="0.88802">
        <ele>191.2</ele>
        <time>2018-04-29T18:22:36Z</time>
      </trkpt>
      <trkpt lat="44.57161" lon="0.88801">
        <ele>191.2</ele>
        <time>2018-04-29T18:22:37Z</time>
      </trkpt>
      <trkpt lat="44.57167" lon="0.88795">
        <ele>191.2</ele>
        <time>2018-04-29T18:22:42Z</time>
      </trkpt>
      <trkpt lat="44.57169" lon="0.88793">
        <ele>191.2</ele>
        <time>2018-04-29T18:22:44Z</time>
      </trkpt>
      <trkpt lat="44.57173" lon="0.8879">
        <ele>191.2</ele>
        <time>2018-04-29T18:22:47Z</time>
      </trkpt>
      <trkpt lat="44.57177" lon="0.88784">
        <ele>191.2</ele>
        <time>2018-04-29T18:22:51Z</time>
      </trkpt>
      <trkpt lat="44.57178" lon="0.88783">
        <ele>191.2</ele>
        <time>2018-04-29T18:22:52Z</time>
      </trkpt>
      <trkpt lat="44.57181" lon="0.88779">
        <ele>191.2</ele>
        <time>2018-04-29T18:22:55Z</time>
      </trkpt>
      <trkpt lat="44.57184" lon="0.88776">
        <ele>191.2</ele>
        <time>2018-04-29T18:22:57Z</time>
      </trkpt>
      <trkpt lat="44.57185" lon="0.88774">
        <ele>191.2</ele>
        <time>2018-04-29T18:22:59Z</time>
      </trkpt>
      <trkpt lat="44.57188" lon="0.88771">
        <ele>191.2</ele>
        <time>2018-04-29T18:23:01Z</time>
      </trkpt>
      <trkpt lat="44.5719" lon="0.88768">
        <ele>191.2</ele>
        <time>2018-04-29T18:23:03Z</time>
      </trkpt>
      <trkpt lat="44.57194" lon="0.88763">
        <ele>191.2</ele>
        <time>2018-04-29T18:23:06Z</time>
      </trkpt>
      <trkpt lat="44.57197" lon="0.8876">
        <ele>191.2</ele>
        <time>2018-04-29T18:23:09Z</time>
      </trkpt>
      <trkpt lat="44.57201" lon="0.88756">
        <ele>191.2</ele>
        <time>2018-04-29T18:23:13Z</time>
      </trkpt>
      <trkpt lat="44.57208" lon="0.88744">
        <ele>191.2</ele>
        <time>2018-04-29T18:23:19Z</time>
      </trkpt>
      <trkpt lat="44.57213" lon="0.88735">
        <ele>191.2</ele>
        <time>2018-04-29T18:23:23Z</time>
      </trkpt>
      <trkpt lat="44.57215" lon="0.88731">
        <ele>191.6</ele>
        <time>2018-04-29T18:23:25Z</time>
      </trkpt>
      <trkpt lat="44.57216" lon="0.88729">
        <ele>192</ele>
        <time>2018-04-29T18:23:26Z</time>
      </trkpt>
      <trkpt lat="44.57217" lon="0.88726">
        <ele>192.4</ele>
        <time>2018-04-29T18:23:27Z</time>
      </trkpt>
      <trkpt lat="44.57219" lon="0.88724">
        <ele>192.8</ele>
        <time>2018-04-29T18:23:28Z</time>
      </trkpt>
      <trkpt lat="44.5722" lon="0.88723">
        <ele>193.2</ele>
        <time>2018-04-29T18:23:29Z</time>
      </trkpt>
      <trkpt lat="44.57223" lon="0.88715">
        <ele>193.2</ele>
        <time>2018-04-29T18:23:33Z</time>
      </trkpt>
      <trkpt lat="44.57227" lon="0.88708">
        <ele>193.2</ele>
        <time>2018-04-29T18:23:37Z</time>
      </trkpt>
      <trkpt lat="44.57229" lon="0.88704">
        <ele>193.2</ele>
        <time>2018-04-29T18:23:39Z</time>
      </trkpt>
      <trkpt lat="44.5723" lon="0.88702">
        <ele>193.2</ele>
        <time>2018-04-29T18:23:40Z</time>
      </trkpt>
      <trkpt lat="44.57238" lon="0.88694">
        <ele>193.2</ele>
        <time>2018-04-29T18:23:45Z</time>
      </trkpt>
      <trkpt lat="44.5724" lon="0.88692">
        <ele>193.2</ele>
        <time>2018-04-29T18:23:46Z</time>
      </trkpt>
      <trkpt lat="44.57244" lon="0.8869">
        <ele>193.2</ele>
        <time>2018-04-29T18:23:48Z</time>
      </trkpt>
      <trkpt lat="44.5725" lon="0.88687">
        <ele>193.2</ele>
        <time>2018-04-29T18:23:51Z</time>
      </trkpt>
      <trkpt lat="44.57252" lon="0.88686">
        <ele>193.2</ele>
        <time>2018-04-29T18:23:52Z</time>
      </trkpt>
      <trkpt lat="44.57265" lon="0.88679">
        <ele>193.2</ele>
        <time>2018-04-29T18:23:58Z</time>
      </trkpt>
      <trkpt lat="44.57269" lon="0.88676">
        <ele>193.8</ele>
        <time>2018-04-29T18:24:00Z</time>
      </trkpt>
      <trkpt lat="44.57271" lon="0.88675">
        <ele>194.2</ele>
        <time>2018-04-29T18:24:01Z</time>
      </trkpt>
      <trkpt lat="44.57273" lon="0.88674">
        <ele>194.6</ele>
        <time>2018-04-29T18:24:02Z</time>
      </trkpt>
      <trkpt lat="44.57275" lon="0.88673">
        <ele>195</ele>
        <time>2018-04-29T18:24:03Z</time>
      </trkpt>
      <trkpt lat="44.57277" lon="0.88672">
        <ele>195.4</ele>
        <time>2018-04-29T18:24:04Z</time>
      </trkpt>
      <trkpt lat="44.57279" lon="0.88669">
        <ele>195.4</ele>
        <time>2018-04-29T18:24:05Z</time>
      </trkpt>
      <trkpt lat="44.57283" lon="0.88666">
        <ele>195.4</ele>
        <time>2018-04-29T18:24:07Z</time>
      </trkpt>
      <trkpt lat="44.57289" lon="0.88664">
        <ele>195.8</ele>
        <time>2018-04-29T18:24:09Z</time>
      </trkpt>
      <trkpt lat="44.57292" lon="0.88663">
        <ele>196.2</ele>
        <time>2018-04-29T18:24:10Z</time>
      </trkpt>
      <trkpt lat="44.57294" lon="0.88661">
        <ele>197.2</ele>
        <time>2018-04-29T18:24:11Z</time>
      </trkpt>
      <trkpt lat="44.57298" lon="0.88661">
        <ele>197.6</ele>
        <time>2018-04-29T18:24:12Z</time>
      </trkpt>
      <trkpt lat="44.57308" lon="0.88658">
        <ele>197.6</ele>
        <time>2018-04-29T18:24:15Z</time>
      </trkpt>
      <trkpt lat="44.5732" lon="0.88651">
        <ele>198</ele>
        <time>2018-04-29T18:24:21Z</time>
      </trkpt>
      <trkpt lat="44.57322" lon="0.8865">
        <ele>198.4</ele>
        <time>2018-04-29T18:24:22Z</time>
      </trkpt>
      <trkpt lat="44.57324" lon="0.88649">
        <ele>198.8</ele>
        <time>2018-04-29T18:24:23Z</time>
      </trkpt>
      <trkpt lat="44.57325" lon="0.88647">
        <ele>199.2</ele>
        <time>2018-04-29T18:24:24Z</time>
      </trkpt>
      <trkpt lat="44.57326" lon="0.88646">
        <ele>199.6</ele>
        <time>2018-04-29T18:24:25Z</time>
      </trkpt>
      <trkpt lat="44.57331" lon="0.88641">
        <ele>199.6</ele>
        <time>2018-04-29T18:24:28Z</time>
      </trkpt>
      <trkpt lat="44.5734" lon="0.88636">
        <ele>199.6</ele>
        <time>2018-04-29T18:24:33Z</time>
      </trkpt>
      <trkpt lat="44.57341" lon="0.88634">
        <ele>199.6</ele>
        <time>2018-04-29T18:24:34Z</time>
      </trkpt>
      <trkpt lat="44.57344" lon="0.88632">
        <ele>200</ele>
        <time>2018-04-29T18:24:35Z</time>
      </trkpt>
      <trkpt lat="44.57347" lon="0.88631">
        <ele>200.8</ele>
        <time>2018-04-29T18:24:36Z</time>
      </trkpt>
      <trkpt lat="44.5735" lon="0.88631">
        <ele>201.2</ele>
        <time>2018-04-29T18:24:37Z</time>
      </trkpt>
      <trkpt lat="44.57352" lon="0.88631">
        <ele>201.6</ele>
        <time>2018-04-29T18:24:38Z</time>
      </trkpt>
      <trkpt lat="44.57373" lon="0.88629">
        <ele>202</ele>
        <time>2018-04-29T18:24:43Z</time>
      </trkpt>
      <trkpt lat="44.57375" lon="0.88627">
        <ele>202.4</ele>
        <time>2018-04-29T18:24:44Z</time>
      </trkpt>
      <trkpt lat="44.57377" lon="0.88626">
        <ele>203</ele>
        <time>2018-04-29T18:24:45Z</time>
      </trkpt>
      <trkpt lat="44.5738" lon="0.88624">
        <ele>203.4</ele>
        <time>2018-04-29T18:24:46Z</time>
      </trkpt>
      <trkpt lat="44.57383" lon="0.88624">
        <ele>203.8</ele>
        <time>2018-04-29T18:24:47Z</time>
      </trkpt>
      <trkpt lat="44.5739" lon="0.88622">
        <ele>204.2</ele>
        <time>2018-04-29T18:24:49Z</time>
      </trkpt>
      <trkpt lat="44.57394" lon="0.88621">
        <ele>204.6</ele>
        <time>2018-04-29T18:24:50Z</time>
      </trkpt>
      <trkpt lat="44.57397" lon="0.8862">
        <ele>205</ele>
        <time>2018-04-29T18:24:51Z</time>
      </trkpt>
      <trkpt lat="44.57401" lon="0.88619">
        <ele>205.4</ele>
        <time>2018-04-29T18:24:52Z</time>
      </trkpt>
      <trkpt lat="44.57403" lon="0.88617">
        <ele>205.8</ele>
        <time>2018-04-29T18:24:53Z</time>
      </trkpt>
      <trkpt lat="44.57408" lon="0.88614">
        <ele>205.8</ele>
        <time>2018-04-29T18:24:55Z</time>
      </trkpt>
      <trkpt lat="44.57417" lon="0.88609">
        <ele>206.2</ele>
        <time>2018-04-29T18:24:58Z</time>
      </trkpt>
      <trkpt lat="44.5742" lon="0.88607">
        <ele>206.8</ele>
        <time>2018-04-29T18:24:59Z</time>
      </trkpt>
      <trkpt lat="44.57423" lon="0.88606">
        <ele>207.6</ele>
        <time>2018-04-29T18:25:00Z</time>
      </trkpt>
      <trkpt lat="44.57425" lon="0.88605">
        <ele>208</ele>
        <time>2018-04-29T18:25:01Z</time>
      </trkpt>
      <trkpt lat="44.57428" lon="0.88603">
        <ele>208</ele>
        <time>2018-04-29T18:25:02Z</time>
      </trkpt>
      <trkpt lat="44.57445" lon="0.88591">
        <ele>208</ele>
        <time>2018-04-29T18:25:09Z</time>
      </trkpt>
      <trkpt lat="44.57462" lon="0.88576">
        <ele>208</ele>
        <time>2018-04-29T18:25:16Z</time>
      </trkpt>
      <trkpt lat="44.57478" lon="0.88564">
        <ele>208</ele>
        <time>2018-04-29T18:25:21Z</time>
      </trkpt>
      <trkpt lat="44.57488" lon="0.8856">
        <ele>208</ele>
        <time>2018-04-29T18:25:24Z</time>
      </trkpt>
      <trkpt lat="44.57504" lon="0.88556">
        <ele>208</ele>
        <time>2018-04-29T18:25:28Z</time>
      </trkpt>
      <trkpt lat="44.5752" lon="0.88552">
        <ele>208.4</ele>
        <time>2018-04-29T18:25:32Z</time>
      </trkpt>
      <trkpt lat="44.57524" lon="0.88552">
        <ele>208.8</ele>
        <time>2018-04-29T18:25:33Z</time>
      </trkpt>
      <trkpt lat="44.57528" lon="0.88552">
        <ele>209.2</ele>
        <time>2018-04-29T18:25:34Z</time>
      </trkpt>
      <trkpt lat="44.57531" lon="0.88552">
        <ele>209.8</ele>
        <time>2018-04-29T18:25:35Z</time>
      </trkpt>
      <trkpt lat="44.57534" lon="0.88552">
        <ele>210.2</ele>
        <time>2018-04-29T18:25:36Z</time>
      </trkpt>
      <trkpt lat="44.57541" lon="0.88554">
        <ele>210.2</ele>
        <time>2018-04-29T18:25:38Z</time>
      </trkpt>
      <trkpt lat="44.57561" lon="0.88556">
        <ele>210.2</ele>
        <time>2018-04-29T18:25:44Z</time>
      </trkpt>
      <trkpt lat="44.57568" lon="0.88555">
        <ele>210.2</ele>
        <time>2018-04-29T18:25:46Z</time>
      </trkpt>
      <trkpt lat="44.57584" lon="0.88555">
        <ele>210.2</ele>
        <time>2018-04-29T18:25:50Z</time>
      </trkpt>
      <trkpt lat="44.57589" lon="0.88555">
        <ele>210.2</ele>
        <time>2018-04-29T18:25:51Z</time>
      </trkpt>
      <trkpt lat="44.57598" lon="0.88554">
        <ele>210.2</ele>
        <time>2018-04-29T18:25:53Z</time>
      </trkpt>
      <trkpt lat="44.5761" lon="0.88552">
        <ele>210.2</ele>
        <time>2018-04-29T18:25:56Z</time>
      </trkpt>
      <trkpt lat="44.57619" lon="0.88551">
        <ele>210.2</ele>
        <time>2018-04-29T18:25:58Z</time>
      </trkpt>
      <trkpt lat="44.57631" lon="0.88549">
        <ele>210.2</ele>
        <time>2018-04-29T18:26:01Z</time>
      </trkpt>
      <trkpt lat="44.5764" lon="0.88549">
        <ele>210.2</ele>
        <time>2018-04-29T18:26:03Z</time>
      </trkpt>
      <trkpt lat="44.57649" lon="0.8855">
        <ele>210.2</ele>
        <time>2018-04-29T18:26:05Z</time>
      </trkpt>
      <trkpt lat="44.57679" lon="0.8855">
        <ele>210.2</ele>
        <time>2018-04-29T18:26:11Z</time>
      </trkpt>
      <trkpt lat="44.57688" lon="0.88549">
        <ele>210.2</ele>
        <time>2018-04-29T18:26:13Z</time>
      </trkpt>
      <trkpt lat="44.57696" lon="0.88548">
        <ele>210.2</ele>
        <time>2018-04-29T18:26:15Z</time>
      </trkpt>
      <trkpt lat="44.57704" lon="0.88546">
        <ele>210.2</ele>
        <time>2018-04-29T18:26:17Z</time>
      </trkpt>
      <trkpt lat="44.57716" lon="0.88543">
        <ele>210.2</ele>
        <time>2018-04-29T18:26:20Z</time>
      </trkpt>
      <trkpt lat="44.5772" lon="0.88541">
        <ele>210.2</ele>
        <time>2018-04-29T18:26:21Z</time>
      </trkpt>
      <trkpt lat="44.57732" lon="0.88534">
        <ele>210.2</ele>
        <time>2018-04-29T18:26:24Z</time>
      </trkpt>
      <trkpt lat="44.5774" lon="0.8853">
        <ele>210.2</ele>
        <time>2018-04-29T18:26:26Z</time>
      </trkpt>
      <trkpt lat="44.57748" lon="0.88526">
        <ele>210.2</ele>
        <time>2018-04-29T18:26:28Z</time>
      </trkpt>
      <trkpt lat="44.57757" lon="0.88522">
        <ele>210.6</ele>
        <time>2018-04-29T18:26:30Z</time>
      </trkpt>
      <trkpt lat="44.57761" lon="0.8852">
        <ele>211</ele>
        <time>2018-04-29T18:26:31Z</time>
      </trkpt>
      <trkpt lat="44.57763" lon="0.88517">
        <ele>211.4</ele>
        <time>2018-04-29T18:26:32Z</time>
      </trkpt>
      <trkpt lat="44.57766" lon="0.88516">
        <ele>211.8</ele>
        <time>2018-04-29T18:26:33Z</time>
      </trkpt>
      <trkpt lat="44.57769" lon="0.88514">
        <ele>212.2</ele>
        <time>2018-04-29T18:26:34Z</time>
      </trkpt>
      <trkpt lat="44.57782" lon="0.88505">
        <ele>212.2</ele>
        <time>2018-04-29T18:26:38Z</time>
      </trkpt>
      <trkpt lat="44.57787" lon="0.88502">
        <ele>212.2</ele>
        <time>2018-04-29T18:26:39Z</time>
      </trkpt>
      <trkpt lat="44.57797" lon="0.88499">
        <ele>212.2</ele>
        <time>2018-04-29T18:26:41Z</time>
      </trkpt>
      <trkpt lat="44.57813" lon="0.88496">
        <ele>212.2</ele>
        <time>2018-04-29T18:26:44Z</time>
      </trkpt>
      <trkpt lat="44.57819" lon="0.88497">
        <ele>212.2</ele>
        <time>2018-04-29T18:26:45Z</time>
      </trkpt>
      <trkpt lat="44.57831" lon="0.88499">
        <ele>212.2</ele>
        <time>2018-04-29T18:26:47Z</time>
      </trkpt>
      <trkpt lat="44.57836" lon="0.88503">
        <ele>212.2</ele>
        <time>2018-04-29T18:26:48Z</time>
      </trkpt>
      <trkpt lat="44.5784" lon="0.88506">
        <ele>212.2</ele>
        <time>2018-04-29T18:26:49Z</time>
      </trkpt>
      <trkpt lat="44.5785" lon="0.88516">
        <ele>212.2</ele>
        <time>2018-04-29T18:26:51Z</time>
      </trkpt>
      <trkpt lat="44.57853" lon="0.88519">
        <ele>212.2</ele>
        <time>2018-04-29T18:26:52Z</time>
      </trkpt>
      <trkpt lat="44.57864" lon="0.88528">
        <ele>212.2</ele>
        <time>2018-04-29T18:26:56Z</time>
      </trkpt>
      <trkpt lat="44.57881" lon="0.88545">
        <ele>212.2</ele>
        <time>2018-04-29T18:27:01Z</time>
      </trkpt>
      <trkpt lat="44.57885" lon="0.88547">
        <ele>212.2</ele>
        <time>2018-04-29T18:27:02Z</time>
      </trkpt>
      <trkpt lat="44.57902" lon="0.88551">
        <ele>212.2</ele>
        <time>2018-04-29T18:27:05Z</time>
      </trkpt>
      <trkpt lat="44.57908" lon="0.88551">
        <ele>212.2</ele>
        <time>2018-04-29T18:27:06Z</time>
      </trkpt>
      <trkpt lat="44.57931" lon="0.88552">
        <ele>212.6</ele>
        <time>2018-04-29T18:27:11Z</time>
      </trkpt>
      <trkpt lat="44.57936" lon="0.88553">
        <ele>213</ele>
        <time>2018-04-29T18:27:12Z</time>
      </trkpt>
      <trkpt lat="44.57941" lon="0.88554">
        <ele>213.4</ele>
        <time>2018-04-29T18:27:13Z</time>
      </trkpt>
      <trkpt lat="44.57945" lon="0.88555">
        <ele>213.8</ele>
        <time>2018-04-29T18:27:14Z</time>
      </trkpt>
      <trkpt lat="44.57949" lon="0.88556">
        <ele>214.2</ele>
        <time>2018-04-29T18:27:15Z</time>
      </trkpt>
      <trkpt lat="44.57954" lon="0.88557">
        <ele>214.8</ele>
        <time>2018-04-29T18:27:16Z</time>
      </trkpt>
      <trkpt lat="44.57957" lon="0.88558">
        <ele>215.2</ele>
        <time>2018-04-29T18:27:17Z</time>
      </trkpt>
      <trkpt lat="44.57961" lon="0.8856">
        <ele>215.6</ele>
        <time>2018-04-29T18:27:18Z</time>
      </trkpt>
      <trkpt lat="44.57964" lon="0.88562">
        <ele>216.2</ele>
        <time>2018-04-29T18:27:19Z</time>
      </trkpt>
      <trkpt lat="44.57967" lon="0.88564">
        <ele>216.6</ele>
        <time>2018-04-29T18:27:20Z</time>
      </trkpt>
      <trkpt lat="44.57971" lon="0.88566">
        <ele>217</ele>
        <time>2018-04-29T18:27:21Z</time>
      </trkpt>
      <trkpt lat="44.57974" lon="0.88568">
        <ele>217.4</ele>
        <time>2018-04-29T18:27:22Z</time>
      </trkpt>
      <trkpt lat="44.57978" lon="0.8857">
        <ele>218</ele>
        <time>2018-04-29T18:27:23Z</time>
      </trkpt>
      <trkpt lat="44.57982" lon="0.88572">
        <ele>218.4</ele>
        <time>2018-04-29T18:27:24Z</time>
      </trkpt>
      <trkpt lat="44.57986" lon="0.88573">
        <ele>218.8</ele>
        <time>2018-04-29T18:27:25Z</time>
      </trkpt>
      <trkpt lat="44.57995" lon="0.88578">
        <ele>218.8</ele>
        <time>2018-04-29T18:27:27Z</time>
      </trkpt>
      <trkpt lat="44.58" lon="0.8858">
        <ele>219.8</ele>
        <time>2018-04-29T18:27:28Z</time>
      </trkpt>
      <trkpt lat="44.58003" lon="0.88582">
        <ele>220.2</ele>
        <time>2018-04-29T18:27:29Z</time>
      </trkpt>
      <trkpt lat="44.58007" lon="0.88584">
        <ele>220.6</ele>
        <time>2018-04-29T18:27:30Z</time>
      </trkpt>
      <trkpt lat="44.5801" lon="0.88587">
        <ele>221</ele>
        <time>2018-04-29T18:27:31Z</time>
      </trkpt>
      <trkpt lat="44.58018" lon="0.88593">
        <ele>221</ele>
        <time>2018-04-29T18:27:33Z</time>
      </trkpt>
      <trkpt lat="44.58023" lon="0.88597">
        <ele>221</ele>
        <time>2018-04-29T18:27:34Z</time>
      </trkpt>
      <trkpt lat="44.58039" lon="0.88613">
        <ele>220.6</ele>
        <time>2018-04-29T18:27:37Z</time>
      </trkpt>
      <trkpt lat="44.58044" lon="0.8862">
        <ele>220.2</ele>
        <time>2018-04-29T18:27:38Z</time>
      </trkpt>
      <trkpt lat="44.5805" lon="0.88627">
        <ele>219.8</ele>
        <time>2018-04-29T18:27:39Z</time>
      </trkpt>
      <trkpt lat="44.58055" lon="0.88635">
        <ele>219.4</ele>
        <time>2018-04-29T18:27:40Z</time>
      </trkpt>
      <trkpt lat="44.58061" lon="0.88642">
        <ele>219</ele>
        <time>2018-04-29T18:27:41Z</time>
      </trkpt>
      <trkpt lat="44.58066" lon="0.88649">
        <ele>218.6</ele>
        <time>2018-04-29T18:27:42Z</time>
      </trkpt>
      <trkpt lat="44.58071" lon="0.88655">
        <ele>218</ele>
        <time>2018-04-29T18:27:43Z</time>
      </trkpt>
      <trkpt lat="44.58076" lon="0.88662">
        <ele>217.6</ele>
        <time>2018-04-29T18:27:44Z</time>
      </trkpt>
      <trkpt lat="44.58081" lon="0.88668">
        <ele>217.2</ele>
        <time>2018-04-29T18:27:45Z</time>
      </trkpt>
      <trkpt lat="44.58085" lon="0.88674">
        <ele>216.8</ele>
        <time>2018-04-29T18:27:46Z</time>
      </trkpt>
      <trkpt lat="44.58094" lon="0.88685">
        <ele>216.8</ele>
        <time>2018-04-29T18:27:48Z</time>
      </trkpt>
      <trkpt lat="44.58112" lon="0.88709">
        <ele>216.8</ele>
        <time>2018-04-29T18:27:52Z</time>
      </trkpt>
      <trkpt lat="44.5813" lon="0.88731">
        <ele>216.8</ele>
        <time>2018-04-29T18:27:56Z</time>
      </trkpt>
      <trkpt lat="44.58138" lon="0.8874">
        <ele>217.2</ele>
        <time>2018-04-29T18:27:58Z</time>
      </trkpt>
      <trkpt lat="44.58141" lon="0.88744">
        <ele>217.8</ele>
        <time>2018-04-29T18:27:59Z</time>
      </trkpt>
      <trkpt lat="44.58145" lon="0.88748">
        <ele>218.2</ele>
        <time>2018-04-29T18:28:00Z</time>
      </trkpt>
      <trkpt lat="44.5815" lon="0.88751">
        <ele>218.6</ele>
        <time>2018-04-29T18:28:01Z</time>
      </trkpt>
      <trkpt lat="44.58154" lon="0.88753">
        <ele>219</ele>
        <time>2018-04-29T18:28:02Z</time>
      </trkpt>
      <trkpt lat="44.58174" lon="0.88767">
        <ele>219</ele>
        <time>2018-04-29T18:28:06Z</time>
      </trkpt>
      <trkpt lat="44.58186" lon="0.88773">
        <ele>219</ele>
        <time>2018-04-29T18:28:08Z</time>
      </trkpt>
      <trkpt lat="44.58205" lon="0.88783">
        <ele>218.6</ele>
        <time>2018-04-29T18:28:11Z</time>
      </trkpt>
      <trkpt lat="44.58212" lon="0.88786">
        <ele>218</ele>
        <time>2018-04-29T18:28:12Z</time>
      </trkpt>
      <trkpt lat="44.58219" lon="0.88789">
        <ele>217.6</ele>
        <time>2018-04-29T18:28:13Z</time>
      </trkpt>
      <trkpt lat="44.58226" lon="0.88792">
        <ele>217.2</ele>
        <time>2018-04-29T18:28:14Z</time>
      </trkpt>
      <trkpt lat="44.58233" lon="0.88796">
        <ele>216.8</ele>
        <time>2018-04-29T18:28:15Z</time>
      </trkpt>
      <trkpt lat="44.5824" lon="0.88813">
        <ele>216.8</ele>
        <time>2018-04-29T18:28:17Z</time>
      </trkpt>
      <trkpt lat="44.58244" lon="0.88821">
        <ele>216.4</ele>
        <time>2018-04-29T18:28:18Z</time>
      </trkpt>
      <trkpt lat="44.58248" lon="0.8883">
        <ele>215.8</ele>
        <time>2018-04-29T18:28:19Z</time>
      </trkpt>
      <trkpt lat="44.58253" lon="0.88838">
        <ele>215.4</ele>
        <time>2018-04-29T18:28:20Z</time>
      </trkpt>
      <trkpt lat="44.58258" lon="0.88847">
        <ele>215</ele>
        <time>2018-04-29T18:28:21Z</time>
      </trkpt>
      <trkpt lat="44.58263" lon="0.88855">
        <ele>214.6</ele>
        <time>2018-04-29T18:28:22Z</time>
      </trkpt>
      <trkpt lat="44.58276" lon="0.8888">
        <ele>214.6</ele>
        <time>2018-04-29T18:28:25Z</time>
      </trkpt>
      <trkpt lat="44.58288" lon="0.88902">
        <ele>214.6</ele>
        <time>2018-04-29T18:28:28Z</time>
      </trkpt>
      <trkpt lat="44.583" lon="0.88923">
        <ele>214.6</ele>
        <time>2018-04-29T18:28:32Z</time>
      </trkpt>
      <trkpt lat="44.58306" lon="0.88938">
        <ele>214.6</ele>
        <time>2018-04-29T18:28:37Z</time>
      </trkpt>
      <trkpt lat="44.58305" lon="0.88939">
        <ele>214.6</ele>
        <time>2018-04-29T18:28:38Z</time>
      </trkpt>
      <trkpt lat="44.58305" lon="0.88941">
        <ele>214.6</ele>
        <time>2018-04-29T18:28:41Z</time>
      </trkpt>
      <trkpt lat="44.58306" lon="0.88941">
        <ele>216.6</ele>
        <time>2018-04-29T18:30:27Z</time>
      </trkpt>
      <trkpt lat="44.58307" lon="0.88945">
        <ele>216.6</ele>
        <time>2018-04-29T18:30:28Z</time>
      </trkpt>
      <trkpt lat="44.58307" lon="0.88947">
        <ele>216.6</ele>
        <time>2018-04-29T18:30:29Z</time>
      </trkpt>
      <trkpt lat="44.58309" lon="0.88948">
        <ele>216.6</ele>
        <time>2018-04-29T18:30:30Z</time>
      </trkpt>
      <trkpt lat="44.58309" lon="0.88955">
        <ele>216.6</ele>
        <time>2018-04-29T18:30:32Z</time>
      </trkpt>
      <trkpt lat="44.58309" lon="0.88962">
        <ele>216.6</ele>
        <time>2018-04-29T18:30:34Z</time>
      </trkpt>
      <trkpt lat="44.58309" lon="0.88968">
        <ele>216.6</ele>
        <time>2018-04-29T18:30:36Z</time>
      </trkpt>
      <trkpt lat="44.5831" lon="0.88972">
        <ele>216.6</ele>
        <time>2018-04-29T18:30:38Z</time>
      </trkpt>
      <trkpt lat="44.58313" lon="0.88978">
        <ele>216.6</ele>
        <time>2018-04-29T18:30:43Z</time>
      </trkpt>
      <trkpt lat="44.58313" lon="0.88981">
        <ele>216.6</ele>
        <time>2018-04-29T18:30:45Z</time>
      </trkpt>
      <trkpt lat="44.58316" lon="0.8899">
        <ele>216.6</ele>
        <time>2018-04-29T18:30:50Z</time>
      </trkpt>
      <trkpt lat="44.5832" lon="0.88997">
        <ele>216.6</ele>
        <time>2018-04-29T18:30:56Z</time>
      </trkpt>
      <trkpt lat="44.58321" lon="0.88999">
        <ele>216.6</ele>
        <time>2018-04-29T18:30:57Z</time>
      </trkpt>
      <trkpt lat="44.58322" lon="0.89011">
        <ele>216.6</ele>
        <time>2018-04-29T18:31:02Z</time>
      </trkpt>
      <trkpt lat="44.58324" lon="0.89025">
        <ele>216.6</ele>
        <time>2018-04-29T18:31:07Z</time>
      </trkpt>
      <trkpt lat="44.58324" lon="0.8903">
        <ele>216.6</ele>
        <time>2018-04-29T18:31:10Z</time>
      </trkpt>
      <trkpt lat="44.58323" lon="0.89027">
        <ele>216.6</ele>
        <time>2018-04-29T18:31:29Z</time>
      </trkpt>
      <trkpt lat="44.58323" lon="0.89025">
        <ele>216.6</ele>
        <time>2018-04-29T18:31:30Z</time>
      </trkpt>
      <trkpt lat="44.5832" lon="0.8902">
        <ele>216.6</ele>
        <time>2018-04-29T18:31:34Z</time>
      </trkpt>
      <trkpt lat="44.5832" lon="0.89018">
        <ele>216.6</ele>
        <time>2018-04-29T18:31:35Z</time>
      </trkpt>
      <trkpt lat="44.58319" lon="0.89012">
        <ele>216.6</ele>
        <time>2018-04-29T18:31:38Z</time>
      </trkpt>
      <trkpt lat="44.58319" lon="0.89011">
        <ele>216.6</ele>
        <time>2018-04-29T18:31:39Z</time>
      </trkpt>
      <trkpt lat="44.58319" lon="0.88988">
        <ele>216.6</ele>
        <time>2018-04-29T18:33:25Z</time>
      </trkpt>
      <trkpt lat="44.58318" lon="0.88985">
        <ele>216.6</ele>
        <time>2018-04-29T18:33:26Z</time>
      </trkpt>
      <trkpt lat="44.58317" lon="0.88976">
        <ele>216.6</ele>
        <time>2018-04-29T18:33:30Z</time>
      </trkpt>
      <trkpt lat="44.58316" lon="0.88975">
        <ele>216.6</ele>
        <time>2018-04-29T18:33:31Z</time>
      </trkpt>
      <trkpt lat="44.58314" lon="0.88958">
        <ele>216.6</ele>
        <time>2018-04-29T18:33:37Z</time>
      </trkpt>
      <trkpt lat="44.58319" lon="0.88941">
        <ele>216.6</ele>
        <time>2018-04-29T18:33:42Z</time>
      </trkpt>
      <trkpt lat="44.58322" lon="0.88919">
        <ele>216.6</ele>
        <time>2018-04-29T18:33:47Z</time>
      </trkpt>
      <trkpt lat="44.58332" lon="0.88902">
        <ele>216.2</ele>
        <time>2018-04-29T18:33:52Z</time>
      </trkpt>
      <trkpt lat="44.58335" lon="0.88899">
        <ele>215.6</ele>
        <time>2018-04-29T18:33:53Z</time>
      </trkpt>
      <trkpt lat="44.58337" lon="0.88895">
        <ele>215.2</ele>
        <time>2018-04-29T18:33:54Z</time>
      </trkpt>
      <trkpt lat="44.58339" lon="0.88891">
        <ele>214.8</ele>
        <time>2018-04-29T18:33:55Z</time>
      </trkpt>
      <trkpt lat="44.58341" lon="0.88888">
        <ele>214.2</ele>
        <time>2018-04-29T18:33:56Z</time>
      </trkpt>
      <trkpt lat="44.58349" lon="0.88879">
        <ele>214.2</ele>
        <time>2018-04-29T18:33:59Z</time>
      </trkpt>
      <trkpt lat="44.58354" lon="0.88873">
        <ele>213.8</ele>
        <time>2018-04-29T18:34:01Z</time>
      </trkpt>
      <trkpt lat="44.58356" lon="0.88871">
        <ele>213.4</ele>
        <time>2018-04-29T18:34:02Z</time>
      </trkpt>
      <trkpt lat="44.58358" lon="0.88871">
        <ele>212.6</ele>
        <time>2018-04-29T18:34:03Z</time>
      </trkpt>
      <trkpt lat="44.5836" lon="0.8887">
        <ele>212</ele>
        <time>2018-04-29T18:34:04Z</time>
      </trkpt>
      <trkpt lat="44.58362" lon="0.88869">
        <ele>211.6</ele>
        <time>2018-04-29T18:34:05Z</time>
      </trkpt>
      <trkpt lat="44.58363" lon="0.88869">
        <ele>211.2</ele>
        <time>2018-04-29T18:34:06Z</time>
      </trkpt>
      <trkpt lat="44.58366" lon="0.88867">
        <ele>210.8</ele>
        <time>2018-04-29T18:34:07Z</time>
      </trkpt>
      <trkpt lat="44.58368" lon="0.88864">
        <ele>210.4</ele>
        <time>2018-04-29T18:34:08Z</time>
      </trkpt>
      <trkpt lat="44.58371" lon="0.88861">
        <ele>210</ele>
        <time>2018-04-29T18:34:09Z</time>
      </trkpt>
      <trkpt lat="44.58373" lon="0.88857">
        <ele>209.6</ele>
        <time>2018-04-29T18:34:10Z</time>
      </trkpt>
      <trkpt lat="44.58375" lon="0.88855">
        <ele>209.2</ele>
        <time>2018-04-29T18:34:11Z</time>
      </trkpt>
      <trkpt lat="44.58377" lon="0.88854">
        <ele>208.8</ele>
        <time>2018-04-29T18:34:12Z</time>
      </trkpt>
      <trkpt lat="44.5838" lon="0.88854">
        <ele>208.4</ele>
        <time>2018-04-29T18:34:13Z</time>
      </trkpt>
      <trkpt lat="44.58383" lon="0.88855">
        <ele>208</ele>
        <time>2018-04-29T18:34:14Z</time>
      </trkpt>
      <trkpt lat="44.58388" lon="0.88858">
        <ele>208</ele>
        <time>2018-04-29T18:34:17Z</time>
      </trkpt>
      <trkpt lat="44.5839" lon="0.88859">
        <ele>207.6</ele>
        <time>2018-04-29T18:34:18Z</time>
      </trkpt>
      <trkpt lat="44.58392" lon="0.88861">
        <ele>207.2</ele>
        <time>2018-04-29T18:34:19Z</time>
      </trkpt>
      <trkpt lat="44.58394" lon="0.88862">
        <ele>206.8</ele>
        <time>2018-04-29T18:34:20Z</time>
      </trkpt>
      <trkpt lat="44.58396" lon="0.88865">
        <ele>206.4</ele>
        <time>2018-04-29T18:34:21Z</time>
      </trkpt>
      <trkpt lat="44.58398" lon="0.88867">
        <ele>206</ele>
        <time>2018-04-29T18:34:22Z</time>
      </trkpt>
      <trkpt lat="44.584" lon="0.8887">
        <ele>206</ele>
        <time>2018-04-29T18:34:23Z</time>
      </trkpt>
      <trkpt lat="44.58418" lon="0.8889">
        <ele>206</ele>
        <time>2018-04-29T18:34:29Z</time>
      </trkpt>
      <trkpt lat="44.58439" lon="0.88905">
        <ele>205.6</ele>
        <time>2018-04-29T18:34:35Z</time>
      </trkpt>
      <trkpt lat="44.58443" lon="0.88907">
        <ele>205.2</ele>
        <time>2018-04-29T18:34:36Z</time>
      </trkpt>
      <trkpt lat="44.58447" lon="0.88909">
        <ele>204.6</ele>
        <time>2018-04-29T18:34:37Z</time>
      </trkpt>
      <trkpt lat="44.58451" lon="0.88912">
        <ele>204.2</ele>
        <time>2018-04-29T18:34:38Z</time>
      </trkpt>
      <trkpt lat="44.58455" lon="0.88914">
        <ele>203.8</ele>
        <time>2018-04-29T18:34:39Z</time>
      </trkpt>
      <trkpt lat="44.58469" lon="0.88923">
        <ele>203.8</ele>
        <time>2018-04-29T18:34:43Z</time>
      </trkpt>
      <trkpt lat="44.58472" lon="0.88925">
        <ele>203.8</ele>
        <time>2018-04-29T18:34:44Z</time>
      </trkpt>
      <trkpt lat="44.58488" lon="0.88935">
        <ele>203.8</ele>
        <time>2018-04-29T18:34:49Z</time>
      </trkpt>
      <trkpt lat="44.58495" lon="0.88939">
        <ele>203.8</ele>
        <time>2018-04-29T18:34:51Z</time>
      </trkpt>
      <trkpt lat="44.58508" lon="0.88948">
        <ele>203.8</ele>
        <time>2018-04-29T18:34:54Z</time>
      </trkpt>
      <trkpt lat="44.58525" lon="0.8896">
        <ele>203.8</ele>
        <time>2018-04-29T18:34:58Z</time>
      </trkpt>
      <trkpt lat="44.58533" lon="0.88966">
        <ele>203.4</ele>
        <time>2018-04-29T18:35:00Z</time>
      </trkpt>
      <trkpt lat="44.58537" lon="0.8897">
        <ele>203</ele>
        <time>2018-04-29T18:35:01Z</time>
      </trkpt>
      <trkpt lat="44.5854" lon="0.88973">
        <ele>202.4</ele>
        <time>2018-04-29T18:35:02Z</time>
      </trkpt>
      <trkpt lat="44.58543" lon="0.88976">
        <ele>202</ele>
        <time>2018-04-29T18:35:03Z</time>
      </trkpt>
      <trkpt lat="44.58545" lon="0.8898">
        <ele>201.4</ele>
        <time>2018-04-29T18:35:04Z</time>
      </trkpt>
      <trkpt lat="44.58547" lon="0.8899">
        <ele>201</ele>
        <time>2018-04-29T18:35:06Z</time>
      </trkpt>
      <trkpt lat="44.58547" lon="0.88995">
        <ele>200.6</ele>
        <time>2018-04-29T18:35:07Z</time>
      </trkpt>
      <trkpt lat="44.58545" lon="0.89">
        <ele>200.2</ele>
        <time>2018-04-29T18:35:08Z</time>
      </trkpt>
      <trkpt lat="44.58544" lon="0.89005">
        <ele>199.8</ele>
        <time>2018-04-29T18:35:09Z</time>
      </trkpt>
      <trkpt lat="44.58543" lon="0.89009">
        <ele>199.4</ele>
        <time>2018-04-29T18:35:10Z</time>
      </trkpt>
      <trkpt lat="44.5854" lon="0.89018">
        <ele>199.4</ele>
        <time>2018-04-29T18:35:12Z</time>
      </trkpt>
      <trkpt lat="44.58535" lon="0.89033">
        <ele>199.4</ele>
        <time>2018-04-29T18:35:16Z</time>
      </trkpt>
      <trkpt lat="44.58528" lon="0.8905">
        <ele>199.4</ele>
        <time>2018-04-29T18:35:20Z</time>
      </trkpt>
      <trkpt lat="44.58525" lon="0.8906">
        <ele>199.8</ele>
        <time>2018-04-29T18:35:22Z</time>
      </trkpt>
      <trkpt lat="44.58524" lon="0.89064">
        <ele>200.4</ele>
        <time>2018-04-29T18:35:23Z</time>
      </trkpt>
      <trkpt lat="44.58523" lon="0.89068">
        <ele>200.8</ele>
        <time>2018-04-29T18:35:24Z</time>
      </trkpt>
      <trkpt lat="44.58522" lon="0.89072">
        <ele>201.2</ele>
        <time>2018-04-29T18:35:25Z</time>
      </trkpt>
      <trkpt lat="44.58521" lon="0.89076">
        <ele>201.8</ele>
        <time>2018-04-29T18:35:26Z</time>
      </trkpt>
      <trkpt lat="44.5852" lon="0.8908">
        <ele>201.8</ele>
        <time>2018-04-29T18:35:27Z</time>
      </trkpt>
      <trkpt lat="44.58519" lon="0.89089">
        <ele>202.2</ele>
        <time>2018-04-29T18:35:29Z</time>
      </trkpt>
      <trkpt lat="44.58517" lon="0.89093">
        <ele>202.6</ele>
        <time>2018-04-29T18:35:30Z</time>
      </trkpt>
      <trkpt lat="44.58516" lon="0.89099">
        <ele>203</ele>
        <time>2018-04-29T18:35:31Z</time>
      </trkpt>
      <trkpt lat="44.58515" lon="0.89103">
        <ele>203.4</ele>
        <time>2018-04-29T18:35:32Z</time>
      </trkpt>
      <trkpt lat="44.58514" lon="0.89108">
        <ele>203.8</ele>
        <time>2018-04-29T18:35:33Z</time>
      </trkpt>
      <trkpt lat="44.5851" lon="0.89126">
        <ele>204.2</ele>
        <time>2018-04-29T18:35:37Z</time>
      </trkpt>
      <trkpt lat="44.58507" lon="0.89129">
        <ele>204.6</ele>
        <time>2018-04-29T18:35:38Z</time>
      </trkpt>
      <trkpt lat="44.58506" lon="0.89133">
        <ele>205</ele>
        <time>2018-04-29T18:35:39Z</time>
      </trkpt>
      <trkpt lat="44.58505" lon="0.89137">
        <ele>205.4</ele>
        <time>2018-04-29T18:35:40Z</time>
      </trkpt>
      <trkpt lat="44.58504" lon="0.89142">
        <ele>205.8</ele>
        <time>2018-04-29T18:35:41Z</time>
      </trkpt>
      <trkpt lat="44.58499" lon="0.89159">
        <ele>205.8</ele>
        <time>2018-04-29T18:35:44Z</time>
      </trkpt>
      <trkpt lat="44.58495" lon="0.8917">
        <ele>205.8</ele>
        <time>2018-04-29T18:35:46Z</time>
      </trkpt>
      <trkpt lat="44.58493" lon="0.89182">
        <ele>205.8</ele>
        <time>2018-04-29T18:35:48Z</time>
      </trkpt>
      <trkpt lat="44.58492" lon="0.89187">
        <ele>205.8</ele>
        <time>2018-04-29T18:35:49Z</time>
      </trkpt>
      <trkpt lat="44.58489" lon="0.89201">
        <ele>205.8</ele>
        <time>2018-04-29T18:35:52Z</time>
      </trkpt>
      <trkpt lat="44.58489" lon="0.89207">
        <ele>205.8</ele>
        <time>2018-04-29T18:35:53Z</time>
      </trkpt>
      <trkpt lat="44.58488" lon="0.89241">
        <ele>205.8</ele>
        <time>2018-04-29T18:35:59Z</time>
      </trkpt>
      <trkpt lat="44.58488" lon="0.89255">
        <ele>205.8</ele>
        <time>2018-04-29T18:36:03Z</time>
      </trkpt>
      <trkpt lat="44.58487" lon="0.89257">
        <ele>206.4</ele>
        <time>2018-04-29T18:36:04Z</time>
      </trkpt>
      <trkpt lat="44.5848" lon="0.89262">
        <ele>208</ele>
        <time>2018-04-29T18:36:30Z</time>
      </trkpt>
      <trkpt lat="44.58482" lon="0.89264">
        <ele>208</ele>
        <time>2018-04-29T18:36:31Z</time>
      </trkpt>
      <trkpt lat="44.58483" lon="0.89266">
        <ele>208</ele>
        <time>2018-04-29T18:36:32Z</time>
      </trkpt>
      <trkpt lat="44.58487" lon="0.89271">
        <ele>208.4</ele>
        <time>2018-04-29T18:36:34Z</time>
      </trkpt>
      <trkpt lat="44.58488" lon="0.89273">
        <ele>208.8</ele>
        <time>2018-04-29T18:36:35Z</time>
      </trkpt>
      <trkpt lat="44.58491" lon="0.89275">
        <ele>209.4</ele>
        <time>2018-04-29T18:36:36Z</time>
      </trkpt>
      <trkpt lat="44.58494" lon="0.89276">
        <ele>209.8</ele>
        <time>2018-04-29T18:36:37Z</time>
      </trkpt>
      <trkpt lat="44.58497" lon="0.89277">
        <ele>210.2</ele>
        <time>2018-04-29T18:36:38Z</time>
      </trkpt>
      <trkpt lat="44.58519" lon="0.89278">
        <ele>210.2</ele>
        <time>2018-04-29T18:36:42Z</time>
      </trkpt>
      <trkpt lat="44.58539" lon="0.89274">
        <ele>210.2</ele>
        <time>2018-04-29T18:36:47Z</time>
      </trkpt>
      <trkpt lat="44.58551" lon="0.89269">
        <ele>210.2</ele>
        <time>2018-04-29T18:36:50Z</time>
      </trkpt>
      <trkpt lat="44.5856" lon="0.89265">
        <ele>210.2</ele>
        <time>2018-04-29T18:36:52Z</time>
      </trkpt>
      <trkpt lat="44.58565" lon="0.89264">
        <ele>210.2</ele>
        <time>2018-04-29T18:36:53Z</time>
      </trkpt>
      <trkpt lat="44.58575" lon="0.89258">
        <ele>210.2</ele>
        <time>2018-04-29T18:36:55Z</time>
      </trkpt>
      <trkpt lat="44.58581" lon="0.89254">
        <ele>210.2</ele>
        <time>2018-04-29T18:36:56Z</time>
      </trkpt>
      <trkpt lat="44.58591" lon="0.89246">
        <ele>210.2</ele>
        <time>2018-04-29T18:36:58Z</time>
      </trkpt>
      <trkpt lat="44.58595" lon="0.89246">
        <ele>210.2</ele>
        <time>2018-04-29T18:36:59Z</time>
      </trkpt>
      <trkpt lat="44.58611" lon="0.89247">
        <ele>210.2</ele>
        <time>2018-04-29T18:37:03Z</time>
      </trkpt>
      <trkpt lat="44.58616" lon="0.89247">
        <ele>209.8</ele>
        <time>2018-04-29T18:37:04Z</time>
      </trkpt>
      <trkpt lat="44.5862" lon="0.89248">
        <ele>209.4</ele>
        <time>2018-04-29T18:37:05Z</time>
      </trkpt>
      <trkpt lat="44.58624" lon="0.89249">
        <ele>209</ele>
        <time>2018-04-29T18:37:06Z</time>
      </trkpt>
      <trkpt lat="44.58628" lon="0.89251">
        <ele>208.6</ele>
        <time>2018-04-29T18:37:07Z</time>
      </trkpt>
      <trkpt lat="44.58633" lon="0.89255">
        <ele>208</ele>
        <time>2018-04-29T18:37:08Z</time>
      </trkpt>
      <trkpt lat="44.58637" lon="0.89258">
        <ele>207.4</ele>
        <time>2018-04-29T18:37:09Z</time>
      </trkpt>
      <trkpt lat="44.58642" lon="0.89262">
        <ele>206.8</ele>
        <time>2018-04-29T18:37:10Z</time>
      </trkpt>
      <trkpt lat="44.58649" lon="0.89265">
        <ele>206</ele>
        <time>2018-04-29T18:37:11Z</time>
      </trkpt>
      <trkpt lat="44.58655" lon="0.89269">
        <ele>205.2</ele>
        <time>2018-04-29T18:37:12Z</time>
      </trkpt>
      <trkpt lat="44.58662" lon="0.89274">
        <ele>204.4</ele>
        <time>2018-04-29T18:37:13Z</time>
      </trkpt>
      <trkpt lat="44.58669" lon="0.89279">
        <ele>203.6</ele>
        <time>2018-04-29T18:37:14Z</time>
      </trkpt>
      <trkpt lat="44.58674" lon="0.89283">
        <ele>203</ele>
        <time>2018-04-29T18:37:15Z</time>
      </trkpt>
      <trkpt lat="44.58678" lon="0.89287">
        <ele>202.2</ele>
        <time>2018-04-29T18:37:16Z</time>
      </trkpt>
      <trkpt lat="44.5868" lon="0.89289">
        <ele>201.4</ele>
        <time>2018-04-29T18:37:17Z</time>
      </trkpt>
      <trkpt lat="44.58682" lon="0.8929">
        <ele>200.8</ele>
        <time>2018-04-29T18:37:18Z</time>
      </trkpt>
      <trkpt lat="44.58683" lon="0.89293">
        <ele>200.8</ele>
        <time>2018-04-29T18:37:19Z</time>
      </trkpt>
      <trkpt lat="44.58683" lon="0.89295">
        <ele>201.2</ele>
        <time>2018-04-29T18:37:20Z</time>
      </trkpt>
      <trkpt lat="44.58684" lon="0.89298">
        <ele>202</ele>
        <time>2018-04-29T18:37:21Z</time>
      </trkpt>
      <trkpt lat="44.58684" lon="0.893">
        <ele>202.4</ele>
        <time>2018-04-29T18:37:22Z</time>
      </trkpt>
      <trkpt lat="44.58684" lon="0.89302">
        <ele>202.8</ele>
        <time>2018-04-29T18:37:23Z</time>
      </trkpt>
      <trkpt lat="44.58687" lon="0.89311">
        <ele>203.4</ele>
        <time>2018-04-29T18:37:26Z</time>
      </trkpt>
      <trkpt lat="44.58688" lon="0.89314">
        <ele>203.8</ele>
        <time>2018-04-29T18:37:27Z</time>
      </trkpt>
      <trkpt lat="44.58691" lon="0.89317">
        <ele>204.2</ele>
        <time>2018-04-29T18:37:28Z</time>
      </trkpt>
      <trkpt lat="44.58693" lon="0.89321">
        <ele>204.8</ele>
        <time>2018-04-29T18:37:29Z</time>
      </trkpt>
      <trkpt lat="44.58694" lon="0.89323">
        <ele>205.2</ele>
        <time>2018-04-29T18:37:30Z</time>
      </trkpt>
      <trkpt lat="44.58695" lon="0.89327">
        <ele>205.2</ele>
        <time>2018-04-29T18:37:32Z</time>
      </trkpt>
      <trkpt lat="44.58697" lon="0.89334">
        <ele>205.6</ele>
        <time>2018-04-29T18:37:35Z</time>
      </trkpt>
      <trkpt lat="44.58698" lon="0.89336">
        <ele>206</ele>
        <time>2018-04-29T18:37:36Z</time>
      </trkpt>
      <trkpt lat="44.58698" lon="0.89338">
        <ele>206.6</ele>
        <time>2018-04-29T18:37:37Z</time>
      </trkpt>
      <trkpt lat="44.58699" lon="0.89341">
        <ele>207</ele>
        <time>2018-04-29T18:37:38Z</time>
      </trkpt>
      <trkpt lat="44.58699" lon="0.89343">
        <ele>207.4</ele>
        <time>2018-04-29T18:37:39Z</time>
      </trkpt>
      <trkpt lat="44.58702" lon="0.89356">
        <ele>207.8</ele>
        <time>2018-04-29T18:37:45Z</time>
      </trkpt>
      <trkpt lat="44.58703" lon="0.89358">
        <ele>208.6</ele>
        <time>2018-04-29T18:37:46Z</time>
      </trkpt>
      <trkpt lat="44.58704" lon="0.8936">
        <ele>209</ele>
        <time>2018-04-29T18:37:47Z</time>
      </trkpt>
      <trkpt lat="44.58704" lon="0.89362">
        <ele>209.4</ele>
        <time>2018-04-29T18:37:48Z</time>
      </trkpt>
      <trkpt lat="44.58706" lon="0.8937">
        <ele>209.4</ele>
        <time>2018-04-29T18:37:51Z</time>
      </trkpt>
      <trkpt lat="44.58711" lon="0.8938">
        <ele>209.8</ele>
        <time>2018-04-29T18:37:56Z</time>
      </trkpt>
      <trkpt lat="44.58712" lon="0.89382">
        <ele>210.2</ele>
        <time>2018-04-29T18:37:57Z</time>
      </trkpt>
      <trkpt lat="44.58713" lon="0.89384">
        <ele>210.6</ele>
        <time>2018-04-29T18:37:58Z</time>
      </trkpt>
      <trkpt lat="44.58713" lon="0.89386">
        <ele>211.2</ele>
        <time>2018-04-29T18:37:59Z</time>
      </trkpt>
      <trkpt lat="44.58714" lon="0.89388">
        <ele>211.6</ele>
        <time>2018-04-29T18:38:00Z</time>
      </trkpt>
      <trkpt lat="44.58714" lon="0.89394">
        <ele>211.6</ele>
        <time>2018-04-29T18:38:03Z</time>
      </trkpt>
      <trkpt lat="44.58715" lon="0.89417">
        <ele>211.6</ele>
        <time>2018-04-29T18:38:12Z</time>
      </trkpt>
      <trkpt lat="44.58715" lon="0.89428">
        <ele>211.6</ele>
        <time>2018-04-29T18:38:17Z</time>
      </trkpt>
      <trkpt lat="44.58715" lon="0.8943">
        <ele>211.6</ele>
        <time>2018-04-29T18:38:18Z</time>
      </trkpt>
      <trkpt lat="44.58714" lon="0.89437">
        <ele>211.6</ele>
        <time>2018-04-29T18:38:22Z</time>
      </trkpt>
      <trkpt lat="44.58713" lon="0.89445">
        <ele>211.6</ele>
        <time>2018-04-29T18:38:25Z</time>
      </trkpt>
      <trkpt lat="44.58713" lon="0.89449">
        <ele>212</ele>
        <time>2018-04-29T18:38:26Z</time>
      </trkpt>
      <trkpt lat="44.58713" lon="0.89452">
        <ele>212.4</ele>
        <time>2018-04-29T18:38:27Z</time>
      </trkpt>
      <trkpt lat="44.58714" lon="0.89455">
        <ele>212.8</ele>
        <time>2018-04-29T18:38:28Z</time>
      </trkpt>
      <trkpt lat="44.58714" lon="0.89459">
        <ele>213.2</ele>
        <time>2018-04-29T18:38:29Z</time>
      </trkpt>
      <trkpt lat="44.58714" lon="0.89463">
        <ele>213.6</ele>
        <time>2018-04-29T18:38:30Z</time>
      </trkpt>
      <trkpt lat="44.58714" lon="0.89475">
        <ele>213.6</ele>
        <time>2018-04-29T18:38:33Z</time>
      </trkpt>
      <trkpt lat="44.58714" lon="0.89487">
        <ele>213.6</ele>
        <time>2018-04-29T18:38:36Z</time>
      </trkpt>
      <trkpt lat="44.58714" lon="0.89492">
        <ele>213.6</ele>
        <time>2018-04-29T18:38:38Z</time>
      </trkpt>
      <trkpt lat="44.58716" lon="0.89508">
        <ele>213.6</ele>
        <time>2018-04-29T18:38:45Z</time>
      </trkpt>
      <trkpt lat="44.58716" lon="0.8951">
        <ele>213.6</ele>
        <time>2018-04-29T18:38:46Z</time>
      </trkpt>
      <trkpt lat="44.58717" lon="0.89512">
        <ele>214</ele>
        <time>2018-04-29T18:38:47Z</time>
      </trkpt>
      <trkpt lat="44.58717" lon="0.89514">
        <ele>214.4</ele>
        <time>2018-04-29T18:38:48Z</time>
      </trkpt>
      <trkpt lat="44.58717" lon="0.89516">
        <ele>214.8</ele>
        <time>2018-04-29T18:38:49Z</time>
      </trkpt>
      <trkpt lat="44.58718" lon="0.89517">
        <ele>215.2</ele>
        <time>2018-04-29T18:38:50Z</time>
      </trkpt>
      <trkpt lat="44.58718" lon="0.89519">
        <ele>215.6</ele>
        <time>2018-04-29T18:38:51Z</time>
      </trkpt>
      <trkpt lat="44.58717" lon="0.89521">
        <ele>215.6</ele>
        <time>2018-04-29T18:38:52Z</time>
      </trkpt>
      <trkpt lat="44.58719" lon="0.89526">
        <ele>215.6</ele>
        <time>2018-04-29T18:38:54Z</time>
      </trkpt>
      <trkpt lat="44.58727" lon="0.89543">
        <ele>216</ele>
        <time>2018-04-29T18:38:59Z</time>
      </trkpt>
      <trkpt lat="44.58729" lon="0.89545">
        <ele>217</ele>
        <time>2018-04-29T18:39:00Z</time>
      </trkpt>
      <trkpt lat="44.5873" lon="0.89547">
        <ele>217.4</ele>
        <time>2018-04-29T18:39:01Z</time>
      </trkpt>
      <trkpt lat="44.58731" lon="0.89549">
        <ele>217.8</ele>
        <time>2018-04-29T18:39:02Z</time>
      </trkpt>
      <trkpt lat="44.58736" lon="0.89555">
        <ele>217.8</ele>
        <time>2018-04-29T18:39:06Z</time>
      </trkpt>
      <trkpt lat="44.58745" lon="0.89565">
        <ele>217.8</ele>
        <time>2018-04-29T18:39:12Z</time>
      </trkpt>
      <trkpt lat="44.58746" lon="0.89567">
        <ele>218.2</ele>
        <time>2018-04-29T18:39:13Z</time>
      </trkpt>
      <trkpt lat="44.58747" lon="0.89569">
        <ele>218.6</ele>
        <time>2018-04-29T18:39:14Z</time>
      </trkpt>
      <trkpt lat="44.58748" lon="0.8957">
        <ele>219</ele>
        <time>2018-04-29T18:39:15Z</time>
      </trkpt>
      <trkpt lat="44.58749" lon="0.89572">
        <ele>219.4</ele>
        <time>2018-04-29T18:39:16Z</time>
      </trkpt>
      <trkpt lat="44.5875" lon="0.89573">
        <ele>219.8</ele>
        <time>2018-04-29T18:39:17Z</time>
      </trkpt>
      <trkpt lat="44.58752" lon="0.89575">
        <ele>219.8</ele>
        <time>2018-04-29T18:39:18Z</time>
      </trkpt>
      <trkpt lat="44.58756" lon="0.89583">
        <ele>219.8</ele>
        <time>2018-04-29T18:39:24Z</time>
      </trkpt>
      <trkpt lat="44.58757" lon="0.89584">
        <ele>220.4</ele>
        <time>2018-04-29T18:39:25Z</time>
      </trkpt>
      <trkpt lat="44.58757" lon="0.89586">
        <ele>220.8</ele>
        <time>2018-04-29T18:39:26Z</time>
      </trkpt>
      <trkpt lat="44.58758" lon="0.89587">
        <ele>221.2</ele>
        <time>2018-04-29T18:39:27Z</time>
      </trkpt>
      <trkpt lat="44.5876" lon="0.89589">
        <ele>221.6</ele>
        <time>2018-04-29T18:39:28Z</time>
      </trkpt>
      <trkpt lat="44.58761" lon="0.8959">
        <ele>222</ele>
        <time>2018-04-29T18:39:29Z</time>
      </trkpt>
      <trkpt lat="44.58769" lon="0.89597">
        <ele>222</ele>
        <time>2018-04-29T18:39:34Z</time>
      </trkpt>
      <trkpt lat="44.58773" lon="0.89599">
        <ele>222.4</ele>
        <time>2018-04-29T18:39:36Z</time>
      </trkpt>
      <trkpt lat="44.58774" lon="0.896">
        <ele>222.8</ele>
        <time>2018-04-29T18:39:37Z</time>
      </trkpt>
      <trkpt lat="44.58775" lon="0.89601">
        <ele>223.2</ele>
        <time>2018-04-29T18:39:38Z</time>
      </trkpt>
      <trkpt lat="44.58776" lon="0.89602">
        <ele>223.6</ele>
        <time>2018-04-29T18:39:39Z</time>
      </trkpt>
      <trkpt lat="44.58777" lon="0.89603">
        <ele>224.2</ele>
        <time>2018-04-29T18:39:40Z</time>
      </trkpt>
      <trkpt lat="44.58784" lon="0.89608">
        <ele>224.2</ele>
        <time>2018-04-29T18:39:45Z</time>
      </trkpt>
      <trkpt lat="44.58791" lon="0.89613">
        <ele>224.2</ele>
        <time>2018-04-29T18:39:51Z</time>
      </trkpt>
      <trkpt lat="44.58795" lon="0.8962">
        <ele>224.6</ele>
        <time>2018-04-29T18:39:55Z</time>
      </trkpt>
      <trkpt lat="44.58796" lon="0.89622">
        <ele>225</ele>
        <time>2018-04-29T18:39:56Z</time>
      </trkpt>
      <trkpt lat="44.58797" lon="0.89623">
        <ele>225.4</ele>
        <time>2018-04-29T18:39:57Z</time>
      </trkpt>
      <trkpt lat="44.58799" lon="0.89625">
        <ele>225.8</ele>
        <time>2018-04-29T18:39:58Z</time>
      </trkpt>
      <trkpt lat="44.588" lon="0.89627">
        <ele>226.2</ele>
        <time>2018-04-29T18:39:59Z</time>
      </trkpt>
      <trkpt lat="44.58809" lon="0.89636">
        <ele>226.2</ele>
        <time>2018-04-29T18:40:04Z</time>
      </trkpt>
      <trkpt lat="44.58819" lon="0.89644">
        <ele>226.2</ele>
        <time>2018-04-29T18:40:09Z</time>
      </trkpt>
      <trkpt lat="44.5883" lon="0.89652">
        <ele>226.2</ele>
        <time>2018-04-29T18:40:15Z</time>
      </trkpt>
      <trkpt lat="44.58831" lon="0.89653">
        <ele>226.6</ele>
        <time>2018-04-29T18:40:16Z</time>
      </trkpt>
      <trkpt lat="44.58832" lon="0.89654">
        <ele>227</ele>
        <time>2018-04-29T18:40:17Z</time>
      </trkpt>
      <trkpt lat="44.58834" lon="0.89656">
        <ele>227.4</ele>
        <time>2018-04-29T18:40:18Z</time>
      </trkpt>
      <trkpt lat="44.58835" lon="0.89657">
        <ele>228</ele>
        <time>2018-04-29T18:40:19Z</time>
      </trkpt>
      <trkpt lat="44.58837" lon="0.89659">
        <ele>228.4</ele>
        <time>2018-04-29T18:40:20Z</time>
      </trkpt>
      <trkpt lat="44.58839" lon="0.89661">
        <ele>228.4</ele>
        <time>2018-04-29T18:40:21Z</time>
      </trkpt>
      <trkpt lat="44.58843" lon="0.89674">
        <ele>228.4</ele>
        <time>2018-04-29T18:40:26Z</time>
      </trkpt>
      <trkpt lat="44.5885" lon="0.89705">
        <ele>228.4</ele>
        <time>2018-04-29T18:40:34Z</time>
      </trkpt>
      <trkpt lat="44.58849" lon="0.89723">
        <ele>228.4</ele>
        <time>2018-04-29T18:40:39Z</time>
      </trkpt>
      <trkpt lat="44.58851" lon="0.89732">
        <ele>228.4</ele>
        <time>2018-04-29T18:40:42Z</time>
      </trkpt>
      <trkpt lat="44.58854" lon="0.8974">
        <ele>228.4</ele>
        <time>2018-04-29T18:40:44Z</time>
      </trkpt>
      <trkpt lat="44.58858" lon="0.89748">
        <ele>228.4</ele>
        <time>2018-04-29T18:40:46Z</time>
      </trkpt>
      <trkpt lat="44.58866" lon="0.89765">
        <ele>228.4</ele>
        <time>2018-04-29T18:40:50Z</time>
      </trkpt>
      <trkpt lat="44.58869" lon="0.8977">
        <ele>228.8</ele>
        <time>2018-04-29T18:40:51Z</time>
      </trkpt>
      <trkpt lat="44.58872" lon="0.89774">
        <ele>229.2</ele>
        <time>2018-04-29T18:40:52Z</time>
      </trkpt>
      <trkpt lat="44.58874" lon="0.89778">
        <ele>229.6</ele>
        <time>2018-04-29T18:40:53Z</time>
      </trkpt>
      <trkpt lat="44.58877" lon="0.89781">
        <ele>230</ele>
        <time>2018-04-29T18:40:54Z</time>
      </trkpt>
      <trkpt lat="44.5888" lon="0.89785">
        <ele>230.4</ele>
        <time>2018-04-29T18:40:55Z</time>
      </trkpt>
      <trkpt lat="44.58882" lon="0.89788">
        <ele>230.4</ele>
        <time>2018-04-29T18:40:56Z</time>
      </trkpt>
      <trkpt lat="44.58888" lon="0.89797">
        <ele>230.4</ele>
        <time>2018-04-29T18:40:59Z</time>
      </trkpt>
      <trkpt lat="44.58894" lon="0.89806">
        <ele>230.4</ele>
        <time>2018-04-29T18:41:02Z</time>
      </trkpt>
      <trkpt lat="44.58902" lon="0.89816">
        <ele>230.4</ele>
        <time>2018-04-29T18:41:06Z</time>
      </trkpt>
      <trkpt lat="44.58907" lon="0.89825">
        <ele>230.4</ele>
        <time>2018-04-29T18:41:09Z</time>
      </trkpt>
      <trkpt lat="44.58919" lon="0.89853">
        <ele>230.4</ele>
        <time>2018-04-29T18:41:17Z</time>
      </trkpt>
      <trkpt lat="44.58921" lon="0.89889">
        <ele>230.4</ele>
        <time>2018-04-29T18:41:24Z</time>
      </trkpt>
      <trkpt lat="44.5892" lon="0.89917">
        <ele>230.4</ele>
        <time>2018-04-29T18:41:29Z</time>
      </trkpt>
      <trkpt lat="44.58919" lon="0.89929">
        <ele>230.4</ele>
        <time>2018-04-29T18:41:31Z</time>
      </trkpt>
      <trkpt lat="44.58918" lon="0.89935">
        <ele>230.8</ele>
        <time>2018-04-29T18:41:32Z</time>
      </trkpt>
      <trkpt lat="44.58918" lon="0.89941">
        <ele>231.2</ele>
        <time>2018-04-29T18:41:33Z</time>
      </trkpt>
      <trkpt lat="44.58917" lon="0.89947">
        <ele>231.6</ele>
        <time>2018-04-29T18:41:34Z</time>
      </trkpt>
      <trkpt lat="44.58917" lon="0.89953">
        <ele>232</ele>
        <time>2018-04-29T18:41:35Z</time>
      </trkpt>
      <trkpt lat="44.58916" lon="0.89959">
        <ele>232.6</ele>
        <time>2018-04-29T18:41:36Z</time>
      </trkpt>
      <trkpt lat="44.58914" lon="0.89971">
        <ele>232.6</ele>
        <time>2018-04-29T18:41:38Z</time>
      </trkpt>
      <trkpt lat="44.58909" lon="0.90002">
        <ele>232.6</ele>
        <time>2018-04-29T18:41:43Z</time>
      </trkpt>
      <trkpt lat="44.58907" lon="0.90014">
        <ele>232.6</ele>
        <time>2018-04-29T18:41:45Z</time>
      </trkpt>
      <trkpt lat="44.58901" lon="0.90045">
        <ele>232.6</ele>
        <time>2018-04-29T18:41:50Z</time>
      </trkpt>
      <trkpt lat="44.589" lon="0.90058">
        <ele>232.6</ele>
        <time>2018-04-29T18:41:52Z</time>
      </trkpt>
      <trkpt lat="44.58898" lon="0.90078">
        <ele>233</ele>
        <time>2018-04-29T18:41:55Z</time>
      </trkpt>
      <trkpt lat="44.58898" lon="0.90085">
        <ele>233.4</ele>
        <time>2018-04-29T18:41:56Z</time>
      </trkpt>
      <trkpt lat="44.58898" lon="0.90092">
        <ele>233.8</ele>
        <time>2018-04-29T18:41:57Z</time>
      </trkpt>
      <trkpt lat="44.58898" lon="0.90099">
        <ele>234.2</ele>
        <time>2018-04-29T18:41:58Z</time>
      </trkpt>
      <trkpt lat="44.58899" lon="0.90106">
        <ele>234.6</ele>
        <time>2018-04-29T18:41:59Z</time>
      </trkpt>
      <trkpt lat="44.589" lon="0.9012">
        <ele>234.6</ele>
        <time>2018-04-29T18:42:01Z</time>
      </trkpt>
      <trkpt lat="44.58904" lon="0.90133">
        <ele>234.6</ele>
        <time>2018-04-29T18:42:03Z</time>
      </trkpt>
      <trkpt lat="44.58908" lon="0.90145">
        <ele>234.6</ele>
        <time>2018-04-29T18:42:05Z</time>
      </trkpt>
      <trkpt lat="44.58917" lon="0.90173">
        <ele>234.6</ele>
        <time>2018-04-29T18:42:10Z</time>
      </trkpt>
      <trkpt lat="44.58919" lon="0.90179">
        <ele>235</ele>
        <time>2018-04-29T18:42:11Z</time>
      </trkpt>
      <trkpt lat="44.5892" lon="0.90185">
        <ele>235.4</ele>
        <time>2018-04-29T18:42:12Z</time>
      </trkpt>
      <trkpt lat="44.58921" lon="0.90192">
        <ele>235.8</ele>
        <time>2018-04-29T18:42:13Z</time>
      </trkpt>
      <trkpt lat="44.58922" lon="0.90199">
        <ele>236.2</ele>
        <time>2018-04-29T18:42:14Z</time>
      </trkpt>
      <trkpt lat="44.58922" lon="0.90207">
        <ele>236.6</ele>
        <time>2018-04-29T18:42:15Z</time>
      </trkpt>
      <trkpt lat="44.58923" lon="0.90222">
        <ele>236.6</ele>
        <time>2018-04-29T18:42:17Z</time>
      </trkpt>
      <trkpt lat="44.58919" lon="0.90267">
        <ele>236.6</ele>
        <time>2018-04-29T18:42:23Z</time>
      </trkpt>
      <trkpt lat="44.58921" lon="0.90285">
        <ele>236.6</ele>
        <time>2018-04-29T18:42:26Z</time>
      </trkpt>
      <trkpt lat="44.58922" lon="0.9029">
        <ele>236.6</ele>
        <time>2018-04-29T18:42:27Z</time>
      </trkpt>
      <trkpt lat="44.58931" lon="0.90307">
        <ele>236.6</ele>
        <time>2018-04-29T18:42:31Z</time>
      </trkpt>
      <trkpt lat="44.58933" lon="0.90311">
        <ele>236.6</ele>
        <time>2018-04-29T18:42:32Z</time>
      </trkpt>
      <trkpt lat="44.58948" lon="0.90334">
        <ele>236.6</ele>
        <time>2018-04-29T18:42:37Z</time>
      </trkpt>
      <trkpt lat="44.58958" lon="0.9035">
        <ele>236.2</ele>
        <time>2018-04-29T18:42:40Z</time>
      </trkpt>
      <trkpt lat="44.58961" lon="0.90354">
        <ele>235.8</ele>
        <time>2018-04-29T18:42:41Z</time>
      </trkpt>
      <trkpt lat="44.58966" lon="0.9036">
        <ele>235.4</ele>
        <time>2018-04-29T18:42:42Z</time>
      </trkpt>
      <trkpt lat="44.5897" lon="0.90365">
        <ele>234.6</ele>
        <time>2018-04-29T18:42:43Z</time>
      </trkpt>
      <trkpt lat="44.58972" lon="0.90368">
        <ele>234</ele>
        <time>2018-04-29T18:42:44Z</time>
      </trkpt>
      <trkpt lat="44.58975" lon="0.9037">
        <ele>233.6</ele>
        <time>2018-04-29T18:42:45Z</time>
      </trkpt>
      <trkpt lat="44.58977" lon="0.90372">
        <ele>233.2</ele>
        <time>2018-04-29T18:42:46Z</time>
      </trkpt>
      <trkpt lat="44.58982" lon="0.90376">
        <ele>232.8</ele>
        <time>2018-04-29T18:42:47Z</time>
      </trkpt>
      <trkpt lat="44.58983" lon="0.90377">
        <ele>232.2</ele>
        <time>2018-04-29T18:42:48Z</time>
      </trkpt>
      <trkpt lat="44.58985" lon="0.90378">
        <ele>232.2</ele>
        <time>2018-04-29T18:42:49Z</time>
      </trkpt>
      <trkpt lat="44.58989" lon="0.90379">
        <ele>232.2</ele>
        <time>2018-04-29T18:42:51Z</time>
      </trkpt>
      <trkpt lat="44.58991" lon="0.90381">
        <ele>232.2</ele>
        <time>2018-04-29T18:42:52Z</time>
      </trkpt>
      <trkpt lat="44.58993" lon="0.9038">
        <ele>232.2</ele>
        <time>2018-04-29T18:43:27Z</time>
      </trkpt>
      <trkpt lat="44.58994" lon="0.90381">
        <ele>232.2</ele>
        <time>2018-04-29T18:43:28Z</time>
      </trkpt>
      <trkpt lat="44.58997" lon="0.90382">
        <ele>232.2</ele>
        <time>2018-04-29T18:43:29Z</time>
      </trkpt>
      <trkpt lat="44.59004" lon="0.90387">
        <ele>232.2</ele>
        <time>2018-04-29T18:43:31Z</time>
      </trkpt>
      <trkpt lat="44.59007" lon="0.9039">
        <ele>232.2</ele>
        <time>2018-04-29T18:43:32Z</time>
      </trkpt>
      <trkpt lat="44.59016" lon="0.90394">
        <ele>231.8</ele>
        <time>2018-04-29T18:43:34Z</time>
      </trkpt>
      <trkpt lat="44.59022" lon="0.90396">
        <ele>231.4</ele>
        <time>2018-04-29T18:43:35Z</time>
      </trkpt>
      <trkpt lat="44.59027" lon="0.90398">
        <ele>231</ele>
        <time>2018-04-29T18:43:36Z</time>
      </trkpt>
      <trkpt lat="44.59032" lon="0.90401">
        <ele>230.4</ele>
        <time>2018-04-29T18:43:37Z</time>
      </trkpt>
      <trkpt lat="44.59037" lon="0.90403">
        <ele>230</ele>
        <time>2018-04-29T18:43:38Z</time>
      </trkpt>
      <trkpt lat="44.5905" lon="0.90413">
        <ele>230</ele>
        <time>2018-04-29T18:43:41Z</time>
      </trkpt>
      <trkpt lat="44.59064" lon="0.90427">
        <ele>230</ele>
        <time>2018-04-29T18:43:45Z</time>
      </trkpt>
      <trkpt lat="44.59071" lon="0.90437">
        <ele>230</ele>
        <time>2018-04-29T18:43:48Z</time>
      </trkpt>
      <trkpt lat="44.59076" lon="0.90446">
        <ele>230</ele>
        <time>2018-04-29T18:43:50Z</time>
      </trkpt>
      <trkpt lat="44.59082" lon="0.90454">
        <ele>230</ele>
        <time>2018-04-29T18:43:52Z</time>
      </trkpt>
      <trkpt lat="44.59089" lon="0.90463">
        <ele>230</ele>
        <time>2018-04-29T18:43:54Z</time>
      </trkpt>
      <trkpt lat="44.59091" lon="0.90467">
        <ele>230</ele>
        <time>2018-04-29T18:43:55Z</time>
      </trkpt>
      <trkpt lat="44.59104" lon="0.90481">
        <ele>230</ele>
        <time>2018-04-29T18:43:59Z</time>
      </trkpt>
      <trkpt lat="44.59119" lon="0.90493">
        <ele>230</ele>
        <time>2018-04-29T18:44:04Z</time>
      </trkpt>
      <trkpt lat="44.59129" lon="0.90495">
        <ele>230</ele>
        <time>2018-04-29T18:44:07Z</time>
      </trkpt>
      <trkpt lat="44.59132" lon="0.90494">
        <ele>230</ele>
        <time>2018-04-29T18:44:08Z</time>
      </trkpt>
      <trkpt lat="44.59139" lon="0.90489">
        <ele>230</ele>
        <time>2018-04-29T18:44:11Z</time>
      </trkpt>
      <trkpt lat="44.59147" lon="0.90485">
        <ele>230</ele>
        <time>2018-04-29T18:44:13Z</time>
      </trkpt>
      <trkpt lat="44.59155" lon="0.90482">
        <ele>230</ele>
        <time>2018-04-29T18:44:15Z</time>
      </trkpt>
      <trkpt lat="44.59157" lon="0.90481">
        <ele>230.4</ele>
        <time>2018-04-29T18:44:16Z</time>
      </trkpt>
      <trkpt lat="44.59161" lon="0.90481">
        <ele>230.8</ele>
        <time>2018-04-29T18:44:17Z</time>
      </trkpt>
      <trkpt lat="44.59164" lon="0.9048">
        <ele>231.2</ele>
        <time>2018-04-29T18:44:18Z</time>
      </trkpt>
      <trkpt lat="44.59169" lon="0.9048">
        <ele>231.6</ele>
        <time>2018-04-29T18:44:19Z</time>
      </trkpt>
      <trkpt lat="44.59175" lon="0.9048">
        <ele>232</ele>
        <time>2018-04-29T18:44:20Z</time>
      </trkpt>
      <trkpt lat="44.5918" lon="0.9048">
        <ele>232</ele>
        <time>2018-04-29T18:44:21Z</time>
      </trkpt>
      <trkpt lat="44.59194" lon="0.90484">
        <ele>232</ele>
        <time>2018-04-29T18:44:25Z</time>
      </trkpt>
      <trkpt lat="44.59214" lon="0.90485">
        <ele>232</ele>
        <time>2018-04-29T18:44:30Z</time>
      </trkpt>
      <trkpt lat="44.5923" lon="0.9049">
        <ele>232</ele>
        <time>2018-04-29T18:44:34Z</time>
      </trkpt>
      <trkpt lat="44.59249" lon="0.90499">
        <ele>232</ele>
        <time>2018-04-29T18:44:39Z</time>
      </trkpt>
      <trkpt lat="44.59258" lon="0.905">
        <ele>232</ele>
        <time>2018-04-29T18:44:41Z</time>
      </trkpt>
      <trkpt lat="44.59268" lon="0.90501">
        <ele>232</ele>
        <time>2018-04-29T18:44:43Z</time>
      </trkpt>
      <trkpt lat="44.59277" lon="0.90499">
        <ele>232</ele>
        <time>2018-04-29T18:44:45Z</time>
      </trkpt>
      <trkpt lat="44.59282" lon="0.905">
        <ele>232</ele>
        <time>2018-04-29T18:44:46Z</time>
      </trkpt>
      <trkpt lat="44.59286" lon="0.90501">
        <ele>232</ele>
        <time>2018-04-29T18:44:47Z</time>
      </trkpt>
      <trkpt lat="44.59299" lon="0.90508">
        <ele>232</ele>
        <time>2018-04-29T18:44:50Z</time>
      </trkpt>
      <trkpt lat="44.59303" lon="0.90512">
        <ele>232</ele>
        <time>2018-04-29T18:44:51Z</time>
      </trkpt>
      <trkpt lat="44.59319" lon="0.90527">
        <ele>232</ele>
        <time>2018-04-29T18:44:55Z</time>
      </trkpt>
      <trkpt lat="44.59321" lon="0.90532">
        <ele>232</ele>
        <time>2018-04-29T18:44:56Z</time>
      </trkpt>
      <trkpt lat="44.59324" lon="0.9054">
        <ele>232</ele>
        <time>2018-04-29T18:44:58Z</time>
      </trkpt>
      <trkpt lat="44.59326" lon="0.9055">
        <ele>232</ele>
        <time>2018-04-29T18:45:00Z</time>
      </trkpt>
      <trkpt lat="44.5933" lon="0.90566">
        <ele>232</ele>
        <time>2018-04-29T18:45:03Z</time>
      </trkpt>
      <trkpt lat="44.59333" lon="0.9057">
        <ele>232</ele>
        <time>2018-04-29T18:45:04Z</time>
      </trkpt>
      <trkpt lat="44.59344" lon="0.90584">
        <ele>232</ele>
        <time>2018-04-29T18:45:07Z</time>
      </trkpt>
      <trkpt lat="44.59346" lon="0.90589">
        <ele>232</ele>
        <time>2018-04-29T18:45:08Z</time>
      </trkpt>
      <trkpt lat="44.59349" lon="0.90595">
        <ele>232</ele>
        <time>2018-04-29T18:45:09Z</time>
      </trkpt>
      <trkpt lat="44.59359" lon="0.90608">
        <ele>232</ele>
        <time>2018-04-29T18:45:12Z</time>
      </trkpt>
      <trkpt lat="44.59374" lon="0.90635">
        <ele>232</ele>
        <time>2018-04-29T18:45:17Z</time>
      </trkpt>
      <trkpt lat="44.59394" lon="0.90666">
        <ele>231.6</ele>
        <time>2018-04-29T18:45:22Z</time>
      </trkpt>
      <trkpt lat="44.59397" lon="0.90671">
        <ele>231.2</ele>
        <time>2018-04-29T18:45:23Z</time>
      </trkpt>
      <trkpt lat="44.59401" lon="0.90677">
        <ele>230.8</ele>
        <time>2018-04-29T18:45:24Z</time>
      </trkpt>
      <trkpt lat="44.59405" lon="0.90682">
        <ele>230.4</ele>
        <time>2018-04-29T18:45:25Z</time>
      </trkpt>
      <trkpt lat="44.59408" lon="0.90688">
        <ele>230</ele>
        <time>2018-04-29T18:45:26Z</time>
      </trkpt>
      <trkpt lat="44.59416" lon="0.90699">
        <ele>230</ele>
        <time>2018-04-29T18:45:28Z</time>
      </trkpt>
      <trkpt lat="44.59423" lon="0.9071">
        <ele>230</ele>
        <time>2018-04-29T18:45:30Z</time>
      </trkpt>
      <trkpt lat="44.59433" lon="0.90724">
        <ele>230</ele>
        <time>2018-04-29T18:45:33Z</time>
      </trkpt>
      <trkpt lat="44.59437" lon="0.90728">
        <ele>230</ele>
        <time>2018-04-29T18:45:34Z</time>
      </trkpt>
      <trkpt lat="44.59447" lon="0.9074">
        <ele>229.6</ele>
        <time>2018-04-29T18:45:37Z</time>
      </trkpt>
      <trkpt lat="44.59449" lon="0.90743">
        <ele>229.2</ele>
        <time>2018-04-29T18:45:38Z</time>
      </trkpt>
      <trkpt lat="44.59452" lon="0.90745">
        <ele>228.8</ele>
        <time>2018-04-29T18:45:39Z</time>
      </trkpt>
      <trkpt lat="44.59454" lon="0.90747">
        <ele>228.4</ele>
        <time>2018-04-29T18:45:40Z</time>
      </trkpt>
      <trkpt lat="44.59456" lon="0.9075">
        <ele>228</ele>
        <time>2018-04-29T18:45:41Z</time>
      </trkpt>
      <trkpt lat="44.59458" lon="0.90751">
        <ele>228</ele>
        <time>2018-04-29T18:45:42Z</time>
      </trkpt>
      <trkpt lat="44.59462" lon="0.90757">
        <ele>228</ele>
        <time>2018-04-29T18:45:46Z</time>
      </trkpt>
      <trkpt lat="44.59464" lon="0.9076">
        <ele>228</ele>
        <time>2018-04-29T18:45:48Z</time>
      </trkpt>
      <trkpt lat="44.59476" lon="0.9078">
        <ele>228</ele>
        <time>2018-04-29T18:46:14Z</time>
      </trkpt>
      <trkpt lat="44.59479" lon="0.90783">
        <ele>227.4</ele>
        <time>2018-04-29T18:46:15Z</time>
      </trkpt>
      <trkpt lat="44.59481" lon="0.90785">
        <ele>227</ele>
        <time>2018-04-29T18:46:16Z</time>
      </trkpt>
      <trkpt lat="44.59485" lon="0.90788">
        <ele>226.6</ele>
        <time>2018-04-29T18:46:17Z</time>
      </trkpt>
      <trkpt lat="44.59489" lon="0.90791">
        <ele>226</ele>
        <time>2018-04-29T18:46:18Z</time>
      </trkpt>
      <trkpt lat="44.59493" lon="0.90794">
        <ele>225.6</ele>
        <time>2018-04-29T18:46:19Z</time>
      </trkpt>
      <trkpt lat="44.59496" lon="0.90798">
        <ele>225.2</ele>
        <time>2018-04-29T18:46:20Z</time>
      </trkpt>
      <trkpt lat="44.59501" lon="0.90801">
        <ele>224.6</ele>
        <time>2018-04-29T18:46:21Z</time>
      </trkpt>
      <trkpt lat="44.59506" lon="0.90804">
        <ele>224.2</ele>
        <time>2018-04-29T18:46:22Z</time>
      </trkpt>
      <trkpt lat="44.59513" lon="0.90805">
        <ele>223.8</ele>
        <time>2018-04-29T18:46:23Z</time>
      </trkpt>
      <trkpt lat="44.5952" lon="0.90807">
        <ele>223.2</ele>
        <time>2018-04-29T18:46:24Z</time>
      </trkpt>
      <trkpt lat="44.59533" lon="0.90814">
        <ele>223.2</ele>
        <time>2018-04-29T18:46:26Z</time>
      </trkpt>
      <trkpt lat="44.59536" lon="0.9082">
        <ele>223.2</ele>
        <time>2018-04-29T18:46:27Z</time>
      </trkpt>
      <trkpt lat="44.59543" lon="0.9084">
        <ele>223.2</ele>
        <time>2018-04-29T18:46:30Z</time>
      </trkpt>
      <trkpt lat="44.59546" lon="0.90845">
        <ele>223.2</ele>
        <time>2018-04-29T18:46:31Z</time>
      </trkpt>
      <trkpt lat="44.59564" lon="0.90853">
        <ele>223.2</ele>
        <time>2018-04-29T18:46:34Z</time>
      </trkpt>
      <trkpt lat="44.59577" lon="0.90858">
        <ele>223.2</ele>
        <time>2018-04-29T18:46:37Z</time>
      </trkpt>
      <trkpt lat="44.59581" lon="0.90859">
        <ele>223.2</ele>
        <time>2018-04-29T18:46:38Z</time>
      </trkpt>
      <trkpt lat="44.59588" lon="0.90861">
        <ele>223.2</ele>
        <time>2018-04-29T18:46:40Z</time>
      </trkpt>
      <trkpt lat="44.59592" lon="0.90863">
        <ele>223.6</ele>
        <time>2018-04-29T18:46:41Z</time>
      </trkpt>
      <trkpt lat="44.59596" lon="0.90864">
        <ele>224.2</ele>
        <time>2018-04-29T18:46:42Z</time>
      </trkpt>
      <trkpt lat="44.59601" lon="0.90865">
        <ele>224.6</ele>
        <time>2018-04-29T18:46:43Z</time>
      </trkpt>
      <trkpt lat="44.59606" lon="0.90868">
        <ele>225</ele>
        <time>2018-04-29T18:46:44Z</time>
      </trkpt>
      <trkpt lat="44.5961" lon="0.9087">
        <ele>225.4</ele>
        <time>2018-04-29T18:46:45Z</time>
      </trkpt>
      <trkpt lat="44.59624" lon="0.90879">
        <ele>225.4</ele>
        <time>2018-04-29T18:46:48Z</time>
      </trkpt>
      <trkpt lat="44.59638" lon="0.90889">
        <ele>225.8</ele>
        <time>2018-04-29T18:46:51Z</time>
      </trkpt>
      <trkpt lat="44.59643" lon="0.90892">
        <ele>226.2</ele>
        <time>2018-04-29T18:46:52Z</time>
      </trkpt>
      <trkpt lat="44.59647" lon="0.90895">
        <ele>226.6</ele>
        <time>2018-04-29T18:46:53Z</time>
      </trkpt>
      <trkpt lat="44.5965" lon="0.90898">
        <ele>227</ele>
        <time>2018-04-29T18:46:54Z</time>
      </trkpt>
      <trkpt lat="44.59653" lon="0.90901">
        <ele>227.4</ele>
        <time>2018-04-29T18:46:55Z</time>
      </trkpt>
      <trkpt lat="44.59662" lon="0.90907">
        <ele>227.8</ele>
        <time>2018-04-29T18:46:58Z</time>
      </trkpt>
      <trkpt lat="44.59665" lon="0.90909">
        <ele>228.2</ele>
        <time>2018-04-29T18:46:59Z</time>
      </trkpt>
      <trkpt lat="44.59667" lon="0.90911">
        <ele>228.8</ele>
        <time>2018-04-29T18:47:00Z</time>
      </trkpt>
      <trkpt lat="44.5967" lon="0.90914">
        <ele>229.2</ele>
        <time>2018-04-29T18:47:01Z</time>
      </trkpt>
      <trkpt lat="44.59673" lon="0.90917">
        <ele>229.6</ele>
        <time>2018-04-29T18:47:02Z</time>
      </trkpt>
      <trkpt lat="44.59677" lon="0.90921">
        <ele>229.6</ele>
        <time>2018-04-29T18:47:03Z</time>
      </trkpt>
      <trkpt lat="44.5969" lon="0.90935">
        <ele>229.6</ele>
        <time>2018-04-29T18:47:07Z</time>
      </trkpt>
      <trkpt lat="44.59702" lon="0.90958">
        <ele>229.6</ele>
        <time>2018-04-29T18:47:12Z</time>
      </trkpt>
      <trkpt lat="44.59719" lon="0.90993">
        <ele>229.6</ele>
        <time>2018-04-29T18:47:18Z</time>
      </trkpt>
      <trkpt lat="44.59722" lon="0.90999">
        <ele>229.6</ele>
        <time>2018-04-29T18:47:19Z</time>
      </trkpt>
      <trkpt lat="44.59736" lon="0.91022">
        <ele>229.6</ele>
        <time>2018-04-29T18:47:23Z</time>
      </trkpt>
      <trkpt lat="44.5975" lon="0.91046">
        <ele>229.6</ele>
        <time>2018-04-29T18:47:27Z</time>
      </trkpt>
      <trkpt lat="44.59756" lon="0.9106">
        <ele>229.6</ele>
        <time>2018-04-29T18:47:29Z</time>
      </trkpt>
      <trkpt lat="44.59764" lon="0.9109">
        <ele>229.6</ele>
        <time>2018-04-29T18:47:34Z</time>
      </trkpt>
      <trkpt lat="44.59771" lon="0.91104">
        <ele>229.6</ele>
        <time>2018-04-29T18:47:37Z</time>
      </trkpt>
      <trkpt lat="44.59773" lon="0.91111">
        <ele>229.6</ele>
        <time>2018-04-29T18:47:39Z</time>
      </trkpt>
      <trkpt lat="44.59776" lon="0.91118">
        <ele>229.6</ele>
        <time>2018-04-29T18:47:42Z</time>
      </trkpt>
      <trkpt lat="44.59776" lon="0.91119">
        <ele>229.6</ele>
        <time>2018-04-29T18:47:43Z</time>
      </trkpt>
      <trkpt lat="44.59777" lon="0.9112">
        <ele>229.6</ele>
        <time>2018-04-29T18:47:44Z</time>
      </trkpt>
      <trkpt lat="44.59778" lon="0.91124">
        <ele>229.6</ele>
        <time>2018-04-29T18:47:51Z</time>
      </trkpt>
      <trkpt lat="44.59779" lon="0.91126">
        <ele>229.6</ele>
        <time>2018-04-29T18:47:52Z</time>
      </trkpt>
      <trkpt lat="44.59784" lon="0.9113">
        <ele>229.6</ele>
        <time>2018-04-29T18:47:56Z</time>
      </trkpt>
      <trkpt lat="44.59793" lon="0.91121">
        <ele>229.6</ele>
        <time>2018-04-29T18:48:00Z</time>
      </trkpt>
      <trkpt lat="44.59808" lon="0.91091">
        <ele>228.8</ele>
        <time>2018-04-29T18:48:04Z</time>
      </trkpt>
      <trkpt lat="44.59812" lon="0.91081">
        <ele>228.2</ele>
        <time>2018-04-29T18:48:05Z</time>
      </trkpt>
      <trkpt lat="44.59817" lon="0.91071">
        <ele>227.6</ele>
        <time>2018-04-29T18:48:06Z</time>
      </trkpt>
      <trkpt lat="44.59822" lon="0.91061">
        <ele>227</ele>
        <time>2018-04-29T18:48:07Z</time>
      </trkpt>
      <trkpt lat="44.59828" lon="0.9105">
        <ele>226.4</ele>
        <time>2018-04-29T18:48:08Z</time>
      </trkpt>
      <trkpt lat="44.59834" lon="0.91039">
        <ele>225.6</ele>
        <time>2018-04-29T18:48:09Z</time>
      </trkpt>
      <trkpt lat="44.59841" lon="0.91028">
        <ele>225</ele>
        <time>2018-04-29T18:48:10Z</time>
      </trkpt>
      <trkpt lat="44.59848" lon="0.91018">
        <ele>224.2</ele>
        <time>2018-04-29T18:48:11Z</time>
      </trkpt>
      <trkpt lat="44.59856" lon="0.91007">
        <ele>223.4</ele>
        <time>2018-04-29T18:48:12Z</time>
      </trkpt>
      <trkpt lat="44.59865" lon="0.90996">
        <ele>222.6</ele>
        <time>2018-04-29T18:48:13Z</time>
      </trkpt>
      <trkpt lat="44.59875" lon="0.90984">
        <ele>221.6</ele>
        <time>2018-04-29T18:48:14Z</time>
      </trkpt>
      <trkpt lat="44.59885" lon="0.90973">
        <ele>220.6</ele>
        <time>2018-04-29T18:48:15Z</time>
      </trkpt>
      <trkpt lat="44.59894" lon="0.90962">
        <ele>219.6</ele>
        <time>2018-04-29T18:48:16Z</time>
      </trkpt>
      <trkpt lat="44.59904" lon="0.90952">
        <ele>218.6</ele>
        <time>2018-04-29T18:48:17Z</time>
      </trkpt>
      <trkpt lat="44.59912" lon="0.90942">
        <ele>217.6</ele>
        <time>2018-04-29T18:48:18Z</time>
      </trkpt>
      <trkpt lat="44.5992" lon="0.90932">
        <ele>216.6</ele>
        <time>2018-04-29T18:48:19Z</time>
      </trkpt>
      <trkpt lat="44.59926" lon="0.90924">
        <ele>215.6</ele>
        <time>2018-04-29T18:48:20Z</time>
      </trkpt>
      <trkpt lat="44.59932" lon="0.90916">
        <ele>214.4</ele>
        <time>2018-04-29T18:48:21Z</time>
      </trkpt>
      <trkpt lat="44.59936" lon="0.90906">
        <ele>213.4</ele>
        <time>2018-04-29T18:48:22Z</time>
      </trkpt>
      <trkpt lat="44.5994" lon="0.90896">
        <ele>212.4</ele>
        <time>2018-04-29T18:48:23Z</time>
      </trkpt>
      <trkpt lat="44.59943" lon="0.90885">
        <ele>211.6</ele>
        <time>2018-04-29T18:48:24Z</time>
      </trkpt>
      <trkpt lat="44.59945" lon="0.90872">
        <ele>210.6</ele>
        <time>2018-04-29T18:48:25Z</time>
      </trkpt>
      <trkpt lat="44.59947" lon="0.9086">
        <ele>209.8</ele>
        <time>2018-04-29T18:48:26Z</time>
      </trkpt>
      <trkpt lat="44.59948" lon="0.90846">
        <ele>209</ele>
        <time>2018-04-29T18:48:27Z</time>
      </trkpt>
      <trkpt lat="44.5995" lon="0.90832">
        <ele>207.6</ele>
        <time>2018-04-29T18:48:28Z</time>
      </trkpt>
      <trkpt lat="44.59952" lon="0.90817">
        <ele>206.8</ele>
        <time>2018-04-29T18:48:29Z</time>
      </trkpt>
      <trkpt lat="44.59954" lon="0.90802">
        <ele>206</ele>
        <time>2018-04-29T18:48:30Z</time>
      </trkpt>
      <trkpt lat="44.59957" lon="0.90787">
        <ele>205.2</ele>
        <time>2018-04-29T18:48:31Z</time>
      </trkpt>
      <trkpt lat="44.59959" lon="0.90772">
        <ele>204.6</ele>
        <time>2018-04-29T18:48:32Z</time>
      </trkpt>
      <trkpt lat="44.5996" lon="0.90757">
        <ele>204</ele>
        <time>2018-04-29T18:48:33Z</time>
      </trkpt>
      <trkpt lat="44.59963" lon="0.90743">
        <ele>203.4</ele>
        <time>2018-04-29T18:48:34Z</time>
      </trkpt>
      <trkpt lat="44.59965" lon="0.90729">
        <ele>202.8</ele>
        <time>2018-04-29T18:48:35Z</time>
      </trkpt>
      <trkpt lat="44.59968" lon="0.90716">
        <ele>202.2</ele>
        <time>2018-04-29T18:48:36Z</time>
      </trkpt>
      <trkpt lat="44.59978" lon="0.90681">
        <ele>201.8</ele>
        <time>2018-04-29T18:48:39Z</time>
      </trkpt>
      <trkpt lat="44.59982" lon="0.90671">
        <ele>201.4</ele>
        <time>2018-04-29T18:48:40Z</time>
      </trkpt>
      <trkpt lat="44.59987" lon="0.90664">
        <ele>201</ele>
        <time>2018-04-29T18:48:41Z</time>
      </trkpt>
      <trkpt lat="44.59993" lon="0.90658">
        <ele>200.6</ele>
        <time>2018-04-29T18:48:42Z</time>
      </trkpt>
      <trkpt lat="44.59998" lon="0.90652">
        <ele>200.2</ele>
        <time>2018-04-29T18:48:43Z</time>
      </trkpt>
      <trkpt lat="44.60005" lon="0.90636">
        <ele>200.2</ele>
        <time>2018-04-29T18:48:45Z</time>
      </trkpt>
      <trkpt lat="44.60009" lon="0.90627">
        <ele>200.2</ele>
        <time>2018-04-29T18:48:46Z</time>
      </trkpt>
      <trkpt lat="44.60011" lon="0.90619">
        <ele>200.2</ele>
        <time>2018-04-29T18:48:47Z</time>
      </trkpt>
      <trkpt lat="44.6001" lon="0.9059">
        <ele>200.2</ele>
        <time>2018-04-29T18:48:50Z</time>
      </trkpt>
      <trkpt lat="44.60009" lon="0.90577">
        <ele>199.8</ele>
        <time>2018-04-29T18:48:51Z</time>
      </trkpt>
      <trkpt lat="44.60008" lon="0.90563">
        <ele>199.2</ele>
        <time>2018-04-29T18:48:52Z</time>
      </trkpt>
      <trkpt lat="44.60008" lon="0.90548">
        <ele>197.4</ele>
        <time>2018-04-29T18:48:53Z</time>
      </trkpt>
      <trkpt lat="44.60008" lon="0.90532">
        <ele>196.2</ele>
        <time>2018-04-29T18:48:54Z</time>
      </trkpt>
      <trkpt lat="44.60007" lon="0.90515">
        <ele>195</ele>
        <time>2018-04-29T18:48:55Z</time>
      </trkpt>
      <trkpt lat="44.60006" lon="0.90497">
        <ele>194</ele>
        <time>2018-04-29T18:48:56Z</time>
      </trkpt>
      <trkpt lat="44.60005" lon="0.9048">
        <ele>192.8</ele>
        <time>2018-04-29T18:48:57Z</time>
      </trkpt>
      <trkpt lat="44.60003" lon="0.90463">
        <ele>191.6</ele>
        <time>2018-04-29T18:48:58Z</time>
      </trkpt>
      <trkpt lat="44.60002" lon="0.90446">
        <ele>190.6</ele>
        <time>2018-04-29T18:48:59Z</time>
      </trkpt>
      <trkpt lat="44.60001" lon="0.9043">
        <ele>189.8</ele>
        <time>2018-04-29T18:49:00Z</time>
      </trkpt>
      <trkpt lat="44.6" lon="0.90414">
        <ele>189.2</ele>
        <time>2018-04-29T18:49:01Z</time>
      </trkpt>
      <trkpt lat="44.59999" lon="0.90398">
        <ele>188.4</ele>
        <time>2018-04-29T18:49:02Z</time>
      </trkpt>
      <trkpt lat="44.59998" lon="0.90383">
        <ele>187.8</ele>
        <time>2018-04-29T18:49:03Z</time>
      </trkpt>
      <trkpt lat="44.59997" lon="0.90368">
        <ele>187.2</ele>
        <time>2018-04-29T18:49:04Z</time>
      </trkpt>
      <trkpt lat="44.59994" lon="0.90339">
        <ele>187.2</ele>
        <time>2018-04-29T18:49:06Z</time>
      </trkpt>
      <trkpt lat="44.59992" lon="0.9031">
        <ele>186.6</ele>
        <time>2018-04-29T18:49:08Z</time>
      </trkpt>
      <trkpt lat="44.59992" lon="0.90295">
        <ele>186.2</ele>
        <time>2018-04-29T18:49:09Z</time>
      </trkpt>
      <trkpt lat="44.59991" lon="0.90279">
        <ele>185.8</ele>
        <time>2018-04-29T18:49:10Z</time>
      </trkpt>
      <trkpt lat="44.5999" lon="0.90264">
        <ele>185.2</ele>
        <time>2018-04-29T18:49:11Z</time>
      </trkpt>
      <trkpt lat="44.59987" lon="0.90249">
        <ele>184.4</ele>
        <time>2018-04-29T18:49:12Z</time>
      </trkpt>
      <trkpt lat="44.59983" lon="0.90235">
        <ele>183.8</ele>
        <time>2018-04-29T18:49:13Z</time>
      </trkpt>
      <trkpt lat="44.59979" lon="0.90221">
        <ele>183</ele>
        <time>2018-04-29T18:49:14Z</time>
      </trkpt>
      <trkpt lat="44.59974" lon="0.90208">
        <ele>182.2</ele>
        <time>2018-04-29T18:49:15Z</time>
      </trkpt>
      <trkpt lat="44.59969" lon="0.90195">
        <ele>181.4</ele>
        <time>2018-04-29T18:49:16Z</time>
      </trkpt>
      <trkpt lat="44.59965" lon="0.90181">
        <ele>180.6</ele>
        <time>2018-04-29T18:49:17Z</time>
      </trkpt>
      <trkpt lat="44.59962" lon="0.90167">
        <ele>178.8</ele>
        <time>2018-04-29T18:49:18Z</time>
      </trkpt>
      <trkpt lat="44.5996" lon="0.90153">
        <ele>177.8</ele>
        <time>2018-04-29T18:49:19Z</time>
      </trkpt>
      <trkpt lat="44.59957" lon="0.9014">
        <ele>176.8</ele>
        <time>2018-04-29T18:49:20Z</time>
      </trkpt>
      <trkpt lat="44.59957" lon="0.90127">
        <ele>175.6</ele>
        <time>2018-04-29T18:49:21Z</time>
      </trkpt>
      <trkpt lat="44.59958" lon="0.90115">
        <ele>174.6</ele>
        <time>2018-04-29T18:49:22Z</time>
      </trkpt>
      <trkpt lat="44.5996" lon="0.90104">
        <ele>173.4</ele>
        <time>2018-04-29T18:49:23Z</time>
      </trkpt>
      <trkpt lat="44.59965" lon="0.90093">
        <ele>172.2</ele>
        <time>2018-04-29T18:49:24Z</time>
      </trkpt>
      <trkpt lat="44.5997" lon="0.90083">
        <ele>171.2</ele>
        <time>2018-04-29T18:49:25Z</time>
      </trkpt>
      <trkpt lat="44.59976" lon="0.90073">
        <ele>170.4</ele>
        <time>2018-04-29T18:49:26Z</time>
      </trkpt>
      <trkpt lat="44.59981" lon="0.90061">
        <ele>169.8</ele>
        <time>2018-04-29T18:49:27Z</time>
      </trkpt>
      <trkpt lat="44.59986" lon="0.9005">
        <ele>169</ele>
        <time>2018-04-29T18:49:28Z</time>
      </trkpt>
      <trkpt lat="44.5999" lon="0.90038">
        <ele>168.4</ele>
        <time>2018-04-29T18:49:29Z</time>
      </trkpt>
      <trkpt lat="44.59994" lon="0.90025">
        <ele>167.6</ele>
        <time>2018-04-29T18:49:30Z</time>
      </trkpt>
      <trkpt lat="44.60002" lon="0.90001">
        <ele>167.2</ele>
        <time>2018-04-29T18:49:32Z</time>
      </trkpt>
      <trkpt lat="44.60006" lon="0.89989">
        <ele>166.8</ele>
        <time>2018-04-29T18:49:33Z</time>
      </trkpt>
      <trkpt lat="44.6001" lon="0.89977">
        <ele>166.4</ele>
        <time>2018-04-29T18:49:34Z</time>
      </trkpt>
      <trkpt lat="44.60014" lon="0.89966">
        <ele>166</ele>
        <time>2018-04-29T18:49:35Z</time>
      </trkpt>
      <trkpt lat="44.60018" lon="0.89955">
        <ele>165.6</ele>
        <time>2018-04-29T18:49:36Z</time>
      </trkpt>
      <trkpt lat="44.60021" lon="0.89943">
        <ele>165.6</ele>
        <time>2018-04-29T18:49:37Z</time>
      </trkpt>
      <trkpt lat="44.60022" lon="0.89896">
        <ele>165.6</ele>
        <time>2018-04-29T18:49:41Z</time>
      </trkpt>
      <trkpt lat="44.60015" lon="0.89863">
        <ele>165.6</ele>
        <time>2018-04-29T18:49:44Z</time>
      </trkpt>
      <trkpt lat="44.60018" lon="0.89832">
        <ele>165.6</ele>
        <time>2018-04-29T18:49:47Z</time>
      </trkpt>
      <trkpt lat="44.60022" lon="0.89825">
        <ele>165.6</ele>
        <time>2018-04-29T18:49:48Z</time>
      </trkpt>
      <trkpt lat="44.60025" lon="0.89817">
        <ele>166</ele>
        <time>2018-04-29T18:49:49Z</time>
      </trkpt>
      <trkpt lat="44.60027" lon="0.89809">
        <ele>166.4</ele>
        <time>2018-04-29T18:49:50Z</time>
      </trkpt>
      <trkpt lat="44.60029" lon="0.89802">
        <ele>167.2</ele>
        <time>2018-04-29T18:49:51Z</time>
      </trkpt>
      <trkpt lat="44.60029" lon="0.89794">
        <ele>167.8</ele>
        <time>2018-04-29T18:49:52Z</time>
      </trkpt>
      <trkpt lat="44.6003" lon="0.89786">
        <ele>168.6</ele>
        <time>2018-04-29T18:49:53Z</time>
      </trkpt>
      <trkpt lat="44.60031" lon="0.89779">
        <ele>169.2</ele>
        <time>2018-04-29T18:49:54Z</time>
      </trkpt>
      <trkpt lat="44.60032" lon="0.89773">
        <ele>170</ele>
        <time>2018-04-29T18:49:55Z</time>
      </trkpt>
      <trkpt lat="44.60032" lon="0.89769">
        <ele>170.8</ele>
        <time>2018-04-29T18:49:56Z</time>
      </trkpt>
      <trkpt lat="44.60032" lon="0.89766">
        <ele>171.6</ele>
        <time>2018-04-29T18:49:57Z</time>
      </trkpt>
      <trkpt lat="44.60032" lon="0.89764">
        <ele>172.2</ele>
        <time>2018-04-29T18:49:58Z</time>
      </trkpt>
      <trkpt lat="44.60033" lon="0.89762">
        <ele>173</ele>
        <time>2018-04-29T18:49:59Z</time>
      </trkpt>
      <trkpt lat="44.60034" lon="0.8976">
        <ele>173.6</ele>
        <time>2018-04-29T18:50:00Z</time>
      </trkpt>
      <trkpt lat="44.60034" lon="0.89758">
        <ele>174.4</ele>
        <time>2018-04-29T18:50:01Z</time>
      </trkpt>
      <trkpt lat="44.60034" lon="0.89751">
        <ele>174.4</ele>
        <time>2018-04-29T18:50:04Z</time>
      </trkpt>
      <trkpt lat="44.60035" lon="0.89745">
        <ele>174.4</ele>
        <time>2018-04-29T18:50:07Z</time>
      </trkpt>
      <trkpt lat="44.60035" lon="0.89742">
        <ele>174.4</ele>
        <time>2018-04-29T18:50:10Z</time>
      </trkpt>
      <trkpt lat="44.60036" lon="0.89736">
        <ele>174.4</ele>
        <time>2018-04-29T18:50:13Z</time>
      </trkpt>
      <trkpt lat="44.60039" lon="0.89728">
        <ele>174.4</ele>
        <time>2018-04-29T18:50:17Z</time>
      </trkpt>
      <trkpt lat="44.6004" lon="0.89725">
        <ele>174.4</ele>
        <time>2018-04-29T18:50:18Z</time>
      </trkpt>
      <trkpt lat="44.60042" lon="0.89722">
        <ele>174.4</ele>
        <time>2018-04-29T18:50:19Z</time>
      </trkpt>
      <trkpt lat="44.60048" lon="0.89711">
        <ele>174.4</ele>
        <time>2018-04-29T18:50:23Z</time>
      </trkpt>
      <trkpt lat="44.60051" lon="0.89706">
        <ele>174.4</ele>
        <time>2018-04-29T18:50:25Z</time>
      </trkpt>
      <trkpt lat="44.60062" lon="0.89688">
        <ele>174.4</ele>
        <time>2018-04-29T18:50:31Z</time>
      </trkpt>
      <trkpt lat="44.60068" lon="0.89678">
        <ele>174.4</ele>
        <time>2018-04-29T18:50:34Z</time>
      </trkpt>
      <trkpt lat="44.60082" lon="0.89656">
        <ele>174.4</ele>
        <time>2018-04-29T18:50:40Z</time>
      </trkpt>
      <trkpt lat="44.60087" lon="0.89649">
        <ele>174.4</ele>
        <time>2018-04-29T18:50:42Z</time>
      </trkpt>
      <trkpt lat="44.60089" lon="0.89639">
        <ele>174.4</ele>
        <time>2018-04-29T18:50:44Z</time>
      </trkpt>
      <trkpt lat="44.60085" lon="0.89608">
        <ele>174.4</ele>
        <time>2018-04-29T18:50:49Z</time>
      </trkpt>
      <trkpt lat="44.60083" lon="0.89592">
        <ele>174.4</ele>
        <time>2018-04-29T18:50:52Z</time>
      </trkpt>
      <trkpt lat="44.60076" lon="0.89574">
        <ele>174.4</ele>
        <time>2018-04-29T18:50:55Z</time>
      </trkpt>
      <trkpt lat="44.60077" lon="0.8956">
        <ele>174.4</ele>
        <time>2018-04-29T18:50:58Z</time>
      </trkpt>
      <trkpt lat="44.60079" lon="0.89545">
        <ele>174.4</ele>
        <time>2018-04-29T18:51:01Z</time>
      </trkpt>
      <trkpt lat="44.60083" lon="0.89521">
        <ele>174.4</ele>
        <time>2018-04-29T18:51:07Z</time>
      </trkpt>
      <trkpt lat="44.60083" lon="0.89517">
        <ele>174.8</ele>
        <time>2018-04-29T18:51:09Z</time>
      </trkpt>
      <trkpt lat="44.60084" lon="0.89515">
        <ele>175.2</ele>
        <time>2018-04-29T18:51:10Z</time>
      </trkpt>
      <trkpt lat="44.60084" lon="0.89511">
        <ele>175.6</ele>
        <time>2018-04-29T18:51:11Z</time>
      </trkpt>
      <trkpt lat="44.60085" lon="0.89508">
        <ele>176</ele>
        <time>2018-04-29T18:51:12Z</time>
      </trkpt>
      <trkpt lat="44.60086" lon="0.89503">
        <ele>176.4</ele>
        <time>2018-04-29T18:51:13Z</time>
      </trkpt>
      <trkpt lat="44.60092" lon="0.89484">
        <ele>176.4</ele>
        <time>2018-04-29T18:51:16Z</time>
      </trkpt>
      <trkpt lat="44.60094" lon="0.89477">
        <ele>176.4</ele>
        <time>2018-04-29T18:51:17Z</time>
      </trkpt>
      <trkpt lat="44.60098" lon="0.89462">
        <ele>176.4</ele>
        <time>2018-04-29T18:51:19Z</time>
      </trkpt>
      <trkpt lat="44.60102" lon="0.89448">
        <ele>176.4</ele>
        <time>2018-04-29T18:51:21Z</time>
      </trkpt>
      <trkpt lat="44.60109" lon="0.89434">
        <ele>176.8</ele>
        <time>2018-04-29T18:51:23Z</time>
      </trkpt>
      <trkpt lat="44.60112" lon="0.89426">
        <ele>177.2</ele>
        <time>2018-04-29T18:51:24Z</time>
      </trkpt>
      <trkpt lat="44.60114" lon="0.89419">
        <ele>177.8</ele>
        <time>2018-04-29T18:51:25Z</time>
      </trkpt>
      <trkpt lat="44.60117" lon="0.89411">
        <ele>178.2</ele>
        <time>2018-04-29T18:51:26Z</time>
      </trkpt>
      <trkpt lat="44.60119" lon="0.89404">
        <ele>178.6</ele>
        <time>2018-04-29T18:51:27Z</time>
      </trkpt>
      <trkpt lat="44.60121" lon="0.89396">
        <ele>178.6</ele>
        <time>2018-04-29T18:51:28Z</time>
      </trkpt>
      <trkpt lat="44.60124" lon="0.8938">
        <ele>178.6</ele>
        <time>2018-04-29T18:51:30Z</time>
      </trkpt>
      <trkpt lat="44.60126" lon="0.89357">
        <ele>178.6</ele>
        <time>2018-04-29T18:51:33Z</time>
      </trkpt>
      <trkpt lat="44.60129" lon="0.89321">
        <ele>178.6</ele>
        <time>2018-04-29T18:51:38Z</time>
      </trkpt>
      <trkpt lat="44.60131" lon="0.89317">
        <ele>178.6</ele>
        <time>2018-04-29T18:51:39Z</time>
      </trkpt>
      <trkpt lat="44.60145" lon="0.89309">
        <ele>178.6</ele>
        <time>2018-04-29T18:51:42Z</time>
      </trkpt>
      <trkpt lat="44.6015" lon="0.89307">
        <ele>178</ele>
        <time>2018-04-29T18:51:43Z</time>
      </trkpt>
      <trkpt lat="44.60154" lon="0.89306">
        <ele>177.6</ele>
        <time>2018-04-29T18:51:44Z</time>
      </trkpt>
      <trkpt lat="44.60158" lon="0.89305">
        <ele>177</ele>
        <time>2018-04-29T18:51:45Z</time>
      </trkpt>
      <trkpt lat="44.60162" lon="0.89303">
        <ele>176</ele>
        <time>2018-04-29T18:51:46Z</time>
      </trkpt>
      <trkpt lat="44.60172" lon="0.89293">
        <ele>176</ele>
        <time>2018-04-29T18:51:49Z</time>
      </trkpt>
      <trkpt lat="44.60175" lon="0.89289">
        <ele>176</ele>
        <time>2018-04-29T18:51:50Z</time>
      </trkpt>
      <trkpt lat="44.60182" lon="0.89281">
        <ele>176</ele>
        <time>2018-04-29T18:51:52Z</time>
      </trkpt>
      <trkpt lat="44.60191" lon="0.89273">
        <ele>176</ele>
        <time>2018-04-29T18:51:55Z</time>
      </trkpt>
      <trkpt lat="44.60213" lon="0.89256">
        <ele>176</ele>
        <time>2018-04-29T18:52:01Z</time>
      </trkpt>
      <trkpt lat="44.60223" lon="0.8925">
        <ele>176</ele>
        <time>2018-04-29T18:52:04Z</time>
      </trkpt>
      <trkpt lat="44.60226" lon="0.89249">
        <ele>176.4</ele>
        <time>2018-04-29T18:52:05Z</time>
      </trkpt>
      <trkpt lat="44.60229" lon="0.89247">
        <ele>176.8</ele>
        <time>2018-04-29T18:52:06Z</time>
      </trkpt>
      <trkpt lat="44.60233" lon="0.89245">
        <ele>177.2</ele>
        <time>2018-04-29T18:52:07Z</time>
      </trkpt>
      <trkpt lat="44.60237" lon="0.89244">
        <ele>177.6</ele>
        <time>2018-04-29T18:52:08Z</time>
      </trkpt>
      <trkpt lat="44.60241" lon="0.89242">
        <ele>178.2</ele>
        <time>2018-04-29T18:52:09Z</time>
      </trkpt>
      <trkpt lat="44.60249" lon="0.89239">
        <ele>178.2</ele>
        <time>2018-04-29T18:52:11Z</time>
      </trkpt>
      <trkpt lat="44.60275" lon="0.89228">
        <ele>178.2</ele>
        <time>2018-04-29T18:52:17Z</time>
      </trkpt>
      <trkpt lat="44.60293" lon="0.89217">
        <ele>178.2</ele>
        <time>2018-04-29T18:52:22Z</time>
      </trkpt>
      <trkpt lat="44.60296" lon="0.89213">
        <ele>178.2</ele>
        <time>2018-04-29T18:52:23Z</time>
      </trkpt>
      <trkpt lat="44.60303" lon="0.89204">
        <ele>178.2</ele>
        <time>2018-04-29T18:52:25Z</time>
      </trkpt>
      <trkpt lat="44.60312" lon="0.8919">
        <ele>178.2</ele>
        <time>2018-04-29T18:52:28Z</time>
      </trkpt>
      <trkpt lat="44.60327" lon="0.89163">
        <ele>178.2</ele>
        <time>2018-04-29T18:52:33Z</time>
      </trkpt>
      <trkpt lat="44.60332" lon="0.89159">
        <ele>178.2</ele>
        <time>2018-04-29T18:52:34Z</time>
      </trkpt>
      <trkpt lat="44.60353" lon="0.89142">
        <ele>178.2</ele>
        <time>2018-04-29T18:52:38Z</time>
      </trkpt>
      <trkpt lat="44.60363" lon="0.89134">
        <ele>178.2</ele>
        <time>2018-04-29T18:52:40Z</time>
      </trkpt>
      <trkpt lat="44.60375" lon="0.89127">
        <ele>178.6</ele>
        <time>2018-04-29T18:52:42Z</time>
      </trkpt>
      <trkpt lat="44.6038" lon="0.89123">
        <ele>179</ele>
        <time>2018-04-29T18:52:43Z</time>
      </trkpt>
      <trkpt lat="44.60386" lon="0.8912">
        <ele>179.4</ele>
        <time>2018-04-29T18:52:44Z</time>
      </trkpt>
      <trkpt lat="44.60392" lon="0.89117">
        <ele>179.8</ele>
        <time>2018-04-29T18:52:45Z</time>
      </trkpt>
      <trkpt lat="44.60397" lon="0.89113">
        <ele>180.2</ele>
        <time>2018-04-29T18:52:46Z</time>
      </trkpt>
      <trkpt lat="44.60403" lon="0.8911">
        <ele>180.2</ele>
        <time>2018-04-29T18:52:47Z</time>
      </trkpt>
      <trkpt lat="44.60413" lon="0.89105">
        <ele>180.2</ele>
        <time>2018-04-29T18:52:49Z</time>
      </trkpt>
      <trkpt lat="44.60419" lon="0.89102">
        <ele>180.6</ele>
        <time>2018-04-29T18:52:50Z</time>
      </trkpt>
      <trkpt lat="44.60424" lon="0.89098">
        <ele>181</ele>
        <time>2018-04-29T18:52:51Z</time>
      </trkpt>
      <trkpt lat="44.60429" lon="0.89094">
        <ele>181.4</ele>
        <time>2018-04-29T18:52:52Z</time>
      </trkpt>
      <trkpt lat="44.60434" lon="0.8909">
        <ele>182</ele>
        <time>2018-04-29T18:52:53Z</time>
      </trkpt>
      <trkpt lat="44.60439" lon="0.89087">
        <ele>182.4</ele>
        <time>2018-04-29T18:52:54Z</time>
      </trkpt>
      <trkpt lat="44.60452" lon="0.89077">
        <ele>182.4</ele>
        <time>2018-04-29T18:52:57Z</time>
      </trkpt>
      <trkpt lat="44.60462" lon="0.89073">
        <ele>182.8</ele>
        <time>2018-04-29T18:53:00Z</time>
      </trkpt>
      <trkpt lat="44.60464" lon="0.89071">
        <ele>183.8</ele>
        <time>2018-04-29T18:53:02Z</time>
      </trkpt>
      <trkpt lat="44.60465" lon="0.8907">
        <ele>184.2</ele>
        <time>2018-04-29T18:53:03Z</time>
      </trkpt>
      <trkpt lat="44.60467" lon="0.89068">
        <ele>184.8</ele>
        <time>2018-04-29T18:53:04Z</time>
      </trkpt>
      <trkpt lat="44.6047" lon="0.89067">
        <ele>184.8</ele>
        <time>2018-04-29T18:53:06Z</time>
      </trkpt>
      <trkpt lat="44.6048" lon="0.89063">
        <ele>184.8</ele>
        <time>2018-04-29T18:53:10Z</time>
      </trkpt>
      <trkpt lat="44.60496" lon="0.89054">
        <ele>184.8</ele>
        <time>2018-04-29T18:53:16Z</time>
      </trkpt>
      <trkpt lat="44.60507" lon="0.89047">
        <ele>184.8</ele>
        <time>2018-04-29T18:53:19Z</time>
      </trkpt>
      <trkpt lat="44.60515" lon="0.89042">
        <ele>184.8</ele>
        <time>2018-04-29T18:53:21Z</time>
      </trkpt>
      <trkpt lat="44.60544" lon="0.89019">
        <ele>184.8</ele>
        <time>2018-04-29T18:53:28Z</time>
      </trkpt>
      <trkpt lat="44.60567" lon="0.89008">
        <ele>184.8</ele>
        <time>2018-04-29T18:53:33Z</time>
      </trkpt>
      <trkpt lat="44.60572" lon="0.89007">
        <ele>184.8</ele>
        <time>2018-04-29T18:53:34Z</time>
      </trkpt>
      <trkpt lat="44.60589" lon="0.89001">
        <ele>184.8</ele>
        <time>2018-04-29T18:53:38Z</time>
      </trkpt>
      <trkpt lat="44.60607" lon="0.88995">
        <ele>184.8</ele>
        <time>2018-04-29T18:53:43Z</time>
      </trkpt>
      <trkpt lat="44.60615" lon="0.88993">
        <ele>185.2</ele>
        <time>2018-04-29T18:53:45Z</time>
      </trkpt>
      <trkpt lat="44.60619" lon="0.88991">
        <ele>185.6</ele>
        <time>2018-04-29T18:53:46Z</time>
      </trkpt>
      <trkpt lat="44.60623" lon="0.88989">
        <ele>186</ele>
        <time>2018-04-29T18:53:47Z</time>
      </trkpt>
      <trkpt lat="44.60628" lon="0.88987">
        <ele>186.6</ele>
        <time>2018-04-29T18:53:48Z</time>
      </trkpt>
      <trkpt lat="44.60631" lon="0.88986">
        <ele>187</ele>
        <time>2018-04-29T18:53:49Z</time>
      </trkpt>
      <trkpt lat="44.60641" lon="0.88982">
        <ele>187</ele>
        <time>2018-04-29T18:53:51Z</time>
      </trkpt>
      <trkpt lat="44.60651" lon="0.88979">
        <ele>187</ele>
        <time>2018-04-29T18:53:53Z</time>
      </trkpt>
      <trkpt lat="44.60672" lon="0.88972">
        <ele>187</ele>
        <time>2018-04-29T18:53:57Z</time>
      </trkpt>
      <trkpt lat="44.60678" lon="0.8897">
        <ele>187.4</ele>
        <time>2018-04-29T18:53:58Z</time>
      </trkpt>
      <trkpt lat="44.60684" lon="0.88969">
        <ele>187.8</ele>
        <time>2018-04-29T18:53:59Z</time>
      </trkpt>
      <trkpt lat="44.60689" lon="0.88968">
        <ele>188.2</ele>
        <time>2018-04-29T18:54:00Z</time>
      </trkpt>
      <trkpt lat="44.60696" lon="0.88967">
        <ele>188.6</ele>
        <time>2018-04-29T18:54:01Z</time>
      </trkpt>
      <trkpt lat="44.60702" lon="0.88964">
        <ele>189</ele>
        <time>2018-04-29T18:54:02Z</time>
      </trkpt>
      <trkpt lat="44.60713" lon="0.88956">
        <ele>189</ele>
        <time>2018-04-29T18:54:04Z</time>
      </trkpt>
      <trkpt lat="44.60725" lon="0.88948">
        <ele>189</ele>
        <time>2018-04-29T18:54:06Z</time>
      </trkpt>
      <trkpt lat="44.60739" lon="0.88941">
        <ele>189</ele>
        <time>2018-04-29T18:54:08Z</time>
      </trkpt>
      <trkpt lat="44.60775" lon="0.88923">
        <ele>189</ele>
        <time>2018-04-29T18:54:13Z</time>
      </trkpt>
      <trkpt lat="44.60793" lon="0.88914">
        <ele>189</ele>
        <time>2018-04-29T18:54:16Z</time>
      </trkpt>
      <trkpt lat="44.60799" lon="0.8891">
        <ele>189</ele>
        <time>2018-04-29T18:54:17Z</time>
      </trkpt>
      <trkpt lat="44.60821" lon="0.88892">
        <ele>189</ele>
        <time>2018-04-29T18:54:21Z</time>
      </trkpt>
      <trkpt lat="44.60845" lon="0.88877">
        <ele>189</ele>
        <time>2018-04-29T18:54:25Z</time>
      </trkpt>
      <trkpt lat="44.60848" lon="0.88876">
        <ele>189</ele>
        <time>2018-04-29T18:54:26Z</time>
      </trkpt>
      <trkpt lat="44.60864" lon="0.88865">
        <ele>189</ele>
        <time>2018-04-29T18:54:30Z</time>
      </trkpt>
      <trkpt lat="44.60885" lon="0.8885">
        <ele>189</ele>
        <time>2018-04-29T18:54:36Z</time>
      </trkpt>
      <trkpt lat="44.60903" lon="0.88838">
        <ele>189</ele>
        <time>2018-04-29T18:54:42Z</time>
      </trkpt>
      <trkpt lat="44.60915" lon="0.88823">
        <ele>189</ele>
        <time>2018-04-29T18:54:46Z</time>
      </trkpt>
      <trkpt lat="44.60942" lon="0.88798">
        <ele>188.6</ele>
        <time>2018-04-29T18:54:51Z</time>
      </trkpt>
      <trkpt lat="44.60948" lon="0.88794">
        <ele>188.2</ele>
        <time>2018-04-29T18:54:52Z</time>
      </trkpt>
      <trkpt lat="44.60956" lon="0.8879">
        <ele>187.8</ele>
        <time>2018-04-29T18:54:53Z</time>
      </trkpt>
      <trkpt lat="44.60962" lon="0.88785">
        <ele>187.4</ele>
        <time>2018-04-29T18:54:54Z</time>
      </trkpt>
      <trkpt lat="44.60966" lon="0.88781">
        <ele>187</ele>
        <time>2018-04-29T18:54:55Z</time>
      </trkpt>
      <trkpt lat="44.6097" lon="0.88777">
        <ele>187</ele>
        <time>2018-04-29T18:54:56Z</time>
      </trkpt>
      <trkpt lat="44.60978" lon="0.88771">
        <ele>187</ele>
        <time>2018-04-29T18:54:58Z</time>
      </trkpt>
      <trkpt lat="44.61007" lon="0.88746">
        <ele>187</ele>
        <time>2018-04-29T18:55:03Z</time>
      </trkpt>
      <trkpt lat="44.61011" lon="0.8874">
        <ele>187</ele>
        <time>2018-04-29T18:55:04Z</time>
      </trkpt>
      <trkpt lat="44.61017" lon="0.88727">
        <ele>187</ele>
        <time>2018-04-29T18:55:06Z</time>
      </trkpt>
      <trkpt lat="44.61014" lon="0.88703">
        <ele>187</ele>
        <time>2018-04-29T18:55:09Z</time>
      </trkpt>
      <trkpt lat="44.61014" lon="0.88695">
        <ele>187</ele>
        <time>2018-04-29T18:55:10Z</time>
      </trkpt>
      <trkpt lat="44.61014" lon="0.88688">
        <ele>187</ele>
        <time>2018-04-29T18:55:11Z</time>
      </trkpt>
      <trkpt lat="44.61014" lon="0.8868">
        <ele>187.6</ele>
        <time>2018-04-29T18:55:12Z</time>
      </trkpt>
      <trkpt lat="44.61015" lon="0.88672">
        <ele>188</ele>
        <time>2018-04-29T18:55:13Z</time>
      </trkpt>
      <trkpt lat="44.61015" lon="0.88664">
        <ele>188.6</ele>
        <time>2018-04-29T18:55:14Z</time>
      </trkpt>
      <trkpt lat="44.61016" lon="0.88657">
        <ele>189</ele>
        <time>2018-04-29T18:55:15Z</time>
      </trkpt>
      <trkpt lat="44.61017" lon="0.8865">
        <ele>189.6</ele>
        <time>2018-04-29T18:55:16Z</time>
      </trkpt>
      <trkpt lat="44.61018" lon="0.88644">
        <ele>190.2</ele>
        <time>2018-04-29T18:55:17Z</time>
      </trkpt>
      <trkpt lat="44.6102" lon="0.8864">
        <ele>190.8</ele>
        <time>2018-04-29T18:55:18Z</time>
      </trkpt>
      <trkpt lat="44.61021" lon="0.88636">
        <ele>191.4</ele>
        <time>2018-04-29T18:55:19Z</time>
      </trkpt>
      <trkpt lat="44.61023" lon="0.88631">
        <ele>192.2</ele>
        <time>2018-04-29T18:55:20Z</time>
      </trkpt>
      <trkpt lat="44.61026" lon="0.88623">
        <ele>192.6</ele>
        <time>2018-04-29T18:55:22Z</time>
      </trkpt>
      <trkpt lat="44.61028" lon="0.88619">
        <ele>193</ele>
        <time>2018-04-29T18:55:23Z</time>
      </trkpt>
      <trkpt lat="44.61029" lon="0.88616">
        <ele>193.4</ele>
        <time>2018-04-29T18:55:24Z</time>
      </trkpt>
      <trkpt lat="44.61029" lon="0.88613">
        <ele>193.8</ele>
        <time>2018-04-29T18:55:25Z</time>
      </trkpt>
      <trkpt lat="44.6103" lon="0.8861">
        <ele>194.4</ele>
        <time>2018-04-29T18:55:26Z</time>
      </trkpt>
      <trkpt lat="44.61033" lon="0.88599">
        <ele>194.4</ele>
        <time>2018-04-29T18:55:30Z</time>
      </trkpt>
      <trkpt lat="44.61035" lon="0.88597">
        <ele>194.4</ele>
        <time>2018-04-29T18:55:31Z</time>
      </trkpt>
      <trkpt lat="44.61039" lon="0.8859">
        <ele>194.4</ele>
        <time>2018-04-29T18:55:34Z</time>
      </trkpt>
      <trkpt lat="44.61037" lon="0.88587">
        <ele>194.4</ele>
        <time>2018-04-29T18:55:35Z</time>
      </trkpt>
      <trkpt lat="44.61038" lon="0.88585">
        <ele>194.4</ele>
        <time>2018-04-29T18:55:36Z</time>
      </trkpt>
      <trkpt lat="44.61037" lon="0.88579">
        <ele>194.8</ele>
        <time>2018-04-29T18:55:39Z</time>
      </trkpt>
      <trkpt lat="44.61036" lon="0.88577">
        <ele>195.2</ele>
        <time>2018-04-29T18:55:40Z</time>
      </trkpt>
      <trkpt lat="44.61034" lon="0.88575">
        <ele>195.6</ele>
        <time>2018-04-29T18:55:41Z</time>
      </trkpt>
      <trkpt lat="44.61035" lon="0.88574">
        <ele>196</ele>
        <time>2018-04-29T18:55:42Z</time>
      </trkpt>
      <trkpt lat="44.61034" lon="0.88573">
        <ele>196.4</ele>
        <time>2018-04-29T18:55:43Z</time>
      </trkpt>
      <trkpt lat="44.6103" lon="0.88569">
        <ele>196.4</ele>
        <time>2018-04-29T18:55:45Z</time>
      </trkpt>
      <trkpt lat="44.61024" lon="0.88553">
        <ele>196.4</ele>
        <time>2018-04-29T18:55:50Z</time>
      </trkpt>
      <trkpt lat="44.61022" lon="0.88546">
        <ele>196.8</ele>
        <time>2018-04-29T18:55:52Z</time>
      </trkpt>
      <trkpt lat="44.61021" lon="0.88542">
        <ele>197.2</ele>
        <time>2018-04-29T18:55:53Z</time>
      </trkpt>
      <trkpt lat="44.6102" lon="0.88539">
        <ele>198.2</ele>
        <time>2018-04-29T18:55:54Z</time>
      </trkpt>
      <trkpt lat="44.61018" lon="0.88536">
        <ele>198.6</ele>
        <time>2018-04-29T18:55:55Z</time>
      </trkpt>
      <trkpt lat="44.61009" lon="0.88519">
        <ele>198.6</ele>
        <time>2018-04-29T18:56:01Z</time>
      </trkpt>
      <trkpt lat="44.61007" lon="0.8851">
        <ele>198.6</ele>
        <time>2018-04-29T18:56:04Z</time>
      </trkpt>
      <trkpt lat="44.61008" lon="0.88505">
        <ele>198.6</ele>
        <time>2018-04-29T18:56:06Z</time>
      </trkpt>
      <trkpt lat="44.61009" lon="0.88502">
        <ele>199</ele>
        <time>2018-04-29T18:56:07Z</time>
      </trkpt>
      <trkpt lat="44.61008" lon="0.885">
        <ele>199.4</ele>
        <time>2018-04-29T18:56:08Z</time>
      </trkpt>
      <trkpt lat="44.61007" lon="0.88496">
        <ele>199.8</ele>
        <time>2018-04-29T18:56:09Z</time>
      </trkpt>
      <trkpt lat="44.61006" lon="0.88494">
        <ele>200.2</ele>
        <time>2018-04-29T18:56:10Z</time>
      </trkpt>
      <trkpt lat="44.61004" lon="0.88491">
        <ele>200.6</ele>
        <time>2018-04-29T18:56:11Z</time>
      </trkpt>
      <trkpt lat="44.60999" lon="0.88481">
        <ele>200.6</ele>
        <time>2018-04-29T18:56:16Z</time>
      </trkpt>
      <trkpt lat="44.60997" lon="0.88478">
        <ele>200.6</ele>
        <time>2018-04-29T18:56:18Z</time>
      </trkpt>
      <trkpt lat="44.60994" lon="0.88473">
        <ele>200.6</ele>
        <time>2018-04-29T18:56:21Z</time>
      </trkpt>
      <trkpt lat="44.60991" lon="0.88466">
        <ele>200.6</ele>
        <time>2018-04-29T18:56:24Z</time>
      </trkpt>
      <trkpt lat="44.60991" lon="0.88465">
        <ele>200.6</ele>
        <time>2018-04-29T18:56:25Z</time>
      </trkpt>
      <trkpt lat="44.60987" lon="0.88456">
        <ele>201</ele>
        <time>2018-04-29T18:56:28Z</time>
      </trkpt>
      <trkpt lat="44.60986" lon="0.88452">
        <ele>201.4</ele>
        <time>2018-04-29T18:56:29Z</time>
      </trkpt>
      <trkpt lat="44.60984" lon="0.88448">
        <ele>201.8</ele>
        <time>2018-04-29T18:56:30Z</time>
      </trkpt>
      <trkpt lat="44.60982" lon="0.88446">
        <ele>202.2</ele>
        <time>2018-04-29T18:56:31Z</time>
      </trkpt>
      <trkpt lat="44.60979" lon="0.88443">
        <ele>202.6</ele>
        <time>2018-04-29T18:56:32Z</time>
      </trkpt>
      <trkpt lat="44.60977" lon="0.88441">
        <ele>202.6</ele>
        <time>2018-04-29T18:56:33Z</time>
      </trkpt>
      <trkpt lat="44.60968" lon="0.8843">
        <ele>202.6</ele>
        <time>2018-04-29T18:56:37Z</time>
      </trkpt>
      <trkpt lat="44.60964" lon="0.88425">
        <ele>203</ele>
        <time>2018-04-29T18:56:38Z</time>
      </trkpt>
      <trkpt lat="44.60961" lon="0.88423">
        <ele>203.4</ele>
        <time>2018-04-29T18:56:39Z</time>
      </trkpt>
      <trkpt lat="44.60957" lon="0.88421">
        <ele>204</ele>
        <time>2018-04-29T18:56:40Z</time>
      </trkpt>
      <trkpt lat="44.60953" lon="0.88418">
        <ele>204.4</ele>
        <time>2018-04-29T18:56:41Z</time>
      </trkpt>
      <trkpt lat="44.6095" lon="0.88417">
        <ele>204.8</ele>
        <time>2018-04-29T18:56:42Z</time>
      </trkpt>
      <trkpt lat="44.60947" lon="0.88415">
        <ele>204.8</ele>
        <time>2018-04-29T18:56:43Z</time>
      </trkpt>
      <trkpt lat="44.60942" lon="0.88401">
        <ele>204.8</ele>
        <time>2018-04-29T18:56:46Z</time>
      </trkpt>
      <trkpt lat="44.60943" lon="0.8839">
        <ele>204.8</ele>
        <time>2018-04-29T18:56:48Z</time>
      </trkpt>
      <trkpt lat="44.60939" lon="0.88377">
        <ele>205.2</ele>
        <time>2018-04-29T18:56:50Z</time>
      </trkpt>
      <trkpt lat="44.60937" lon="0.88373">
        <ele>205.8</ele>
        <time>2018-04-29T18:56:51Z</time>
      </trkpt>
      <trkpt lat="44.60935" lon="0.8837">
        <ele>206.2</ele>
        <time>2018-04-29T18:56:52Z</time>
      </trkpt>
      <trkpt lat="44.60931" lon="0.88369">
        <ele>206.6</ele>
        <time>2018-04-29T18:56:53Z</time>
      </trkpt>
      <trkpt lat="44.60927" lon="0.88369">
        <ele>207.2</ele>
        <time>2018-04-29T18:56:54Z</time>
      </trkpt>
      <trkpt lat="44.60923" lon="0.88369">
        <ele>207.2</ele>
        <time>2018-04-29T18:56:55Z</time>
      </trkpt>
      <trkpt lat="44.60918" lon="0.88369">
        <ele>207.2</ele>
        <time>2018-04-29T18:56:56Z</time>
      </trkpt>
      <trkpt lat="44.60901" lon="0.88366">
        <ele>207.2</ele>
        <time>2018-04-29T18:57:00Z</time>
      </trkpt>
      <trkpt lat="44.60897" lon="0.88364">
        <ele>207.2</ele>
        <time>2018-04-29T18:57:01Z</time>
      </trkpt>
      <trkpt lat="44.60893" lon="0.88363">
        <ele>207.2</ele>
        <time>2018-04-29T18:57:02Z</time>
      </trkpt>
      <trkpt lat="44.60879" lon="0.8836">
        <ele>207.2</ele>
        <time>2018-04-29T18:57:05Z</time>
      </trkpt>
      <trkpt lat="44.60861" lon="0.88353">
        <ele>207.2</ele>
        <time>2018-04-29T18:57:10Z</time>
      </trkpt>
      <trkpt lat="44.60855" lon="0.88347">
        <ele>207.2</ele>
        <time>2018-04-29T18:57:13Z</time>
      </trkpt>
      <trkpt lat="44.60853" lon="0.88342">
        <ele>207.2</ele>
        <time>2018-04-29T18:57:14Z</time>
      </trkpt>
      <trkpt lat="44.60852" lon="0.88322">
        <ele>207.2</ele>
        <time>2018-04-29T18:57:17Z</time>
      </trkpt>
      <trkpt lat="44.60848" lon="0.8831">
        <ele>207.2</ele>
        <time>2018-04-29T18:57:18Z</time>
      </trkpt>
      <trkpt lat="44.60844" lon="0.88287">
        <ele>206.8</ele>
        <time>2018-04-29T18:57:20Z</time>
      </trkpt>
      <trkpt lat="44.60844" lon="0.88275">
        <ele>206.4</ele>
        <time>2018-04-29T18:57:21Z</time>
      </trkpt>
      <trkpt lat="44.60843" lon="0.88263">
        <ele>206</ele>
        <time>2018-04-29T18:57:22Z</time>
      </trkpt>
      <trkpt lat="44.60843" lon="0.88252">
        <ele>205.4</ele>
        <time>2018-04-29T18:57:23Z</time>
      </trkpt>
      <trkpt lat="44.60841" lon="0.8824">
        <ele>205</ele>
        <time>2018-04-29T18:57:24Z</time>
      </trkpt>
      <trkpt lat="44.6084" lon="0.88229">
        <ele>204.6</ele>
        <time>2018-04-29T18:57:25Z</time>
      </trkpt>
      <trkpt lat="44.6084" lon="0.8822">
        <ele>204.2</ele>
        <time>2018-04-29T18:57:26Z</time>
      </trkpt>
      <trkpt lat="44.6084" lon="0.88209">
        <ele>203.8</ele>
        <time>2018-04-29T18:57:27Z</time>
      </trkpt>
      <trkpt lat="44.60841" lon="0.882">
        <ele>203.4</ele>
        <time>2018-04-29T18:57:28Z</time>
      </trkpt>
      <trkpt lat="44.60841" lon="0.8819">
        <ele>203</ele>
        <time>2018-04-29T18:57:29Z</time>
      </trkpt>
      <trkpt lat="44.6084" lon="0.88182">
        <ele>203</ele>
        <time>2018-04-29T18:57:30Z</time>
      </trkpt>
      <trkpt lat="44.60839" lon="0.88176">
        <ele>203</ele>
        <time>2018-04-29T18:57:31Z</time>
      </trkpt>
      <trkpt lat="44.60835" lon="0.88174">
        <ele>202.2</ele>
        <time>2018-04-29T18:57:32Z</time>
      </trkpt>
      <trkpt lat="44.6083" lon="0.88174">
        <ele>201.8</ele>
        <time>2018-04-29T18:57:33Z</time>
      </trkpt>
      <trkpt lat="44.60825" lon="0.88174">
        <ele>201.4</ele>
        <time>2018-04-29T18:57:34Z</time>
      </trkpt>
      <trkpt lat="44.6082" lon="0.88175">
        <ele>201</ele>
        <time>2018-04-29T18:57:35Z</time>
      </trkpt>
      <trkpt lat="44.60805" lon="0.88174">
        <ele>200.4</ele>
        <time>2018-04-29T18:57:37Z</time>
      </trkpt>
      <trkpt lat="44.60797" lon="0.88173">
        <ele>200</ele>
        <time>2018-04-29T18:57:38Z</time>
      </trkpt>
      <trkpt lat="44.60788" lon="0.88171">
        <ele>199.6</ele>
        <time>2018-04-29T18:57:39Z</time>
      </trkpt>
      <trkpt lat="44.60779" lon="0.88169">
        <ele>199.2</ele>
        <time>2018-04-29T18:57:40Z</time>
      </trkpt>
      <trkpt lat="44.6077" lon="0.88166">
        <ele>198.6</ele>
        <time>2018-04-29T18:57:41Z</time>
      </trkpt>
      <trkpt lat="44.60736" lon="0.88155">
        <ele>198.6</ele>
        <time>2018-04-29T18:57:45Z</time>
      </trkpt>
      <trkpt lat="44.60728" lon="0.88152">
        <ele>198.6</ele>
        <time>2018-04-29T18:57:46Z</time>
      </trkpt>
      <trkpt lat="44.6072" lon="0.88151">
        <ele>198.2</ele>
        <time>2018-04-29T18:57:47Z</time>
      </trkpt>
      <trkpt lat="44.60711" lon="0.88147">
        <ele>197.8</ele>
        <time>2018-04-29T18:57:48Z</time>
      </trkpt>
      <trkpt lat="44.60702" lon="0.8814">
        <ele>197.2</ele>
        <time>2018-04-29T18:57:49Z</time>
      </trkpt>
      <trkpt lat="44.60694" lon="0.88129">
        <ele>196.6</ele>
        <time>2018-04-29T18:57:50Z</time>
      </trkpt>
      <trkpt lat="44.60688" lon="0.88118">
        <ele>196</ele>
        <time>2018-04-29T18:57:51Z</time>
      </trkpt>
      <trkpt lat="44.60683" lon="0.88106">
        <ele>195.4</ele>
        <time>2018-04-29T18:57:52Z</time>
      </trkpt>
      <trkpt lat="44.60677" lon="0.88094">
        <ele>194.6</ele>
        <time>2018-04-29T18:57:53Z</time>
      </trkpt>
      <trkpt lat="44.60671" lon="0.88083">
        <ele>193.8</ele>
        <time>2018-04-29T18:57:54Z</time>
      </trkpt>
      <trkpt lat="44.60665" lon="0.88072">
        <ele>193.2</ele>
        <time>2018-04-29T18:57:55Z</time>
      </trkpt>
      <trkpt lat="44.6066" lon="0.88059">
        <ele>192.4</ele>
        <time>2018-04-29T18:57:56Z</time>
      </trkpt>
      <trkpt lat="44.60655" lon="0.88046">
        <ele>191.6</ele>
        <time>2018-04-29T18:57:57Z</time>
      </trkpt>
      <trkpt lat="44.60641" lon="0.88019">
        <ele>191</ele>
        <time>2018-04-29T18:57:59Z</time>
      </trkpt>
      <trkpt lat="44.60635" lon="0.88005">
        <ele>190.4</ele>
        <time>2018-04-29T18:58:00Z</time>
      </trkpt>
      <trkpt lat="44.60628" lon="0.87991">
        <ele>190</ele>
        <time>2018-04-29T18:58:01Z</time>
      </trkpt>
      <trkpt lat="44.60622" lon="0.87977">
        <ele>189.4</ele>
        <time>2018-04-29T18:58:02Z</time>
      </trkpt>
      <trkpt lat="44.60618" lon="0.87963">
        <ele>188.8</ele>
        <time>2018-04-29T18:58:03Z</time>
      </trkpt>
      <trkpt lat="44.60614" lon="0.8795">
        <ele>188.8</ele>
        <time>2018-04-29T18:58:04Z</time>
      </trkpt>
      <trkpt lat="44.60602" lon="0.87915">
        <ele>188.8</ele>
        <time>2018-04-29T18:58:07Z</time>
      </trkpt>
      <trkpt lat="44.60597" lon="0.87904">
        <ele>188.8</ele>
        <time>2018-04-29T18:58:08Z</time>
      </trkpt>
      <trkpt lat="44.60579" lon="0.87882">
        <ele>188.8</ele>
        <time>2018-04-29T18:58:11Z</time>
      </trkpt>
      <trkpt lat="44.60573" lon="0.87874">
        <ele>188.4</ele>
        <time>2018-04-29T18:58:12Z</time>
      </trkpt>
      <trkpt lat="44.60567" lon="0.87865">
        <ele>188</ele>
        <time>2018-04-29T18:58:13Z</time>
      </trkpt>
      <trkpt lat="44.6056" lon="0.87856">
        <ele>187.4</ele>
        <time>2018-04-29T18:58:14Z</time>
      </trkpt>
      <trkpt lat="44.60554" lon="0.87846">
        <ele>187</ele>
        <time>2018-04-29T18:58:15Z</time>
      </trkpt>
      <trkpt lat="44.60549" lon="0.87835">
        <ele>186.4</ele>
        <time>2018-04-29T18:58:16Z</time>
      </trkpt>
      <trkpt lat="44.60544" lon="0.87825">
        <ele>186</ele>
        <time>2018-04-29T18:58:17Z</time>
      </trkpt>
      <trkpt lat="44.60538" lon="0.87815">
        <ele>185.4</ele>
        <time>2018-04-29T18:58:18Z</time>
      </trkpt>
      <trkpt lat="44.60533" lon="0.87806">
        <ele>185</ele>
        <time>2018-04-29T18:58:19Z</time>
      </trkpt>
      <trkpt lat="44.60528" lon="0.87797">
        <ele>184.4</ele>
        <time>2018-04-29T18:58:20Z</time>
      </trkpt>
      <trkpt lat="44.60524" lon="0.87789">
        <ele>183.8</ele>
        <time>2018-04-29T18:58:21Z</time>
      </trkpt>
      <trkpt lat="44.60518" lon="0.8778">
        <ele>183</ele>
        <time>2018-04-29T18:58:22Z</time>
      </trkpt>
      <trkpt lat="44.60513" lon="0.8777">
        <ele>182.4</ele>
        <time>2018-04-29T18:58:23Z</time>
      </trkpt>
      <trkpt lat="44.60508" lon="0.87761">
        <ele>182</ele>
        <time>2018-04-29T18:58:24Z</time>
      </trkpt>
      <trkpt lat="44.60487" lon="0.8772">
        <ele>182</ele>
        <time>2018-04-29T18:58:29Z</time>
      </trkpt>
      <trkpt lat="44.6047" lon="0.87658">
        <ele>182</ele>
        <time>2018-04-29T18:58:35Z</time>
      </trkpt>
      <trkpt lat="44.60467" lon="0.8765">
        <ele>182</ele>
        <time>2018-04-29T18:58:36Z</time>
      </trkpt>
      <trkpt lat="44.60456" lon="0.8762">
        <ele>181.4</ele>
        <time>2018-04-29T18:58:39Z</time>
      </trkpt>
      <trkpt lat="44.60453" lon="0.8761">
        <ele>181</ele>
        <time>2018-04-29T18:58:40Z</time>
      </trkpt>
      <trkpt lat="44.6045" lon="0.87599">
        <ele>180.6</ele>
        <time>2018-04-29T18:58:41Z</time>
      </trkpt>
      <trkpt lat="44.60446" lon="0.8759">
        <ele>180.2</ele>
        <time>2018-04-29T18:58:42Z</time>
      </trkpt>
      <trkpt lat="44.60443" lon="0.87581">
        <ele>179.8</ele>
        <time>2018-04-29T18:58:43Z</time>
      </trkpt>
      <trkpt lat="44.60438" lon="0.87572">
        <ele>179.8</ele>
        <time>2018-04-29T18:58:44Z</time>
      </trkpt>
      <trkpt lat="44.60435" lon="0.87562">
        <ele>179.2</ele>
        <time>2018-04-29T18:58:45Z</time>
      </trkpt>
      <trkpt lat="44.60432" lon="0.87555">
        <ele>178.8</ele>
        <time>2018-04-29T18:58:46Z</time>
      </trkpt>
      <trkpt lat="44.60427" lon="0.87547">
        <ele>177.8</ele>
        <time>2018-04-29T18:58:47Z</time>
      </trkpt>
      <trkpt lat="44.60421" lon="0.87541">
        <ele>177.2</ele>
        <time>2018-04-29T18:58:48Z</time>
      </trkpt>
      <trkpt lat="44.60413" lon="0.87534">
        <ele>176.6</ele>
        <time>2018-04-29T18:58:49Z</time>
      </trkpt>
      <trkpt lat="44.60406" lon="0.87526">
        <ele>176.2</ele>
        <time>2018-04-29T18:58:50Z</time>
      </trkpt>
      <trkpt lat="44.60399" lon="0.87518">
        <ele>175.4</ele>
        <time>2018-04-29T18:58:51Z</time>
      </trkpt>
      <trkpt lat="44.6039" lon="0.8751">
        <ele>174.6</ele>
        <time>2018-04-29T18:58:52Z</time>
      </trkpt>
      <trkpt lat="44.60383" lon="0.87501">
        <ele>173.8</ele>
        <time>2018-04-29T18:58:53Z</time>
      </trkpt>
      <trkpt lat="44.60377" lon="0.87491">
        <ele>173</ele>
        <time>2018-04-29T18:58:54Z</time>
      </trkpt>
      <trkpt lat="44.60371" lon="0.87482">
        <ele>172.2</ele>
        <time>2018-04-29T18:58:55Z</time>
      </trkpt>
      <trkpt lat="44.60364" lon="0.87474">
        <ele>171.6</ele>
        <time>2018-04-29T18:58:56Z</time>
      </trkpt>
      <trkpt lat="44.60359" lon="0.87468">
        <ele>171</ele>
        <time>2018-04-29T18:58:57Z</time>
      </trkpt>
      <trkpt lat="44.60356" lon="0.87462">
        <ele>170.4</ele>
        <time>2018-04-29T18:58:58Z</time>
      </trkpt>
      <trkpt lat="44.60353" lon="0.87458">
        <ele>169.8</ele>
        <time>2018-04-29T18:58:59Z</time>
      </trkpt>
      <trkpt lat="44.60352" lon="0.87455">
        <ele>169.4</ele>
        <time>2018-04-29T18:59:00Z</time>
      </trkpt>
      <trkpt lat="44.6035" lon="0.87452">
        <ele>169</ele>
        <time>2018-04-29T18:59:01Z</time>
      </trkpt>
      <trkpt lat="44.60349" lon="0.87449">
        <ele>168.6</ele>
        <time>2018-04-29T18:59:02Z</time>
      </trkpt>
      <trkpt lat="44.60347" lon="0.87447">
        <ele>168.2</ele>
        <time>2018-04-29T18:59:03Z</time>
      </trkpt>
      <trkpt lat="44.60345" lon="0.87444">
        <ele>167.8</ele>
        <time>2018-04-29T18:59:04Z</time>
      </trkpt>
      <trkpt lat="44.60341" lon="0.87438">
        <ele>167.8</ele>
        <time>2018-04-29T18:59:06Z</time>
      </trkpt>
      <trkpt lat="44.6034" lon="0.87435">
        <ele>167.8</ele>
        <time>2018-04-29T18:59:07Z</time>
      </trkpt>
      <trkpt lat="44.60335" lon="0.87428">
        <ele>167.8</ele>
        <time>2018-04-29T18:59:11Z</time>
      </trkpt>
      <trkpt lat="44.60334" lon="0.87426">
        <ele>167.8</ele>
        <time>2018-04-29T18:59:12Z</time>
      </trkpt>
      <trkpt lat="44.60332" lon="0.87422">
        <ele>167.8</ele>
        <time>2018-04-29T18:59:14Z</time>
      </trkpt>
      <trkpt lat="44.60329" lon="0.87417">
        <ele>167.4</ele>
        <time>2018-04-29T18:59:17Z</time>
      </trkpt>
      <trkpt lat="44.60327" lon="0.87415">
        <ele>167</ele>
        <time>2018-04-29T18:59:18Z</time>
      </trkpt>
      <trkpt lat="44.60326" lon="0.87412">
        <ele>166.6</ele>
        <time>2018-04-29T18:59:19Z</time>
      </trkpt>
      <trkpt lat="44.60322" lon="0.87408">
        <ele>166.2</ele>
        <time>2018-04-29T18:59:20Z</time>
      </trkpt>
      <trkpt lat="44.60319" lon="0.87403">
        <ele>165.8</ele>
        <time>2018-04-29T18:59:21Z</time>
      </trkpt>
      <trkpt lat="44.60316" lon="0.87398">
        <ele>165.8</ele>
        <time>2018-04-29T18:59:22Z</time>
      </trkpt>
      <trkpt lat="44.60299" lon="0.8738">
        <ele>165.8</ele>
        <time>2018-04-29T18:59:25Z</time>
      </trkpt>
      <trkpt lat="44.60291" lon="0.87377">
        <ele>165.8</ele>
        <time>2018-04-29T18:59:26Z</time>
      </trkpt>
      <trkpt lat="44.60273" lon="0.87364">
        <ele>165.8</ele>
        <time>2018-04-29T18:59:29Z</time>
      </trkpt>
      <trkpt lat="44.60271" lon="0.87358">
        <ele>165.8</ele>
        <time>2018-04-29T18:59:30Z</time>
      </trkpt>
      <trkpt lat="44.60259" lon="0.87336">
        <ele>165.8</ele>
        <time>2018-04-29T18:59:33Z</time>
      </trkpt>
      <trkpt lat="44.60255" lon="0.87329">
        <ele>165.2</ele>
        <time>2018-04-29T18:59:34Z</time>
      </trkpt>
      <trkpt lat="44.60249" lon="0.87325">
        <ele>164.8</ele>
        <time>2018-04-29T18:59:35Z</time>
      </trkpt>
      <trkpt lat="44.60242" lon="0.87325">
        <ele>164</ele>
        <time>2018-04-29T18:59:36Z</time>
      </trkpt>
      <trkpt lat="44.60235" lon="0.87323">
        <ele>163.6</ele>
        <time>2018-04-29T18:59:37Z</time>
      </trkpt>
      <trkpt lat="44.60204" lon="0.8732">
        <ele>163.6</ele>
        <time>2018-04-29T18:59:41Z</time>
      </trkpt>
      <trkpt lat="44.60196" lon="0.87318">
        <ele>163.6</ele>
        <time>2018-04-29T18:59:42Z</time>
      </trkpt>
      <trkpt lat="44.60173" lon="0.87313">
        <ele>163.6</ele>
        <time>2018-04-29T18:59:45Z</time>
      </trkpt>
      <trkpt lat="44.60135" lon="0.87311">
        <ele>163.6</ele>
        <time>2018-04-29T18:59:50Z</time>
      </trkpt>
      <trkpt lat="44.601" lon="0.87301">
        <ele>163.6</ele>
        <time>2018-04-29T18:59:55Z</time>
      </trkpt>
      <trkpt lat="44.60071" lon="0.87292">
        <ele>163.6</ele>
        <time>2018-04-29T19:00:00Z</time>
      </trkpt>
      <trkpt lat="44.60051" lon="0.87288">
        <ele>163.6</ele>
        <time>2018-04-29T19:00:05Z</time>
      </trkpt>
      <trkpt lat="44.60045" lon="0.87286">
        <ele>163.6</ele>
        <time>2018-04-29T19:00:08Z</time>
      </trkpt>
      <trkpt lat="44.60041" lon="0.87285">
        <ele>164</ele>
        <time>2018-04-29T19:00:09Z</time>
      </trkpt>
      <trkpt lat="44.60039" lon="0.87286">
        <ele>164.4</ele>
        <time>2018-04-29T19:00:10Z</time>
      </trkpt>
      <trkpt lat="44.60038" lon="0.87286">
        <ele>164.8</ele>
        <time>2018-04-29T19:00:11Z</time>
      </trkpt>
      <trkpt lat="44.60037" lon="0.87286">
        <ele>165.2</ele>
        <time>2018-04-29T19:00:12Z</time>
      </trkpt>
      <trkpt lat="44.60036" lon="0.87286">
        <ele>165.6</ele>
        <time>2018-04-29T19:00:13Z</time>
      </trkpt>
      <trkpt lat="44.60034" lon="0.87287">
        <ele>165.6</ele>
        <time>2018-04-29T19:00:17Z</time>
      </trkpt>
      <trkpt lat="44.60031" lon="0.87291">
        <ele>165.6</ele>
        <time>2018-04-29T19:02:18Z</time>
      </trkpt>
      <trkpt lat="44.60031" lon="0.87291">
        <ele>165.6</ele>
        <time>2018-04-29T19:02:19Z</time>
      </trkpt>
      <trkpt lat="44.60024" lon="0.87295">
        <ele>165.6</ele>
        <time>2018-04-29T19:02:22Z</time>
      </trkpt>
      <trkpt lat="44.60022" lon="0.87295">
        <ele>165.6</ele>
        <time>2018-04-29T19:02:23Z</time>
      </trkpt>
      <trkpt lat="44.60016" lon="0.87296">
        <ele>165.6</ele>
        <time>2018-04-29T19:02:25Z</time>
      </trkpt>
      <trkpt lat="44.60009" lon="0.87296">
        <ele>166</ele>
        <time>2018-04-29T19:02:27Z</time>
      </trkpt>
      <trkpt lat="44.60005" lon="0.87295">
        <ele>166.6</ele>
        <time>2018-04-29T19:02:28Z</time>
      </trkpt>
      <trkpt lat="44.60002" lon="0.87294">
        <ele>167.4</ele>
        <time>2018-04-29T19:02:29Z</time>
      </trkpt>
      <trkpt lat="44.59999" lon="0.87293">
        <ele>167.8</ele>
        <time>2018-04-29T19:02:30Z</time>
      </trkpt>
      <trkpt lat="44.59992" lon="0.87289">
        <ele>168.2</ele>
        <time>2018-04-29T19:02:33Z</time>
      </trkpt>
      <trkpt lat="44.5999" lon="0.87287">
        <ele>168.8</ele>
        <time>2018-04-29T19:02:34Z</time>
      </trkpt>
      <trkpt lat="44.59989" lon="0.87287">
        <ele>169.2</ele>
        <time>2018-04-29T19:02:35Z</time>
      </trkpt>
      <trkpt lat="44.59986" lon="0.87286">
        <ele>169.6</ele>
        <time>2018-04-29T19:02:36Z</time>
      </trkpt>
      <trkpt lat="44.59985" lon="0.87285">
        <ele>170</ele>
        <time>2018-04-29T19:02:37Z</time>
      </trkpt>
      <trkpt lat="44.59984" lon="0.87283">
        <ele>170</ele>
        <time>2018-04-29T19:02:38Z</time>
      </trkpt>
      <trkpt lat="44.59982" lon="0.87279">
        <ele>170.6</ele>
        <time>2018-04-29T19:02:40Z</time>
      </trkpt>
      <trkpt lat="44.59981" lon="0.87276">
        <ele>171</ele>
        <time>2018-04-29T19:02:41Z</time>
      </trkpt>
      <trkpt lat="44.59979" lon="0.87273">
        <ele>171.4</ele>
        <time>2018-04-29T19:02:42Z</time>
      </trkpt>
      <trkpt lat="44.59978" lon="0.8727">
        <ele>171.8</ele>
        <time>2018-04-29T19:02:43Z</time>
      </trkpt>
      <trkpt lat="44.59977" lon="0.87268">
        <ele>172.2</ele>
        <time>2018-04-29T19:02:44Z</time>
      </trkpt>
      <trkpt lat="44.59969" lon="0.87256">
        <ele>172.6</ele>
        <time>2018-04-29T19:02:48Z</time>
      </trkpt>
      <trkpt lat="44.59968" lon="0.87253">
        <ele>173</ele>
        <time>2018-04-29T19:02:49Z</time>
      </trkpt>
      <trkpt lat="44.59965" lon="0.8725">
        <ele>173.4</ele>
        <time>2018-04-29T19:02:50Z</time>
      </trkpt>
      <trkpt lat="44.59964" lon="0.87246">
        <ele>173.8</ele>
        <time>2018-04-29T19:02:51Z</time>
      </trkpt>
      <trkpt lat="44.59962" lon="0.87243">
        <ele>174.2</ele>
        <time>2018-04-29T19:02:52Z</time>
      </trkpt>
      <trkpt lat="44.5995" lon="0.87228">
        <ele>174.2</ele>
        <time>2018-04-29T19:02:57Z</time>
      </trkpt>
      <trkpt lat="44.59932" lon="0.87213">
        <ele>174.2</ele>
        <time>2018-04-29T19:03:02Z</time>
      </trkpt>
      <trkpt lat="44.59912" lon="0.87201">
        <ele>174.2</ele>
        <time>2018-04-29T19:03:07Z</time>
      </trkpt>
      <trkpt lat="44.59902" lon="0.87198">
        <ele>174.2</ele>
        <time>2018-04-29T19:03:09Z</time>
      </trkpt>
      <trkpt lat="44.59887" lon="0.87198">
        <ele>174.2</ele>
        <time>2018-04-29T19:03:12Z</time>
      </trkpt>
      <trkpt lat="44.59871" lon="0.87207">
        <ele>174.2</ele>
        <time>2018-04-29T19:03:16Z</time>
      </trkpt>
      <trkpt lat="44.5986" lon="0.87224">
        <ele>174.2</ele>
        <time>2018-04-29T19:03:21Z</time>
      </trkpt>
      <trkpt lat="44.59853" lon="0.87233">
        <ele>174.6</ele>
        <time>2018-04-29T19:03:24Z</time>
      </trkpt>
      <trkpt lat="44.59851" lon="0.87237">
        <ele>175</ele>
        <time>2018-04-29T19:03:25Z</time>
      </trkpt>
      <trkpt lat="44.59849" lon="0.87242">
        <ele>175.4</ele>
        <time>2018-04-29T19:03:26Z</time>
      </trkpt>
      <trkpt lat="44.59846" lon="0.87247">
        <ele>175.8</ele>
        <time>2018-04-29T19:03:27Z</time>
      </trkpt>
      <trkpt lat="44.59843" lon="0.87252">
        <ele>176.2</ele>
        <time>2018-04-29T19:03:28Z</time>
      </trkpt>
      <trkpt lat="44.59836" lon="0.87264">
        <ele>176.2</ele>
        <time>2018-04-29T19:03:30Z</time>
      </trkpt>
      <trkpt lat="44.59818" lon="0.87296">
        <ele>176.2</ele>
        <time>2018-04-29T19:03:36Z</time>
      </trkpt>
      <trkpt lat="44.59815" lon="0.873">
        <ele>176.2</ele>
        <time>2018-04-29T19:03:37Z</time>
      </trkpt>
      <trkpt lat="44.59803" lon="0.87319">
        <ele>176.2</ele>
        <time>2018-04-29T19:03:42Z</time>
      </trkpt>
      <trkpt lat="44.59783" lon="0.87336">
        <ele>176.2</ele>
        <time>2018-04-29T19:03:48Z</time>
      </trkpt>
      <trkpt lat="44.59776" lon="0.8734">
        <ele>176.8</ele>
        <time>2018-04-29T19:03:50Z</time>
      </trkpt>
      <trkpt lat="44.59773" lon="0.87342">
        <ele>177.2</ele>
        <time>2018-04-29T19:03:51Z</time>
      </trkpt>
      <trkpt lat="44.5977" lon="0.87344">
        <ele>177.6</ele>
        <time>2018-04-29T19:03:52Z</time>
      </trkpt>
      <trkpt lat="44.59766" lon="0.87347">
        <ele>178.2</ele>
        <time>2018-04-29T19:03:53Z</time>
      </trkpt>
      <trkpt lat="44.59763" lon="0.87349">
        <ele>178.6</ele>
        <time>2018-04-29T19:03:54Z</time>
      </trkpt>
      <trkpt lat="44.59759" lon="0.87351">
        <ele>178.6</ele>
        <time>2018-04-29T19:03:55Z</time>
      </trkpt>
      <trkpt lat="44.59756" lon="0.87353">
        <ele>179</ele>
        <time>2018-04-29T19:03:56Z</time>
      </trkpt>
      <trkpt lat="44.59752" lon="0.87356">
        <ele>179.4</ele>
        <time>2018-04-29T19:03:57Z</time>
      </trkpt>
      <trkpt lat="44.59749" lon="0.8736">
        <ele>179.8</ele>
        <time>2018-04-29T19:03:58Z</time>
      </trkpt>
      <trkpt lat="44.59746" lon="0.87363">
        <ele>180.2</ele>
        <time>2018-04-29T19:03:59Z</time>
      </trkpt>
      <trkpt lat="44.59743" lon="0.87366">
        <ele>180.6</ele>
        <time>2018-04-29T19:04:00Z</time>
      </trkpt>
      <trkpt lat="44.59739" lon="0.8737">
        <ele>181.2</ele>
        <time>2018-04-29T19:04:01Z</time>
      </trkpt>
      <trkpt lat="44.59736" lon="0.87372">
        <ele>181.6</ele>
        <time>2018-04-29T19:04:02Z</time>
      </trkpt>
      <trkpt lat="44.59733" lon="0.87375">
        <ele>182</ele>
        <time>2018-04-29T19:04:03Z</time>
      </trkpt>
      <trkpt lat="44.59729" lon="0.87377">
        <ele>182.4</ele>
        <time>2018-04-29T19:04:04Z</time>
      </trkpt>
      <trkpt lat="44.59725" lon="0.87378">
        <ele>183</ele>
        <time>2018-04-29T19:04:05Z</time>
      </trkpt>
      <trkpt lat="44.59723" lon="0.87378">
        <ele>183.4</ele>
        <time>2018-04-29T19:04:06Z</time>
      </trkpt>
      <trkpt lat="44.5972" lon="0.87379">
        <ele>184</ele>
        <time>2018-04-29T19:04:07Z</time>
      </trkpt>
      <trkpt lat="44.59718" lon="0.87378">
        <ele>185</ele>
        <time>2018-04-29T19:04:08Z</time>
      </trkpt>
      <trkpt lat="44.59717" lon="0.87378">
        <ele>185.6</ele>
        <time>2018-04-29T19:04:09Z</time>
      </trkpt>
      <trkpt lat="44.59716" lon="0.87378">
        <ele>186</ele>
        <time>2018-04-29T19:04:10Z</time>
      </trkpt>
      <trkpt lat="44.59715" lon="0.87379">
        <ele>186.6</ele>
        <time>2018-04-29T19:04:11Z</time>
      </trkpt>
      <trkpt lat="44.59714" lon="0.87379">
        <ele>187</ele>
        <time>2018-04-29T19:04:12Z</time>
      </trkpt>
      <trkpt lat="44.59712" lon="0.87383">
        <ele>187</ele>
        <time>2018-04-29T19:04:15Z</time>
      </trkpt>
    </trkseg>
  </trk>
</gpx>